<?xml version="1.0" encoding="UTF-8" standalone="no" ?>
<gpx xmlns="http://www.topografix.com/GPX/1/1" xmlns:xsi="http://www.w3.org/2001/XMLSchema-instance" xsi:schemaLocation="http://www.topografix.com/GPX/1/1 http://www.topografix.com/GPX/1/1/gpx.xsd" version="1.1" creator="VisuGPX - https://www.visugpx.com">
  <metadata>
    <name>Traversée du Mont Pécloz</name>
    <desc><![CDATA[Au départ du Nant du Plan du Bout, montée au Mont Pécloz, puis traversée des arêtes par le Mont d\'Arménaz, la pointe de Chamosseran, puis la pointe de la Fougère]]></desc>
  </metadata>
  <trk>
    <name><![CDATA[20110612 Pecloz]]></name>
    <trkseg>
      <trkpt lat="45.64503" lon="6.22928">
        <ele>993</ele>
        <time>2011-06-12T09:34:28Z</time>
      </trkpt>
      <trkpt lat="45.64503" lon="6.22925">
        <ele>992</ele>
        <time>2011-06-12T09:34:33Z</time>
      </trkpt>
      <trkpt lat="45.64502" lon="6.22918">
        <ele>988</ele>
        <time>2011-06-12T09:34:38Z</time>
      </trkpt>
      <trkpt lat="45.64502" lon="6.22912">
        <ele>989</ele>
        <time>2011-06-12T09:34:43Z</time>
      </trkpt>
      <trkpt lat="45.64501" lon="6.22907">
        <ele>990</ele>
        <time>2011-06-12T09:34:48Z</time>
      </trkpt>
      <trkpt lat="45.64498" lon="6.22906">
        <ele>994</ele>
        <time>2011-06-12T09:34:53Z</time>
      </trkpt>
      <trkpt lat="45.64494" lon="6.22904">
        <ele>997</ele>
        <time>2011-06-12T09:34:58Z</time>
      </trkpt>
      <trkpt lat="45.6449" lon="6.22898">
        <ele>999</ele>
        <time>2011-06-12T09:35:03Z</time>
      </trkpt>
      <trkpt lat="45.64488" lon="6.22892">
        <ele>1001</ele>
        <time>2011-06-12T09:35:08Z</time>
      </trkpt>
      <trkpt lat="45.64488" lon="6.22889">
        <ele>1001</ele>
        <time>2011-06-12T09:35:13Z</time>
      </trkpt>
      <trkpt lat="45.64488" lon="6.22888">
        <ele>1002</ele>
        <time>2011-06-12T09:35:18Z</time>
      </trkpt>
      <trkpt lat="45.64486" lon="6.22887">
        <ele>1002</ele>
        <time>2011-06-12T09:35:23Z</time>
      </trkpt>
      <trkpt lat="45.64486" lon="6.22887">
        <ele>1002</ele>
        <time>2011-06-12T09:35:28Z</time>
      </trkpt>
      <trkpt lat="45.64485" lon="6.22885">
        <ele>1003</ele>
        <time>2011-06-12T09:35:33Z</time>
      </trkpt>
      <trkpt lat="45.64488" lon="6.2288">
        <ele>1002</ele>
        <time>2011-06-12T09:35:38Z</time>
      </trkpt>
      <trkpt lat="45.64488" lon="6.22875">
        <ele>1002</ele>
        <time>2011-06-12T09:35:43Z</time>
      </trkpt>
      <trkpt lat="45.64488" lon="6.22869">
        <ele>1002</ele>
        <time>2011-06-12T09:35:48Z</time>
      </trkpt>
      <trkpt lat="45.64488" lon="6.22866">
        <ele>1002</ele>
        <time>2011-06-12T09:35:53Z</time>
      </trkpt>
      <trkpt lat="45.64489" lon="6.22861">
        <ele>1001</ele>
        <time>2011-06-12T09:35:58Z</time>
      </trkpt>
      <trkpt lat="45.64489" lon="6.22858">
        <ele>1000</ele>
        <time>2011-06-12T09:36:03Z</time>
      </trkpt>
      <trkpt lat="45.64489" lon="6.22856">
        <ele>1000</ele>
        <time>2011-06-12T09:36:08Z</time>
      </trkpt>
      <trkpt lat="45.64488" lon="6.22851">
        <ele>999</ele>
        <time>2011-06-12T09:36:13Z</time>
      </trkpt>
      <trkpt lat="45.64486" lon="6.22847">
        <ele>998</ele>
        <time>2011-06-12T09:36:18Z</time>
      </trkpt>
      <trkpt lat="45.64489" lon="6.22839">
        <ele>995</ele>
        <time>2011-06-12T09:36:23Z</time>
      </trkpt>
      <trkpt lat="45.64489" lon="6.22831">
        <ele>993</ele>
        <time>2011-06-12T09:36:28Z</time>
      </trkpt>
      <trkpt lat="45.64489" lon="6.22823">
        <ele>995</ele>
        <time>2011-06-12T09:36:33Z</time>
      </trkpt>
      <trkpt lat="45.64488" lon="6.22817">
        <ele>996</ele>
        <time>2011-06-12T09:36:38Z</time>
      </trkpt>
      <trkpt lat="45.64484" lon="6.22812">
        <ele>998</ele>
        <time>2011-06-12T09:36:43Z</time>
      </trkpt>
      <trkpt lat="45.64478" lon="6.22805">
        <ele>1000</ele>
        <time>2011-06-12T09:36:48Z</time>
      </trkpt>
      <trkpt lat="45.64478" lon="6.22798">
        <ele>1001</ele>
        <time>2011-06-12T09:36:53Z</time>
      </trkpt>
      <trkpt lat="45.64471" lon="6.22793">
        <ele>1002</ele>
        <time>2011-06-12T09:36:58Z</time>
      </trkpt>
      <trkpt lat="45.64471" lon="6.22786">
        <ele>1002</ele>
        <time>2011-06-12T09:37:03Z</time>
      </trkpt>
      <trkpt lat="45.64472" lon="6.2278">
        <ele>1002</ele>
        <time>2011-06-12T09:37:08Z</time>
      </trkpt>
      <trkpt lat="45.64468" lon="6.22776">
        <ele>1003</ele>
        <time>2011-06-12T09:37:13Z</time>
      </trkpt>
      <trkpt lat="45.64464" lon="6.22771">
        <ele>1003</ele>
        <time>2011-06-12T09:37:18Z</time>
      </trkpt>
      <trkpt lat="45.6446" lon="6.22766">
        <ele>1004</ele>
        <time>2011-06-12T09:37:23Z</time>
      </trkpt>
      <trkpt lat="45.64456" lon="6.22761">
        <ele>1006</ele>
        <time>2011-06-12T09:37:28Z</time>
      </trkpt>
      <trkpt lat="45.64452" lon="6.22756">
        <ele>1007</ele>
        <time>2011-06-12T09:37:33Z</time>
      </trkpt>
      <trkpt lat="45.6445" lon="6.22753">
        <ele>1008</ele>
        <time>2011-06-12T09:37:38Z</time>
      </trkpt>
      <trkpt lat="45.6445" lon="6.2275">
        <ele>1007</ele>
        <time>2011-06-12T09:37:43Z</time>
      </trkpt>
      <trkpt lat="45.64448" lon="6.22746">
        <ele>1009</ele>
        <time>2011-06-12T09:37:48Z</time>
      </trkpt>
      <trkpt lat="45.64444" lon="6.22743">
        <ele>1010</ele>
        <time>2011-06-12T09:37:53Z</time>
      </trkpt>
      <trkpt lat="45.64442" lon="6.2274">
        <ele>1011</ele>
        <time>2011-06-12T09:37:58Z</time>
      </trkpt>
      <trkpt lat="45.64445" lon="6.22738">
        <ele>1010</ele>
        <time>2011-06-12T09:38:03Z</time>
      </trkpt>
      <trkpt lat="45.64444" lon="6.22737">
        <ele>1010</ele>
        <time>2011-06-12T09:38:08Z</time>
      </trkpt>
      <trkpt lat="45.64441" lon="6.22732">
        <ele>1011</ele>
        <time>2011-06-12T09:38:13Z</time>
      </trkpt>
      <trkpt lat="45.64436" lon="6.22728">
        <ele>1012</ele>
        <time>2011-06-12T09:38:18Z</time>
      </trkpt>
      <trkpt lat="45.64433" lon="6.22725">
        <ele>1012</ele>
        <time>2011-06-12T09:38:23Z</time>
      </trkpt>
      <trkpt lat="45.64433" lon="6.22725">
        <ele>1012</ele>
        <time>2011-06-12T09:38:28Z</time>
      </trkpt>
      <trkpt lat="45.64433" lon="6.22726">
        <ele>1012</ele>
        <time>2011-06-12T09:38:33Z</time>
      </trkpt>
      <trkpt lat="45.6443" lon="6.22723">
        <ele>1013</ele>
        <time>2011-06-12T09:38:38Z</time>
      </trkpt>
      <trkpt lat="45.6443" lon="6.22722">
        <ele>1013</ele>
        <time>2011-06-12T09:38:43Z</time>
      </trkpt>
      <trkpt lat="45.6443" lon="6.22721">
        <ele>1013</ele>
        <time>2011-06-12T09:38:48Z</time>
      </trkpt>
      <trkpt lat="45.64427" lon="6.22719">
        <ele>1013</ele>
        <time>2011-06-12T09:38:53Z</time>
      </trkpt>
      <trkpt lat="45.64429" lon="6.22718">
        <ele>1013</ele>
        <time>2011-06-12T09:38:58Z</time>
      </trkpt>
      <trkpt lat="45.64433" lon="6.22719">
        <ele>1012</ele>
        <time>2011-06-12T09:39:03Z</time>
      </trkpt>
      <trkpt lat="45.64436" lon="6.22721">
        <ele>1011</ele>
        <time>2011-06-12T09:39:08Z</time>
      </trkpt>
      <trkpt lat="45.64431" lon="6.2272">
        <ele>1012</ele>
        <time>2011-06-12T09:39:13Z</time>
      </trkpt>
      <trkpt lat="45.64428" lon="6.22721">
        <ele>1013</ele>
        <time>2011-06-12T09:39:18Z</time>
      </trkpt>
      <trkpt lat="45.64427" lon="6.22723">
        <ele>1013</ele>
        <time>2011-06-12T09:39:23Z</time>
      </trkpt>
      <trkpt lat="45.64422" lon="6.22722">
        <ele>1014</ele>
        <time>2011-06-12T09:39:28Z</time>
      </trkpt>
      <trkpt lat="45.64417" lon="6.22723">
        <ele>1014</ele>
        <time>2011-06-12T09:39:33Z</time>
      </trkpt>
      <trkpt lat="45.64417" lon="6.22727">
        <ele>1015</ele>
        <time>2011-06-12T09:39:38Z</time>
      </trkpt>
      <trkpt lat="45.64415" lon="6.22728">
        <ele>1039</ele>
        <time>2011-06-12T09:39:43Z</time>
      </trkpt>
      <trkpt lat="45.64418" lon="6.2273">
        <ele>1015</ele>
        <time>2011-06-12T09:39:48Z</time>
      </trkpt>
      <trkpt lat="45.64417" lon="6.22729">
        <ele>1015</ele>
        <time>2011-06-12T09:39:53Z</time>
      </trkpt>
      <trkpt lat="45.6442" lon="6.22731">
        <ele>1015</ele>
        <time>2011-06-12T09:39:58Z</time>
      </trkpt>
      <trkpt lat="45.64418" lon="6.22732">
        <ele>1015</ele>
        <time>2011-06-12T09:40:03Z</time>
      </trkpt>
      <trkpt lat="45.64417" lon="6.22736">
        <ele>1016</ele>
        <time>2011-06-12T09:40:08Z</time>
      </trkpt>
      <trkpt lat="45.64417" lon="6.22738">
        <ele>1017</ele>
        <time>2011-06-12T09:40:13Z</time>
      </trkpt>
      <trkpt lat="45.6442" lon="6.22738">
        <ele>1017</ele>
        <time>2011-06-12T09:40:18Z</time>
      </trkpt>
      <trkpt lat="45.64423" lon="6.22746">
        <ele>1018</ele>
        <time>2011-06-12T09:40:23Z</time>
      </trkpt>
      <trkpt lat="45.64429" lon="6.22755">
        <ele>1015</ele>
        <time>2011-06-12T09:40:28Z</time>
      </trkpt>
      <trkpt lat="45.64431" lon="6.22761">
        <ele>1013</ele>
        <time>2011-06-12T09:40:33Z</time>
      </trkpt>
      <trkpt lat="45.64434" lon="6.22769">
        <ele>1012</ele>
        <time>2011-06-12T09:40:38Z</time>
      </trkpt>
      <trkpt lat="45.64434" lon="6.22778">
        <ele>1011</ele>
        <time>2011-06-12T09:40:43Z</time>
      </trkpt>
      <trkpt lat="45.64433" lon="6.22777">
        <ele>1011</ele>
        <time>2011-06-12T09:40:48Z</time>
      </trkpt>
      <trkpt lat="45.6443" lon="6.22782">
        <ele>1012</ele>
        <time>2011-06-12T09:40:53Z</time>
      </trkpt>
      <trkpt lat="45.64429" lon="6.22784">
        <ele>1012</ele>
        <time>2011-06-12T09:40:58Z</time>
      </trkpt>
      <trkpt lat="45.64431" lon="6.22789">
        <ele>1012</ele>
        <time>2011-06-12T09:41:03Z</time>
      </trkpt>
      <trkpt lat="45.64431" lon="6.22791">
        <ele>1012</ele>
        <time>2011-06-12T09:41:08Z</time>
      </trkpt>
      <trkpt lat="45.6443" lon="6.22797">
        <ele>1012</ele>
        <time>2011-06-12T09:41:13Z</time>
      </trkpt>
      <trkpt lat="45.64424" lon="6.22806">
        <ele>1015</ele>
        <time>2011-06-12T09:41:18Z</time>
      </trkpt>
      <trkpt lat="45.64423" lon="6.2281">
        <ele>1016</ele>
        <time>2011-06-12T09:41:23Z</time>
      </trkpt>
      <trkpt lat="45.6442" lon="6.22813">
        <ele>1017</ele>
        <time>2011-06-12T09:41:28Z</time>
      </trkpt>
      <trkpt lat="45.64417" lon="6.22816">
        <ele>1019</ele>
        <time>2011-06-12T09:41:33Z</time>
      </trkpt>
      <trkpt lat="45.64416" lon="6.22819">
        <ele>1040</ele>
        <time>2011-06-12T09:41:38Z</time>
      </trkpt>
      <trkpt lat="45.64414" lon="6.22823">
        <ele>1039</ele>
        <time>2011-06-12T09:41:43Z</time>
      </trkpt>
      <trkpt lat="45.64412" lon="6.22826">
        <ele>1038</ele>
        <time>2011-06-12T09:41:48Z</time>
      </trkpt>
      <trkpt lat="45.64413" lon="6.22832">
        <ele>1035</ele>
        <time>2011-06-12T09:41:53Z</time>
      </trkpt>
      <trkpt lat="45.64414" lon="6.22835">
        <ele>1035</ele>
        <time>2011-06-12T09:41:58Z</time>
      </trkpt>
      <trkpt lat="45.64413" lon="6.22844">
        <ele>1041</ele>
        <time>2011-06-12T09:42:03Z</time>
      </trkpt>
      <trkpt lat="45.64412" lon="6.22848">
        <ele>1044</ele>
        <time>2011-06-12T09:42:08Z</time>
      </trkpt>
      <trkpt lat="45.64411" lon="6.22853">
        <ele>1046</ele>
        <time>2011-06-12T09:42:13Z</time>
      </trkpt>
      <trkpt lat="45.64409" lon="6.22862">
        <ele>1049</ele>
        <time>2011-06-12T09:42:18Z</time>
      </trkpt>
      <trkpt lat="45.64406" lon="6.22867">
        <ele>1050</ele>
        <time>2011-06-12T09:42:23Z</time>
      </trkpt>
      <trkpt lat="45.64405" lon="6.22871">
        <ele>1051</ele>
        <time>2011-06-12T09:42:28Z</time>
      </trkpt>
      <trkpt lat="45.64404" lon="6.22875">
        <ele>1051</ele>
        <time>2011-06-12T09:42:33Z</time>
      </trkpt>
      <trkpt lat="45.64403" lon="6.22877">
        <ele>1052</ele>
        <time>2011-06-12T09:42:38Z</time>
      </trkpt>
      <trkpt lat="45.644" lon="6.22881">
        <ele>1052</ele>
        <time>2011-06-12T09:42:43Z</time>
      </trkpt>
      <trkpt lat="45.64406" lon="6.22885">
        <ele>1051</ele>
        <time>2011-06-12T09:42:48Z</time>
      </trkpt>
      <trkpt lat="45.64413" lon="6.22889">
        <ele>1049</ele>
        <time>2011-06-12T09:42:53Z</time>
      </trkpt>
      <trkpt lat="45.64412" lon="6.22889">
        <ele>1049</ele>
        <time>2011-06-12T09:42:58Z</time>
      </trkpt>
      <trkpt lat="45.64411" lon="6.22888">
        <ele>1049</ele>
        <time>2011-06-12T09:43:03Z</time>
      </trkpt>
      <trkpt lat="45.64406" lon="6.22887">
        <ele>1050</ele>
        <time>2011-06-12T09:43:08Z</time>
      </trkpt>
      <trkpt lat="45.64406" lon="6.22883">
        <ele>1051</ele>
        <time>2011-06-12T09:43:13Z</time>
      </trkpt>
      <trkpt lat="45.64403" lon="6.22882">
        <ele>1052</ele>
        <time>2011-06-12T09:43:18Z</time>
      </trkpt>
      <trkpt lat="45.64403" lon="6.2288">
        <ele>1052</ele>
        <time>2011-06-12T09:43:23Z</time>
      </trkpt>
      <trkpt lat="45.64399" lon="6.22881">
        <ele>1052</ele>
        <time>2011-06-12T09:43:28Z</time>
      </trkpt>
      <trkpt lat="45.64396" lon="6.22878">
        <ele>1053</ele>
        <time>2011-06-12T09:43:33Z</time>
      </trkpt>
      <trkpt lat="45.64398" lon="6.22872">
        <ele>1053</ele>
        <time>2011-06-12T09:43:38Z</time>
      </trkpt>
      <trkpt lat="45.64395" lon="6.22867">
        <ele>1053</ele>
        <time>2011-06-12T09:43:43Z</time>
      </trkpt>
      <trkpt lat="45.64395" lon="6.22863">
        <ele>1053</ele>
        <time>2011-06-12T09:43:48Z</time>
      </trkpt>
      <trkpt lat="45.64393" lon="6.2286">
        <ele>1053</ele>
        <time>2011-06-12T09:43:53Z</time>
      </trkpt>
      <trkpt lat="45.64393" lon="6.22856">
        <ele>1052</ele>
        <time>2011-06-12T09:43:58Z</time>
      </trkpt>
      <trkpt lat="45.64391" lon="6.2285">
        <ele>1052</ele>
        <time>2011-06-12T09:44:03Z</time>
      </trkpt>
      <trkpt lat="45.64391" lon="6.22845">
        <ele>1052</ele>
        <time>2011-06-12T09:44:08Z</time>
      </trkpt>
      <trkpt lat="45.6439" lon="6.22841">
        <ele>1052</ele>
        <time>2011-06-12T09:44:13Z</time>
      </trkpt>
      <trkpt lat="45.64384" lon="6.22839">
        <ele>1055</ele>
        <time>2011-06-12T09:44:18Z</time>
      </trkpt>
      <trkpt lat="45.64381" lon="6.22836">
        <ele>1056</ele>
        <time>2011-06-12T09:44:23Z</time>
      </trkpt>
      <trkpt lat="45.64379" lon="6.22832">
        <ele>1054</ele>
        <time>2011-06-12T09:44:28Z</time>
      </trkpt>
      <trkpt lat="45.64377" lon="6.2283">
        <ele>1056</ele>
        <time>2011-06-12T09:44:33Z</time>
      </trkpt>
      <trkpt lat="45.64377" lon="6.22826">
        <ele>1055</ele>
        <time>2011-06-12T09:44:38Z</time>
      </trkpt>
      <trkpt lat="45.64378" lon="6.22823">
        <ele>1055</ele>
        <time>2011-06-12T09:44:43Z</time>
      </trkpt>
      <trkpt lat="45.64375" lon="6.22821">
        <ele>1056</ele>
        <time>2011-06-12T09:44:48Z</time>
      </trkpt>
      <trkpt lat="45.64371" lon="6.22818">
        <ele>1058</ele>
        <time>2011-06-12T09:44:53Z</time>
      </trkpt>
      <trkpt lat="45.64371" lon="6.22815">
        <ele>1058</ele>
        <time>2011-06-12T09:44:58Z</time>
      </trkpt>
      <trkpt lat="45.64371" lon="6.2281">
        <ele>1058</ele>
        <time>2011-06-12T09:45:03Z</time>
      </trkpt>
      <trkpt lat="45.64375" lon="6.22806">
        <ele>1056</ele>
        <time>2011-06-12T09:45:08Z</time>
      </trkpt>
      <trkpt lat="45.64372" lon="6.22804">
        <ele>1057</ele>
        <time>2011-06-12T09:45:13Z</time>
      </trkpt>
      <trkpt lat="45.64371" lon="6.22802">
        <ele>1057</ele>
        <time>2011-06-12T09:45:18Z</time>
      </trkpt>
      <trkpt lat="45.64371" lon="6.22802">
        <ele>1057</ele>
        <time>2011-06-12T09:45:23Z</time>
      </trkpt>
      <trkpt lat="45.64369" lon="6.228">
        <ele>1058</ele>
        <time>2011-06-12T09:45:28Z</time>
      </trkpt>
      <trkpt lat="45.64368" lon="6.22797">
        <ele>1058</ele>
        <time>2011-06-12T09:45:33Z</time>
      </trkpt>
      <trkpt lat="45.6437" lon="6.22793">
        <ele>1057</ele>
        <time>2011-06-12T09:45:38Z</time>
      </trkpt>
      <trkpt lat="45.64371" lon="6.22789">
        <ele>1056</ele>
        <time>2011-06-12T09:45:43Z</time>
      </trkpt>
      <trkpt lat="45.64371" lon="6.22785">
        <ele>1056</ele>
        <time>2011-06-12T09:45:48Z</time>
      </trkpt>
      <trkpt lat="45.64368" lon="6.22779">
        <ele>1058</ele>
        <time>2011-06-12T09:45:53Z</time>
      </trkpt>
      <trkpt lat="45.64365" lon="6.22776">
        <ele>1059</ele>
        <time>2011-06-12T09:45:58Z</time>
      </trkpt>
      <trkpt lat="45.64364" lon="6.22774">
        <ele>1059</ele>
        <time>2011-06-12T09:46:03Z</time>
      </trkpt>
      <trkpt lat="45.64365" lon="6.2277">
        <ele>1059</ele>
        <time>2011-06-12T09:46:08Z</time>
      </trkpt>
      <trkpt lat="45.64366" lon="6.22766">
        <ele>1059</ele>
        <time>2011-06-12T09:46:13Z</time>
      </trkpt>
      <trkpt lat="45.64366" lon="6.22761">
        <ele>1059</ele>
        <time>2011-06-12T09:46:18Z</time>
      </trkpt>
      <trkpt lat="45.64365" lon="6.22758">
        <ele>1060</ele>
        <time>2011-06-12T09:46:23Z</time>
      </trkpt>
      <trkpt lat="45.64359" lon="6.22757">
        <ele>1063</ele>
        <time>2011-06-12T09:46:28Z</time>
      </trkpt>
      <trkpt lat="45.6436" lon="6.22754">
        <ele>1062</ele>
        <time>2011-06-12T09:46:33Z</time>
      </trkpt>
      <trkpt lat="45.64358" lon="6.22753">
        <ele>1064</ele>
        <time>2011-06-12T09:46:38Z</time>
      </trkpt>
      <trkpt lat="45.64356" lon="6.22749">
        <ele>1064</ele>
        <time>2011-06-12T09:46:43Z</time>
      </trkpt>
      <trkpt lat="45.64356" lon="6.22745">
        <ele>1064</ele>
        <time>2011-06-12T09:46:48Z</time>
      </trkpt>
      <trkpt lat="45.64352" lon="6.22742">
        <ele>1066</ele>
        <time>2011-06-12T09:46:53Z</time>
      </trkpt>
      <trkpt lat="45.64351" lon="6.2274">
        <ele>1066</ele>
        <time>2011-06-12T09:46:58Z</time>
      </trkpt>
      <trkpt lat="45.64349" lon="6.22738">
        <ele>1067</ele>
        <time>2011-06-12T09:47:03Z</time>
      </trkpt>
      <trkpt lat="45.64345" lon="6.22736">
        <ele>1068</ele>
        <time>2011-06-12T09:47:08Z</time>
      </trkpt>
      <trkpt lat="45.64345" lon="6.22731">
        <ele>1067</ele>
        <time>2011-06-12T09:47:13Z</time>
      </trkpt>
      <trkpt lat="45.6434" lon="6.22727">
        <ele>1067</ele>
        <time>2011-06-12T09:47:18Z</time>
      </trkpt>
      <trkpt lat="45.64339" lon="6.22723">
        <ele>1066</ele>
        <time>2011-06-12T09:47:23Z</time>
      </trkpt>
      <trkpt lat="45.64341" lon="6.22719">
        <ele>1065</ele>
        <time>2011-06-12T09:47:28Z</time>
      </trkpt>
      <trkpt lat="45.64342" lon="6.22713">
        <ele>1064</ele>
        <time>2011-06-12T09:47:33Z</time>
      </trkpt>
      <trkpt lat="45.64343" lon="6.22708">
        <ele>1064</ele>
        <time>2011-06-12T09:47:38Z</time>
      </trkpt>
      <trkpt lat="45.64337" lon="6.22706">
        <ele>1065</ele>
        <time>2011-06-12T09:47:43Z</time>
      </trkpt>
      <trkpt lat="45.64334" lon="6.22703">
        <ele>1066</ele>
        <time>2011-06-12T09:47:48Z</time>
      </trkpt>
      <trkpt lat="45.64329" lon="6.227">
        <ele>1102</ele>
        <time>2011-06-12T09:47:53Z</time>
      </trkpt>
      <trkpt lat="45.64329" lon="6.22697">
        <ele>1102</ele>
        <time>2011-06-12T09:47:58Z</time>
      </trkpt>
      <trkpt lat="45.64333" lon="6.2269">
        <ele>1099</ele>
        <time>2011-06-12T09:48:03Z</time>
      </trkpt>
      <trkpt lat="45.64335" lon="6.22689">
        <ele>1068</ele>
        <time>2011-06-12T09:48:08Z</time>
      </trkpt>
      <trkpt lat="45.64336" lon="6.22684">
        <ele>1070</ele>
        <time>2011-06-12T09:48:13Z</time>
      </trkpt>
      <trkpt lat="45.64335" lon="6.22677">
        <ele>1074</ele>
        <time>2011-06-12T09:48:18Z</time>
      </trkpt>
      <trkpt lat="45.64332" lon="6.22673">
        <ele>1090</ele>
        <time>2011-06-12T09:48:23Z</time>
      </trkpt>
      <trkpt lat="45.64329" lon="6.22669">
        <ele>1089</ele>
        <time>2011-06-12T09:48:28Z</time>
      </trkpt>
      <trkpt lat="45.64327" lon="6.22665">
        <ele>1090</ele>
        <time>2011-06-12T09:48:33Z</time>
      </trkpt>
      <trkpt lat="45.6432" lon="6.22662">
        <ele>1095</ele>
        <time>2011-06-12T09:48:38Z</time>
      </trkpt>
      <trkpt lat="45.64317" lon="6.22658">
        <ele>1098</ele>
        <time>2011-06-12T09:48:43Z</time>
      </trkpt>
      <trkpt lat="45.64315" lon="6.22652">
        <ele>1100</ele>
        <time>2011-06-12T09:48:48Z</time>
      </trkpt>
      <trkpt lat="45.64314" lon="6.22649">
        <ele>1101</ele>
        <time>2011-06-12T09:48:53Z</time>
      </trkpt>
      <trkpt lat="45.64315" lon="6.22644">
        <ele>1101</ele>
        <time>2011-06-12T09:48:58Z</time>
      </trkpt>
      <trkpt lat="45.64313" lon="6.2264">
        <ele>1103</ele>
        <time>2011-06-12T09:49:03Z</time>
      </trkpt>
      <trkpt lat="45.64314" lon="6.22637">
        <ele>1102</ele>
        <time>2011-06-12T09:49:08Z</time>
      </trkpt>
      <trkpt lat="45.64312" lon="6.22632">
        <ele>1103</ele>
        <time>2011-06-12T09:49:13Z</time>
      </trkpt>
      <trkpt lat="45.64306" lon="6.22626">
        <ele>1105</ele>
        <time>2011-06-12T09:49:18Z</time>
      </trkpt>
      <trkpt lat="45.64304" lon="6.2262">
        <ele>1105</ele>
        <time>2011-06-12T09:49:23Z</time>
      </trkpt>
      <trkpt lat="45.64303" lon="6.22616">
        <ele>1106</ele>
        <time>2011-06-12T09:49:28Z</time>
      </trkpt>
      <trkpt lat="45.64303" lon="6.22614">
        <ele>1106</ele>
        <time>2011-06-12T09:49:33Z</time>
      </trkpt>
      <trkpt lat="45.64301" lon="6.22608">
        <ele>1106</ele>
        <time>2011-06-12T09:49:38Z</time>
      </trkpt>
      <trkpt lat="45.64299" lon="6.22602">
        <ele>1106</ele>
        <time>2011-06-12T09:49:43Z</time>
      </trkpt>
      <trkpt lat="45.64299" lon="6.22599">
        <ele>1106</ele>
        <time>2011-06-12T09:49:48Z</time>
      </trkpt>
      <trkpt lat="45.64296" lon="6.22597">
        <ele>1107</ele>
        <time>2011-06-12T09:49:53Z</time>
      </trkpt>
      <trkpt lat="45.64294" lon="6.22595">
        <ele>1108</ele>
        <time>2011-06-12T09:49:58Z</time>
      </trkpt>
      <trkpt lat="45.6429" lon="6.22594">
        <ele>1110</ele>
        <time>2011-06-12T09:50:03Z</time>
      </trkpt>
      <trkpt lat="45.64288" lon="6.22593">
        <ele>1111</ele>
        <time>2011-06-12T09:50:08Z</time>
      </trkpt>
      <trkpt lat="45.64277" lon="6.22594">
        <ele>1115</ele>
        <time>2011-06-12T09:51:18Z</time>
      </trkpt>
      <trkpt lat="45.64273" lon="6.22592">
        <ele>1117</ele>
        <time>2011-06-12T09:51:23Z</time>
      </trkpt>
      <trkpt lat="45.64272" lon="6.22589">
        <ele>1118</ele>
        <time>2011-06-12T09:51:28Z</time>
      </trkpt>
      <trkpt lat="45.64273" lon="6.22581">
        <ele>1114</ele>
        <time>2011-06-12T09:51:33Z</time>
      </trkpt>
      <trkpt lat="45.64269" lon="6.22581">
        <ele>1116</ele>
        <time>2011-06-12T09:51:38Z</time>
      </trkpt>
      <trkpt lat="45.64267" lon="6.2258">
        <ele>1117</ele>
        <time>2011-06-12T09:51:43Z</time>
      </trkpt>
      <trkpt lat="45.64266" lon="6.22579">
        <ele>1118</ele>
        <time>2011-06-12T09:51:48Z</time>
      </trkpt>
      <trkpt lat="45.64264" lon="6.22578">
        <ele>1119</ele>
        <time>2011-06-12T09:51:53Z</time>
      </trkpt>
      <trkpt lat="45.64264" lon="6.22577">
        <ele>1119</ele>
        <time>2011-06-12T09:51:58Z</time>
      </trkpt>
      <trkpt lat="45.64263" lon="6.22577">
        <ele>1119</ele>
        <time>2011-06-12T09:52:03Z</time>
      </trkpt>
      <trkpt lat="45.64265" lon="6.2258">
        <ele>1118</ele>
        <time>2011-06-12T09:52:08Z</time>
      </trkpt>
      <trkpt lat="45.64264" lon="6.22582">
        <ele>1120</ele>
        <time>2011-06-12T09:52:13Z</time>
      </trkpt>
      <trkpt lat="45.64264" lon="6.22585">
        <ele>1123</ele>
        <time>2011-06-12T09:52:18Z</time>
      </trkpt>
      <trkpt lat="45.64264" lon="6.22592">
        <ele>1122</ele>
        <time>2011-06-12T09:52:23Z</time>
      </trkpt>
      <trkpt lat="45.64265" lon="6.22599">
        <ele>1120</ele>
        <time>2011-06-12T09:52:28Z</time>
      </trkpt>
      <trkpt lat="45.64264" lon="6.22605">
        <ele>1119</ele>
        <time>2011-06-12T09:52:33Z</time>
      </trkpt>
      <trkpt lat="45.64261" lon="6.22609">
        <ele>1119</ele>
        <time>2011-06-12T09:52:38Z</time>
      </trkpt>
      <trkpt lat="45.64258" lon="6.22615">
        <ele>1119</ele>
        <time>2011-06-12T09:52:43Z</time>
      </trkpt>
      <trkpt lat="45.64254" lon="6.22619">
        <ele>1120</ele>
        <time>2011-06-12T09:52:48Z</time>
      </trkpt>
      <trkpt lat="45.6425" lon="6.22625">
        <ele>1121</ele>
        <time>2011-06-12T09:52:53Z</time>
      </trkpt>
      <trkpt lat="45.64253" lon="6.22629">
        <ele>1121</ele>
        <time>2011-06-12T09:52:58Z</time>
      </trkpt>
      <trkpt lat="45.64256" lon="6.22635">
        <ele>1121</ele>
        <time>2011-06-12T09:53:03Z</time>
      </trkpt>
      <trkpt lat="45.64261" lon="6.2264">
        <ele>1121</ele>
        <time>2011-06-12T09:53:08Z</time>
      </trkpt>
      <trkpt lat="45.64263" lon="6.22645">
        <ele>1122</ele>
        <time>2011-06-12T09:53:13Z</time>
      </trkpt>
      <trkpt lat="45.64262" lon="6.22651">
        <ele>1125</ele>
        <time>2011-06-12T09:53:18Z</time>
      </trkpt>
      <trkpt lat="45.64265" lon="6.22661">
        <ele>1127</ele>
        <time>2011-06-12T09:53:23Z</time>
      </trkpt>
      <trkpt lat="45.6426" lon="6.22665">
        <ele>1132</ele>
        <time>2011-06-12T09:53:28Z</time>
      </trkpt>
      <trkpt lat="45.6426" lon="6.2267">
        <ele>1133</ele>
        <time>2011-06-12T09:53:33Z</time>
      </trkpt>
      <trkpt lat="45.64262" lon="6.22672">
        <ele>1131</ele>
        <time>2011-06-12T09:53:38Z</time>
      </trkpt>
      <trkpt lat="45.64262" lon="6.22677">
        <ele>1129</ele>
        <time>2011-06-12T09:53:43Z</time>
      </trkpt>
      <trkpt lat="45.64261" lon="6.22682">
        <ele>1128</ele>
        <time>2011-06-12T09:53:48Z</time>
      </trkpt>
      <trkpt lat="45.64261" lon="6.22689">
        <ele>1126</ele>
        <time>2011-06-12T09:53:53Z</time>
      </trkpt>
      <trkpt lat="45.6426" lon="6.22692">
        <ele>1126</ele>
        <time>2011-06-12T09:53:58Z</time>
      </trkpt>
      <trkpt lat="45.64261" lon="6.22697">
        <ele>1125</ele>
        <time>2011-06-12T09:54:03Z</time>
      </trkpt>
      <trkpt lat="45.64264" lon="6.227">
        <ele>1124</ele>
        <time>2011-06-12T09:54:08Z</time>
      </trkpt>
      <trkpt lat="45.6426" lon="6.22706">
        <ele>1124</ele>
        <time>2011-06-12T09:54:13Z</time>
      </trkpt>
      <trkpt lat="45.64259" lon="6.22711">
        <ele>1124</ele>
        <time>2011-06-12T09:54:18Z</time>
      </trkpt>
      <trkpt lat="45.64261" lon="6.22715">
        <ele>1125</ele>
        <time>2011-06-12T09:54:23Z</time>
      </trkpt>
      <trkpt lat="45.64258" lon="6.22719">
        <ele>1126</ele>
        <time>2011-06-12T09:54:28Z</time>
      </trkpt>
      <trkpt lat="45.64256" lon="6.22723">
        <ele>1127</ele>
        <time>2011-06-12T09:54:33Z</time>
      </trkpt>
      <trkpt lat="45.64253" lon="6.22728">
        <ele>1129</ele>
        <time>2011-06-12T09:54:38Z</time>
      </trkpt>
      <trkpt lat="45.64248" lon="6.22729">
        <ele>1165</ele>
        <time>2011-06-12T09:54:43Z</time>
      </trkpt>
      <trkpt lat="45.64246" lon="6.22733">
        <ele>1164</ele>
        <time>2011-06-12T09:54:48Z</time>
      </trkpt>
      <trkpt lat="45.64244" lon="6.22735">
        <ele>1163</ele>
        <time>2011-06-12T09:54:53Z</time>
      </trkpt>
      <trkpt lat="45.64243" lon="6.22741">
        <ele>1160</ele>
        <time>2011-06-12T09:54:58Z</time>
      </trkpt>
      <trkpt lat="45.64242" lon="6.22747">
        <ele>1158</ele>
        <time>2011-06-12T09:55:03Z</time>
      </trkpt>
      <trkpt lat="45.64241" lon="6.22751">
        <ele>1161</ele>
        <time>2011-06-12T09:55:08Z</time>
      </trkpt>
      <trkpt lat="45.64238" lon="6.22756">
        <ele>1166</ele>
        <time>2011-06-12T09:55:13Z</time>
      </trkpt>
      <trkpt lat="45.6424" lon="6.22764">
        <ele>1169</ele>
        <time>2011-06-12T09:55:18Z</time>
      </trkpt>
      <trkpt lat="45.64241" lon="6.2277">
        <ele>1171</ele>
        <time>2011-06-12T09:55:23Z</time>
      </trkpt>
      <trkpt lat="45.64237" lon="6.22772">
        <ele>1174</ele>
        <time>2011-06-12T09:55:28Z</time>
      </trkpt>
      <trkpt lat="45.64236" lon="6.22777">
        <ele>1176</ele>
        <time>2011-06-12T09:55:33Z</time>
      </trkpt>
      <trkpt lat="45.64235" lon="6.22782">
        <ele>1178</ele>
        <time>2011-06-12T09:55:38Z</time>
      </trkpt>
      <trkpt lat="45.64234" lon="6.22785">
        <ele>1179</ele>
        <time>2011-06-12T09:55:43Z</time>
      </trkpt>
      <trkpt lat="45.64235" lon="6.22787">
        <ele>1179</ele>
        <time>2011-06-12T09:55:48Z</time>
      </trkpt>
      <trkpt lat="45.64237" lon="6.22789">
        <ele>1178</ele>
        <time>2011-06-12T09:55:53Z</time>
      </trkpt>
      <trkpt lat="45.64239" lon="6.22792">
        <ele>1178</ele>
        <time>2011-06-12T09:55:58Z</time>
      </trkpt>
      <trkpt lat="45.64244" lon="6.22796">
        <ele>1176</ele>
        <time>2011-06-12T09:56:03Z</time>
      </trkpt>
      <trkpt lat="45.64247" lon="6.22803">
        <ele>1175</ele>
        <time>2011-06-12T09:56:08Z</time>
      </trkpt>
      <trkpt lat="45.6425" lon="6.22805">
        <ele>1131</ele>
        <time>2011-06-12T09:56:13Z</time>
      </trkpt>
      <trkpt lat="45.64248" lon="6.22808">
        <ele>1173</ele>
        <time>2011-06-12T09:56:18Z</time>
      </trkpt>
      <trkpt lat="45.64248" lon="6.22807">
        <ele>1173</ele>
        <time>2011-06-12T09:56:23Z</time>
      </trkpt>
      <trkpt lat="45.64247" lon="6.22808">
        <ele>1173</ele>
        <time>2011-06-12T09:56:28Z</time>
      </trkpt>
      <trkpt lat="45.64241" lon="6.22808">
        <ele>1175</ele>
        <time>2011-06-12T09:56:33Z</time>
      </trkpt>
      <trkpt lat="45.64241" lon="6.22803">
        <ele>1176</ele>
        <time>2011-06-12T09:56:38Z</time>
      </trkpt>
      <trkpt lat="45.64241" lon="6.22797">
        <ele>1177</ele>
        <time>2011-06-12T09:56:43Z</time>
      </trkpt>
      <trkpt lat="45.64242" lon="6.22794">
        <ele>1177</ele>
        <time>2011-06-12T09:56:48Z</time>
      </trkpt>
      <trkpt lat="45.64238" lon="6.22793">
        <ele>1178</ele>
        <time>2011-06-12T09:56:53Z</time>
      </trkpt>
      <trkpt lat="45.64244" lon="6.22788">
        <ele>1176</ele>
        <time>2011-06-12T09:56:58Z</time>
      </trkpt>
      <trkpt lat="45.64242" lon="6.22784">
        <ele>1176</ele>
        <time>2011-06-12T09:57:03Z</time>
      </trkpt>
      <trkpt lat="45.64238" lon="6.22783">
        <ele>1177</ele>
        <time>2011-06-12T09:57:08Z</time>
      </trkpt>
      <trkpt lat="45.64237" lon="6.22778">
        <ele>1176</ele>
        <time>2011-06-12T09:57:13Z</time>
      </trkpt>
      <trkpt lat="45.64241" lon="6.22773">
        <ele>1173</ele>
        <time>2011-06-12T09:57:18Z</time>
      </trkpt>
      <trkpt lat="45.64241" lon="6.2277">
        <ele>1171</ele>
        <time>2011-06-12T09:57:23Z</time>
      </trkpt>
      <trkpt lat="45.64239" lon="6.22765">
        <ele>1170</ele>
        <time>2011-06-12T09:57:28Z</time>
      </trkpt>
      <trkpt lat="45.64243" lon="6.22761">
        <ele>1164</ele>
        <time>2011-06-12T09:57:33Z</time>
      </trkpt>
      <trkpt lat="45.64244" lon="6.22756">
        <ele>1160</ele>
        <time>2011-06-12T09:57:38Z</time>
      </trkpt>
      <trkpt lat="45.64247" lon="6.22752">
        <ele>1153</ele>
        <time>2011-06-12T09:57:43Z</time>
      </trkpt>
      <trkpt lat="45.64248" lon="6.22749">
        <ele>1150</ele>
        <time>2011-06-12T09:57:48Z</time>
      </trkpt>
      <trkpt lat="45.64243" lon="6.22746">
        <ele>1157</ele>
        <time>2011-06-12T09:57:53Z</time>
      </trkpt>
      <trkpt lat="45.64239" lon="6.22744">
        <ele>1162</ele>
        <time>2011-06-12T09:57:58Z</time>
      </trkpt>
      <trkpt lat="45.64232" lon="6.22743">
        <ele>1167</ele>
        <time>2011-06-12T09:58:03Z</time>
      </trkpt>
      <trkpt lat="45.64228" lon="6.22739">
        <ele>1171</ele>
        <time>2011-06-12T09:58:08Z</time>
      </trkpt>
      <trkpt lat="45.64224" lon="6.22734">
        <ele>1175</ele>
        <time>2011-06-12T09:58:13Z</time>
      </trkpt>
      <trkpt lat="45.64223" lon="6.2273">
        <ele>1176</ele>
        <time>2011-06-12T09:58:18Z</time>
      </trkpt>
      <trkpt lat="45.64225" lon="6.22721">
        <ele>1176</ele>
        <time>2011-06-12T09:58:23Z</time>
      </trkpt>
      <trkpt lat="45.64226" lon="6.22714">
        <ele>1175</ele>
        <time>2011-06-12T09:58:28Z</time>
      </trkpt>
      <trkpt lat="45.64227" lon="6.22708">
        <ele>1175</ele>
        <time>2011-06-12T09:58:33Z</time>
      </trkpt>
      <trkpt lat="45.64228" lon="6.22702">
        <ele>1174</ele>
        <time>2011-06-12T09:58:38Z</time>
      </trkpt>
      <trkpt lat="45.64229" lon="6.22697">
        <ele>1173</ele>
        <time>2011-06-12T09:58:43Z</time>
      </trkpt>
      <trkpt lat="45.64222" lon="6.22693">
        <ele>1175</ele>
        <time>2011-06-12T09:58:48Z</time>
      </trkpt>
      <trkpt lat="45.64216" lon="6.22689">
        <ele>1178</ele>
        <time>2011-06-12T09:58:53Z</time>
      </trkpt>
      <trkpt lat="45.64212" lon="6.22682">
        <ele>1179</ele>
        <time>2011-06-12T09:58:58Z</time>
      </trkpt>
      <trkpt lat="45.64212" lon="6.22677">
        <ele>1179</ele>
        <time>2011-06-12T09:59:03Z</time>
      </trkpt>
      <trkpt lat="45.64209" lon="6.22672">
        <ele>1180</ele>
        <time>2011-06-12T09:59:08Z</time>
      </trkpt>
      <trkpt lat="45.64206" lon="6.2267">
        <ele>1182</ele>
        <time>2011-06-12T09:59:13Z</time>
      </trkpt>
      <trkpt lat="45.64205" lon="6.22667">
        <ele>1183</ele>
        <time>2011-06-12T09:59:18Z</time>
      </trkpt>
      <trkpt lat="45.64199" lon="6.22665">
        <ele>1178</ele>
        <time>2011-06-12T09:59:23Z</time>
      </trkpt>
      <trkpt lat="45.64195" lon="6.22664">
        <ele>1180</ele>
        <time>2011-06-12T09:59:28Z</time>
      </trkpt>
      <trkpt lat="45.64194" lon="6.22659">
        <ele>1181</ele>
        <time>2011-06-12T09:59:33Z</time>
      </trkpt>
      <trkpt lat="45.64195" lon="6.22653">
        <ele>1179</ele>
        <time>2011-06-12T09:59:38Z</time>
      </trkpt>
      <trkpt lat="45.64198" lon="6.22647">
        <ele>1176</ele>
        <time>2011-06-12T09:59:43Z</time>
      </trkpt>
      <trkpt lat="45.64198" lon="6.22645">
        <ele>1176</ele>
        <time>2011-06-12T09:59:48Z</time>
      </trkpt>
      <trkpt lat="45.64197" lon="6.22642">
        <ele>1175</ele>
        <time>2011-06-12T09:59:53Z</time>
      </trkpt>
      <trkpt lat="45.64187" lon="6.22643">
        <ele>1180</ele>
        <time>2011-06-12T09:59:58Z</time>
      </trkpt>
      <trkpt lat="45.64182" lon="6.22641">
        <ele>1182</ele>
        <time>2011-06-12T10:00:03Z</time>
      </trkpt>
      <trkpt lat="45.64181" lon="6.22638">
        <ele>1181</ele>
        <time>2011-06-12T10:00:08Z</time>
      </trkpt>
      <trkpt lat="45.6418" lon="6.2263">
        <ele>1179</ele>
        <time>2011-06-12T10:00:13Z</time>
      </trkpt>
      <trkpt lat="45.64182" lon="6.22622">
        <ele>1176</ele>
        <time>2011-06-12T10:00:18Z</time>
      </trkpt>
      <trkpt lat="45.64178" lon="6.22618">
        <ele>1177</ele>
        <time>2011-06-12T10:00:23Z</time>
      </trkpt>
      <trkpt lat="45.64174" lon="6.22617">
        <ele>1177</ele>
        <time>2011-06-12T10:00:28Z</time>
      </trkpt>
      <trkpt lat="45.64168" lon="6.22615">
        <ele>1178</ele>
        <time>2011-06-12T10:00:33Z</time>
      </trkpt>
      <trkpt lat="45.64165" lon="6.22615">
        <ele>1213</ele>
        <time>2011-06-12T10:00:38Z</time>
      </trkpt>
      <trkpt lat="45.64161" lon="6.22617">
        <ele>1214</ele>
        <time>2011-06-12T10:00:43Z</time>
      </trkpt>
      <trkpt lat="45.6416" lon="6.22617">
        <ele>1215</ele>
        <time>2011-06-12T10:00:48Z</time>
      </trkpt>
      <trkpt lat="45.64159" lon="6.22619">
        <ele>1216</ele>
        <time>2011-06-12T10:00:53Z</time>
      </trkpt>
      <trkpt lat="45.64154" lon="6.2262">
        <ele>1217</ele>
        <time>2011-06-12T10:00:58Z</time>
      </trkpt>
      <trkpt lat="45.64156" lon="6.22624">
        <ele>1218</ele>
        <time>2011-06-12T10:01:03Z</time>
      </trkpt>
      <trkpt lat="45.64157" lon="6.22625">
        <ele>1218</ele>
        <time>2011-06-12T10:01:08Z</time>
      </trkpt>
      <trkpt lat="45.64161" lon="6.22628">
        <ele>1218</ele>
        <time>2011-06-12T10:01:13Z</time>
      </trkpt>
      <trkpt lat="45.64163" lon="6.22634">
        <ele>1218</ele>
        <time>2011-06-12T10:01:18Z</time>
      </trkpt>
      <trkpt lat="45.64162" lon="6.22638">
        <ele>1219</ele>
        <time>2011-06-12T10:01:23Z</time>
      </trkpt>
      <trkpt lat="45.64164" lon="6.22641">
        <ele>1219</ele>
        <time>2011-06-12T10:01:28Z</time>
      </trkpt>
      <trkpt lat="45.64164" lon="6.22646">
        <ele>1219</ele>
        <time>2011-06-12T10:01:33Z</time>
      </trkpt>
      <trkpt lat="45.64168" lon="6.22652">
        <ele>1193</ele>
        <time>2011-06-12T10:01:38Z</time>
      </trkpt>
      <trkpt lat="45.64174" lon="6.22658">
        <ele>1196</ele>
        <time>2011-06-12T10:01:43Z</time>
      </trkpt>
      <trkpt lat="45.64167" lon="6.22662">
        <ele>1205</ele>
        <time>2011-06-12T10:01:48Z</time>
      </trkpt>
      <trkpt lat="45.64164" lon="6.22664">
        <ele>1214</ele>
        <time>2011-06-12T10:01:53Z</time>
      </trkpt>
      <trkpt lat="45.64164" lon="6.22669">
        <ele>1218</ele>
        <time>2011-06-12T10:01:58Z</time>
      </trkpt>
      <trkpt lat="45.64161" lon="6.22672">
        <ele>1224</ele>
        <time>2011-06-12T10:02:03Z</time>
      </trkpt>
      <trkpt lat="45.64164" lon="6.22676">
        <ele>1226</ele>
        <time>2011-06-12T10:02:08Z</time>
      </trkpt>
      <trkpt lat="45.64165" lon="6.2268">
        <ele>1229</ele>
        <time>2011-06-12T10:02:13Z</time>
      </trkpt>
      <trkpt lat="45.64168" lon="6.22686">
        <ele>1199</ele>
        <time>2011-06-12T10:02:18Z</time>
      </trkpt>
      <trkpt lat="45.64174" lon="6.22689">
        <ele>1197</ele>
        <time>2011-06-12T10:02:23Z</time>
      </trkpt>
      <trkpt lat="45.64175" lon="6.22692">
        <ele>1196</ele>
        <time>2011-06-12T10:02:28Z</time>
      </trkpt>
      <trkpt lat="45.64171" lon="6.22691">
        <ele>1197</ele>
        <time>2011-06-12T10:02:33Z</time>
      </trkpt>
      <trkpt lat="45.64166" lon="6.22688">
        <ele>1235</ele>
        <time>2011-06-12T10:02:38Z</time>
      </trkpt>
      <trkpt lat="45.64162" lon="6.22683">
        <ele>1233</ele>
        <time>2011-06-12T10:02:43Z</time>
      </trkpt>
      <trkpt lat="45.64163" lon="6.22681">
        <ele>1231</ele>
        <time>2011-06-12T10:02:48Z</time>
      </trkpt>
      <trkpt lat="45.64159" lon="6.22679">
        <ele>1231</ele>
        <time>2011-06-12T10:02:53Z</time>
      </trkpt>
      <trkpt lat="45.64156" lon="6.22677">
        <ele>1231</ele>
        <time>2011-06-12T10:02:58Z</time>
      </trkpt>
      <trkpt lat="45.64159" lon="6.22674">
        <ele>1227</ele>
        <time>2011-06-12T10:03:03Z</time>
      </trkpt>
      <trkpt lat="45.64164" lon="6.22673">
        <ele>1223</ele>
        <time>2011-06-12T10:03:08Z</time>
      </trkpt>
      <trkpt lat="45.64163" lon="6.22674">
        <ele>1224</ele>
        <time>2011-06-12T10:03:13Z</time>
      </trkpt>
      <trkpt lat="45.64162" lon="6.22671">
        <ele>1222</ele>
        <time>2011-06-12T10:03:18Z</time>
      </trkpt>
      <trkpt lat="45.64161" lon="6.22667">
        <ele>1221</ele>
        <time>2011-06-12T10:03:23Z</time>
      </trkpt>
      <trkpt lat="45.64162" lon="6.22659">
        <ele>1217</ele>
        <time>2011-06-12T10:03:28Z</time>
      </trkpt>
      <trkpt lat="45.64156" lon="6.22654">
        <ele>1219</ele>
        <time>2011-06-12T10:03:33Z</time>
      </trkpt>
      <trkpt lat="45.64147" lon="6.22653">
        <ele>1223</ele>
        <time>2011-06-12T10:03:38Z</time>
      </trkpt>
      <trkpt lat="45.64143" lon="6.22652">
        <ele>1224</ele>
        <time>2011-06-12T10:03:43Z</time>
      </trkpt>
      <trkpt lat="45.6414" lon="6.22651">
        <ele>1225</ele>
        <time>2011-06-12T10:03:48Z</time>
      </trkpt>
      <trkpt lat="45.64142" lon="6.22648">
        <ele>1224</ele>
        <time>2011-06-12T10:03:53Z</time>
      </trkpt>
      <trkpt lat="45.64141" lon="6.22647">
        <ele>1225</ele>
        <time>2011-06-12T10:03:58Z</time>
      </trkpt>
      <trkpt lat="45.6414" lon="6.22641">
        <ele>1225</ele>
        <time>2011-06-12T10:04:03Z</time>
      </trkpt>
      <trkpt lat="45.64138" lon="6.22633">
        <ele>1224</ele>
        <time>2011-06-12T10:04:08Z</time>
      </trkpt>
      <trkpt lat="45.64138" lon="6.22627">
        <ele>1223</ele>
        <time>2011-06-12T10:04:13Z</time>
      </trkpt>
      <trkpt lat="45.6413" lon="6.22624">
        <ele>1225</ele>
        <time>2011-06-12T10:04:18Z</time>
      </trkpt>
      <trkpt lat="45.64125" lon="6.2262">
        <ele>1226</ele>
        <time>2011-06-12T10:04:23Z</time>
      </trkpt>
      <trkpt lat="45.64124" lon="6.22619">
        <ele>1227</ele>
        <time>2011-06-12T10:04:28Z</time>
      </trkpt>
      <trkpt lat="45.64125" lon="6.22621">
        <ele>1226</ele>
        <time>2011-06-12T10:04:33Z</time>
      </trkpt>
      <trkpt lat="45.64127" lon="6.22623">
        <ele>1226</ele>
        <time>2011-06-12T10:04:38Z</time>
      </trkpt>
      <trkpt lat="45.64128" lon="6.22623">
        <ele>1226</ele>
        <time>2011-06-12T10:04:43Z</time>
      </trkpt>
      <trkpt lat="45.64127" lon="6.22621">
        <ele>1226</ele>
        <time>2011-06-12T10:04:48Z</time>
      </trkpt>
      <trkpt lat="45.64131" lon="6.22616">
        <ele>1223</ele>
        <time>2011-06-12T10:04:53Z</time>
      </trkpt>
      <trkpt lat="45.6413" lon="6.22616">
        <ele>1224</ele>
        <time>2011-06-12T10:04:58Z</time>
      </trkpt>
      <trkpt lat="45.6413" lon="6.22615">
        <ele>1224</ele>
        <time>2011-06-12T10:05:03Z</time>
      </trkpt>
      <trkpt lat="45.64127" lon="6.22613">
        <ele>1224</ele>
        <time>2011-06-12T10:05:08Z</time>
      </trkpt>
      <trkpt lat="45.64129" lon="6.22611">
        <ele>1223</ele>
        <time>2011-06-12T10:05:13Z</time>
      </trkpt>
      <trkpt lat="45.64127" lon="6.22609">
        <ele>1223</ele>
        <time>2011-06-12T10:05:18Z</time>
      </trkpt>
      <trkpt lat="45.64123" lon="6.22605">
        <ele>1224</ele>
        <time>2011-06-12T10:05:23Z</time>
      </trkpt>
      <trkpt lat="45.64118" lon="6.22601">
        <ele>1225</ele>
        <time>2011-06-12T10:05:28Z</time>
      </trkpt>
      <trkpt lat="45.64114" lon="6.22595">
        <ele>1226</ele>
        <time>2011-06-12T10:05:33Z</time>
      </trkpt>
      <trkpt lat="45.6411" lon="6.22594">
        <ele>1228</ele>
        <time>2011-06-12T10:05:38Z</time>
      </trkpt>
      <trkpt lat="45.64108" lon="6.2259">
        <ele>1228</ele>
        <time>2011-06-12T10:05:43Z</time>
      </trkpt>
      <trkpt lat="45.64106" lon="6.22588">
        <ele>1228</ele>
        <time>2011-06-12T10:05:48Z</time>
      </trkpt>
      <trkpt lat="45.64103" lon="6.22586">
        <ele>1229</ele>
        <time>2011-06-12T10:05:53Z</time>
      </trkpt>
      <trkpt lat="45.64098" lon="6.22585">
        <ele>1231</ele>
        <time>2011-06-12T10:05:58Z</time>
      </trkpt>
      <trkpt lat="45.64093" lon="6.22582">
        <ele>1223</ele>
        <time>2011-06-12T10:06:03Z</time>
      </trkpt>
      <trkpt lat="45.64092" lon="6.22579">
        <ele>1223</ele>
        <time>2011-06-12T10:06:08Z</time>
      </trkpt>
      <trkpt lat="45.64086" lon="6.22575">
        <ele>1224</ele>
        <time>2011-06-12T10:06:13Z</time>
      </trkpt>
      <trkpt lat="45.64084" lon="6.22571">
        <ele>1221</ele>
        <time>2011-06-12T10:06:18Z</time>
      </trkpt>
      <trkpt lat="45.64077" lon="6.22568">
        <ele>1244</ele>
        <time>2011-06-12T10:06:23Z</time>
      </trkpt>
      <trkpt lat="45.64072" lon="6.22564">
        <ele>1246</ele>
        <time>2011-06-12T10:06:28Z</time>
      </trkpt>
      <trkpt lat="45.64069" lon="6.2256">
        <ele>1247</ele>
        <time>2011-06-12T10:06:33Z</time>
      </trkpt>
      <trkpt lat="45.64066" lon="6.22557">
        <ele>1249</ele>
        <time>2011-06-12T10:06:38Z</time>
      </trkpt>
      <trkpt lat="45.64063" lon="6.22553">
        <ele>1250</ele>
        <time>2011-06-12T10:06:43Z</time>
      </trkpt>
      <trkpt lat="45.64058" lon="6.2255">
        <ele>1251</ele>
        <time>2011-06-12T10:06:48Z</time>
      </trkpt>
      <trkpt lat="45.64058" lon="6.22549">
        <ele>1251</ele>
        <time>2011-06-12T10:06:53Z</time>
      </trkpt>
      <trkpt lat="45.64056" lon="6.22549">
        <ele>1252</ele>
        <time>2011-06-12T10:06:58Z</time>
      </trkpt>
      <trkpt lat="45.64054" lon="6.2255">
        <ele>1252</ele>
        <time>2011-06-12T10:07:03Z</time>
      </trkpt>
      <trkpt lat="45.64052" lon="6.22551">
        <ele>1253</ele>
        <time>2011-06-12T10:07:08Z</time>
      </trkpt>
      <trkpt lat="45.64051" lon="6.22552">
        <ele>1254</ele>
        <time>2011-06-12T10:07:13Z</time>
      </trkpt>
      <trkpt lat="45.64051" lon="6.22553">
        <ele>1254</ele>
        <time>2011-06-12T10:07:18Z</time>
      </trkpt>
      <trkpt lat="45.64052" lon="6.22552">
        <ele>1253</ele>
        <time>2011-06-12T10:07:23Z</time>
      </trkpt>
      <trkpt lat="45.64052" lon="6.22552">
        <ele>1253</ele>
        <time>2011-06-12T10:07:28Z</time>
      </trkpt>
      <trkpt lat="45.64053" lon="6.22551">
        <ele>1253</ele>
        <time>2011-06-12T10:07:33Z</time>
      </trkpt>
      <trkpt lat="45.64052" lon="6.2255">
        <ele>1253</ele>
        <time>2011-06-12T10:07:38Z</time>
      </trkpt>
      <trkpt lat="45.64052" lon="6.22547">
        <ele>1253</ele>
        <time>2011-06-12T10:07:43Z</time>
      </trkpt>
      <trkpt lat="45.6405" lon="6.22543">
        <ele>1253</ele>
        <time>2011-06-12T10:07:48Z</time>
      </trkpt>
      <trkpt lat="45.64047" lon="6.22538">
        <ele>1253</ele>
        <time>2011-06-12T10:07:53Z</time>
      </trkpt>
      <trkpt lat="45.64045" lon="6.22531">
        <ele>1253</ele>
        <time>2011-06-12T10:07:58Z</time>
      </trkpt>
      <trkpt lat="45.64043" lon="6.22527">
        <ele>1254</ele>
        <time>2011-06-12T10:08:03Z</time>
      </trkpt>
      <trkpt lat="45.64042" lon="6.22522">
        <ele>1254</ele>
        <time>2011-06-12T10:08:08Z</time>
      </trkpt>
      <trkpt lat="45.64042" lon="6.22523">
        <ele>1254</ele>
        <time>2011-06-12T10:08:13Z</time>
      </trkpt>
      <trkpt lat="45.64044" lon="6.22521">
        <ele>1253</ele>
        <time>2011-06-12T10:08:18Z</time>
      </trkpt>
      <trkpt lat="45.64046" lon="6.22513">
        <ele>1251</ele>
        <time>2011-06-12T10:08:23Z</time>
      </trkpt>
      <trkpt lat="45.64049" lon="6.22509">
        <ele>1248</ele>
        <time>2011-06-12T10:08:28Z</time>
      </trkpt>
      <trkpt lat="45.64053" lon="6.22502">
        <ele>1245</ele>
        <time>2011-06-12T10:08:33Z</time>
      </trkpt>
      <trkpt lat="45.64056" lon="6.22499">
        <ele>1241</ele>
        <time>2011-06-12T10:08:38Z</time>
      </trkpt>
      <trkpt lat="45.64057" lon="6.22497">
        <ele>1241</ele>
        <time>2011-06-12T10:08:43Z</time>
      </trkpt>
      <trkpt lat="45.64061" lon="6.22492">
        <ele>1238</ele>
        <time>2011-06-12T10:08:48Z</time>
      </trkpt>
      <trkpt lat="45.64065" lon="6.22488">
        <ele>1237</ele>
        <time>2011-06-12T10:08:53Z</time>
      </trkpt>
      <trkpt lat="45.64068" lon="6.22484">
        <ele>1236</ele>
        <time>2011-06-12T10:08:58Z</time>
      </trkpt>
      <trkpt lat="45.64071" lon="6.22476">
        <ele>1238</ele>
        <time>2011-06-12T10:09:03Z</time>
      </trkpt>
      <trkpt lat="45.64076" lon="6.22471">
        <ele>1239</ele>
        <time>2011-06-12T10:09:08Z</time>
      </trkpt>
      <trkpt lat="45.6408" lon="6.22462">
        <ele>1241</ele>
        <time>2011-06-12T10:09:13Z</time>
      </trkpt>
      <trkpt lat="45.64084" lon="6.22449">
        <ele>1204</ele>
        <time>2011-06-12T10:09:18Z</time>
      </trkpt>
      <trkpt lat="45.64088" lon="6.22443">
        <ele>1206</ele>
        <time>2011-06-12T10:09:23Z</time>
      </trkpt>
      <trkpt lat="45.64091" lon="6.22436">
        <ele>1208</ele>
        <time>2011-06-12T10:09:28Z</time>
      </trkpt>
      <trkpt lat="45.64093" lon="6.22431">
        <ele>1210</ele>
        <time>2011-06-12T10:09:33Z</time>
      </trkpt>
      <trkpt lat="45.64094" lon="6.22426">
        <ele>1212</ele>
        <time>2011-06-12T10:09:38Z</time>
      </trkpt>
      <trkpt lat="45.64096" lon="6.22423">
        <ele>1212</ele>
        <time>2011-06-12T10:09:43Z</time>
      </trkpt>
      <trkpt lat="45.64099" lon="6.22415">
        <ele>1213</ele>
        <time>2011-06-12T10:09:48Z</time>
      </trkpt>
      <trkpt lat="45.64106" lon="6.224">
        <ele>1206</ele>
        <time>2011-06-12T10:09:53Z</time>
      </trkpt>
      <trkpt lat="45.64107" lon="6.22389">
        <ele>1204</ele>
        <time>2011-06-12T10:09:58Z</time>
      </trkpt>
      <trkpt lat="45.64108" lon="6.22376">
        <ele>1203</ele>
        <time>2011-06-12T10:10:03Z</time>
      </trkpt>
      <trkpt lat="45.64107" lon="6.22366">
        <ele>1204</ele>
        <time>2011-06-12T10:10:08Z</time>
      </trkpt>
      <trkpt lat="45.64107" lon="6.22358">
        <ele>1205</ele>
        <time>2011-06-12T10:10:13Z</time>
      </trkpt>
      <trkpt lat="45.64109" lon="6.22352">
        <ele>1205</ele>
        <time>2011-06-12T10:10:18Z</time>
      </trkpt>
      <trkpt lat="45.64108" lon="6.22349">
        <ele>1206</ele>
        <time>2011-06-12T10:10:23Z</time>
      </trkpt>
      <trkpt lat="45.64111" lon="6.22341">
        <ele>1206</ele>
        <time>2011-06-12T10:10:28Z</time>
      </trkpt>
      <trkpt lat="45.64104" lon="6.22338">
        <ele>1210</ele>
        <time>2011-06-12T10:10:33Z</time>
      </trkpt>
      <trkpt lat="45.64101" lon="6.22332">
        <ele>1210</ele>
        <time>2011-06-12T10:10:38Z</time>
      </trkpt>
      <trkpt lat="45.64106" lon="6.22325">
        <ele>1205</ele>
        <time>2011-06-12T10:10:43Z</time>
      </trkpt>
      <trkpt lat="45.64106" lon="6.22319">
        <ele>1203</ele>
        <time>2011-06-12T10:10:48Z</time>
      </trkpt>
      <trkpt lat="45.64109" lon="6.22312">
        <ele>1201</ele>
        <time>2011-06-12T10:10:53Z</time>
      </trkpt>
      <trkpt lat="45.64107" lon="6.22308">
        <ele>1200</ele>
        <time>2011-06-12T10:10:58Z</time>
      </trkpt>
      <trkpt lat="45.64101" lon="6.22304">
        <ele>1202</ele>
        <time>2011-06-12T10:11:03Z</time>
      </trkpt>
      <trkpt lat="45.64095" lon="6.223">
        <ele>1202</ele>
        <time>2011-06-12T10:11:08Z</time>
      </trkpt>
      <trkpt lat="45.64093" lon="6.22293">
        <ele>1202</ele>
        <time>2011-06-12T10:11:13Z</time>
      </trkpt>
      <trkpt lat="45.64089" lon="6.2229">
        <ele>1202</ele>
        <time>2011-06-12T10:11:18Z</time>
      </trkpt>
      <trkpt lat="45.64086" lon="6.22283">
        <ele>1202</ele>
        <time>2011-06-12T10:11:23Z</time>
      </trkpt>
      <trkpt lat="45.64084" lon="6.22279">
        <ele>1202</ele>
        <time>2011-06-12T10:11:28Z</time>
      </trkpt>
      <trkpt lat="45.64078" lon="6.22276">
        <ele>1239</ele>
        <time>2011-06-12T10:11:33Z</time>
      </trkpt>
      <trkpt lat="45.64071" lon="6.22271">
        <ele>1239</ele>
        <time>2011-06-12T10:11:38Z</time>
      </trkpt>
      <trkpt lat="45.64069" lon="6.22264">
        <ele>1236</ele>
        <time>2011-06-12T10:11:43Z</time>
      </trkpt>
      <trkpt lat="45.64068" lon="6.22257">
        <ele>1235</ele>
        <time>2011-06-12T10:11:48Z</time>
      </trkpt>
      <trkpt lat="45.64068" lon="6.22248">
        <ele>1227</ele>
        <time>2011-06-12T10:11:53Z</time>
      </trkpt>
      <trkpt lat="45.64067" lon="6.2224">
        <ele>1229</ele>
        <time>2011-06-12T10:11:58Z</time>
      </trkpt>
      <trkpt lat="45.64066" lon="6.2223">
        <ele>1231</ele>
        <time>2011-06-12T10:12:03Z</time>
      </trkpt>
      <trkpt lat="45.64068" lon="6.22217">
        <ele>1232</ele>
        <time>2011-06-12T10:12:08Z</time>
      </trkpt>
      <trkpt lat="45.64065" lon="6.2221">
        <ele>1232</ele>
        <time>2011-06-12T10:12:13Z</time>
      </trkpt>
      <trkpt lat="45.64064" lon="6.22203">
        <ele>1232</ele>
        <time>2011-06-12T10:12:18Z</time>
      </trkpt>
      <trkpt lat="45.64064" lon="6.22196">
        <ele>1231</ele>
        <time>2011-06-12T10:12:23Z</time>
      </trkpt>
      <trkpt lat="45.64061" lon="6.22188">
        <ele>1230</ele>
        <time>2011-06-12T10:12:28Z</time>
      </trkpt>
      <trkpt lat="45.64063" lon="6.22176">
        <ele>1226</ele>
        <time>2011-06-12T10:12:33Z</time>
      </trkpt>
      <trkpt lat="45.64061" lon="6.22166">
        <ele>1222</ele>
        <time>2011-06-12T10:12:38Z</time>
      </trkpt>
      <trkpt lat="45.64066" lon="6.22154">
        <ele>1221</ele>
        <time>2011-06-12T10:12:43Z</time>
      </trkpt>
      <trkpt lat="45.64062" lon="6.22146">
        <ele>1224</ele>
        <time>2011-06-12T10:12:48Z</time>
      </trkpt>
      <trkpt lat="45.6406" lon="6.22141">
        <ele>1225</ele>
        <time>2011-06-12T10:12:53Z</time>
      </trkpt>
      <trkpt lat="45.6406" lon="6.22133">
        <ele>1226</ele>
        <time>2011-06-12T10:12:58Z</time>
      </trkpt>
      <trkpt lat="45.64046" lon="6.22089">
        <ele>1229</ele>
        <time>2011-06-12T10:16:13Z</time>
      </trkpt>
      <trkpt lat="45.64049" lon="6.22067">
        <ele>1226</ele>
        <time>2011-06-12T10:16:18Z</time>
      </trkpt>
      <trkpt lat="45.64052" lon="6.22048">
        <ele>1226</ele>
        <time>2011-06-12T10:16:23Z</time>
      </trkpt>
      <trkpt lat="45.6405" lon="6.22035">
        <ele>1226</ele>
        <time>2011-06-12T10:16:28Z</time>
      </trkpt>
      <trkpt lat="45.64052" lon="6.22024">
        <ele>1225</ele>
        <time>2011-06-12T10:16:33Z</time>
      </trkpt>
      <trkpt lat="45.64051" lon="6.22016">
        <ele>1225</ele>
        <time>2011-06-12T10:16:38Z</time>
      </trkpt>
      <trkpt lat="45.64052" lon="6.22008">
        <ele>1224</ele>
        <time>2011-06-12T10:16:43Z</time>
      </trkpt>
      <trkpt lat="45.64054" lon="6.22003">
        <ele>1222</ele>
        <time>2011-06-12T10:16:48Z</time>
      </trkpt>
      <trkpt lat="45.64055" lon="6.21998">
        <ele>1218</ele>
        <time>2011-06-12T10:16:53Z</time>
      </trkpt>
      <trkpt lat="45.64056" lon="6.21998">
        <ele>1218</ele>
        <time>2011-06-12T10:16:58Z</time>
      </trkpt>
      <trkpt lat="45.64055" lon="6.21995">
        <ele>1219</ele>
        <time>2011-06-12T10:17:03Z</time>
      </trkpt>
      <trkpt lat="45.64055" lon="6.21989">
        <ele>1219</ele>
        <time>2011-06-12T10:17:08Z</time>
      </trkpt>
      <trkpt lat="45.64054" lon="6.21987">
        <ele>1220</ele>
        <time>2011-06-12T10:17:13Z</time>
      </trkpt>
      <trkpt lat="45.64056" lon="6.21977">
        <ele>1219</ele>
        <time>2011-06-12T10:17:18Z</time>
      </trkpt>
      <trkpt lat="45.64056" lon="6.21969">
        <ele>1219</ele>
        <time>2011-06-12T10:17:23Z</time>
      </trkpt>
      <trkpt lat="45.64056" lon="6.21966">
        <ele>1219</ele>
        <time>2011-06-12T10:17:28Z</time>
      </trkpt>
      <trkpt lat="45.64061" lon="6.21958">
        <ele>1218</ele>
        <time>2011-06-12T10:17:33Z</time>
      </trkpt>
      <trkpt lat="45.64056" lon="6.21949">
        <ele>1219</ele>
        <time>2011-06-12T10:19:08Z</time>
      </trkpt>
      <trkpt lat="45.64052" lon="6.21949">
        <ele>1220</ele>
        <time>2011-06-12T10:19:13Z</time>
      </trkpt>
      <trkpt lat="45.64047" lon="6.21947">
        <ele>1222</ele>
        <time>2011-06-12T10:19:18Z</time>
      </trkpt>
      <trkpt lat="45.64043" lon="6.21942">
        <ele>1223</ele>
        <time>2011-06-12T10:19:23Z</time>
      </trkpt>
      <trkpt lat="45.6404" lon="6.21936">
        <ele>1224</ele>
        <time>2011-06-12T10:19:28Z</time>
      </trkpt>
      <trkpt lat="45.64039" lon="6.21932">
        <ele>1224</ele>
        <time>2011-06-12T10:19:33Z</time>
      </trkpt>
      <trkpt lat="45.64035" lon="6.21927">
        <ele>1226</ele>
        <time>2011-06-12T10:19:38Z</time>
      </trkpt>
      <trkpt lat="45.64034" lon="6.21919">
        <ele>1227</ele>
        <time>2011-06-12T10:19:43Z</time>
      </trkpt>
      <trkpt lat="45.64031" lon="6.21912">
        <ele>1218</ele>
        <time>2011-06-12T10:19:48Z</time>
      </trkpt>
      <trkpt lat="45.64026" lon="6.21906">
        <ele>1221</ele>
        <time>2011-06-12T10:19:53Z</time>
      </trkpt>
      <trkpt lat="45.64019" lon="6.219">
        <ele>1223</ele>
        <time>2011-06-12T10:19:58Z</time>
      </trkpt>
      <trkpt lat="45.64023" lon="6.21892">
        <ele>1218</ele>
        <time>2011-06-12T10:20:03Z</time>
      </trkpt>
      <trkpt lat="45.64021" lon="6.21885">
        <ele>1217</ele>
        <time>2011-06-12T10:20:08Z</time>
      </trkpt>
      <trkpt lat="45.64011" lon="6.2188">
        <ele>1218</ele>
        <time>2011-06-12T10:20:13Z</time>
      </trkpt>
      <trkpt lat="45.64006" lon="6.21876">
        <ele>1219</ele>
        <time>2011-06-12T10:20:18Z</time>
      </trkpt>
      <trkpt lat="45.64008" lon="6.21869">
        <ele>1217</ele>
        <time>2011-06-12T10:20:23Z</time>
      </trkpt>
      <trkpt lat="45.64003" lon="6.21867">
        <ele>1218</ele>
        <time>2011-06-12T10:20:28Z</time>
      </trkpt>
      <trkpt lat="45.63997" lon="6.21862">
        <ele>1254</ele>
        <time>2011-06-12T10:20:33Z</time>
      </trkpt>
      <trkpt lat="45.63993" lon="6.21859">
        <ele>1253</ele>
        <time>2011-06-12T10:20:38Z</time>
      </trkpt>
      <trkpt lat="45.63988" lon="6.21853">
        <ele>1252</ele>
        <time>2011-06-12T10:20:43Z</time>
      </trkpt>
      <trkpt lat="45.6399" lon="6.21845">
        <ele>1246</ele>
        <time>2011-06-12T10:20:48Z</time>
      </trkpt>
      <trkpt lat="45.63993" lon="6.21838">
        <ele>1239</ele>
        <time>2011-06-12T10:20:53Z</time>
      </trkpt>
      <trkpt lat="45.63996" lon="6.2183">
        <ele>1229</ele>
        <time>2011-06-12T10:20:58Z</time>
      </trkpt>
      <trkpt lat="45.6399" lon="6.21826">
        <ele>1234</ele>
        <time>2011-06-12T10:21:03Z</time>
      </trkpt>
      <trkpt lat="45.63986" lon="6.2182">
        <ele>1238</ele>
        <time>2011-06-12T10:21:08Z</time>
      </trkpt>
      <trkpt lat="45.63984" lon="6.21817">
        <ele>1239</ele>
        <time>2011-06-12T10:21:13Z</time>
      </trkpt>
      <trkpt lat="45.63979" lon="6.21814">
        <ele>1241</ele>
        <time>2011-06-12T10:21:18Z</time>
      </trkpt>
      <trkpt lat="45.63971" lon="6.21809">
        <ele>1245</ele>
        <time>2011-06-12T10:21:23Z</time>
      </trkpt>
      <trkpt lat="45.63965" lon="6.21802">
        <ele>1247</ele>
        <time>2011-06-12T10:21:28Z</time>
      </trkpt>
      <trkpt lat="45.63964" lon="6.21797">
        <ele>1246</ele>
        <time>2011-06-12T10:21:33Z</time>
      </trkpt>
      <trkpt lat="45.63962" lon="6.21791">
        <ele>1246</ele>
        <time>2011-06-12T10:21:38Z</time>
      </trkpt>
      <trkpt lat="45.63964" lon="6.21783">
        <ele>1244</ele>
        <time>2011-06-12T10:21:43Z</time>
      </trkpt>
      <trkpt lat="45.63961" lon="6.2178">
        <ele>1245</ele>
        <time>2011-06-12T10:21:48Z</time>
      </trkpt>
      <trkpt lat="45.63963" lon="6.21773">
        <ele>1243</ele>
        <time>2011-06-12T10:21:53Z</time>
      </trkpt>
      <trkpt lat="45.63963" lon="6.21766">
        <ele>1242</ele>
        <time>2011-06-12T10:21:58Z</time>
      </trkpt>
      <trkpt lat="45.63957" lon="6.21763">
        <ele>1245</ele>
        <time>2011-06-12T10:22:03Z</time>
      </trkpt>
      <trkpt lat="45.63954" lon="6.21756">
        <ele>1246</ele>
        <time>2011-06-12T10:22:08Z</time>
      </trkpt>
      <trkpt lat="45.63953" lon="6.21749">
        <ele>1232</ele>
        <time>2011-06-12T10:22:13Z</time>
      </trkpt>
      <trkpt lat="45.63951" lon="6.21744">
        <ele>1233</ele>
        <time>2011-06-12T10:22:18Z</time>
      </trkpt>
      <trkpt lat="45.63945" lon="6.21744">
        <ele>1237</ele>
        <time>2011-06-12T10:22:23Z</time>
      </trkpt>
      <trkpt lat="45.63939" lon="6.21741">
        <ele>1240</ele>
        <time>2011-06-12T10:22:28Z</time>
      </trkpt>
      <trkpt lat="45.63938" lon="6.21736">
        <ele>1239</ele>
        <time>2011-06-12T10:22:33Z</time>
      </trkpt>
      <trkpt lat="45.63936" lon="6.21731">
        <ele>1239</ele>
        <time>2011-06-12T10:22:38Z</time>
      </trkpt>
      <trkpt lat="45.63934" lon="6.21725">
        <ele>1237</ele>
        <time>2011-06-12T10:22:43Z</time>
      </trkpt>
      <trkpt lat="45.63931" lon="6.21721">
        <ele>1237</ele>
        <time>2011-06-12T10:22:48Z</time>
      </trkpt>
      <trkpt lat="45.6393" lon="6.21717">
        <ele>1236</ele>
        <time>2011-06-12T10:22:53Z</time>
      </trkpt>
      <trkpt lat="45.63926" lon="6.21715">
        <ele>1237</ele>
        <time>2011-06-12T10:22:58Z</time>
      </trkpt>
      <trkpt lat="45.63924" lon="6.21711">
        <ele>1236</ele>
        <time>2011-06-12T10:23:03Z</time>
      </trkpt>
      <trkpt lat="45.63919" lon="6.21706">
        <ele>1235</ele>
        <time>2011-06-12T10:23:08Z</time>
      </trkpt>
      <trkpt lat="45.63918" lon="6.21698">
        <ele>1235</ele>
        <time>2011-06-12T10:23:13Z</time>
      </trkpt>
      <trkpt lat="45.63915" lon="6.21691">
        <ele>1268</ele>
        <time>2011-06-12T10:23:18Z</time>
      </trkpt>
      <trkpt lat="45.63911" lon="6.21689">
        <ele>1268</ele>
        <time>2011-06-12T10:23:23Z</time>
      </trkpt>
      <trkpt lat="45.63907" lon="6.21687">
        <ele>1268</ele>
        <time>2011-06-12T10:23:28Z</time>
      </trkpt>
      <trkpt lat="45.63905" lon="6.21684">
        <ele>1267</ele>
        <time>2011-06-12T10:23:33Z</time>
      </trkpt>
      <trkpt lat="45.639" lon="6.21677">
        <ele>1266</ele>
        <time>2011-06-12T10:23:38Z</time>
      </trkpt>
      <trkpt lat="45.63897" lon="6.2167">
        <ele>1267</ele>
        <time>2011-06-12T10:23:43Z</time>
      </trkpt>
      <trkpt lat="45.63894" lon="6.21663">
        <ele>1254</ele>
        <time>2011-06-12T10:23:48Z</time>
      </trkpt>
      <trkpt lat="45.63891" lon="6.21658">
        <ele>1255</ele>
        <time>2011-06-12T10:23:53Z</time>
      </trkpt>
      <trkpt lat="45.63886" lon="6.21655">
        <ele>1258</ele>
        <time>2011-06-12T10:23:58Z</time>
      </trkpt>
      <trkpt lat="45.63884" lon="6.21653">
        <ele>1258</ele>
        <time>2011-06-12T10:24:03Z</time>
      </trkpt>
      <trkpt lat="45.63882" lon="6.21649">
        <ele>1259</ele>
        <time>2011-06-12T10:24:08Z</time>
      </trkpt>
      <trkpt lat="45.63879" lon="6.21647">
        <ele>1260</ele>
        <time>2011-06-12T10:24:13Z</time>
      </trkpt>
      <trkpt lat="45.63876" lon="6.21642">
        <ele>1261</ele>
        <time>2011-06-12T10:24:18Z</time>
      </trkpt>
      <trkpt lat="45.63877" lon="6.21634">
        <ele>1259</ele>
        <time>2011-06-12T10:24:23Z</time>
      </trkpt>
      <trkpt lat="45.63871" lon="6.21633">
        <ele>1261</ele>
        <time>2011-06-12T10:24:28Z</time>
      </trkpt>
      <trkpt lat="45.6387" lon="6.21631">
        <ele>1261</ele>
        <time>2011-06-12T10:24:33Z</time>
      </trkpt>
      <trkpt lat="45.63867" lon="6.21628">
        <ele>1262</ele>
        <time>2011-06-12T10:24:38Z</time>
      </trkpt>
      <trkpt lat="45.63867" lon="6.2162">
        <ele>1260</ele>
        <time>2011-06-12T10:24:43Z</time>
      </trkpt>
      <trkpt lat="45.63863" lon="6.21615">
        <ele>1261</ele>
        <time>2011-06-12T10:24:48Z</time>
      </trkpt>
      <trkpt lat="45.63861" lon="6.21612">
        <ele>1261</ele>
        <time>2011-06-12T10:24:53Z</time>
      </trkpt>
      <trkpt lat="45.63857" lon="6.21609">
        <ele>1262</ele>
        <time>2011-06-12T10:24:58Z</time>
      </trkpt>
      <trkpt lat="45.63856" lon="6.21604">
        <ele>1263</ele>
        <time>2011-06-12T10:25:03Z</time>
      </trkpt>
      <trkpt lat="45.63855" lon="6.216">
        <ele>1263</ele>
        <time>2011-06-12T10:25:08Z</time>
      </trkpt>
      <trkpt lat="45.63857" lon="6.21593">
        <ele>1263</ele>
        <time>2011-06-12T10:25:13Z</time>
      </trkpt>
      <trkpt lat="45.63852" lon="6.2159">
        <ele>1265</ele>
        <time>2011-06-12T10:25:18Z</time>
      </trkpt>
      <trkpt lat="45.63849" lon="6.21585">
        <ele>1267</ele>
        <time>2011-06-12T10:25:23Z</time>
      </trkpt>
      <trkpt lat="45.63846" lon="6.21578">
        <ele>1256</ele>
        <time>2011-06-12T10:25:28Z</time>
      </trkpt>
      <trkpt lat="45.63844" lon="6.21571">
        <ele>1253</ele>
        <time>2011-06-12T10:25:33Z</time>
      </trkpt>
      <trkpt lat="45.6384" lon="6.21566">
        <ele>1252</ele>
        <time>2011-06-12T10:25:38Z</time>
      </trkpt>
      <trkpt lat="45.63834" lon="6.21564">
        <ele>1252</ele>
        <time>2011-06-12T10:25:43Z</time>
      </trkpt>
      <trkpt lat="45.6383" lon="6.21559">
        <ele>1283</ele>
        <time>2011-06-12T10:25:48Z</time>
      </trkpt>
      <trkpt lat="45.63831" lon="6.21554">
        <ele>1283</ele>
        <time>2011-06-12T10:25:53Z</time>
      </trkpt>
      <trkpt lat="45.6383" lon="6.21546">
        <ele>1282</ele>
        <time>2011-06-12T10:25:58Z</time>
      </trkpt>
      <trkpt lat="45.6383" lon="6.21537">
        <ele>1279</ele>
        <time>2011-06-12T10:26:03Z</time>
      </trkpt>
      <trkpt lat="45.63825" lon="6.21531">
        <ele>1278</ele>
        <time>2011-06-12T10:26:08Z</time>
      </trkpt>
      <trkpt lat="45.63818" lon="6.21526">
        <ele>1278</ele>
        <time>2011-06-12T10:26:13Z</time>
      </trkpt>
      <trkpt lat="45.63816" lon="6.2152">
        <ele>1276</ele>
        <time>2011-06-12T10:26:18Z</time>
      </trkpt>
      <trkpt lat="45.63819" lon="6.21512">
        <ele>1270</ele>
        <time>2011-06-12T10:26:23Z</time>
      </trkpt>
      <trkpt lat="45.63818" lon="6.21506">
        <ele>1269</ele>
        <time>2011-06-12T10:26:28Z</time>
      </trkpt>
      <trkpt lat="45.6381" lon="6.21501">
        <ele>1274</ele>
        <time>2011-06-12T10:26:33Z</time>
      </trkpt>
      <trkpt lat="45.63805" lon="6.21498">
        <ele>1259</ele>
        <time>2011-06-12T10:26:38Z</time>
      </trkpt>
      <trkpt lat="45.63804" lon="6.21493">
        <ele>1259</ele>
        <time>2011-06-12T10:26:43Z</time>
      </trkpt>
      <trkpt lat="45.63801" lon="6.21488">
        <ele>1260</ele>
        <time>2011-06-12T10:26:48Z</time>
      </trkpt>
      <trkpt lat="45.63798" lon="6.21481">
        <ele>1260</ele>
        <time>2011-06-12T10:26:53Z</time>
      </trkpt>
      <trkpt lat="45.63795" lon="6.21474">
        <ele>1261</ele>
        <time>2011-06-12T10:26:58Z</time>
      </trkpt>
      <trkpt lat="45.63788" lon="6.21469">
        <ele>1262</ele>
        <time>2011-06-12T10:27:03Z</time>
      </trkpt>
      <trkpt lat="45.63783" lon="6.21463">
        <ele>1263</ele>
        <time>2011-06-12T10:27:08Z</time>
      </trkpt>
      <trkpt lat="45.63778" lon="6.21459">
        <ele>1263</ele>
        <time>2011-06-12T10:27:13Z</time>
      </trkpt>
      <trkpt lat="45.63774" lon="6.21454">
        <ele>1264</ele>
        <time>2011-06-12T10:27:18Z</time>
      </trkpt>
      <trkpt lat="45.63767" lon="6.21447">
        <ele>1264</ele>
        <time>2011-06-12T10:27:23Z</time>
      </trkpt>
      <trkpt lat="45.63762" lon="6.21444">
        <ele>1265</ele>
        <time>2011-06-12T10:27:28Z</time>
      </trkpt>
      <trkpt lat="45.63762" lon="6.21444">
        <ele>1265</ele>
        <time>2011-06-12T10:27:33Z</time>
      </trkpt>
      <trkpt lat="45.63754" lon="6.21442">
        <ele>1266</ele>
        <time>2011-06-12T10:27:38Z</time>
      </trkpt>
      <trkpt lat="45.63746" lon="6.21443">
        <ele>1294</ele>
        <time>2011-06-12T10:27:43Z</time>
      </trkpt>
      <trkpt lat="45.63741" lon="6.21442">
        <ele>1294</ele>
        <time>2011-06-12T10:27:48Z</time>
      </trkpt>
      <trkpt lat="45.63736" lon="6.21442">
        <ele>1296</ele>
        <time>2011-06-12T10:27:53Z</time>
      </trkpt>
      <trkpt lat="45.63732" lon="6.21444">
        <ele>1298</ele>
        <time>2011-06-12T10:27:58Z</time>
      </trkpt>
      <trkpt lat="45.63725" lon="6.21446">
        <ele>1301</ele>
        <time>2011-06-12T10:28:03Z</time>
      </trkpt>
      <trkpt lat="45.63718" lon="6.21447">
        <ele>1303</ele>
        <time>2011-06-12T10:28:08Z</time>
      </trkpt>
      <trkpt lat="45.63711" lon="6.21447">
        <ele>1305</ele>
        <time>2011-06-12T10:28:13Z</time>
      </trkpt>
      <trkpt lat="45.6371" lon="6.21446">
        <ele>1305</ele>
        <time>2011-06-12T10:28:18Z</time>
      </trkpt>
      <trkpt lat="45.63709" lon="6.21443">
        <ele>1305</ele>
        <time>2011-06-12T10:28:23Z</time>
      </trkpt>
      <trkpt lat="45.6371" lon="6.21443">
        <ele>1305</ele>
        <time>2011-06-12T10:28:28Z</time>
      </trkpt>
      <trkpt lat="45.63712" lon="6.21443">
        <ele>1304</ele>
        <time>2011-06-12T10:28:33Z</time>
      </trkpt>
      <trkpt lat="45.63714" lon="6.21441">
        <ele>1303</ele>
        <time>2011-06-12T10:28:38Z</time>
      </trkpt>
      <trkpt lat="45.63716" lon="6.21439">
        <ele>1302</ele>
        <time>2011-06-12T10:28:43Z</time>
      </trkpt>
      <trkpt lat="45.63715" lon="6.21436">
        <ele>1302</ele>
        <time>2011-06-12T10:28:48Z</time>
      </trkpt>
      <trkpt lat="45.63713" lon="6.21437">
        <ele>1303</ele>
        <time>2011-06-12T10:28:53Z</time>
      </trkpt>
      <trkpt lat="45.63708" lon="6.21435">
        <ele>1304</ele>
        <time>2011-06-12T10:28:58Z</time>
      </trkpt>
      <trkpt lat="45.63706" lon="6.21431">
        <ele>1305</ele>
        <time>2011-06-12T10:29:03Z</time>
      </trkpt>
      <trkpt lat="45.63707" lon="6.21425">
        <ele>1303</ele>
        <time>2011-06-12T10:29:08Z</time>
      </trkpt>
      <trkpt lat="45.63705" lon="6.21422">
        <ele>1304</ele>
        <time>2011-06-12T10:29:13Z</time>
      </trkpt>
      <trkpt lat="45.637" lon="6.21421">
        <ele>1306</ele>
        <time>2011-06-12T10:29:18Z</time>
      </trkpt>
      <trkpt lat="45.63692" lon="6.21418">
        <ele>1309</ele>
        <time>2011-06-12T10:29:23Z</time>
      </trkpt>
      <trkpt lat="45.63682" lon="6.21417">
        <ele>1312</ele>
        <time>2011-06-12T10:29:28Z</time>
      </trkpt>
      <trkpt lat="45.63673" lon="6.21415">
        <ele>1308</ele>
        <time>2011-06-12T10:29:33Z</time>
      </trkpt>
      <trkpt lat="45.63664" lon="6.21417">
        <ele>1319</ele>
        <time>2011-06-12T10:29:38Z</time>
      </trkpt>
      <trkpt lat="45.63666" lon="6.21415">
        <ele>1318</ele>
        <time>2011-06-12T10:29:43Z</time>
      </trkpt>
      <trkpt lat="45.63667" lon="6.21406">
        <ele>1304</ele>
        <time>2011-06-12T10:29:48Z</time>
      </trkpt>
      <trkpt lat="45.6367" lon="6.21401">
        <ele>1299</ele>
        <time>2011-06-12T10:29:53Z</time>
      </trkpt>
      <trkpt lat="45.63668" lon="6.21399">
        <ele>1298</ele>
        <time>2011-06-12T10:29:58Z</time>
      </trkpt>
      <trkpt lat="45.63662" lon="6.21398">
        <ele>1326</ele>
        <time>2011-06-12T10:30:03Z</time>
      </trkpt>
      <trkpt lat="45.63662" lon="6.21393">
        <ele>1326</ele>
        <time>2011-06-12T10:30:08Z</time>
      </trkpt>
      <trkpt lat="45.63665" lon="6.21384">
        <ele>1326</ele>
        <time>2011-06-12T10:30:13Z</time>
      </trkpt>
      <trkpt lat="45.63668" lon="6.21377">
        <ele>1288</ele>
        <time>2011-06-12T10:30:18Z</time>
      </trkpt>
      <trkpt lat="45.6367" lon="6.21364">
        <ele>1285</ele>
        <time>2011-06-12T10:30:23Z</time>
      </trkpt>
      <trkpt lat="45.6367" lon="6.21357">
        <ele>1285</ele>
        <time>2011-06-12T10:30:28Z</time>
      </trkpt>
      <trkpt lat="45.63669" lon="6.21348">
        <ele>1286</ele>
        <time>2011-06-12T10:30:33Z</time>
      </trkpt>
      <trkpt lat="45.63661" lon="6.21343">
        <ele>1306</ele>
        <time>2011-06-12T10:30:38Z</time>
      </trkpt>
      <trkpt lat="45.63649" lon="6.21343">
        <ele>1317</ele>
        <time>2011-06-12T10:30:43Z</time>
      </trkpt>
      <trkpt lat="45.63641" lon="6.21343">
        <ele>1323</ele>
        <time>2011-06-12T10:30:48Z</time>
      </trkpt>
      <trkpt lat="45.63643" lon="6.21337">
        <ele>1320</ele>
        <time>2011-06-12T10:30:53Z</time>
      </trkpt>
      <trkpt lat="45.63641" lon="6.21333">
        <ele>1310</ele>
        <time>2011-06-12T10:30:58Z</time>
      </trkpt>
      <trkpt lat="45.63641" lon="6.21328">
        <ele>1310</ele>
        <time>2011-06-12T10:31:03Z</time>
      </trkpt>
      <trkpt lat="45.63641" lon="6.21318">
        <ele>1310</ele>
        <time>2011-06-12T10:31:08Z</time>
      </trkpt>
      <trkpt lat="45.6364" lon="6.2131">
        <ele>1311</ele>
        <time>2011-06-12T10:31:13Z</time>
      </trkpt>
      <trkpt lat="45.6364" lon="6.21304">
        <ele>1311</ele>
        <time>2011-06-12T10:31:18Z</time>
      </trkpt>
      <trkpt lat="45.63636" lon="6.213">
        <ele>1312</ele>
        <time>2011-06-12T10:31:23Z</time>
      </trkpt>
      <trkpt lat="45.63634" lon="6.21295">
        <ele>1313</ele>
        <time>2011-06-12T10:31:28Z</time>
      </trkpt>
      <trkpt lat="45.63639" lon="6.21287">
        <ele>1309</ele>
        <time>2011-06-12T10:31:33Z</time>
      </trkpt>
      <trkpt lat="45.63642" lon="6.21284">
        <ele>1308</ele>
        <time>2011-06-12T10:31:38Z</time>
      </trkpt>
      <trkpt lat="45.63642" lon="6.21276">
        <ele>1305</ele>
        <time>2011-06-12T10:31:43Z</time>
      </trkpt>
      <trkpt lat="45.6364" lon="6.21271">
        <ele>1305</ele>
        <time>2011-06-12T10:31:48Z</time>
      </trkpt>
      <trkpt lat="45.63641" lon="6.21265">
        <ele>1303</ele>
        <time>2011-06-12T10:31:53Z</time>
      </trkpt>
      <trkpt lat="45.63634" lon="6.21261">
        <ele>1307</ele>
        <time>2011-06-12T10:31:58Z</time>
      </trkpt>
      <trkpt lat="45.6363" lon="6.21257">
        <ele>1309</ele>
        <time>2011-06-12T10:32:03Z</time>
      </trkpt>
      <trkpt lat="45.6363" lon="6.21253">
        <ele>1309</ele>
        <time>2011-06-12T10:32:08Z</time>
      </trkpt>
      <trkpt lat="45.63625" lon="6.21251">
        <ele>1312</ele>
        <time>2011-06-12T10:32:13Z</time>
      </trkpt>
      <trkpt lat="45.63623" lon="6.21246">
        <ele>1301</ele>
        <time>2011-06-12T10:32:18Z</time>
      </trkpt>
      <trkpt lat="45.6362" lon="6.21242">
        <ele>1303</ele>
        <time>2011-06-12T10:32:23Z</time>
      </trkpt>
      <trkpt lat="45.63616" lon="6.21238">
        <ele>1305</ele>
        <time>2011-06-12T10:32:28Z</time>
      </trkpt>
      <trkpt lat="45.63612" lon="6.21232">
        <ele>1306</ele>
        <time>2011-06-12T10:32:33Z</time>
      </trkpt>
      <trkpt lat="45.63609" lon="6.21226">
        <ele>1307</ele>
        <time>2011-06-12T10:32:38Z</time>
      </trkpt>
      <trkpt lat="45.63605" lon="6.21222">
        <ele>1308</ele>
        <time>2011-06-12T10:32:43Z</time>
      </trkpt>
      <trkpt lat="45.63603" lon="6.21218">
        <ele>1307</ele>
        <time>2011-06-12T10:32:48Z</time>
      </trkpt>
      <trkpt lat="45.63601" lon="6.21213">
        <ele>1307</ele>
        <time>2011-06-12T10:32:53Z</time>
      </trkpt>
      <trkpt lat="45.63594" lon="6.2121">
        <ele>1308</ele>
        <time>2011-06-12T10:32:58Z</time>
      </trkpt>
      <trkpt lat="45.63589" lon="6.21205">
        <ele>1309</ele>
        <time>2011-06-12T10:33:03Z</time>
      </trkpt>
      <trkpt lat="45.63588" lon="6.212">
        <ele>1309</ele>
        <time>2011-06-12T10:33:08Z</time>
      </trkpt>
      <trkpt lat="45.6359" lon="6.21191">
        <ele>1309</ele>
        <time>2011-06-12T10:33:13Z</time>
      </trkpt>
      <trkpt lat="45.63589" lon="6.21183">
        <ele>1311</ele>
        <time>2011-06-12T10:33:18Z</time>
      </trkpt>
      <trkpt lat="45.63595" lon="6.21172">
        <ele>1312</ele>
        <time>2011-06-12T10:33:23Z</time>
      </trkpt>
      <trkpt lat="45.63591" lon="6.21168">
        <ele>1316</ele>
        <time>2011-06-12T10:33:28Z</time>
      </trkpt>
      <trkpt lat="45.63582" lon="6.21167">
        <ele>1326</ele>
        <time>2011-06-12T10:33:33Z</time>
      </trkpt>
      <trkpt lat="45.63578" lon="6.2116">
        <ele>1329</ele>
        <time>2011-06-12T10:33:38Z</time>
      </trkpt>
      <trkpt lat="45.63576" lon="6.21152">
        <ele>1332</ele>
        <time>2011-06-12T10:33:43Z</time>
      </trkpt>
      <trkpt lat="45.63577" lon="6.21145">
        <ele>1333</ele>
        <time>2011-06-12T10:33:48Z</time>
      </trkpt>
      <trkpt lat="45.6358" lon="6.21138">
        <ele>1333</ele>
        <time>2011-06-12T10:33:53Z</time>
      </trkpt>
      <trkpt lat="45.6358" lon="6.21134">
        <ele>1333</ele>
        <time>2011-06-12T10:33:58Z</time>
      </trkpt>
      <trkpt lat="45.63574" lon="6.21131">
        <ele>1334</ele>
        <time>2011-06-12T10:34:03Z</time>
      </trkpt>
      <trkpt lat="45.63571" lon="6.21125">
        <ele>1333</ele>
        <time>2011-06-12T10:34:08Z</time>
      </trkpt>
      <trkpt lat="45.63563" lon="6.21123">
        <ele>1335</ele>
        <time>2011-06-12T10:34:13Z</time>
      </trkpt>
      <trkpt lat="45.63562" lon="6.21114">
        <ele>1333</ele>
        <time>2011-06-12T10:34:18Z</time>
      </trkpt>
      <trkpt lat="45.63562" lon="6.21105">
        <ele>1331</ele>
        <time>2011-06-12T10:34:23Z</time>
      </trkpt>
      <trkpt lat="45.63555" lon="6.211">
        <ele>1333</ele>
        <time>2011-06-12T10:34:28Z</time>
      </trkpt>
      <trkpt lat="45.63551" lon="6.21093">
        <ele>1333</ele>
        <time>2011-06-12T10:34:33Z</time>
      </trkpt>
      <trkpt lat="45.63551" lon="6.21088">
        <ele>1333</ele>
        <time>2011-06-12T10:34:38Z</time>
      </trkpt>
      <trkpt lat="45.63552" lon="6.21082">
        <ele>1316</ele>
        <time>2011-06-12T10:34:43Z</time>
      </trkpt>
      <trkpt lat="45.63552" lon="6.21076">
        <ele>1316</ele>
        <time>2011-06-12T10:34:48Z</time>
      </trkpt>
      <trkpt lat="45.6355" lon="6.21073">
        <ele>1317</ele>
        <time>2011-06-12T10:34:53Z</time>
      </trkpt>
      <trkpt lat="45.63545" lon="6.21067">
        <ele>1319</ele>
        <time>2011-06-12T10:34:58Z</time>
      </trkpt>
      <trkpt lat="45.63541" lon="6.21064">
        <ele>1321</ele>
        <time>2011-06-12T10:35:03Z</time>
      </trkpt>
      <trkpt lat="45.63533" lon="6.21059">
        <ele>1323</ele>
        <time>2011-06-12T10:35:08Z</time>
      </trkpt>
      <trkpt lat="45.63525" lon="6.21055">
        <ele>1326</ele>
        <time>2011-06-12T10:35:13Z</time>
      </trkpt>
      <trkpt lat="45.63519" lon="6.21052">
        <ele>1327</ele>
        <time>2011-06-12T10:35:18Z</time>
      </trkpt>
      <trkpt lat="45.63515" lon="6.21048">
        <ele>1327</ele>
        <time>2011-06-12T10:35:23Z</time>
      </trkpt>
      <trkpt lat="45.63508" lon="6.21042">
        <ele>1327</ele>
        <time>2011-06-12T10:35:28Z</time>
      </trkpt>
      <trkpt lat="45.635" lon="6.21039">
        <ele>1328</ele>
        <time>2011-06-12T10:35:33Z</time>
      </trkpt>
      <trkpt lat="45.63495" lon="6.21036">
        <ele>1348</ele>
        <time>2011-06-12T10:35:38Z</time>
      </trkpt>
      <trkpt lat="45.63491" lon="6.21036">
        <ele>1348</ele>
        <time>2011-06-12T10:35:43Z</time>
      </trkpt>
      <trkpt lat="45.63486" lon="6.21033">
        <ele>1348</ele>
        <time>2011-06-12T10:35:48Z</time>
      </trkpt>
      <trkpt lat="45.63482" lon="6.21028">
        <ele>1347</ele>
        <time>2011-06-12T10:35:53Z</time>
      </trkpt>
      <trkpt lat="45.63477" lon="6.21023">
        <ele>1346</ele>
        <time>2011-06-12T10:35:58Z</time>
      </trkpt>
      <trkpt lat="45.63474" lon="6.21021">
        <ele>1346</ele>
        <time>2011-06-12T10:36:03Z</time>
      </trkpt>
      <trkpt lat="45.6347" lon="6.21021">
        <ele>1346</ele>
        <time>2011-06-12T10:36:08Z</time>
      </trkpt>
      <trkpt lat="45.63466" lon="6.21019">
        <ele>1346</ele>
        <time>2011-06-12T10:36:13Z</time>
      </trkpt>
      <trkpt lat="45.63463" lon="6.21021">
        <ele>1347</ele>
        <time>2011-06-12T10:36:18Z</time>
      </trkpt>
      <trkpt lat="45.63462" lon="6.21022">
        <ele>1347</ele>
        <time>2011-06-12T10:36:23Z</time>
      </trkpt>
      <trkpt lat="45.63461" lon="6.21022">
        <ele>1347</ele>
        <time>2011-06-12T10:36:28Z</time>
      </trkpt>
      <trkpt lat="45.6345" lon="6.21013">
        <ele>1346</ele>
        <time>2011-06-12T10:42:43Z</time>
      </trkpt>
      <trkpt lat="45.63446" lon="6.21013">
        <ele>1346</ele>
        <time>2011-06-12T10:42:48Z</time>
      </trkpt>
      <trkpt lat="45.63444" lon="6.21013">
        <ele>1346</ele>
        <time>2011-06-12T10:42:53Z</time>
      </trkpt>
      <trkpt lat="45.6344" lon="6.2101">
        <ele>1345</ele>
        <time>2011-06-12T10:42:58Z</time>
      </trkpt>
      <trkpt lat="45.63437" lon="6.2101">
        <ele>1344</ele>
        <time>2011-06-12T10:43:03Z</time>
      </trkpt>
      <trkpt lat="45.63434" lon="6.21008">
        <ele>1344</ele>
        <time>2011-06-12T10:43:08Z</time>
      </trkpt>
      <trkpt lat="45.63434" lon="6.21011">
        <ele>1344</ele>
        <time>2011-06-12T10:43:13Z</time>
      </trkpt>
      <trkpt lat="45.63434" lon="6.21015">
        <ele>1345</ele>
        <time>2011-06-12T10:43:18Z</time>
      </trkpt>
      <trkpt lat="45.63434" lon="6.21019">
        <ele>1346</ele>
        <time>2011-06-12T10:43:23Z</time>
      </trkpt>
      <trkpt lat="45.63435" lon="6.21023">
        <ele>1347</ele>
        <time>2011-06-12T10:43:28Z</time>
      </trkpt>
      <trkpt lat="45.63431" lon="6.21029">
        <ele>1349</ele>
        <time>2011-06-12T10:43:33Z</time>
      </trkpt>
      <trkpt lat="45.63425" lon="6.21033">
        <ele>1350</ele>
        <time>2011-06-12T10:43:38Z</time>
      </trkpt>
      <trkpt lat="45.63422" lon="6.21038">
        <ele>1352</ele>
        <time>2011-06-12T10:43:43Z</time>
      </trkpt>
      <trkpt lat="45.63421" lon="6.21043">
        <ele>1354</ele>
        <time>2011-06-12T10:43:48Z</time>
      </trkpt>
      <trkpt lat="45.63418" lon="6.2105">
        <ele>1357</ele>
        <time>2011-06-12T10:43:53Z</time>
      </trkpt>
      <trkpt lat="45.63416" lon="6.21058">
        <ele>1357</ele>
        <time>2011-06-12T10:43:58Z</time>
      </trkpt>
      <trkpt lat="45.63414" lon="6.21065">
        <ele>1361</ele>
        <time>2011-06-12T10:44:03Z</time>
      </trkpt>
      <trkpt lat="45.63411" lon="6.21071">
        <ele>1364</ele>
        <time>2011-06-12T10:44:08Z</time>
      </trkpt>
      <trkpt lat="45.63408" lon="6.21074">
        <ele>1365</ele>
        <time>2011-06-12T10:44:13Z</time>
      </trkpt>
      <trkpt lat="45.63407" lon="6.21079">
        <ele>1367</ele>
        <time>2011-06-12T10:44:18Z</time>
      </trkpt>
      <trkpt lat="45.63406" lon="6.21083">
        <ele>1367</ele>
        <time>2011-06-12T10:44:23Z</time>
      </trkpt>
      <trkpt lat="45.63405" lon="6.21084">
        <ele>1379</ele>
        <time>2011-06-12T10:44:28Z</time>
      </trkpt>
      <trkpt lat="45.63402" lon="6.21085">
        <ele>1379</ele>
        <time>2011-06-12T10:44:33Z</time>
      </trkpt>
      <trkpt lat="45.63402" lon="6.21091">
        <ele>1380</ele>
        <time>2011-06-12T10:44:38Z</time>
      </trkpt>
      <trkpt lat="45.63403" lon="6.21092">
        <ele>1380</ele>
        <time>2011-06-12T10:44:43Z</time>
      </trkpt>
      <trkpt lat="45.63406" lon="6.21097">
        <ele>1381</ele>
        <time>2011-06-12T10:44:48Z</time>
      </trkpt>
      <trkpt lat="45.63407" lon="6.21098">
        <ele>1381</ele>
        <time>2011-06-12T10:44:53Z</time>
      </trkpt>
      <trkpt lat="45.63408" lon="6.211">
        <ele>1381</ele>
        <time>2011-06-12T10:44:58Z</time>
      </trkpt>
      <trkpt lat="45.63413" lon="6.21103">
        <ele>1382</ele>
        <time>2011-06-12T10:45:03Z</time>
      </trkpt>
      <trkpt lat="45.63419" lon="6.21105">
        <ele>1385</ele>
        <time>2011-06-12T10:45:08Z</time>
      </trkpt>
      <trkpt lat="45.63422" lon="6.21106">
        <ele>1385</ele>
        <time>2011-06-12T10:45:13Z</time>
      </trkpt>
      <trkpt lat="45.63426" lon="6.21105">
        <ele>1385</ele>
        <time>2011-06-12T10:45:18Z</time>
      </trkpt>
      <trkpt lat="45.6343" lon="6.21105">
        <ele>1385</ele>
        <time>2011-06-12T10:45:23Z</time>
      </trkpt>
      <trkpt lat="45.63435" lon="6.21105">
        <ele>1385</ele>
        <time>2011-06-12T10:45:28Z</time>
      </trkpt>
      <trkpt lat="45.63433" lon="6.21101">
        <ele>1384</ele>
        <time>2011-06-12T10:45:33Z</time>
      </trkpt>
      <trkpt lat="45.63432" lon="6.21098">
        <ele>1383</ele>
        <time>2011-06-12T10:45:38Z</time>
      </trkpt>
      <trkpt lat="45.63431" lon="6.21096">
        <ele>1383</ele>
        <time>2011-06-12T10:45:43Z</time>
      </trkpt>
      <trkpt lat="45.63429" lon="6.21095">
        <ele>1382</ele>
        <time>2011-06-12T10:45:48Z</time>
      </trkpt>
      <trkpt lat="45.63427" lon="6.21096">
        <ele>1383</ele>
        <time>2011-06-12T10:45:53Z</time>
      </trkpt>
      <trkpt lat="45.63426" lon="6.211">
        <ele>1383</ele>
        <time>2011-06-12T10:45:58Z</time>
      </trkpt>
      <trkpt lat="45.63424" lon="6.21102">
        <ele>1384</ele>
        <time>2011-06-12T10:46:03Z</time>
      </trkpt>
      <trkpt lat="45.63425" lon="6.21105">
        <ele>1385</ele>
        <time>2011-06-12T10:46:08Z</time>
      </trkpt>
      <trkpt lat="45.63422" lon="6.21107">
        <ele>1385</ele>
        <time>2011-06-12T10:46:13Z</time>
      </trkpt>
      <trkpt lat="45.63422" lon="6.21112">
        <ele>1387</ele>
        <time>2011-06-12T10:46:18Z</time>
      </trkpt>
      <trkpt lat="45.63422" lon="6.21116">
        <ele>1388</ele>
        <time>2011-06-12T10:46:23Z</time>
      </trkpt>
      <trkpt lat="45.6342" lon="6.21123">
        <ele>1390</ele>
        <time>2011-06-12T10:46:28Z</time>
      </trkpt>
      <trkpt lat="45.63413" lon="6.21122">
        <ele>1387</ele>
        <time>2011-06-12T10:46:33Z</time>
      </trkpt>
      <trkpt lat="45.63412" lon="6.21128">
        <ele>1389</ele>
        <time>2011-06-12T10:46:38Z</time>
      </trkpt>
      <trkpt lat="45.63413" lon="6.21133">
        <ele>1391</ele>
        <time>2011-06-12T10:46:43Z</time>
      </trkpt>
      <trkpt lat="45.63413" lon="6.21134">
        <ele>1392</ele>
        <time>2011-06-12T10:46:48Z</time>
      </trkpt>
      <trkpt lat="45.63413" lon="6.21134">
        <ele>1392</ele>
        <time>2011-06-12T10:46:53Z</time>
      </trkpt>
      <trkpt lat="45.63414" lon="6.21136">
        <ele>1393</ele>
        <time>2011-06-12T10:46:58Z</time>
      </trkpt>
      <trkpt lat="45.63416" lon="6.21139">
        <ele>1394</ele>
        <time>2011-06-12T10:47:03Z</time>
      </trkpt>
      <trkpt lat="45.63419" lon="6.2114">
        <ele>1397</ele>
        <time>2011-06-12T10:47:08Z</time>
      </trkpt>
      <trkpt lat="45.63421" lon="6.2114">
        <ele>1397</ele>
        <time>2011-06-12T10:47:13Z</time>
      </trkpt>
      <trkpt lat="45.63427" lon="6.21142">
        <ele>1397</ele>
        <time>2011-06-12T10:47:18Z</time>
      </trkpt>
      <trkpt lat="45.63432" lon="6.21144">
        <ele>1397</ele>
        <time>2011-06-12T10:47:23Z</time>
      </trkpt>
      <trkpt lat="45.63436" lon="6.21146">
        <ele>1397</ele>
        <time>2011-06-12T10:47:28Z</time>
      </trkpt>
      <trkpt lat="45.63439" lon="6.21151">
        <ele>1397</ele>
        <time>2011-06-12T10:47:33Z</time>
      </trkpt>
      <trkpt lat="45.63439" lon="6.2115">
        <ele>1397</ele>
        <time>2011-06-12T10:47:38Z</time>
      </trkpt>
      <trkpt lat="45.63442" lon="6.21156">
        <ele>1398</ele>
        <time>2011-06-12T10:47:43Z</time>
      </trkpt>
      <trkpt lat="45.63445" lon="6.21156">
        <ele>1397</ele>
        <time>2011-06-12T10:47:48Z</time>
      </trkpt>
      <trkpt lat="45.63447" lon="6.21158">
        <ele>1396</ele>
        <time>2011-06-12T10:47:53Z</time>
      </trkpt>
      <trkpt lat="45.63446" lon="6.21159">
        <ele>1397</ele>
        <time>2011-06-12T10:47:58Z</time>
      </trkpt>
      <trkpt lat="45.63443" lon="6.21157">
        <ele>1397</ele>
        <time>2011-06-12T10:48:03Z</time>
      </trkpt>
      <trkpt lat="45.63443" lon="6.21158">
        <ele>1398</ele>
        <time>2011-06-12T10:48:08Z</time>
      </trkpt>
      <trkpt lat="45.63443" lon="6.21161">
        <ele>1398</ele>
        <time>2011-06-12T10:48:13Z</time>
      </trkpt>
      <trkpt lat="45.63439" lon="6.21163">
        <ele>1400</ele>
        <time>2011-06-12T10:48:18Z</time>
      </trkpt>
      <trkpt lat="45.63433" lon="6.21166">
        <ele>1404</ele>
        <time>2011-06-12T10:48:23Z</time>
      </trkpt>
      <trkpt lat="45.63429" lon="6.2117">
        <ele>1417</ele>
        <time>2011-06-12T10:48:28Z</time>
      </trkpt>
      <trkpt lat="45.63426" lon="6.21174">
        <ele>1417</ele>
        <time>2011-06-12T10:48:33Z</time>
      </trkpt>
      <trkpt lat="45.63424" lon="6.21178">
        <ele>1417</ele>
        <time>2011-06-12T10:48:38Z</time>
      </trkpt>
      <trkpt lat="45.63426" lon="6.21182">
        <ele>1417</ele>
        <time>2011-06-12T10:48:43Z</time>
      </trkpt>
      <trkpt lat="45.63427" lon="6.21186">
        <ele>1417</ele>
        <time>2011-06-12T10:48:48Z</time>
      </trkpt>
      <trkpt lat="45.63428" lon="6.21187">
        <ele>1417</ele>
        <time>2011-06-12T10:48:53Z</time>
      </trkpt>
      <trkpt lat="45.63429" lon="6.21187">
        <ele>1417</ele>
        <time>2011-06-12T10:48:58Z</time>
      </trkpt>
      <trkpt lat="45.63432" lon="6.21188">
        <ele>1417</ele>
        <time>2011-06-12T10:49:03Z</time>
      </trkpt>
      <trkpt lat="45.63435" lon="6.21192">
        <ele>1417</ele>
        <time>2011-06-12T10:49:08Z</time>
      </trkpt>
      <trkpt lat="45.63436" lon="6.21193">
        <ele>1417</ele>
        <time>2011-06-12T10:49:13Z</time>
      </trkpt>
      <trkpt lat="45.63437" lon="6.21196">
        <ele>1418</ele>
        <time>2011-06-12T10:49:18Z</time>
      </trkpt>
      <trkpt lat="45.6344" lon="6.212">
        <ele>1418</ele>
        <time>2011-06-12T10:49:23Z</time>
      </trkpt>
      <trkpt lat="45.63441" lon="6.212">
        <ele>1418</ele>
        <time>2011-06-12T10:49:28Z</time>
      </trkpt>
      <trkpt lat="45.63445" lon="6.21207">
        <ele>1418</ele>
        <time>2011-06-12T10:49:33Z</time>
      </trkpt>
      <trkpt lat="45.63446" lon="6.21212">
        <ele>1418</ele>
        <time>2011-06-12T10:49:38Z</time>
      </trkpt>
      <trkpt lat="45.63445" lon="6.21213">
        <ele>1419</ele>
        <time>2011-06-12T10:49:43Z</time>
      </trkpt>
      <trkpt lat="45.63442" lon="6.21213">
        <ele>1419</ele>
        <time>2011-06-12T10:49:48Z</time>
      </trkpt>
      <trkpt lat="45.63438" lon="6.21212">
        <ele>1420</ele>
        <time>2011-06-12T10:49:53Z</time>
      </trkpt>
      <trkpt lat="45.63435" lon="6.21213">
        <ele>1420</ele>
        <time>2011-06-12T10:49:58Z</time>
      </trkpt>
      <trkpt lat="45.63432" lon="6.21215">
        <ele>1421</ele>
        <time>2011-06-12T10:50:03Z</time>
      </trkpt>
      <trkpt lat="45.6343" lon="6.21215">
        <ele>1421</ele>
        <time>2011-06-12T10:50:08Z</time>
      </trkpt>
      <trkpt lat="45.63426" lon="6.21217">
        <ele>1422</ele>
        <time>2011-06-12T10:50:13Z</time>
      </trkpt>
      <trkpt lat="45.63422" lon="6.21216">
        <ele>1422</ele>
        <time>2011-06-12T10:50:18Z</time>
      </trkpt>
      <trkpt lat="45.63421" lon="6.21223">
        <ele>1424</ele>
        <time>2011-06-12T10:50:23Z</time>
      </trkpt>
      <trkpt lat="45.63419" lon="6.21227">
        <ele>1425</ele>
        <time>2011-06-12T10:50:28Z</time>
      </trkpt>
      <trkpt lat="45.63418" lon="6.21232">
        <ele>1427</ele>
        <time>2011-06-12T10:50:33Z</time>
      </trkpt>
      <trkpt lat="45.63416" lon="6.21237">
        <ele>1427</ele>
        <time>2011-06-12T10:50:38Z</time>
      </trkpt>
      <trkpt lat="45.63412" lon="6.21243">
        <ele>1430</ele>
        <time>2011-06-12T10:50:43Z</time>
      </trkpt>
      <trkpt lat="45.63409" lon="6.21245">
        <ele>1430</ele>
        <time>2011-06-12T10:50:48Z</time>
      </trkpt>
      <trkpt lat="45.63406" lon="6.21247">
        <ele>1428</ele>
        <time>2011-06-12T10:50:53Z</time>
      </trkpt>
      <trkpt lat="45.63403" lon="6.21252">
        <ele>1436</ele>
        <time>2011-06-12T10:50:58Z</time>
      </trkpt>
      <trkpt lat="45.63401" lon="6.2126">
        <ele>1437</ele>
        <time>2011-06-12T10:51:03Z</time>
      </trkpt>
      <trkpt lat="45.63399" lon="6.21263">
        <ele>1436</ele>
        <time>2011-06-12T10:51:08Z</time>
      </trkpt>
      <trkpt lat="45.63397" lon="6.21268">
        <ele>1436</ele>
        <time>2011-06-12T10:51:13Z</time>
      </trkpt>
      <trkpt lat="45.63393" lon="6.21268">
        <ele>1436</ele>
        <time>2011-06-12T10:51:18Z</time>
      </trkpt>
      <trkpt lat="45.63392" lon="6.21272">
        <ele>1436</ele>
        <time>2011-06-12T10:51:23Z</time>
      </trkpt>
      <trkpt lat="45.63389" lon="6.21277">
        <ele>1436</ele>
        <time>2011-06-12T10:51:28Z</time>
      </trkpt>
      <trkpt lat="45.63388" lon="6.21283">
        <ele>1437</ele>
        <time>2011-06-12T10:51:33Z</time>
      </trkpt>
      <trkpt lat="45.63387" lon="6.21289">
        <ele>1438</ele>
        <time>2011-06-12T10:51:38Z</time>
      </trkpt>
      <trkpt lat="45.63384" lon="6.21291">
        <ele>1438</ele>
        <time>2011-06-12T10:51:43Z</time>
      </trkpt>
      <trkpt lat="45.63384" lon="6.21295">
        <ele>1438</ele>
        <time>2011-06-12T10:51:48Z</time>
      </trkpt>
      <trkpt lat="45.63383" lon="6.21301">
        <ele>1439</ele>
        <time>2011-06-12T10:51:53Z</time>
      </trkpt>
      <trkpt lat="45.63382" lon="6.21307">
        <ele>1440</ele>
        <time>2011-06-12T10:51:58Z</time>
      </trkpt>
      <trkpt lat="45.63385" lon="6.21312">
        <ele>1442</ele>
        <time>2011-06-12T10:52:03Z</time>
      </trkpt>
      <trkpt lat="45.63387" lon="6.21315">
        <ele>1443</ele>
        <time>2011-06-12T10:52:08Z</time>
      </trkpt>
      <trkpt lat="45.6339" lon="6.21318">
        <ele>1445</ele>
        <time>2011-06-12T10:52:13Z</time>
      </trkpt>
      <trkpt lat="45.63395" lon="6.21323">
        <ele>1448</ele>
        <time>2011-06-12T10:52:18Z</time>
      </trkpt>
      <trkpt lat="45.63398" lon="6.21323">
        <ele>1449</ele>
        <time>2011-06-12T10:52:23Z</time>
      </trkpt>
      <trkpt lat="45.63401" lon="6.21321">
        <ele>1450</ele>
        <time>2011-06-12T10:52:28Z</time>
      </trkpt>
      <trkpt lat="45.63404" lon="6.21319">
        <ele>1451</ele>
        <time>2011-06-12T10:52:33Z</time>
      </trkpt>
      <trkpt lat="45.63406" lon="6.21318">
        <ele>1451</ele>
        <time>2011-06-12T10:52:38Z</time>
      </trkpt>
      <trkpt lat="45.63408" lon="6.21316">
        <ele>1450</ele>
        <time>2011-06-12T10:52:43Z</time>
      </trkpt>
      <trkpt lat="45.63413" lon="6.21315">
        <ele>1451</ele>
        <time>2011-06-12T10:52:48Z</time>
      </trkpt>
      <trkpt lat="45.63416" lon="6.21313">
        <ele>1450</ele>
        <time>2011-06-12T10:52:53Z</time>
      </trkpt>
      <trkpt lat="45.63419" lon="6.21311">
        <ele>1451</ele>
        <time>2011-06-12T10:52:58Z</time>
      </trkpt>
      <trkpt lat="45.63421" lon="6.21311">
        <ele>1450</ele>
        <time>2011-06-12T10:53:03Z</time>
      </trkpt>
      <trkpt lat="45.63422" lon="6.21314">
        <ele>1452</ele>
        <time>2011-06-12T10:53:08Z</time>
      </trkpt>
      <trkpt lat="45.63421" lon="6.21316">
        <ele>1453</ele>
        <time>2011-06-12T10:53:13Z</time>
      </trkpt>
      <trkpt lat="45.63421" lon="6.21316">
        <ele>1453</ele>
        <time>2011-06-12T10:53:18Z</time>
      </trkpt>
      <trkpt lat="45.63422" lon="6.2132">
        <ele>1454</ele>
        <time>2011-06-12T10:53:23Z</time>
      </trkpt>
      <trkpt lat="45.63419" lon="6.2132">
        <ele>1456</ele>
        <time>2011-06-12T10:53:28Z</time>
      </trkpt>
      <trkpt lat="45.63422" lon="6.21325">
        <ele>1458</ele>
        <time>2011-06-12T10:53:33Z</time>
      </trkpt>
      <trkpt lat="45.63424" lon="6.21328">
        <ele>1458</ele>
        <time>2011-06-12T10:53:38Z</time>
      </trkpt>
      <trkpt lat="45.63423" lon="6.21332">
        <ele>1461</ele>
        <time>2011-06-12T10:53:43Z</time>
      </trkpt>
      <trkpt lat="45.63422" lon="6.21334">
        <ele>1467</ele>
        <time>2011-06-12T10:53:48Z</time>
      </trkpt>
      <trkpt lat="45.63421" lon="6.21337">
        <ele>1467</ele>
        <time>2011-06-12T10:53:53Z</time>
      </trkpt>
      <trkpt lat="45.63419" lon="6.2134">
        <ele>1467</ele>
        <time>2011-06-12T10:53:58Z</time>
      </trkpt>
      <trkpt lat="45.63418" lon="6.21348">
        <ele>1467</ele>
        <time>2011-06-12T10:54:03Z</time>
      </trkpt>
      <trkpt lat="45.63418" lon="6.21356">
        <ele>1468</ele>
        <time>2011-06-12T10:54:08Z</time>
      </trkpt>
      <trkpt lat="45.63415" lon="6.2136">
        <ele>1472</ele>
        <time>2011-06-12T10:54:13Z</time>
      </trkpt>
      <trkpt lat="45.63413" lon="6.21365">
        <ele>1473</ele>
        <time>2011-06-12T10:54:18Z</time>
      </trkpt>
      <trkpt lat="45.63411" lon="6.21367">
        <ele>1473</ele>
        <time>2011-06-12T10:54:23Z</time>
      </trkpt>
      <trkpt lat="45.63409" lon="6.21373">
        <ele>1475</ele>
        <time>2011-06-12T10:54:28Z</time>
      </trkpt>
      <trkpt lat="45.63406" lon="6.21378">
        <ele>1476</ele>
        <time>2011-06-12T10:54:33Z</time>
      </trkpt>
      <trkpt lat="45.63403" lon="6.2138">
        <ele>1476</ele>
        <time>2011-06-12T10:54:38Z</time>
      </trkpt>
      <trkpt lat="45.63401" lon="6.21384">
        <ele>1477</ele>
        <time>2011-06-12T10:54:43Z</time>
      </trkpt>
      <trkpt lat="45.634" lon="6.21384">
        <ele>1477</ele>
        <time>2011-06-12T10:54:48Z</time>
      </trkpt>
      <trkpt lat="45.63399" lon="6.21383">
        <ele>1476</ele>
        <time>2011-06-12T10:54:53Z</time>
      </trkpt>
      <trkpt lat="45.634" lon="6.21387">
        <ele>1478</ele>
        <time>2011-06-12T10:54:58Z</time>
      </trkpt>
      <trkpt lat="45.63398" lon="6.21391">
        <ele>1479</ele>
        <time>2011-06-12T10:55:03Z</time>
      </trkpt>
      <trkpt lat="45.63396" lon="6.21399">
        <ele>1481</ele>
        <time>2011-06-12T10:55:08Z</time>
      </trkpt>
      <trkpt lat="45.63396" lon="6.21402">
        <ele>1482</ele>
        <time>2011-06-12T10:55:13Z</time>
      </trkpt>
      <trkpt lat="45.63397" lon="6.21405">
        <ele>1483</ele>
        <time>2011-06-12T10:55:18Z</time>
      </trkpt>
      <trkpt lat="45.63395" lon="6.21409">
        <ele>1484</ele>
        <time>2011-06-12T10:55:23Z</time>
      </trkpt>
      <trkpt lat="45.63392" lon="6.21414">
        <ele>1483</ele>
        <time>2011-06-12T10:55:28Z</time>
      </trkpt>
      <trkpt lat="45.63391" lon="6.21417">
        <ele>1502</ele>
        <time>2011-06-12T10:55:33Z</time>
      </trkpt>
      <trkpt lat="45.6339" lon="6.2142">
        <ele>1502</ele>
        <time>2011-06-12T10:55:38Z</time>
      </trkpt>
      <trkpt lat="45.6339" lon="6.21426">
        <ele>1502</ele>
        <time>2011-06-12T10:55:43Z</time>
      </trkpt>
      <trkpt lat="45.63387" lon="6.21428">
        <ele>1502</ele>
        <time>2011-06-12T10:55:48Z</time>
      </trkpt>
      <trkpt lat="45.63386" lon="6.21429">
        <ele>1502</ele>
        <time>2011-06-12T10:55:53Z</time>
      </trkpt>
      <trkpt lat="45.63384" lon="6.21433">
        <ele>1502</ele>
        <time>2011-06-12T10:55:58Z</time>
      </trkpt>
      <trkpt lat="45.63382" lon="6.21441">
        <ele>1502</ele>
        <time>2011-06-12T10:56:03Z</time>
      </trkpt>
      <trkpt lat="45.63382" lon="6.21446">
        <ele>1503</ele>
        <time>2011-06-12T10:56:08Z</time>
      </trkpt>
      <trkpt lat="45.63381" lon="6.21451">
        <ele>1504</ele>
        <time>2011-06-12T10:56:13Z</time>
      </trkpt>
      <trkpt lat="45.6338" lon="6.21453">
        <ele>1504</ele>
        <time>2011-06-12T10:56:18Z</time>
      </trkpt>
      <trkpt lat="45.6338" lon="6.21455">
        <ele>1504</ele>
        <time>2011-06-12T10:56:23Z</time>
      </trkpt>
      <trkpt lat="45.6338" lon="6.21456">
        <ele>1504</ele>
        <time>2011-06-12T10:56:28Z</time>
      </trkpt>
      <trkpt lat="45.63378" lon="6.2146">
        <ele>1505</ele>
        <time>2011-06-12T10:56:33Z</time>
      </trkpt>
      <trkpt lat="45.63375" lon="6.21464">
        <ele>1505</ele>
        <time>2011-06-12T10:56:38Z</time>
      </trkpt>
      <trkpt lat="45.63374" lon="6.21465">
        <ele>1505</ele>
        <time>2011-06-12T10:56:43Z</time>
      </trkpt>
      <trkpt lat="45.63376" lon="6.21468">
        <ele>1506</ele>
        <time>2011-06-12T10:56:48Z</time>
      </trkpt>
      <trkpt lat="45.6338" lon="6.21471">
        <ele>1507</ele>
        <time>2011-06-12T10:56:53Z</time>
      </trkpt>
      <trkpt lat="45.63383" lon="6.21473">
        <ele>1508</ele>
        <time>2011-06-12T10:56:58Z</time>
      </trkpt>
      <trkpt lat="45.63384" lon="6.21471">
        <ele>1507</ele>
        <time>2011-06-12T10:57:03Z</time>
      </trkpt>
      <trkpt lat="45.63388" lon="6.21469">
        <ele>1507</ele>
        <time>2011-06-12T10:57:08Z</time>
      </trkpt>
      <trkpt lat="45.63394" lon="6.21471">
        <ele>1509</ele>
        <time>2011-06-12T10:57:13Z</time>
      </trkpt>
      <trkpt lat="45.63397" lon="6.2147">
        <ele>1509</ele>
        <time>2011-06-12T10:57:18Z</time>
      </trkpt>
      <trkpt lat="45.634" lon="6.21469">
        <ele>1509</ele>
        <time>2011-06-12T10:57:23Z</time>
      </trkpt>
      <trkpt lat="45.63405" lon="6.21468">
        <ele>1509</ele>
        <time>2011-06-12T10:57:28Z</time>
      </trkpt>
      <trkpt lat="45.63409" lon="6.21469">
        <ele>1510</ele>
        <time>2011-06-12T10:57:33Z</time>
      </trkpt>
      <trkpt lat="45.63413" lon="6.21468">
        <ele>1510</ele>
        <time>2011-06-12T10:57:38Z</time>
      </trkpt>
      <trkpt lat="45.63414" lon="6.21469">
        <ele>1510</ele>
        <time>2011-06-12T10:57:43Z</time>
      </trkpt>
      <trkpt lat="45.63415" lon="6.21474">
        <ele>1511</ele>
        <time>2011-06-12T10:57:48Z</time>
      </trkpt>
      <trkpt lat="45.63415" lon="6.21477">
        <ele>1513</ele>
        <time>2011-06-12T10:57:53Z</time>
      </trkpt>
      <trkpt lat="45.63416" lon="6.21484">
        <ele>1515</ele>
        <time>2011-06-12T10:57:58Z</time>
      </trkpt>
      <trkpt lat="45.63417" lon="6.21488">
        <ele>1510</ele>
        <time>2011-06-12T10:58:03Z</time>
      </trkpt>
      <trkpt lat="45.63416" lon="6.21493">
        <ele>1519</ele>
        <time>2011-06-12T10:58:08Z</time>
      </trkpt>
      <trkpt lat="45.63414" lon="6.21496">
        <ele>1521</ele>
        <time>2011-06-12T10:58:13Z</time>
      </trkpt>
      <trkpt lat="45.63413" lon="6.21498">
        <ele>1521</ele>
        <time>2011-06-12T10:58:18Z</time>
      </trkpt>
      <trkpt lat="45.63412" lon="6.21502">
        <ele>1526</ele>
        <time>2011-06-12T10:58:23Z</time>
      </trkpt>
      <trkpt lat="45.63412" lon="6.21503">
        <ele>1527</ele>
        <time>2011-06-12T10:58:28Z</time>
      </trkpt>
      <trkpt lat="45.63413" lon="6.21502">
        <ele>1526</ele>
        <time>2011-06-12T10:58:33Z</time>
      </trkpt>
      <trkpt lat="45.63411" lon="6.21501">
        <ele>1527</ele>
        <time>2011-06-12T10:58:38Z</time>
      </trkpt>
      <trkpt lat="45.6341" lon="6.21502">
        <ele>1527</ele>
        <time>2011-06-12T10:58:43Z</time>
      </trkpt>
      <trkpt lat="45.6341" lon="6.21504">
        <ele>1527</ele>
        <time>2011-06-12T10:58:48Z</time>
      </trkpt>
      <trkpt lat="45.63407" lon="6.21505">
        <ele>1528</ele>
        <time>2011-06-12T10:58:53Z</time>
      </trkpt>
      <trkpt lat="45.63406" lon="6.21509">
        <ele>1529</ele>
        <time>2011-06-12T10:58:58Z</time>
      </trkpt>
      <trkpt lat="45.63404" lon="6.21511">
        <ele>1530</ele>
        <time>2011-06-12T10:59:03Z</time>
      </trkpt>
      <trkpt lat="45.63403" lon="6.21516">
        <ele>1531</ele>
        <time>2011-06-12T10:59:08Z</time>
      </trkpt>
      <trkpt lat="45.634" lon="6.21519">
        <ele>1532</ele>
        <time>2011-06-12T10:59:13Z</time>
      </trkpt>
      <trkpt lat="45.63399" lon="6.2152">
        <ele>1533</ele>
        <time>2011-06-12T10:59:18Z</time>
      </trkpt>
      <trkpt lat="45.63395" lon="6.21521">
        <ele>1533</ele>
        <time>2011-06-12T10:59:23Z</time>
      </trkpt>
      <trkpt lat="45.63391" lon="6.21524">
        <ele>1534</ele>
        <time>2011-06-12T10:59:28Z</time>
      </trkpt>
      <trkpt lat="45.63387" lon="6.21524">
        <ele>1534</ele>
        <time>2011-06-12T10:59:33Z</time>
      </trkpt>
      <trkpt lat="45.6338" lon="6.21525">
        <ele>1534</ele>
        <time>2011-06-12T10:59:38Z</time>
      </trkpt>
      <trkpt lat="45.63376" lon="6.21529">
        <ele>1535</ele>
        <time>2011-06-12T10:59:43Z</time>
      </trkpt>
      <trkpt lat="45.63374" lon="6.21531">
        <ele>1535</ele>
        <time>2011-06-12T10:59:48Z</time>
      </trkpt>
      <trkpt lat="45.63372" lon="6.21534">
        <ele>1536</ele>
        <time>2011-06-12T10:59:53Z</time>
      </trkpt>
      <trkpt lat="45.63373" lon="6.21538">
        <ele>1537</ele>
        <time>2011-06-12T10:59:58Z</time>
      </trkpt>
      <trkpt lat="45.63371" lon="6.2154">
        <ele>1537</ele>
        <time>2011-06-12T11:00:03Z</time>
      </trkpt>
      <trkpt lat="45.63371" lon="6.21546">
        <ele>1539</ele>
        <time>2011-06-12T11:00:08Z</time>
      </trkpt>
      <trkpt lat="45.63372" lon="6.21552">
        <ele>1540</ele>
        <time>2011-06-12T11:00:13Z</time>
      </trkpt>
      <trkpt lat="45.63375" lon="6.21554">
        <ele>1540</ele>
        <time>2011-06-12T11:00:18Z</time>
      </trkpt>
      <trkpt lat="45.63379" lon="6.21558">
        <ele>1541</ele>
        <time>2011-06-12T11:00:23Z</time>
      </trkpt>
      <trkpt lat="45.63381" lon="6.21561">
        <ele>1542</ele>
        <time>2011-06-12T11:00:28Z</time>
      </trkpt>
      <trkpt lat="45.63384" lon="6.21563">
        <ele>1542</ele>
        <time>2011-06-12T11:00:33Z</time>
      </trkpt>
      <trkpt lat="45.63385" lon="6.21567">
        <ele>1542</ele>
        <time>2011-06-12T11:00:38Z</time>
      </trkpt>
      <trkpt lat="45.63387" lon="6.21565">
        <ele>1542</ele>
        <time>2011-06-12T11:00:43Z</time>
      </trkpt>
      <trkpt lat="45.63387" lon="6.21563">
        <ele>1542</ele>
        <time>2011-06-12T11:00:48Z</time>
      </trkpt>
      <trkpt lat="45.63387" lon="6.21562">
        <ele>1542</ele>
        <time>2011-06-12T11:00:53Z</time>
      </trkpt>
      <trkpt lat="45.63387" lon="6.21563">
        <ele>1542</ele>
        <time>2011-06-12T11:00:58Z</time>
      </trkpt>
      <trkpt lat="45.63389" lon="6.21565">
        <ele>1542</ele>
        <time>2011-06-12T11:01:03Z</time>
      </trkpt>
      <trkpt lat="45.63387" lon="6.21569">
        <ele>1543</ele>
        <time>2011-06-12T11:01:08Z</time>
      </trkpt>
      <trkpt lat="45.63383" lon="6.21572">
        <ele>1543</ele>
        <time>2011-06-12T11:01:13Z</time>
      </trkpt>
      <trkpt lat="45.6338" lon="6.21574">
        <ele>1544</ele>
        <time>2011-06-12T11:01:18Z</time>
      </trkpt>
      <trkpt lat="45.63379" lon="6.21576">
        <ele>1544</ele>
        <time>2011-06-12T11:01:23Z</time>
      </trkpt>
      <trkpt lat="45.63376" lon="6.21579">
        <ele>1544</ele>
        <time>2011-06-12T11:01:28Z</time>
      </trkpt>
      <trkpt lat="45.63374" lon="6.21582">
        <ele>1545</ele>
        <time>2011-06-12T11:01:33Z</time>
      </trkpt>
      <trkpt lat="45.63371" lon="6.21584">
        <ele>1567</ele>
        <time>2011-06-12T11:01:38Z</time>
      </trkpt>
      <trkpt lat="45.63366" lon="6.21587">
        <ele>1567</ele>
        <time>2011-06-12T11:01:43Z</time>
      </trkpt>
      <trkpt lat="45.63364" lon="6.21587">
        <ele>1568</ele>
        <time>2011-06-12T11:01:48Z</time>
      </trkpt>
      <trkpt lat="45.63362" lon="6.21588">
        <ele>1568</ele>
        <time>2011-06-12T11:01:53Z</time>
      </trkpt>
      <trkpt lat="45.63359" lon="6.21591">
        <ele>1568</ele>
        <time>2011-06-12T11:01:58Z</time>
      </trkpt>
      <trkpt lat="45.63353" lon="6.2159">
        <ele>1568</ele>
        <time>2011-06-12T11:02:03Z</time>
      </trkpt>
      <trkpt lat="45.63351" lon="6.21593">
        <ele>1568</ele>
        <time>2011-06-12T11:02:08Z</time>
      </trkpt>
      <trkpt lat="45.63346" lon="6.21595">
        <ele>1568</ele>
        <time>2011-06-12T11:02:13Z</time>
      </trkpt>
      <trkpt lat="45.63339" lon="6.21598">
        <ele>1568</ele>
        <time>2011-06-12T11:02:18Z</time>
      </trkpt>
      <trkpt lat="45.63337" lon="6.21602">
        <ele>1569</ele>
        <time>2011-06-12T11:02:23Z</time>
      </trkpt>
      <trkpt lat="45.6333" lon="6.21604">
        <ele>1563</ele>
        <time>2011-06-12T11:02:28Z</time>
      </trkpt>
      <trkpt lat="45.63323" lon="6.21606">
        <ele>1563</ele>
        <time>2011-06-12T11:02:33Z</time>
      </trkpt>
      <trkpt lat="45.63319" lon="6.21609">
        <ele>1563</ele>
        <time>2011-06-12T11:02:38Z</time>
      </trkpt>
      <trkpt lat="45.63318" lon="6.21613">
        <ele>1563</ele>
        <time>2011-06-12T11:02:43Z</time>
      </trkpt>
      <trkpt lat="45.63316" lon="6.21614">
        <ele>1563</ele>
        <time>2011-06-12T11:02:48Z</time>
      </trkpt>
      <trkpt lat="45.63315" lon="6.21614">
        <ele>1563</ele>
        <time>2011-06-12T11:02:53Z</time>
      </trkpt>
      <trkpt lat="45.63311" lon="6.21615">
        <ele>1563</ele>
        <time>2011-06-12T11:02:58Z</time>
      </trkpt>
      <trkpt lat="45.63309" lon="6.21615">
        <ele>1562</ele>
        <time>2011-06-12T11:03:03Z</time>
      </trkpt>
      <trkpt lat="45.63308" lon="6.21618">
        <ele>1563</ele>
        <time>2011-06-12T11:03:08Z</time>
      </trkpt>
      <trkpt lat="45.63307" lon="6.21623">
        <ele>1563</ele>
        <time>2011-06-12T11:03:13Z</time>
      </trkpt>
      <trkpt lat="45.63303" lon="6.21625">
        <ele>1563</ele>
        <time>2011-06-12T11:03:18Z</time>
      </trkpt>
      <trkpt lat="45.63302" lon="6.21627">
        <ele>1563</ele>
        <time>2011-06-12T11:03:23Z</time>
      </trkpt>
      <trkpt lat="45.63298" lon="6.21632">
        <ele>1563</ele>
        <time>2011-06-12T11:03:28Z</time>
      </trkpt>
      <trkpt lat="45.63295" lon="6.21638">
        <ele>1563</ele>
        <time>2011-06-12T11:03:33Z</time>
      </trkpt>
      <trkpt lat="45.63294" lon="6.21642">
        <ele>1563</ele>
        <time>2011-06-12T11:03:38Z</time>
      </trkpt>
      <trkpt lat="45.63294" lon="6.21646">
        <ele>1564</ele>
        <time>2011-06-12T11:03:43Z</time>
      </trkpt>
      <trkpt lat="45.63291" lon="6.21649">
        <ele>1564</ele>
        <time>2011-06-12T11:03:48Z</time>
      </trkpt>
      <trkpt lat="45.63289" lon="6.21652">
        <ele>1563</ele>
        <time>2011-06-12T11:03:53Z</time>
      </trkpt>
      <trkpt lat="45.63287" lon="6.21656">
        <ele>1563</ele>
        <time>2011-06-12T11:03:58Z</time>
      </trkpt>
      <trkpt lat="45.63287" lon="6.21662">
        <ele>1563</ele>
        <time>2011-06-12T11:04:03Z</time>
      </trkpt>
      <trkpt lat="45.63286" lon="6.21668">
        <ele>1579</ele>
        <time>2011-06-12T11:04:08Z</time>
      </trkpt>
      <trkpt lat="45.63285" lon="6.21674">
        <ele>1579</ele>
        <time>2011-06-12T11:04:13Z</time>
      </trkpt>
      <trkpt lat="45.63283" lon="6.21678">
        <ele>1579</ele>
        <time>2011-06-12T11:04:18Z</time>
      </trkpt>
      <trkpt lat="45.63282" lon="6.21684">
        <ele>1579</ele>
        <time>2011-06-12T11:04:23Z</time>
      </trkpt>
      <trkpt lat="45.63281" lon="6.21688">
        <ele>1580</ele>
        <time>2011-06-12T11:04:28Z</time>
      </trkpt>
      <trkpt lat="45.6328" lon="6.21692">
        <ele>1580</ele>
        <time>2011-06-12T11:04:33Z</time>
      </trkpt>
      <trkpt lat="45.63281" lon="6.21697">
        <ele>1581</ele>
        <time>2011-06-12T11:04:38Z</time>
      </trkpt>
      <trkpt lat="45.63282" lon="6.21701">
        <ele>1582</ele>
        <time>2011-06-12T11:04:43Z</time>
      </trkpt>
      <trkpt lat="45.63282" lon="6.21704">
        <ele>1583</ele>
        <time>2011-06-12T11:04:48Z</time>
      </trkpt>
      <trkpt lat="45.63284" lon="6.21705">
        <ele>1584</ele>
        <time>2011-06-12T11:04:53Z</time>
      </trkpt>
      <trkpt lat="45.63286" lon="6.21704">
        <ele>1584</ele>
        <time>2011-06-12T11:04:58Z</time>
      </trkpt>
      <trkpt lat="45.63286" lon="6.21703">
        <ele>1584</ele>
        <time>2011-06-12T11:05:03Z</time>
      </trkpt>
      <trkpt lat="45.63284" lon="6.21701">
        <ele>1583</ele>
        <time>2011-06-12T11:05:08Z</time>
      </trkpt>
      <trkpt lat="45.63284" lon="6.21699">
        <ele>1582</ele>
        <time>2011-06-12T11:05:13Z</time>
      </trkpt>
      <trkpt lat="45.63287" lon="6.21699">
        <ele>1583</ele>
        <time>2011-06-12T11:05:18Z</time>
      </trkpt>
      <trkpt lat="45.63288" lon="6.21699">
        <ele>1584</ele>
        <time>2011-06-12T11:05:23Z</time>
      </trkpt>
      <trkpt lat="45.6329" lon="6.21698">
        <ele>1584</ele>
        <time>2011-06-12T11:05:28Z</time>
      </trkpt>
      <trkpt lat="45.63293" lon="6.217">
        <ele>1585</ele>
        <time>2011-06-12T11:05:33Z</time>
      </trkpt>
      <trkpt lat="45.63295" lon="6.21699">
        <ele>1586</ele>
        <time>2011-06-12T11:05:38Z</time>
      </trkpt>
      <trkpt lat="45.63296" lon="6.21699">
        <ele>1586</ele>
        <time>2011-06-12T11:05:43Z</time>
      </trkpt>
      <trkpt lat="45.63297" lon="6.217">
        <ele>1586</ele>
        <time>2011-06-12T11:05:48Z</time>
      </trkpt>
      <trkpt lat="45.63301" lon="6.217">
        <ele>1587</ele>
        <time>2011-06-12T11:05:53Z</time>
      </trkpt>
      <trkpt lat="45.63302" lon="6.21699">
        <ele>1587</ele>
        <time>2011-06-12T11:05:58Z</time>
      </trkpt>
      <trkpt lat="45.63305" lon="6.21701">
        <ele>1588</ele>
        <time>2011-06-12T11:06:03Z</time>
      </trkpt>
      <trkpt lat="45.63308" lon="6.21703">
        <ele>1589</ele>
        <time>2011-06-12T11:06:08Z</time>
      </trkpt>
      <trkpt lat="45.6331" lon="6.21705">
        <ele>1590</ele>
        <time>2011-06-12T11:06:13Z</time>
      </trkpt>
      <trkpt lat="45.63312" lon="6.21704">
        <ele>1590</ele>
        <time>2011-06-12T11:06:18Z</time>
      </trkpt>
      <trkpt lat="45.63313" lon="6.21703">
        <ele>1590</ele>
        <time>2011-06-12T11:06:23Z</time>
      </trkpt>
      <trkpt lat="45.63315" lon="6.21703">
        <ele>1591</ele>
        <time>2011-06-12T11:06:28Z</time>
      </trkpt>
      <trkpt lat="45.63316" lon="6.21702">
        <ele>1591</ele>
        <time>2011-06-12T11:06:33Z</time>
      </trkpt>
      <trkpt lat="45.63315" lon="6.21701">
        <ele>1591</ele>
        <time>2011-06-12T11:06:38Z</time>
      </trkpt>
      <trkpt lat="45.63316" lon="6.21702">
        <ele>1591</ele>
        <time>2011-06-12T11:06:43Z</time>
      </trkpt>
      <trkpt lat="45.63316" lon="6.21702">
        <ele>1591</ele>
        <time>2011-06-12T11:06:48Z</time>
      </trkpt>
      <trkpt lat="45.63319" lon="6.21703">
        <ele>1591</ele>
        <time>2011-06-12T11:06:53Z</time>
      </trkpt>
      <trkpt lat="45.63319" lon="6.21705">
        <ele>1592</ele>
        <time>2011-06-12T11:06:58Z</time>
      </trkpt>
      <trkpt lat="45.63322" lon="6.21705">
        <ele>1592</ele>
        <time>2011-06-12T11:07:03Z</time>
      </trkpt>
      <trkpt lat="45.63323" lon="6.21705">
        <ele>1592</ele>
        <time>2011-06-12T11:07:08Z</time>
      </trkpt>
      <trkpt lat="45.63325" lon="6.21706">
        <ele>1593</ele>
        <time>2011-06-12T11:07:13Z</time>
      </trkpt>
      <trkpt lat="45.63327" lon="6.21708">
        <ele>1593</ele>
        <time>2011-06-12T11:07:18Z</time>
      </trkpt>
      <trkpt lat="45.63329" lon="6.2171">
        <ele>1594</ele>
        <time>2011-06-12T11:07:23Z</time>
      </trkpt>
      <trkpt lat="45.63331" lon="6.21711">
        <ele>1594</ele>
        <time>2011-06-12T11:07:28Z</time>
      </trkpt>
      <trkpt lat="45.63331" lon="6.21711">
        <ele>1594</ele>
        <time>2011-06-12T11:07:33Z</time>
      </trkpt>
      <trkpt lat="45.63332" lon="6.21714">
        <ele>1595</ele>
        <time>2011-06-12T11:07:38Z</time>
      </trkpt>
      <trkpt lat="45.63335" lon="6.21717">
        <ele>1602</ele>
        <time>2011-06-12T11:07:43Z</time>
      </trkpt>
      <trkpt lat="45.63337" lon="6.2172">
        <ele>1602</ele>
        <time>2011-06-12T11:07:48Z</time>
      </trkpt>
      <trkpt lat="45.63338" lon="6.21721">
        <ele>1603</ele>
        <time>2011-06-12T11:07:53Z</time>
      </trkpt>
      <trkpt lat="45.63338" lon="6.21723">
        <ele>1603</ele>
        <time>2011-06-12T11:07:58Z</time>
      </trkpt>
      <trkpt lat="45.63338" lon="6.21724">
        <ele>1603</ele>
        <time>2011-06-12T11:08:03Z</time>
      </trkpt>
      <trkpt lat="45.63337" lon="6.21725">
        <ele>1604</ele>
        <time>2011-06-12T11:08:08Z</time>
      </trkpt>
      <trkpt lat="45.63337" lon="6.21726">
        <ele>1604</ele>
        <time>2011-06-12T11:08:13Z</time>
      </trkpt>
      <trkpt lat="45.63338" lon="6.21726">
        <ele>1604</ele>
        <time>2011-06-12T11:08:18Z</time>
      </trkpt>
      <trkpt lat="45.63342" lon="6.21726">
        <ele>1604</ele>
        <time>2011-06-12T11:08:23Z</time>
      </trkpt>
      <trkpt lat="45.63342" lon="6.21726">
        <ele>1604</ele>
        <time>2011-06-12T11:08:28Z</time>
      </trkpt>
      <trkpt lat="45.63342" lon="6.21726">
        <ele>1603</ele>
        <time>2011-06-12T11:08:33Z</time>
      </trkpt>
      <trkpt lat="45.63344" lon="6.21727">
        <ele>1603</ele>
        <time>2011-06-12T11:08:38Z</time>
      </trkpt>
      <trkpt lat="45.63346" lon="6.21728">
        <ele>1604</ele>
        <time>2011-06-12T11:08:43Z</time>
      </trkpt>
      <trkpt lat="45.63347" lon="6.21731">
        <ele>1604</ele>
        <time>2011-06-12T11:08:48Z</time>
      </trkpt>
      <trkpt lat="45.63349" lon="6.21733">
        <ele>1604</ele>
        <time>2011-06-12T11:08:53Z</time>
      </trkpt>
      <trkpt lat="45.63352" lon="6.21735">
        <ele>1604</ele>
        <time>2011-06-12T11:08:58Z</time>
      </trkpt>
      <trkpt lat="45.63355" lon="6.21739">
        <ele>1604</ele>
        <time>2011-06-12T11:10:28Z</time>
      </trkpt>
      <trkpt lat="45.63355" lon="6.21738">
        <ele>1604</ele>
        <time>2011-06-12T11:10:33Z</time>
      </trkpt>
      <trkpt lat="45.63354" lon="6.21739">
        <ele>1604</ele>
        <time>2011-06-12T11:10:38Z</time>
      </trkpt>
      <trkpt lat="45.63353" lon="6.21743">
        <ele>1605</ele>
        <time>2011-06-12T11:10:43Z</time>
      </trkpt>
      <trkpt lat="45.63351" lon="6.21747">
        <ele>1606</ele>
        <time>2011-06-12T11:10:48Z</time>
      </trkpt>
      <trkpt lat="45.63348" lon="6.2175">
        <ele>1613</ele>
        <time>2011-06-12T11:10:53Z</time>
      </trkpt>
      <trkpt lat="45.63346" lon="6.21754">
        <ele>1613</ele>
        <time>2011-06-12T11:10:58Z</time>
      </trkpt>
      <trkpt lat="45.63346" lon="6.21757">
        <ele>1613</ele>
        <time>2011-06-12T11:11:03Z</time>
      </trkpt>
      <trkpt lat="45.63344" lon="6.21761">
        <ele>1613</ele>
        <time>2011-06-12T11:11:08Z</time>
      </trkpt>
      <trkpt lat="45.63342" lon="6.21765">
        <ele>1613</ele>
        <time>2011-06-12T11:11:13Z</time>
      </trkpt>
      <trkpt lat="45.6334" lon="6.21769">
        <ele>1613</ele>
        <time>2011-06-12T11:11:18Z</time>
      </trkpt>
      <trkpt lat="45.63339" lon="6.21773">
        <ele>1613</ele>
        <time>2011-06-12T11:11:23Z</time>
      </trkpt>
      <trkpt lat="45.6334" lon="6.21773">
        <ele>1613</ele>
        <time>2011-06-12T11:11:28Z</time>
      </trkpt>
      <trkpt lat="45.6334" lon="6.21774">
        <ele>1613</ele>
        <time>2011-06-12T11:11:33Z</time>
      </trkpt>
      <trkpt lat="45.6334" lon="6.21774">
        <ele>1613</ele>
        <time>2011-06-12T11:11:38Z</time>
      </trkpt>
      <trkpt lat="45.63337" lon="6.2178">
        <ele>1614</ele>
        <time>2011-06-12T11:11:43Z</time>
      </trkpt>
      <trkpt lat="45.63337" lon="6.21783">
        <ele>1614</ele>
        <time>2011-06-12T11:11:48Z</time>
      </trkpt>
      <trkpt lat="45.63337" lon="6.21783">
        <ele>1614</ele>
        <time>2011-06-12T11:11:53Z</time>
      </trkpt>
      <trkpt lat="45.63337" lon="6.21784">
        <ele>1614</ele>
        <time>2011-06-12T11:11:58Z</time>
      </trkpt>
      <trkpt lat="45.63337" lon="6.21783">
        <ele>1614</ele>
        <time>2011-06-12T11:12:03Z</time>
      </trkpt>
      <trkpt lat="45.63336" lon="6.21783">
        <ele>1614</ele>
        <time>2011-06-12T11:12:08Z</time>
      </trkpt>
      <trkpt lat="45.63336" lon="6.21783">
        <ele>1614</ele>
        <time>2011-06-12T11:12:13Z</time>
      </trkpt>
      <trkpt lat="45.63336" lon="6.21783">
        <ele>1614</ele>
        <time>2011-06-12T11:12:18Z</time>
      </trkpt>
      <trkpt lat="45.63335" lon="6.21781">
        <ele>1614</ele>
        <time>2011-06-12T11:12:23Z</time>
      </trkpt>
      <trkpt lat="45.63335" lon="6.21785">
        <ele>1614</ele>
        <time>2011-06-12T11:12:28Z</time>
      </trkpt>
      <trkpt lat="45.63333" lon="6.21792">
        <ele>1613</ele>
        <time>2011-06-12T11:12:33Z</time>
      </trkpt>
      <trkpt lat="45.63332" lon="6.21796">
        <ele>1614</ele>
        <time>2011-06-12T11:12:38Z</time>
      </trkpt>
      <trkpt lat="45.63332" lon="6.21801">
        <ele>1615</ele>
        <time>2011-06-12T11:12:43Z</time>
      </trkpt>
      <trkpt lat="45.63331" lon="6.21807">
        <ele>1616</ele>
        <time>2011-06-12T11:12:48Z</time>
      </trkpt>
      <trkpt lat="45.63331" lon="6.21811">
        <ele>1618</ele>
        <time>2011-06-12T11:12:53Z</time>
      </trkpt>
      <trkpt lat="45.63331" lon="6.21816">
        <ele>1620</ele>
        <time>2011-06-12T11:12:58Z</time>
      </trkpt>
      <trkpt lat="45.63331" lon="6.2182">
        <ele>1622</ele>
        <time>2011-06-12T11:13:03Z</time>
      </trkpt>
      <trkpt lat="45.63331" lon="6.21824">
        <ele>1624</ele>
        <time>2011-06-12T11:13:08Z</time>
      </trkpt>
      <trkpt lat="45.63331" lon="6.21827">
        <ele>1626</ele>
        <time>2011-06-12T11:13:13Z</time>
      </trkpt>
      <trkpt lat="45.63331" lon="6.2183">
        <ele>1628</ele>
        <time>2011-06-12T11:13:18Z</time>
      </trkpt>
      <trkpt lat="45.63331" lon="6.21833">
        <ele>1630</ele>
        <time>2011-06-12T11:13:23Z</time>
      </trkpt>
      <trkpt lat="45.63331" lon="6.21836">
        <ele>1632</ele>
        <time>2011-06-12T11:13:28Z</time>
      </trkpt>
      <trkpt lat="45.63332" lon="6.21838">
        <ele>1632</ele>
        <time>2011-06-12T11:13:33Z</time>
      </trkpt>
      <trkpt lat="45.63332" lon="6.21841">
        <ele>1633</ele>
        <time>2011-06-12T11:13:38Z</time>
      </trkpt>
      <trkpt lat="45.63331" lon="6.21844">
        <ele>1633</ele>
        <time>2011-06-12T11:13:43Z</time>
      </trkpt>
      <trkpt lat="45.63331" lon="6.21846">
        <ele>1633</ele>
        <time>2011-06-12T11:13:48Z</time>
      </trkpt>
      <trkpt lat="45.63331" lon="6.21848">
        <ele>1634</ele>
        <time>2011-06-12T11:13:53Z</time>
      </trkpt>
      <trkpt lat="45.63332" lon="6.2185">
        <ele>1634</ele>
        <time>2011-06-12T11:13:58Z</time>
      </trkpt>
      <trkpt lat="45.63331" lon="6.21853">
        <ele>1634</ele>
        <time>2011-06-12T11:14:03Z</time>
      </trkpt>
      <trkpt lat="45.63332" lon="6.21855">
        <ele>1635</ele>
        <time>2011-06-12T11:14:08Z</time>
      </trkpt>
      <trkpt lat="45.63334" lon="6.21856">
        <ele>1630</ele>
        <time>2011-06-12T11:14:13Z</time>
      </trkpt>
      <trkpt lat="45.63334" lon="6.21859">
        <ele>1630</ele>
        <time>2011-06-12T11:14:18Z</time>
      </trkpt>
      <trkpt lat="45.63334" lon="6.21861">
        <ele>1631</ele>
        <time>2011-06-12T11:14:23Z</time>
      </trkpt>
      <trkpt lat="45.63336" lon="6.21863">
        <ele>1631</ele>
        <time>2011-06-12T11:14:28Z</time>
      </trkpt>
      <trkpt lat="45.63336" lon="6.21866">
        <ele>1631</ele>
        <time>2011-06-12T11:14:33Z</time>
      </trkpt>
      <trkpt lat="45.63336" lon="6.21868">
        <ele>1632</ele>
        <time>2011-06-12T11:14:38Z</time>
      </trkpt>
      <trkpt lat="45.63336" lon="6.21871">
        <ele>1632</ele>
        <time>2011-06-12T11:14:43Z</time>
      </trkpt>
      <trkpt lat="45.63338" lon="6.21872">
        <ele>1632</ele>
        <time>2011-06-12T11:14:48Z</time>
      </trkpt>
      <trkpt lat="45.63339" lon="6.21873">
        <ele>1632</ele>
        <time>2011-06-12T11:14:53Z</time>
      </trkpt>
      <trkpt lat="45.63339" lon="6.21875">
        <ele>1633</ele>
        <time>2011-06-12T11:14:58Z</time>
      </trkpt>
      <trkpt lat="45.63339" lon="6.21878">
        <ele>1633</ele>
        <time>2011-06-12T11:15:03Z</time>
      </trkpt>
      <trkpt lat="45.6334" lon="6.2188">
        <ele>1634</ele>
        <time>2011-06-12T11:15:08Z</time>
      </trkpt>
      <trkpt lat="45.63341" lon="6.21881">
        <ele>1634</ele>
        <time>2011-06-12T11:15:13Z</time>
      </trkpt>
      <trkpt lat="45.63341" lon="6.21884">
        <ele>1635</ele>
        <time>2011-06-12T11:15:18Z</time>
      </trkpt>
      <trkpt lat="45.63342" lon="6.21885">
        <ele>1635</ele>
        <time>2011-06-12T11:15:23Z</time>
      </trkpt>
      <trkpt lat="45.63342" lon="6.21888">
        <ele>1636</ele>
        <time>2011-06-12T11:15:28Z</time>
      </trkpt>
      <trkpt lat="45.63342" lon="6.21891">
        <ele>1638</ele>
        <time>2011-06-12T11:15:33Z</time>
      </trkpt>
      <trkpt lat="45.63344" lon="6.21891">
        <ele>1637</ele>
        <time>2011-06-12T11:15:38Z</time>
      </trkpt>
      <trkpt lat="45.63344" lon="6.21894">
        <ele>1638</ele>
        <time>2011-06-12T11:15:43Z</time>
      </trkpt>
      <trkpt lat="45.63344" lon="6.21896">
        <ele>1640</ele>
        <time>2011-06-12T11:15:48Z</time>
      </trkpt>
      <trkpt lat="45.63344" lon="6.21897">
        <ele>1640</ele>
        <time>2011-06-12T11:15:53Z</time>
      </trkpt>
      <trkpt lat="45.63344" lon="6.21899">
        <ele>1642</ele>
        <time>2011-06-12T11:15:58Z</time>
      </trkpt>
      <trkpt lat="45.63344" lon="6.21901">
        <ele>1642</ele>
        <time>2011-06-12T11:16:03Z</time>
      </trkpt>
      <trkpt lat="45.63344" lon="6.21903">
        <ele>1643</ele>
        <time>2011-06-12T11:16:08Z</time>
      </trkpt>
      <trkpt lat="45.63344" lon="6.21904">
        <ele>1644</ele>
        <time>2011-06-12T11:16:13Z</time>
      </trkpt>
      <trkpt lat="45.63344" lon="6.21907">
        <ele>1646</ele>
        <time>2011-06-12T11:16:18Z</time>
      </trkpt>
      <trkpt lat="45.63345" lon="6.21908">
        <ele>1646</ele>
        <time>2011-06-12T11:16:23Z</time>
      </trkpt>
      <trkpt lat="45.63347" lon="6.21908">
        <ele>1644</ele>
        <time>2011-06-12T11:16:28Z</time>
      </trkpt>
      <trkpt lat="45.63347" lon="6.21908">
        <ele>1644</ele>
        <time>2011-06-12T11:16:33Z</time>
      </trkpt>
      <trkpt lat="45.63347" lon="6.21909">
        <ele>1645</ele>
        <time>2011-06-12T11:16:38Z</time>
      </trkpt>
      <trkpt lat="45.63347" lon="6.21912">
        <ele>1646</ele>
        <time>2011-06-12T11:16:43Z</time>
      </trkpt>
      <trkpt lat="45.63348" lon="6.21913">
        <ele>1645</ele>
        <time>2011-06-12T11:16:48Z</time>
      </trkpt>
      <trkpt lat="45.6335" lon="6.21913">
        <ele>1643</ele>
        <time>2011-06-12T11:16:53Z</time>
      </trkpt>
      <trkpt lat="45.63352" lon="6.21914">
        <ele>1642</ele>
        <time>2011-06-12T11:16:58Z</time>
      </trkpt>
      <trkpt lat="45.63353" lon="6.21915">
        <ele>1641</ele>
        <time>2011-06-12T11:17:03Z</time>
      </trkpt>
      <trkpt lat="45.63355" lon="6.21916">
        <ele>1640</ele>
        <time>2011-06-12T11:17:08Z</time>
      </trkpt>
      <trkpt lat="45.63357" lon="6.21917">
        <ele>1653</ele>
        <time>2011-06-12T11:17:13Z</time>
      </trkpt>
      <trkpt lat="45.63358" lon="6.21918">
        <ele>1653</ele>
        <time>2011-06-12T11:17:18Z</time>
      </trkpt>
      <trkpt lat="45.63358" lon="6.21921">
        <ele>1653</ele>
        <time>2011-06-12T11:17:23Z</time>
      </trkpt>
      <trkpt lat="45.63358" lon="6.21924">
        <ele>1653</ele>
        <time>2011-06-12T11:17:28Z</time>
      </trkpt>
      <trkpt lat="45.63357" lon="6.21925">
        <ele>1653</ele>
        <time>2011-06-12T11:17:33Z</time>
      </trkpt>
      <trkpt lat="45.63357" lon="6.21928">
        <ele>1653</ele>
        <time>2011-06-12T11:17:38Z</time>
      </trkpt>
      <trkpt lat="45.63356" lon="6.2193">
        <ele>1654</ele>
        <time>2011-06-12T11:17:43Z</time>
      </trkpt>
      <trkpt lat="45.63356" lon="6.21932">
        <ele>1654</ele>
        <time>2011-06-12T11:17:48Z</time>
      </trkpt>
      <trkpt lat="45.63355" lon="6.21935">
        <ele>1654</ele>
        <time>2011-06-12T11:17:53Z</time>
      </trkpt>
      <trkpt lat="45.63355" lon="6.21937">
        <ele>1654</ele>
        <time>2011-06-12T11:17:58Z</time>
      </trkpt>
      <trkpt lat="45.63356" lon="6.21938">
        <ele>1654</ele>
        <time>2011-06-12T11:18:03Z</time>
      </trkpt>
      <trkpt lat="45.63358" lon="6.2194">
        <ele>1654</ele>
        <time>2011-06-12T11:18:08Z</time>
      </trkpt>
      <trkpt lat="45.63358" lon="6.21943">
        <ele>1654</ele>
        <time>2011-06-12T11:18:13Z</time>
      </trkpt>
      <trkpt lat="45.63357" lon="6.21946">
        <ele>1655</ele>
        <time>2011-06-12T11:18:18Z</time>
      </trkpt>
      <trkpt lat="45.63357" lon="6.21948">
        <ele>1655</ele>
        <time>2011-06-12T11:18:23Z</time>
      </trkpt>
      <trkpt lat="45.63357" lon="6.21948">
        <ele>1655</ele>
        <time>2011-06-12T11:18:28Z</time>
      </trkpt>
      <trkpt lat="45.63356" lon="6.2195">
        <ele>1655</ele>
        <time>2011-06-12T11:18:33Z</time>
      </trkpt>
      <trkpt lat="45.63355" lon="6.21954">
        <ele>1657</ele>
        <time>2011-06-12T11:18:38Z</time>
      </trkpt>
      <trkpt lat="45.63354" lon="6.21958">
        <ele>1658</ele>
        <time>2011-06-12T11:18:43Z</time>
      </trkpt>
      <trkpt lat="45.63353" lon="6.21962">
        <ele>1659</ele>
        <time>2011-06-12T11:18:48Z</time>
      </trkpt>
      <trkpt lat="45.63353" lon="6.21964">
        <ele>1660</ele>
        <time>2011-06-12T11:18:53Z</time>
      </trkpt>
      <trkpt lat="45.63353" lon="6.21967">
        <ele>1661</ele>
        <time>2011-06-12T11:18:58Z</time>
      </trkpt>
      <trkpt lat="45.63353" lon="6.2197">
        <ele>1662</ele>
        <time>2011-06-12T11:19:03Z</time>
      </trkpt>
      <trkpt lat="45.63353" lon="6.21974">
        <ele>1663</ele>
        <time>2011-06-12T11:19:08Z</time>
      </trkpt>
      <trkpt lat="45.63352" lon="6.21977">
        <ele>1665</ele>
        <time>2011-06-12T11:19:13Z</time>
      </trkpt>
      <trkpt lat="45.6335" lon="6.21981">
        <ele>1668</ele>
        <time>2011-06-12T11:19:18Z</time>
      </trkpt>
      <trkpt lat="45.63349" lon="6.21985">
        <ele>1670</ele>
        <time>2011-06-12T11:19:23Z</time>
      </trkpt>
      <trkpt lat="45.63348" lon="6.21989">
        <ele>1673</ele>
        <time>2011-06-12T11:19:28Z</time>
      </trkpt>
      <trkpt lat="45.63349" lon="6.21991">
        <ele>1673</ele>
        <time>2011-06-12T11:19:33Z</time>
      </trkpt>
      <trkpt lat="45.63349" lon="6.21992">
        <ele>1674</ele>
        <time>2011-06-12T11:19:38Z</time>
      </trkpt>
      <trkpt lat="45.63349" lon="6.21995">
        <ele>1675</ele>
        <time>2011-06-12T11:19:43Z</time>
      </trkpt>
      <trkpt lat="45.63348" lon="6.21999">
        <ele>1677</ele>
        <time>2011-06-12T11:19:48Z</time>
      </trkpt>
      <trkpt lat="45.63348" lon="6.22001">
        <ele>1690</ele>
        <time>2011-06-12T11:19:53Z</time>
      </trkpt>
      <trkpt lat="45.63348" lon="6.22002">
        <ele>1690</ele>
        <time>2011-06-12T11:19:58Z</time>
      </trkpt>
      <trkpt lat="45.6335" lon="6.22005">
        <ele>1689</ele>
        <time>2011-06-12T11:20:03Z</time>
      </trkpt>
      <trkpt lat="45.63348" lon="6.22006">
        <ele>1690</ele>
        <time>2011-06-12T11:20:08Z</time>
      </trkpt>
      <trkpt lat="45.63348" lon="6.22009">
        <ele>1690</ele>
        <time>2011-06-12T11:20:13Z</time>
      </trkpt>
      <trkpt lat="45.63348" lon="6.22011">
        <ele>1690</ele>
        <time>2011-06-12T11:20:18Z</time>
      </trkpt>
      <trkpt lat="45.63349" lon="6.22012">
        <ele>1689</ele>
        <time>2011-06-12T11:20:23Z</time>
      </trkpt>
      <trkpt lat="45.63351" lon="6.22013">
        <ele>1688</ele>
        <time>2011-06-12T11:20:28Z</time>
      </trkpt>
      <trkpt lat="45.63351" lon="6.22015">
        <ele>1688</ele>
        <time>2011-06-12T11:20:33Z</time>
      </trkpt>
      <trkpt lat="45.63351" lon="6.22018">
        <ele>1688</ele>
        <time>2011-06-12T11:20:38Z</time>
      </trkpt>
      <trkpt lat="45.6335" lon="6.2202">
        <ele>1689</ele>
        <time>2011-06-12T11:20:43Z</time>
      </trkpt>
      <trkpt lat="45.6335" lon="6.22023">
        <ele>1689</ele>
        <time>2011-06-12T11:20:48Z</time>
      </trkpt>
      <trkpt lat="45.6335" lon="6.22025">
        <ele>1689</ele>
        <time>2011-06-12T11:20:53Z</time>
      </trkpt>
      <trkpt lat="45.63348" lon="6.22028">
        <ele>1689</ele>
        <time>2011-06-12T11:20:58Z</time>
      </trkpt>
      <trkpt lat="45.63348" lon="6.22031">
        <ele>1690</ele>
        <time>2011-06-12T11:21:03Z</time>
      </trkpt>
      <trkpt lat="45.63348" lon="6.22034">
        <ele>1690</ele>
        <time>2011-06-12T11:21:08Z</time>
      </trkpt>
      <trkpt lat="45.63348" lon="6.22037">
        <ele>1691</ele>
        <time>2011-06-12T11:21:13Z</time>
      </trkpt>
      <trkpt lat="45.63347" lon="6.22041">
        <ele>1692</ele>
        <time>2011-06-12T11:21:18Z</time>
      </trkpt>
      <trkpt lat="45.63345" lon="6.22045">
        <ele>1694</ele>
        <time>2011-06-12T11:21:23Z</time>
      </trkpt>
      <trkpt lat="45.63344" lon="6.22049">
        <ele>1696</ele>
        <time>2011-06-12T11:21:28Z</time>
      </trkpt>
      <trkpt lat="45.63341" lon="6.22053">
        <ele>1698</ele>
        <time>2011-06-12T11:21:33Z</time>
      </trkpt>
      <trkpt lat="45.6334" lon="6.22057">
        <ele>1701</ele>
        <time>2011-06-12T11:21:38Z</time>
      </trkpt>
      <trkpt lat="45.63339" lon="6.22061">
        <ele>1704</ele>
        <time>2011-06-12T11:21:43Z</time>
      </trkpt>
      <trkpt lat="45.63336" lon="6.22064">
        <ele>1707</ele>
        <time>2011-06-12T11:21:48Z</time>
      </trkpt>
      <trkpt lat="45.63334" lon="6.22069">
        <ele>1711</ele>
        <time>2011-06-12T11:21:53Z</time>
      </trkpt>
      <trkpt lat="45.63332" lon="6.22072">
        <ele>1725</ele>
        <time>2011-06-12T11:21:58Z</time>
      </trkpt>
      <trkpt lat="45.6333" lon="6.22075">
        <ele>1726</ele>
        <time>2011-06-12T11:22:03Z</time>
      </trkpt>
      <trkpt lat="45.63328" lon="6.22077">
        <ele>1727</ele>
        <time>2011-06-12T11:22:08Z</time>
      </trkpt>
      <trkpt lat="45.63328" lon="6.2208">
        <ele>1728</ele>
        <time>2011-06-12T11:22:13Z</time>
      </trkpt>
      <trkpt lat="45.63328" lon="6.22082">
        <ele>1729</ele>
        <time>2011-06-12T11:22:18Z</time>
      </trkpt>
      <trkpt lat="45.63326" lon="6.22084">
        <ele>1737</ele>
        <time>2011-06-12T11:22:23Z</time>
      </trkpt>
      <trkpt lat="45.63325" lon="6.22086">
        <ele>1738</ele>
        <time>2011-06-12T11:22:28Z</time>
      </trkpt>
      <trkpt lat="45.63325" lon="6.22087">
        <ele>1738</ele>
        <time>2011-06-12T11:22:33Z</time>
      </trkpt>
      <trkpt lat="45.63325" lon="6.22089">
        <ele>1738</ele>
        <time>2011-06-12T11:22:38Z</time>
      </trkpt>
      <trkpt lat="45.63324" lon="6.22091">
        <ele>1739</ele>
        <time>2011-06-12T11:22:43Z</time>
      </trkpt>
      <trkpt lat="45.63324" lon="6.22091">
        <ele>1739</ele>
        <time>2011-06-12T11:22:48Z</time>
      </trkpt>
      <trkpt lat="45.63324" lon="6.22091">
        <ele>1739</ele>
        <time>2011-06-12T11:22:53Z</time>
      </trkpt>
      <trkpt lat="45.63324" lon="6.22091">
        <ele>1739</ele>
        <time>2011-06-12T11:22:58Z</time>
      </trkpt>
      <trkpt lat="45.63325" lon="6.22092">
        <ele>1739</ele>
        <time>2011-06-12T11:23:03Z</time>
      </trkpt>
      <trkpt lat="45.63325" lon="6.22095">
        <ele>1740</ele>
        <time>2011-06-12T11:23:08Z</time>
      </trkpt>
      <trkpt lat="45.63326" lon="6.22097">
        <ele>1740</ele>
        <time>2011-06-12T11:23:13Z</time>
      </trkpt>
      <trkpt lat="45.63327" lon="6.22099">
        <ele>1741</ele>
        <time>2011-06-12T11:23:18Z</time>
      </trkpt>
      <trkpt lat="45.63326" lon="6.22101">
        <ele>1742</ele>
        <time>2011-06-12T11:23:23Z</time>
      </trkpt>
      <trkpt lat="45.63326" lon="6.22103">
        <ele>1742</ele>
        <time>2011-06-12T11:23:28Z</time>
      </trkpt>
      <trkpt lat="45.63325" lon="6.22105">
        <ele>1743</ele>
        <time>2011-06-12T11:23:33Z</time>
      </trkpt>
      <trkpt lat="45.63323" lon="6.22107">
        <ele>1744</ele>
        <time>2011-06-12T11:23:38Z</time>
      </trkpt>
      <trkpt lat="45.63323" lon="6.22109">
        <ele>1745</ele>
        <time>2011-06-12T11:23:43Z</time>
      </trkpt>
      <trkpt lat="45.63322" lon="6.22111">
        <ele>1745</ele>
        <time>2011-06-12T11:23:48Z</time>
      </trkpt>
      <trkpt lat="45.63321" lon="6.22113">
        <ele>1746</ele>
        <time>2011-06-12T11:23:53Z</time>
      </trkpt>
      <trkpt lat="45.63321" lon="6.22115">
        <ele>1746</ele>
        <time>2011-06-12T11:23:58Z</time>
      </trkpt>
      <trkpt lat="45.63319" lon="6.22116">
        <ele>1746</ele>
        <time>2011-06-12T11:24:03Z</time>
      </trkpt>
      <trkpt lat="45.63318" lon="6.22117">
        <ele>1747</ele>
        <time>2011-06-12T11:24:08Z</time>
      </trkpt>
      <trkpt lat="45.63317" lon="6.22119">
        <ele>1747</ele>
        <time>2011-06-12T11:24:13Z</time>
      </trkpt>
      <trkpt lat="45.63315" lon="6.22121">
        <ele>1748</ele>
        <time>2011-06-12T11:24:18Z</time>
      </trkpt>
      <trkpt lat="45.63315" lon="6.22122">
        <ele>1748</ele>
        <time>2011-06-12T11:24:23Z</time>
      </trkpt>
      <trkpt lat="45.63314" lon="6.22124">
        <ele>1749</ele>
        <time>2011-06-12T11:24:28Z</time>
      </trkpt>
      <trkpt lat="45.63315" lon="6.22124">
        <ele>1749</ele>
        <time>2011-06-12T11:24:33Z</time>
      </trkpt>
      <trkpt lat="45.63315" lon="6.22126">
        <ele>1749</ele>
        <time>2011-06-12T11:24:38Z</time>
      </trkpt>
      <trkpt lat="45.63314" lon="6.22128">
        <ele>1749</ele>
        <time>2011-06-12T11:24:43Z</time>
      </trkpt>
      <trkpt lat="45.63312" lon="6.22129">
        <ele>1750</ele>
        <time>2011-06-12T11:24:48Z</time>
      </trkpt>
      <trkpt lat="45.63312" lon="6.22131">
        <ele>1750</ele>
        <time>2011-06-12T11:24:53Z</time>
      </trkpt>
      <trkpt lat="45.63312" lon="6.22132">
        <ele>1750</ele>
        <time>2011-06-12T11:24:58Z</time>
      </trkpt>
      <trkpt lat="45.63311" lon="6.22134">
        <ele>1751</ele>
        <time>2011-06-12T11:25:03Z</time>
      </trkpt>
      <trkpt lat="45.63311" lon="6.22134">
        <ele>1751</ele>
        <time>2011-06-12T11:25:08Z</time>
      </trkpt>
      <trkpt lat="45.63311" lon="6.22135">
        <ele>1751</ele>
        <time>2011-06-12T11:25:13Z</time>
      </trkpt>
      <trkpt lat="45.63311" lon="6.22136">
        <ele>1751</ele>
        <time>2011-06-12T11:25:18Z</time>
      </trkpt>
      <trkpt lat="45.6331" lon="6.22138">
        <ele>1752</ele>
        <time>2011-06-12T11:25:23Z</time>
      </trkpt>
      <trkpt lat="45.63308" lon="6.2214">
        <ele>1752</ele>
        <time>2011-06-12T11:25:28Z</time>
      </trkpt>
      <trkpt lat="45.63308" lon="6.22142">
        <ele>1752</ele>
        <time>2011-06-12T11:25:33Z</time>
      </trkpt>
      <trkpt lat="45.63307" lon="6.22143">
        <ele>1753</ele>
        <time>2011-06-12T11:25:38Z</time>
      </trkpt>
      <trkpt lat="45.63306" lon="6.22145">
        <ele>1753</ele>
        <time>2011-06-12T11:25:43Z</time>
      </trkpt>
      <trkpt lat="45.63306" lon="6.22146">
        <ele>1753</ele>
        <time>2011-06-12T11:25:48Z</time>
      </trkpt>
      <trkpt lat="45.63305" lon="6.22147">
        <ele>1753</ele>
        <time>2011-06-12T11:25:53Z</time>
      </trkpt>
      <trkpt lat="45.63305" lon="6.22149">
        <ele>1753</ele>
        <time>2011-06-12T11:25:58Z</time>
      </trkpt>
      <trkpt lat="45.63304" lon="6.2215">
        <ele>1754</ele>
        <time>2011-06-12T11:26:03Z</time>
      </trkpt>
      <trkpt lat="45.63304" lon="6.22152">
        <ele>1754</ele>
        <time>2011-06-12T11:26:08Z</time>
      </trkpt>
      <trkpt lat="45.63304" lon="6.22154">
        <ele>1754</ele>
        <time>2011-06-12T11:26:13Z</time>
      </trkpt>
      <trkpt lat="45.63303" lon="6.22154">
        <ele>1754</ele>
        <time>2011-06-12T11:26:18Z</time>
      </trkpt>
      <trkpt lat="45.63302" lon="6.22156">
        <ele>1755</ele>
        <time>2011-06-12T11:26:23Z</time>
      </trkpt>
      <trkpt lat="45.63302" lon="6.22158">
        <ele>1755</ele>
        <time>2011-06-12T11:26:28Z</time>
      </trkpt>
      <trkpt lat="45.63302" lon="6.2216">
        <ele>1755</ele>
        <time>2011-06-12T11:26:33Z</time>
      </trkpt>
      <trkpt lat="45.63301" lon="6.22159">
        <ele>1755</ele>
        <time>2011-06-12T11:26:38Z</time>
      </trkpt>
      <trkpt lat="45.63299" lon="6.22159">
        <ele>1755</ele>
        <time>2011-06-12T11:26:43Z</time>
      </trkpt>
      <trkpt lat="45.63296" lon="6.2216">
        <ele>1756</ele>
        <time>2011-06-12T11:26:48Z</time>
      </trkpt>
      <trkpt lat="45.63295" lon="6.2216">
        <ele>1756</ele>
        <time>2011-06-12T11:26:53Z</time>
      </trkpt>
      <trkpt lat="45.63294" lon="6.2216">
        <ele>1757</ele>
        <time>2011-06-12T11:26:58Z</time>
      </trkpt>
      <trkpt lat="45.63294" lon="6.22161">
        <ele>1757</ele>
        <time>2011-06-12T11:27:03Z</time>
      </trkpt>
      <trkpt lat="45.63293" lon="6.22164">
        <ele>1757</ele>
        <time>2011-06-12T11:27:08Z</time>
      </trkpt>
      <trkpt lat="45.63291" lon="6.22165">
        <ele>1758</ele>
        <time>2011-06-12T11:27:13Z</time>
      </trkpt>
      <trkpt lat="45.63289" lon="6.22167">
        <ele>1784</ele>
        <time>2011-06-12T11:27:18Z</time>
      </trkpt>
      <trkpt lat="45.63288" lon="6.22168">
        <ele>1785</ele>
        <time>2011-06-12T11:27:23Z</time>
      </trkpt>
      <trkpt lat="45.63287" lon="6.22171">
        <ele>1785</ele>
        <time>2011-06-12T11:27:28Z</time>
      </trkpt>
      <trkpt lat="45.63286" lon="6.22171">
        <ele>1785</ele>
        <time>2011-06-12T11:27:33Z</time>
      </trkpt>
      <trkpt lat="45.63285" lon="6.22174">
        <ele>1786</ele>
        <time>2011-06-12T11:27:38Z</time>
      </trkpt>
      <trkpt lat="45.63284" lon="6.22175">
        <ele>1786</ele>
        <time>2011-06-12T11:27:43Z</time>
      </trkpt>
      <trkpt lat="45.63282" lon="6.22175">
        <ele>1787</ele>
        <time>2011-06-12T11:27:48Z</time>
      </trkpt>
      <trkpt lat="45.63282" lon="6.22177">
        <ele>1787</ele>
        <time>2011-06-12T11:27:53Z</time>
      </trkpt>
      <trkpt lat="45.63282" lon="6.22178">
        <ele>1787</ele>
        <time>2011-06-12T11:27:58Z</time>
      </trkpt>
      <trkpt lat="45.63282" lon="6.22179">
        <ele>1787</ele>
        <time>2011-06-12T11:28:03Z</time>
      </trkpt>
      <trkpt lat="45.63283" lon="6.2218">
        <ele>1787</ele>
        <time>2011-06-12T11:28:08Z</time>
      </trkpt>
      <trkpt lat="45.63282" lon="6.22178">
        <ele>1787</ele>
        <time>2011-06-12T11:31:43Z</time>
      </trkpt>
      <trkpt lat="45.63281" lon="6.22179">
        <ele>1787</ele>
        <time>2011-06-12T11:31:48Z</time>
      </trkpt>
      <trkpt lat="45.63279" lon="6.22182">
        <ele>1788</ele>
        <time>2011-06-12T11:31:53Z</time>
      </trkpt>
      <trkpt lat="45.63281" lon="6.22184">
        <ele>1788</ele>
        <time>2011-06-12T11:31:58Z</time>
      </trkpt>
      <trkpt lat="45.63281" lon="6.22187">
        <ele>1789</ele>
        <time>2011-06-12T11:32:03Z</time>
      </trkpt>
      <trkpt lat="45.63282" lon="6.22188">
        <ele>1789</ele>
        <time>2011-06-12T11:32:08Z</time>
      </trkpt>
      <trkpt lat="45.63282" lon="6.22191">
        <ele>1790</ele>
        <time>2011-06-12T11:32:13Z</time>
      </trkpt>
      <trkpt lat="45.63282" lon="6.22192">
        <ele>1790</ele>
        <time>2011-06-12T11:32:18Z</time>
      </trkpt>
      <trkpt lat="45.63282" lon="6.22193">
        <ele>1790</ele>
        <time>2011-06-12T11:32:23Z</time>
      </trkpt>
      <trkpt lat="45.63282" lon="6.22193">
        <ele>1790</ele>
        <time>2011-06-12T11:32:28Z</time>
      </trkpt>
      <trkpt lat="45.63282" lon="6.22194">
        <ele>1790</ele>
        <time>2011-06-12T11:32:33Z</time>
      </trkpt>
      <trkpt lat="45.63282" lon="6.22195">
        <ele>1791</ele>
        <time>2011-06-12T11:32:38Z</time>
      </trkpt>
      <trkpt lat="45.63282" lon="6.22196">
        <ele>1791</ele>
        <time>2011-06-12T11:32:43Z</time>
      </trkpt>
      <trkpt lat="45.63282" lon="6.22196">
        <ele>1791</ele>
        <time>2011-06-12T11:32:48Z</time>
      </trkpt>
      <trkpt lat="45.63282" lon="6.22197">
        <ele>1791</ele>
        <time>2011-06-12T11:32:53Z</time>
      </trkpt>
      <trkpt lat="45.63283" lon="6.22197">
        <ele>1791</ele>
        <time>2011-06-12T11:32:58Z</time>
      </trkpt>
      <trkpt lat="45.63283" lon="6.22197">
        <ele>1791</ele>
        <time>2011-06-12T11:33:03Z</time>
      </trkpt>
      <trkpt lat="45.63282" lon="6.22199">
        <ele>1792</ele>
        <time>2011-06-12T11:33:08Z</time>
      </trkpt>
      <trkpt lat="45.63284" lon="6.22201">
        <ele>1792</ele>
        <time>2011-06-12T11:33:13Z</time>
      </trkpt>
      <trkpt lat="45.63285" lon="6.22202">
        <ele>1792</ele>
        <time>2011-06-12T11:33:18Z</time>
      </trkpt>
      <trkpt lat="45.63285" lon="6.22203">
        <ele>1792</ele>
        <time>2011-06-12T11:33:23Z</time>
      </trkpt>
      <trkpt lat="45.63285" lon="6.22204">
        <ele>1792</ele>
        <time>2011-06-12T11:33:28Z</time>
      </trkpt>
      <trkpt lat="45.63283" lon="6.22206">
        <ele>1793</ele>
        <time>2011-06-12T11:33:33Z</time>
      </trkpt>
      <trkpt lat="45.63282" lon="6.22207">
        <ele>1794</ele>
        <time>2011-06-12T11:33:38Z</time>
      </trkpt>
      <trkpt lat="45.63282" lon="6.22209">
        <ele>1795</ele>
        <time>2011-06-12T11:33:43Z</time>
      </trkpt>
      <trkpt lat="45.63281" lon="6.22211">
        <ele>1796</ele>
        <time>2011-06-12T11:33:48Z</time>
      </trkpt>
      <trkpt lat="45.6328" lon="6.22213">
        <ele>1796</ele>
        <time>2011-06-12T11:33:53Z</time>
      </trkpt>
      <trkpt lat="45.63279" lon="6.22215">
        <ele>1797</ele>
        <time>2011-06-12T11:33:58Z</time>
      </trkpt>
      <trkpt lat="45.63278" lon="6.22217">
        <ele>1799</ele>
        <time>2011-06-12T11:34:03Z</time>
      </trkpt>
      <trkpt lat="45.63275" lon="6.22219">
        <ele>1800</ele>
        <time>2011-06-12T11:34:08Z</time>
      </trkpt>
      <trkpt lat="45.63273" lon="6.22221">
        <ele>1801</ele>
        <time>2011-06-12T11:34:13Z</time>
      </trkpt>
      <trkpt lat="45.63271" lon="6.22222">
        <ele>1803</ele>
        <time>2011-06-12T11:34:18Z</time>
      </trkpt>
      <trkpt lat="45.63271" lon="6.22224">
        <ele>1803</ele>
        <time>2011-06-12T11:34:23Z</time>
      </trkpt>
      <trkpt lat="45.6327" lon="6.22225">
        <ele>1805</ele>
        <time>2011-06-12T11:34:28Z</time>
      </trkpt>
      <trkpt lat="45.6327" lon="6.22227">
        <ele>1806</ele>
        <time>2011-06-12T11:34:33Z</time>
      </trkpt>
      <trkpt lat="45.63269" lon="6.22227">
        <ele>1806</ele>
        <time>2011-06-12T11:34:38Z</time>
      </trkpt>
      <trkpt lat="45.63268" lon="6.22228">
        <ele>1807</ele>
        <time>2011-06-12T11:34:43Z</time>
      </trkpt>
      <trkpt lat="45.63266" lon="6.22229">
        <ele>1808</ele>
        <time>2011-06-12T11:34:48Z</time>
      </trkpt>
      <trkpt lat="45.63265" lon="6.22229">
        <ele>1808</ele>
        <time>2011-06-12T11:34:53Z</time>
      </trkpt>
      <trkpt lat="45.63264" lon="6.22228">
        <ele>1809</ele>
        <time>2011-06-12T11:34:58Z</time>
      </trkpt>
      <trkpt lat="45.63263" lon="6.2223">
        <ele>1810</ele>
        <time>2011-06-12T11:35:03Z</time>
      </trkpt>
      <trkpt lat="45.63262" lon="6.2223">
        <ele>1811</ele>
        <time>2011-06-12T11:35:08Z</time>
      </trkpt>
      <trkpt lat="45.63262" lon="6.2223">
        <ele>1811</ele>
        <time>2011-06-12T11:35:13Z</time>
      </trkpt>
      <trkpt lat="45.63262" lon="6.2223">
        <ele>1811</ele>
        <time>2011-06-12T11:35:18Z</time>
      </trkpt>
      <trkpt lat="45.63262" lon="6.2223">
        <ele>1811</ele>
        <time>2011-06-12T11:35:23Z</time>
      </trkpt>
      <trkpt lat="45.63262" lon="6.2223">
        <ele>1811</ele>
        <time>2011-06-12T11:35:28Z</time>
      </trkpt>
      <trkpt lat="45.6326" lon="6.22232">
        <ele>1813</ele>
        <time>2011-06-12T11:35:33Z</time>
      </trkpt>
      <trkpt lat="45.63261" lon="6.22234">
        <ele>1815</ele>
        <time>2011-06-12T11:35:38Z</time>
      </trkpt>
      <trkpt lat="45.6326" lon="6.22237">
        <ele>1817</ele>
        <time>2011-06-12T11:35:43Z</time>
      </trkpt>
      <trkpt lat="45.63261" lon="6.22238">
        <ele>1817</ele>
        <time>2011-06-12T11:35:48Z</time>
      </trkpt>
      <trkpt lat="45.63261" lon="6.2224">
        <ele>1819</ele>
        <time>2011-06-12T11:35:53Z</time>
      </trkpt>
      <trkpt lat="45.6326" lon="6.22242">
        <ele>1821</ele>
        <time>2011-06-12T11:35:58Z</time>
      </trkpt>
      <trkpt lat="45.6326" lon="6.22243">
        <ele>1822</ele>
        <time>2011-06-12T11:36:03Z</time>
      </trkpt>
      <trkpt lat="45.63259" lon="6.22246">
        <ele>1824</ele>
        <time>2011-06-12T11:36:08Z</time>
      </trkpt>
      <trkpt lat="45.63258" lon="6.22247">
        <ele>1826</ele>
        <time>2011-06-12T11:36:13Z</time>
      </trkpt>
      <trkpt lat="45.63258" lon="6.22249">
        <ele>1827</ele>
        <time>2011-06-12T11:36:18Z</time>
      </trkpt>
      <trkpt lat="45.63258" lon="6.22249">
        <ele>1828</ele>
        <time>2011-06-12T11:36:23Z</time>
      </trkpt>
      <trkpt lat="45.63258" lon="6.22249">
        <ele>1827</ele>
        <time>2011-06-12T11:36:28Z</time>
      </trkpt>
      <trkpt lat="45.63257" lon="6.22251">
        <ele>1840</ele>
        <time>2011-06-12T11:36:33Z</time>
      </trkpt>
      <trkpt lat="45.63256" lon="6.22253">
        <ele>1840</ele>
        <time>2011-06-12T11:36:38Z</time>
      </trkpt>
      <trkpt lat="45.63253" lon="6.22255">
        <ele>1840</ele>
        <time>2011-06-12T11:36:43Z</time>
      </trkpt>
      <trkpt lat="45.63252" lon="6.22257">
        <ele>1840</ele>
        <time>2011-06-12T11:36:48Z</time>
      </trkpt>
      <trkpt lat="45.63249" lon="6.22259">
        <ele>1851</ele>
        <time>2011-06-12T11:36:53Z</time>
      </trkpt>
      <trkpt lat="45.63247" lon="6.2226">
        <ele>1852</ele>
        <time>2011-06-12T11:36:58Z</time>
      </trkpt>
      <trkpt lat="45.63245" lon="6.22261">
        <ele>1853</ele>
        <time>2011-06-12T11:37:03Z</time>
      </trkpt>
      <trkpt lat="45.63244" lon="6.22261">
        <ele>1854</ele>
        <time>2011-06-12T11:37:08Z</time>
      </trkpt>
      <trkpt lat="45.63242" lon="6.22262">
        <ele>1855</ele>
        <time>2011-06-12T11:37:13Z</time>
      </trkpt>
      <trkpt lat="45.63241" lon="6.22262">
        <ele>1856</ele>
        <time>2011-06-12T11:37:18Z</time>
      </trkpt>
      <trkpt lat="45.6324" lon="6.22263">
        <ele>1857</ele>
        <time>2011-06-12T11:37:23Z</time>
      </trkpt>
      <trkpt lat="45.63239" lon="6.22264">
        <ele>1858</ele>
        <time>2011-06-12T11:37:28Z</time>
      </trkpt>
      <trkpt lat="45.63238" lon="6.22265">
        <ele>1858</ele>
        <time>2011-06-12T11:37:33Z</time>
      </trkpt>
      <trkpt lat="45.63237" lon="6.22264">
        <ele>1858</ele>
        <time>2011-06-12T11:37:38Z</time>
      </trkpt>
      <trkpt lat="45.63236" lon="6.22264">
        <ele>1859</ele>
        <time>2011-06-12T11:37:43Z</time>
      </trkpt>
      <trkpt lat="45.63234" lon="6.22264">
        <ele>1859</ele>
        <time>2011-06-12T11:37:48Z</time>
      </trkpt>
      <trkpt lat="45.63234" lon="6.22266">
        <ele>1860</ele>
        <time>2011-06-12T11:37:53Z</time>
      </trkpt>
      <trkpt lat="45.63235" lon="6.22266">
        <ele>1860</ele>
        <time>2011-06-12T11:37:58Z</time>
      </trkpt>
      <trkpt lat="45.63234" lon="6.22267">
        <ele>1861</ele>
        <time>2011-06-12T11:38:03Z</time>
      </trkpt>
      <trkpt lat="45.63233" lon="6.22268">
        <ele>1862</ele>
        <time>2011-06-12T11:38:08Z</time>
      </trkpt>
      <trkpt lat="45.63233" lon="6.22268">
        <ele>1862</ele>
        <time>2011-06-12T11:38:13Z</time>
      </trkpt>
      <trkpt lat="45.63231" lon="6.22269">
        <ele>1862</ele>
        <time>2011-06-12T11:38:18Z</time>
      </trkpt>
      <trkpt lat="45.63232" lon="6.2227">
        <ele>1863</ele>
        <time>2011-06-12T11:38:23Z</time>
      </trkpt>
      <trkpt lat="45.63233" lon="6.22271">
        <ele>1863</ele>
        <time>2011-06-12T11:38:28Z</time>
      </trkpt>
      <trkpt lat="45.63234" lon="6.22272">
        <ele>1863</ele>
        <time>2011-06-12T11:38:33Z</time>
      </trkpt>
      <trkpt lat="45.63234" lon="6.22274">
        <ele>1864</ele>
        <time>2011-06-12T11:38:38Z</time>
      </trkpt>
      <trkpt lat="45.63235" lon="6.22277">
        <ele>1865</ele>
        <time>2011-06-12T11:38:43Z</time>
      </trkpt>
      <trkpt lat="45.63236" lon="6.22278">
        <ele>1865</ele>
        <time>2011-06-12T11:38:48Z</time>
      </trkpt>
      <trkpt lat="45.63236" lon="6.2228">
        <ele>1866</ele>
        <time>2011-06-12T11:38:53Z</time>
      </trkpt>
      <trkpt lat="45.63234" lon="6.22281">
        <ele>1867</ele>
        <time>2011-06-12T11:38:58Z</time>
      </trkpt>
      <trkpt lat="45.63234" lon="6.22281">
        <ele>1867</ele>
        <time>2011-06-12T11:39:03Z</time>
      </trkpt>
      <trkpt lat="45.63233" lon="6.22282">
        <ele>1867</ele>
        <time>2011-06-12T11:39:08Z</time>
      </trkpt>
      <trkpt lat="45.63232" lon="6.22283">
        <ele>1868</ele>
        <time>2011-06-12T11:39:13Z</time>
      </trkpt>
      <trkpt lat="45.63231" lon="6.22282">
        <ele>1868</ele>
        <time>2011-06-12T11:39:18Z</time>
      </trkpt>
      <trkpt lat="45.6323" lon="6.22282">
        <ele>1868</ele>
        <time>2011-06-12T11:39:23Z</time>
      </trkpt>
      <trkpt lat="45.63229" lon="6.22282">
        <ele>1868</ele>
        <time>2011-06-12T11:39:28Z</time>
      </trkpt>
      <trkpt lat="45.6323" lon="6.22284">
        <ele>1869</ele>
        <time>2011-06-12T11:39:33Z</time>
      </trkpt>
      <trkpt lat="45.6323" lon="6.22285">
        <ele>1869</ele>
        <time>2011-06-12T11:39:38Z</time>
      </trkpt>
      <trkpt lat="45.63229" lon="6.22285">
        <ele>1869</ele>
        <time>2011-06-12T11:39:43Z</time>
      </trkpt>
      <trkpt lat="45.63228" lon="6.22285">
        <ele>1869</ele>
        <time>2011-06-12T11:39:48Z</time>
      </trkpt>
      <trkpt lat="45.63228" lon="6.22286">
        <ele>1870</ele>
        <time>2011-06-12T11:39:53Z</time>
      </trkpt>
      <trkpt lat="45.63228" lon="6.22287">
        <ele>1870</ele>
        <time>2011-06-12T11:39:58Z</time>
      </trkpt>
      <trkpt lat="45.63229" lon="6.22288">
        <ele>1870</ele>
        <time>2011-06-12T11:40:03Z</time>
      </trkpt>
      <trkpt lat="45.63228" lon="6.22289">
        <ele>1871</ele>
        <time>2011-06-12T11:40:08Z</time>
      </trkpt>
      <trkpt lat="45.63227" lon="6.22291">
        <ele>1871</ele>
        <time>2011-06-12T11:40:13Z</time>
      </trkpt>
      <trkpt lat="45.63226" lon="6.22292">
        <ele>1872</ele>
        <time>2011-06-12T11:40:18Z</time>
      </trkpt>
      <trkpt lat="45.63226" lon="6.22294">
        <ele>1872</ele>
        <time>2011-06-12T11:40:23Z</time>
      </trkpt>
      <trkpt lat="45.63225" lon="6.22295">
        <ele>1873</ele>
        <time>2011-06-12T11:40:28Z</time>
      </trkpt>
      <trkpt lat="45.63225" lon="6.22296">
        <ele>1873</ele>
        <time>2011-06-12T11:40:33Z</time>
      </trkpt>
      <trkpt lat="45.63224" lon="6.22298">
        <ele>1874</ele>
        <time>2011-06-12T11:40:38Z</time>
      </trkpt>
      <trkpt lat="45.63223" lon="6.223">
        <ele>1875</ele>
        <time>2011-06-12T11:40:43Z</time>
      </trkpt>
      <trkpt lat="45.63222" lon="6.22301">
        <ele>1875</ele>
        <time>2011-06-12T11:40:48Z</time>
      </trkpt>
      <trkpt lat="45.63222" lon="6.22302">
        <ele>1875</ele>
        <time>2011-06-12T11:40:53Z</time>
      </trkpt>
      <trkpt lat="45.63223" lon="6.22302">
        <ele>1875</ele>
        <time>2011-06-12T11:40:58Z</time>
      </trkpt>
      <trkpt lat="45.63221" lon="6.22303">
        <ele>1876</ele>
        <time>2011-06-12T11:41:03Z</time>
      </trkpt>
      <trkpt lat="45.63221" lon="6.22305">
        <ele>1876</ele>
        <time>2011-06-12T11:41:08Z</time>
      </trkpt>
      <trkpt lat="45.63219" lon="6.22307">
        <ele>1877</ele>
        <time>2011-06-12T11:41:13Z</time>
      </trkpt>
      <trkpt lat="45.63217" lon="6.22309">
        <ele>1877</ele>
        <time>2011-06-12T11:41:18Z</time>
      </trkpt>
      <trkpt lat="45.63214" lon="6.2231">
        <ele>1878</ele>
        <time>2011-06-12T11:41:23Z</time>
      </trkpt>
      <trkpt lat="45.63214" lon="6.2231">
        <ele>1878</ele>
        <time>2011-06-12T11:41:28Z</time>
      </trkpt>
      <trkpt lat="45.63215" lon="6.22311">
        <ele>1878</ele>
        <time>2011-06-12T11:41:33Z</time>
      </trkpt>
      <trkpt lat="45.63215" lon="6.22313">
        <ele>1878</ele>
        <time>2011-06-12T11:41:38Z</time>
      </trkpt>
      <trkpt lat="45.63215" lon="6.22315">
        <ele>1879</ele>
        <time>2011-06-12T11:41:43Z</time>
      </trkpt>
      <trkpt lat="45.63214" lon="6.22316">
        <ele>1879</ele>
        <time>2011-06-12T11:41:48Z</time>
      </trkpt>
      <trkpt lat="45.63214" lon="6.22319">
        <ele>1880</ele>
        <time>2011-06-12T11:41:53Z</time>
      </trkpt>
      <trkpt lat="45.63214" lon="6.22319">
        <ele>1880</ele>
        <time>2011-06-12T11:41:58Z</time>
      </trkpt>
      <trkpt lat="45.63214" lon="6.22319">
        <ele>1880</ele>
        <time>2011-06-12T11:42:03Z</time>
      </trkpt>
      <trkpt lat="45.63212" lon="6.22321">
        <ele>1880</ele>
        <time>2011-06-12T11:42:08Z</time>
      </trkpt>
      <trkpt lat="45.63211" lon="6.22321">
        <ele>1881</ele>
        <time>2011-06-12T11:42:13Z</time>
      </trkpt>
      <trkpt lat="45.63211" lon="6.22322">
        <ele>1881</ele>
        <time>2011-06-12T11:42:18Z</time>
      </trkpt>
      <trkpt lat="45.6321" lon="6.22324">
        <ele>1881</ele>
        <time>2011-06-12T11:42:23Z</time>
      </trkpt>
      <trkpt lat="45.63209" lon="6.22325">
        <ele>1881</ele>
        <time>2011-06-12T11:42:28Z</time>
      </trkpt>
      <trkpt lat="45.63208" lon="6.22325">
        <ele>1882</ele>
        <time>2011-06-12T11:42:33Z</time>
      </trkpt>
      <trkpt lat="45.63207" lon="6.22325">
        <ele>1882</ele>
        <time>2011-06-12T11:42:38Z</time>
      </trkpt>
      <trkpt lat="45.63207" lon="6.22327">
        <ele>1882</ele>
        <time>2011-06-12T11:42:43Z</time>
      </trkpt>
      <trkpt lat="45.63205" lon="6.22328">
        <ele>1883</ele>
        <time>2011-06-12T11:42:48Z</time>
      </trkpt>
      <trkpt lat="45.63204" lon="6.2233">
        <ele>1883</ele>
        <time>2011-06-12T11:42:53Z</time>
      </trkpt>
      <trkpt lat="45.63202" lon="6.22331">
        <ele>1884</ele>
        <time>2011-06-12T11:42:58Z</time>
      </trkpt>
      <trkpt lat="45.63202" lon="6.22331">
        <ele>1884</ele>
        <time>2011-06-12T11:43:03Z</time>
      </trkpt>
      <trkpt lat="45.63202" lon="6.22331">
        <ele>1884</ele>
        <time>2011-06-12T11:43:08Z</time>
      </trkpt>
      <trkpt lat="45.63201" lon="6.22331">
        <ele>1884</ele>
        <time>2011-06-12T11:43:13Z</time>
      </trkpt>
      <trkpt lat="45.63202" lon="6.22332">
        <ele>1884</ele>
        <time>2011-06-12T11:43:18Z</time>
      </trkpt>
      <trkpt lat="45.63203" lon="6.22332">
        <ele>1884</ele>
        <time>2011-06-12T11:43:23Z</time>
      </trkpt>
      <trkpt lat="45.63202" lon="6.22333">
        <ele>1884</ele>
        <time>2011-06-12T11:43:28Z</time>
      </trkpt>
      <trkpt lat="45.632" lon="6.22335">
        <ele>1910</ele>
        <time>2011-06-12T11:43:33Z</time>
      </trkpt>
      <trkpt lat="45.63201" lon="6.22336">
        <ele>1911</ele>
        <time>2011-06-12T11:43:38Z</time>
      </trkpt>
      <trkpt lat="45.63202" lon="6.22336">
        <ele>1910</ele>
        <time>2011-06-12T11:43:43Z</time>
      </trkpt>
      <trkpt lat="45.63203" lon="6.22337">
        <ele>1910</ele>
        <time>2011-06-12T11:43:48Z</time>
      </trkpt>
      <trkpt lat="45.63204" lon="6.22338">
        <ele>1910</ele>
        <time>2011-06-12T11:43:53Z</time>
      </trkpt>
      <trkpt lat="45.63204" lon="6.22338">
        <ele>1910</ele>
        <time>2011-06-12T11:43:58Z</time>
      </trkpt>
      <trkpt lat="45.63204" lon="6.22338">
        <ele>1910</ele>
        <time>2011-06-12T11:44:03Z</time>
      </trkpt>
      <trkpt lat="45.63205" lon="6.22339">
        <ele>1910</ele>
        <time>2011-06-12T11:44:08Z</time>
      </trkpt>
      <trkpt lat="45.63207" lon="6.22338">
        <ele>1910</ele>
        <time>2011-06-12T11:44:13Z</time>
      </trkpt>
      <trkpt lat="45.63207" lon="6.22337">
        <ele>1910</ele>
        <time>2011-06-12T11:44:18Z</time>
      </trkpt>
      <trkpt lat="45.63208" lon="6.22339">
        <ele>1910</ele>
        <time>2011-06-12T11:44:23Z</time>
      </trkpt>
      <trkpt lat="45.63208" lon="6.2234">
        <ele>1910</ele>
        <time>2011-06-12T11:44:28Z</time>
      </trkpt>
      <trkpt lat="45.63208" lon="6.2234">
        <ele>1910</ele>
        <time>2011-06-12T11:44:33Z</time>
      </trkpt>
      <trkpt lat="45.63208" lon="6.22342">
        <ele>1910</ele>
        <time>2011-06-12T11:44:38Z</time>
      </trkpt>
      <trkpt lat="45.63208" lon="6.22343">
        <ele>1911</ele>
        <time>2011-06-12T11:44:43Z</time>
      </trkpt>
      <trkpt lat="45.63207" lon="6.22345">
        <ele>1911</ele>
        <time>2011-06-12T11:44:48Z</time>
      </trkpt>
      <trkpt lat="45.63208" lon="6.22347">
        <ele>1911</ele>
        <time>2011-06-12T11:44:53Z</time>
      </trkpt>
      <trkpt lat="45.63208" lon="6.22346">
        <ele>1911</ele>
        <time>2011-06-12T11:44:58Z</time>
      </trkpt>
      <trkpt lat="45.63208" lon="6.22347">
        <ele>1911</ele>
        <time>2011-06-12T11:45:03Z</time>
      </trkpt>
      <trkpt lat="45.63209" lon="6.22348">
        <ele>1911</ele>
        <time>2011-06-12T11:45:08Z</time>
      </trkpt>
      <trkpt lat="45.6321" lon="6.22349">
        <ele>1911</ele>
        <time>2011-06-12T11:45:13Z</time>
      </trkpt>
      <trkpt lat="45.63211" lon="6.22349">
        <ele>1911</ele>
        <time>2011-06-12T11:45:18Z</time>
      </trkpt>
      <trkpt lat="45.63211" lon="6.22349">
        <ele>1911</ele>
        <time>2011-06-12T11:45:23Z</time>
      </trkpt>
      <trkpt lat="45.63211" lon="6.22349">
        <ele>1911</ele>
        <time>2011-06-12T11:45:28Z</time>
      </trkpt>
      <trkpt lat="45.63211" lon="6.22349">
        <ele>1911</ele>
        <time>2011-06-12T11:45:33Z</time>
      </trkpt>
      <trkpt lat="45.63211" lon="6.2235">
        <ele>1911</ele>
        <time>2011-06-12T11:45:38Z</time>
      </trkpt>
      <trkpt lat="45.63211" lon="6.2235">
        <ele>1911</ele>
        <time>2011-06-12T11:45:43Z</time>
      </trkpt>
      <trkpt lat="45.63211" lon="6.22349">
        <ele>1911</ele>
        <time>2011-06-12T11:45:48Z</time>
      </trkpt>
      <trkpt lat="45.6321" lon="6.2235">
        <ele>1911</ele>
        <time>2011-06-12T11:45:53Z</time>
      </trkpt>
      <trkpt lat="45.63211" lon="6.22351">
        <ele>1911</ele>
        <time>2011-06-12T11:45:58Z</time>
      </trkpt>
      <trkpt lat="45.63213" lon="6.22352">
        <ele>1911</ele>
        <time>2011-06-12T11:46:03Z</time>
      </trkpt>
      <trkpt lat="45.63214" lon="6.22354">
        <ele>1911</ele>
        <time>2011-06-12T11:46:08Z</time>
      </trkpt>
      <trkpt lat="45.63216" lon="6.22353">
        <ele>1911</ele>
        <time>2011-06-12T11:46:13Z</time>
      </trkpt>
      <trkpt lat="45.63217" lon="6.22355">
        <ele>1911</ele>
        <time>2011-06-12T11:46:18Z</time>
      </trkpt>
      <trkpt lat="45.63218" lon="6.22357">
        <ele>1911</ele>
        <time>2011-06-12T11:46:23Z</time>
      </trkpt>
      <trkpt lat="45.6322" lon="6.22357">
        <ele>1911</ele>
        <time>2011-06-12T11:46:28Z</time>
      </trkpt>
      <trkpt lat="45.63221" lon="6.22358">
        <ele>1911</ele>
        <time>2011-06-12T11:46:33Z</time>
      </trkpt>
      <trkpt lat="45.63223" lon="6.22359">
        <ele>1911</ele>
        <time>2011-06-12T11:46:38Z</time>
      </trkpt>
      <trkpt lat="45.63224" lon="6.2236">
        <ele>1911</ele>
        <time>2011-06-12T11:46:43Z</time>
      </trkpt>
      <trkpt lat="45.63226" lon="6.22361">
        <ele>1911</ele>
        <time>2011-06-12T11:46:48Z</time>
      </trkpt>
      <trkpt lat="45.63227" lon="6.22363">
        <ele>1912</ele>
        <time>2011-06-12T11:46:53Z</time>
      </trkpt>
      <trkpt lat="45.63228" lon="6.22364">
        <ele>1912</ele>
        <time>2011-06-12T11:46:58Z</time>
      </trkpt>
      <trkpt lat="45.63229" lon="6.22366">
        <ele>1912</ele>
        <time>2011-06-12T11:47:03Z</time>
      </trkpt>
      <trkpt lat="45.6323" lon="6.22368">
        <ele>1913</ele>
        <time>2011-06-12T11:47:08Z</time>
      </trkpt>
      <trkpt lat="45.63231" lon="6.2237">
        <ele>1913</ele>
        <time>2011-06-12T11:47:13Z</time>
      </trkpt>
      <trkpt lat="45.63229" lon="6.22373">
        <ele>1914</ele>
        <time>2011-06-12T11:47:18Z</time>
      </trkpt>
      <trkpt lat="45.63227" lon="6.22374">
        <ele>1915</ele>
        <time>2011-06-12T11:47:23Z</time>
      </trkpt>
      <trkpt lat="45.63226" lon="6.22377">
        <ele>1915</ele>
        <time>2011-06-12T11:47:28Z</time>
      </trkpt>
      <trkpt lat="45.63226" lon="6.22377">
        <ele>1916</ele>
        <time>2011-06-12T11:47:33Z</time>
      </trkpt>
      <trkpt lat="45.63226" lon="6.22379">
        <ele>1916</ele>
        <time>2011-06-12T11:47:38Z</time>
      </trkpt>
      <trkpt lat="45.63225" lon="6.22381">
        <ele>1917</ele>
        <time>2011-06-12T11:47:43Z</time>
      </trkpt>
      <trkpt lat="45.63224" lon="6.22384">
        <ele>1917</ele>
        <time>2011-06-12T11:47:48Z</time>
      </trkpt>
      <trkpt lat="45.63223" lon="6.22385">
        <ele>1918</ele>
        <time>2011-06-12T11:47:53Z</time>
      </trkpt>
      <trkpt lat="45.63223" lon="6.22387">
        <ele>1918</ele>
        <time>2011-06-12T11:47:58Z</time>
      </trkpt>
      <trkpt lat="45.63222" lon="6.22389">
        <ele>1919</ele>
        <time>2011-06-12T11:48:03Z</time>
      </trkpt>
      <trkpt lat="45.63223" lon="6.2239">
        <ele>1919</ele>
        <time>2011-06-12T11:48:08Z</time>
      </trkpt>
      <trkpt lat="45.63224" lon="6.22392">
        <ele>1919</ele>
        <time>2011-06-12T11:48:13Z</time>
      </trkpt>
      <trkpt lat="45.63224" lon="6.22394">
        <ele>1920</ele>
        <time>2011-06-12T11:48:18Z</time>
      </trkpt>
      <trkpt lat="45.63225" lon="6.22396">
        <ele>1920</ele>
        <time>2011-06-12T11:48:23Z</time>
      </trkpt>
      <trkpt lat="45.63226" lon="6.22399">
        <ele>1921</ele>
        <time>2011-06-12T11:48:28Z</time>
      </trkpt>
      <trkpt lat="45.63224" lon="6.224">
        <ele>1921</ele>
        <time>2011-06-12T11:48:33Z</time>
      </trkpt>
      <trkpt lat="45.63224" lon="6.22402">
        <ele>1921</ele>
        <time>2011-06-12T11:48:38Z</time>
      </trkpt>
      <trkpt lat="45.63225" lon="6.22405">
        <ele>1922</ele>
        <time>2011-06-12T11:48:43Z</time>
      </trkpt>
      <trkpt lat="45.63224" lon="6.22406">
        <ele>1922</ele>
        <time>2011-06-12T11:48:48Z</time>
      </trkpt>
      <trkpt lat="45.63223" lon="6.22407">
        <ele>1922</ele>
        <time>2011-06-12T11:48:53Z</time>
      </trkpt>
      <trkpt lat="45.63221" lon="6.22409">
        <ele>1922</ele>
        <time>2011-06-12T11:48:58Z</time>
      </trkpt>
      <trkpt lat="45.6322" lon="6.2241">
        <ele>1922</ele>
        <time>2011-06-12T11:49:03Z</time>
      </trkpt>
      <trkpt lat="45.63219" lon="6.22412">
        <ele>1923</ele>
        <time>2011-06-12T11:49:08Z</time>
      </trkpt>
      <trkpt lat="45.63218" lon="6.22413">
        <ele>1923</ele>
        <time>2011-06-12T11:49:13Z</time>
      </trkpt>
      <trkpt lat="45.63216" lon="6.22414">
        <ele>1923</ele>
        <time>2011-06-12T11:49:18Z</time>
      </trkpt>
      <trkpt lat="45.63215" lon="6.22416">
        <ele>1923</ele>
        <time>2011-06-12T11:49:23Z</time>
      </trkpt>
      <trkpt lat="45.63212" lon="6.22417">
        <ele>1937</ele>
        <time>2011-06-12T11:49:28Z</time>
      </trkpt>
      <trkpt lat="45.63211" lon="6.22417">
        <ele>1937</ele>
        <time>2011-06-12T11:49:33Z</time>
      </trkpt>
      <trkpt lat="45.6321" lon="6.22418">
        <ele>1938</ele>
        <time>2011-06-12T11:49:38Z</time>
      </trkpt>
      <trkpt lat="45.63209" lon="6.2242">
        <ele>1938</ele>
        <time>2011-06-12T11:49:43Z</time>
      </trkpt>
      <trkpt lat="45.63209" lon="6.22422">
        <ele>1938</ele>
        <time>2011-06-12T11:49:48Z</time>
      </trkpt>
      <trkpt lat="45.63208" lon="6.22423">
        <ele>1938</ele>
        <time>2011-06-12T11:49:53Z</time>
      </trkpt>
      <trkpt lat="45.63208" lon="6.22425">
        <ele>1938</ele>
        <time>2011-06-12T11:49:58Z</time>
      </trkpt>
      <trkpt lat="45.63209" lon="6.22427">
        <ele>1938</ele>
        <time>2011-06-12T11:50:03Z</time>
      </trkpt>
      <trkpt lat="45.63209" lon="6.22428">
        <ele>1938</ele>
        <time>2011-06-12T11:50:08Z</time>
      </trkpt>
      <trkpt lat="45.63209" lon="6.2243">
        <ele>1938</ele>
        <time>2011-06-12T11:50:13Z</time>
      </trkpt>
      <trkpt lat="45.63208" lon="6.22431">
        <ele>1938</ele>
        <time>2011-06-12T11:50:18Z</time>
      </trkpt>
      <trkpt lat="45.63207" lon="6.22434">
        <ele>1938</ele>
        <time>2011-06-12T11:52:28Z</time>
      </trkpt>
      <trkpt lat="45.63207" lon="6.22434">
        <ele>1938</ele>
        <time>2011-06-12T11:52:33Z</time>
      </trkpt>
      <trkpt lat="45.63207" lon="6.22434">
        <ele>1938</ele>
        <time>2011-06-12T11:52:38Z</time>
      </trkpt>
      <trkpt lat="45.63205" lon="6.22435">
        <ele>1939</ele>
        <time>2011-06-12T11:52:43Z</time>
      </trkpt>
      <trkpt lat="45.63203" lon="6.22436">
        <ele>1939</ele>
        <time>2011-06-12T11:52:48Z</time>
      </trkpt>
      <trkpt lat="45.63202" lon="6.22437">
        <ele>1939</ele>
        <time>2011-06-12T11:52:53Z</time>
      </trkpt>
      <trkpt lat="45.63202" lon="6.22437">
        <ele>1939</ele>
        <time>2011-06-12T11:54:13Z</time>
      </trkpt>
      <trkpt lat="45.63201" lon="6.22439">
        <ele>1939</ele>
        <time>2011-06-12T11:54:18Z</time>
      </trkpt>
      <trkpt lat="45.632" lon="6.22442">
        <ele>1940</ele>
        <time>2011-06-12T11:54:23Z</time>
      </trkpt>
      <trkpt lat="45.63199" lon="6.22443">
        <ele>1940</ele>
        <time>2011-06-12T11:54:28Z</time>
      </trkpt>
      <trkpt lat="45.63197" lon="6.22443">
        <ele>1940</ele>
        <time>2011-06-12T11:54:33Z</time>
      </trkpt>
      <trkpt lat="45.63195" lon="6.22445">
        <ele>1941</ele>
        <time>2011-06-12T11:54:38Z</time>
      </trkpt>
      <trkpt lat="45.63192" lon="6.22447">
        <ele>1941</ele>
        <time>2011-06-12T11:54:43Z</time>
      </trkpt>
      <trkpt lat="45.63189" lon="6.2245">
        <ele>1942</ele>
        <time>2011-06-12T11:54:48Z</time>
      </trkpt>
      <trkpt lat="45.63186" lon="6.22453">
        <ele>1942</ele>
        <time>2011-06-12T11:54:53Z</time>
      </trkpt>
      <trkpt lat="45.63183" lon="6.22456">
        <ele>1943</ele>
        <time>2011-06-12T11:54:58Z</time>
      </trkpt>
      <trkpt lat="45.63182" lon="6.22459">
        <ele>1943</ele>
        <time>2011-06-12T11:55:03Z</time>
      </trkpt>
      <trkpt lat="45.63181" lon="6.22459">
        <ele>1944</ele>
        <time>2011-06-12T11:55:08Z</time>
      </trkpt>
      <trkpt lat="45.63179" lon="6.2246">
        <ele>1944</ele>
        <time>2011-06-12T11:55:13Z</time>
      </trkpt>
      <trkpt lat="45.63178" lon="6.22459">
        <ele>1944</ele>
        <time>2011-06-12T11:55:18Z</time>
      </trkpt>
      <trkpt lat="45.63176" lon="6.22462">
        <ele>1944</ele>
        <time>2011-06-12T11:55:23Z</time>
      </trkpt>
      <trkpt lat="45.63175" lon="6.22462">
        <ele>1945</ele>
        <time>2011-06-12T11:55:28Z</time>
      </trkpt>
      <trkpt lat="45.63173" lon="6.22463">
        <ele>1945</ele>
        <time>2011-06-12T11:55:33Z</time>
      </trkpt>
      <trkpt lat="45.63171" lon="6.22465">
        <ele>1945</ele>
        <time>2011-06-12T11:55:38Z</time>
      </trkpt>
      <trkpt lat="45.6317" lon="6.22467">
        <ele>1946</ele>
        <time>2011-06-12T11:55:43Z</time>
      </trkpt>
      <trkpt lat="45.63168" lon="6.2247">
        <ele>1947</ele>
        <time>2011-06-12T11:55:48Z</time>
      </trkpt>
      <trkpt lat="45.63167" lon="6.22472">
        <ele>1966</ele>
        <time>2011-06-12T11:55:53Z</time>
      </trkpt>
      <trkpt lat="45.63165" lon="6.22474">
        <ele>1966</ele>
        <time>2011-06-12T11:55:58Z</time>
      </trkpt>
      <trkpt lat="45.63163" lon="6.22475">
        <ele>1966</ele>
        <time>2011-06-12T11:56:03Z</time>
      </trkpt>
      <trkpt lat="45.63161" lon="6.22477">
        <ele>1967</ele>
        <time>2011-06-12T11:56:08Z</time>
      </trkpt>
      <trkpt lat="45.63159" lon="6.22477">
        <ele>1967</ele>
        <time>2011-06-12T11:56:13Z</time>
      </trkpt>
      <trkpt lat="45.63157" lon="6.22479">
        <ele>1967</ele>
        <time>2011-06-12T11:56:18Z</time>
      </trkpt>
      <trkpt lat="45.63155" lon="6.22481">
        <ele>1967</ele>
        <time>2011-06-12T11:56:23Z</time>
      </trkpt>
      <trkpt lat="45.63152" lon="6.22484">
        <ele>1968</ele>
        <time>2011-06-12T11:56:28Z</time>
      </trkpt>
      <trkpt lat="45.63149" lon="6.22485">
        <ele>1968</ele>
        <time>2011-06-12T11:56:33Z</time>
      </trkpt>
      <trkpt lat="45.63147" lon="6.22488">
        <ele>1969</ele>
        <time>2011-06-12T11:56:38Z</time>
      </trkpt>
      <trkpt lat="45.63146" lon="6.2249">
        <ele>1969</ele>
        <time>2011-06-12T11:56:43Z</time>
      </trkpt>
      <trkpt lat="45.63144" lon="6.22491">
        <ele>1970</ele>
        <time>2011-06-12T11:56:48Z</time>
      </trkpt>
      <trkpt lat="45.63142" lon="6.22491">
        <ele>1970</ele>
        <time>2011-06-12T11:56:53Z</time>
      </trkpt>
      <trkpt lat="45.6314" lon="6.22492">
        <ele>1970</ele>
        <time>2011-06-12T11:56:58Z</time>
      </trkpt>
      <trkpt lat="45.63139" lon="6.22493">
        <ele>1971</ele>
        <time>2011-06-12T11:57:03Z</time>
      </trkpt>
      <trkpt lat="45.63141" lon="6.22494">
        <ele>1970</ele>
        <time>2011-06-12T11:57:08Z</time>
      </trkpt>
      <trkpt lat="45.63142" lon="6.22496">
        <ele>1970</ele>
        <time>2011-06-12T11:57:13Z</time>
      </trkpt>
      <trkpt lat="45.63142" lon="6.22497">
        <ele>1970</ele>
        <time>2011-06-12T11:57:18Z</time>
      </trkpt>
      <trkpt lat="45.63142" lon="6.22499">
        <ele>1970</ele>
        <time>2011-06-12T11:57:23Z</time>
      </trkpt>
      <trkpt lat="45.63141" lon="6.22499">
        <ele>1971</ele>
        <time>2011-06-12T11:57:28Z</time>
      </trkpt>
      <trkpt lat="45.63139" lon="6.22501">
        <ele>1997</ele>
        <time>2011-06-12T11:57:33Z</time>
      </trkpt>
      <trkpt lat="45.63139" lon="6.22503">
        <ele>1997</ele>
        <time>2011-06-12T11:57:38Z</time>
      </trkpt>
      <trkpt lat="45.6314" lon="6.22506">
        <ele>1998</ele>
        <time>2011-06-12T11:57:43Z</time>
      </trkpt>
      <trkpt lat="45.6314" lon="6.22507">
        <ele>1998</ele>
        <time>2011-06-12T11:57:48Z</time>
      </trkpt>
      <trkpt lat="45.6314" lon="6.22509">
        <ele>1998</ele>
        <time>2011-06-12T11:57:53Z</time>
      </trkpt>
      <trkpt lat="45.63139" lon="6.2251">
        <ele>2000</ele>
        <time>2011-06-12T11:57:58Z</time>
      </trkpt>
      <trkpt lat="45.63138" lon="6.22511">
        <ele>2001</ele>
        <time>2011-06-12T11:58:03Z</time>
      </trkpt>
      <trkpt lat="45.63137" lon="6.22512">
        <ele>2001</ele>
        <time>2011-06-12T11:58:08Z</time>
      </trkpt>
      <trkpt lat="45.63136" lon="6.22512">
        <ele>2002</ele>
        <time>2011-06-12T11:58:13Z</time>
      </trkpt>
      <trkpt lat="45.63135" lon="6.22512">
        <ele>2002</ele>
        <time>2011-06-12T11:58:18Z</time>
      </trkpt>
      <trkpt lat="45.63133" lon="6.22513">
        <ele>2003</ele>
        <time>2011-06-12T11:58:23Z</time>
      </trkpt>
      <trkpt lat="45.63132" lon="6.22514">
        <ele>2004</ele>
        <time>2011-06-12T11:58:28Z</time>
      </trkpt>
      <trkpt lat="45.63132" lon="6.22515">
        <ele>2004</ele>
        <time>2011-06-12T11:58:33Z</time>
      </trkpt>
      <trkpt lat="45.63131" lon="6.22515">
        <ele>2005</ele>
        <time>2011-06-12T11:58:38Z</time>
      </trkpt>
      <trkpt lat="45.6313" lon="6.22515">
        <ele>2005</ele>
        <time>2011-06-12T11:58:43Z</time>
      </trkpt>
      <trkpt lat="45.6313" lon="6.22516">
        <ele>2006</ele>
        <time>2011-06-12T11:58:48Z</time>
      </trkpt>
      <trkpt lat="45.63128" lon="6.22516">
        <ele>2006</ele>
        <time>2011-06-12T11:58:53Z</time>
      </trkpt>
      <trkpt lat="45.63126" lon="6.22516">
        <ele>2007</ele>
        <time>2011-06-12T11:58:58Z</time>
      </trkpt>
      <trkpt lat="45.63125" lon="6.22516">
        <ele>2007</ele>
        <time>2011-06-12T11:59:03Z</time>
      </trkpt>
      <trkpt lat="45.63125" lon="6.22516">
        <ele>2007</ele>
        <time>2011-06-12T11:59:08Z</time>
      </trkpt>
      <trkpt lat="45.63125" lon="6.22517">
        <ele>2007</ele>
        <time>2011-06-12T11:59:13Z</time>
      </trkpt>
      <trkpt lat="45.63125" lon="6.22519">
        <ele>2008</ele>
        <time>2011-06-12T11:59:18Z</time>
      </trkpt>
      <trkpt lat="45.63125" lon="6.22519">
        <ele>2008</ele>
        <time>2011-06-12T11:59:23Z</time>
      </trkpt>
      <trkpt lat="45.63125" lon="6.22519">
        <ele>2008</ele>
        <time>2011-06-12T11:59:28Z</time>
      </trkpt>
      <trkpt lat="45.63125" lon="6.22519">
        <ele>2008</ele>
        <time>2011-06-12T11:59:33Z</time>
      </trkpt>
      <trkpt lat="45.63125" lon="6.22517">
        <ele>2007</ele>
        <time>2011-06-12T11:59:38Z</time>
      </trkpt>
      <trkpt lat="45.63125" lon="6.22516">
        <ele>2007</ele>
        <time>2011-06-12T11:59:43Z</time>
      </trkpt>
      <trkpt lat="45.63125" lon="6.22515">
        <ele>2007</ele>
        <time>2011-06-12T11:59:48Z</time>
      </trkpt>
      <trkpt lat="45.63125" lon="6.22515">
        <ele>2007</ele>
        <time>2011-06-12T11:59:53Z</time>
      </trkpt>
      <trkpt lat="45.63125" lon="6.22515">
        <ele>2007</ele>
        <time>2011-06-12T11:59:58Z</time>
      </trkpt>
      <trkpt lat="45.63125" lon="6.22516">
        <ele>2007</ele>
        <time>2011-06-12T12:00:03Z</time>
      </trkpt>
      <trkpt lat="45.63126" lon="6.22519">
        <ele>2008</ele>
        <time>2011-06-12T12:00:08Z</time>
      </trkpt>
      <trkpt lat="45.63123" lon="6.22519">
        <ele>2008</ele>
        <time>2011-06-12T12:00:13Z</time>
      </trkpt>
      <trkpt lat="45.63121" lon="6.22519">
        <ele>2009</ele>
        <time>2011-06-12T12:00:18Z</time>
      </trkpt>
      <trkpt lat="45.6312" lon="6.22519">
        <ele>2009</ele>
        <time>2011-06-12T12:00:23Z</time>
      </trkpt>
      <trkpt lat="45.63118" lon="6.2252">
        <ele>2010</ele>
        <time>2011-06-12T12:00:28Z</time>
      </trkpt>
      <trkpt lat="45.63117" lon="6.22519">
        <ele>2010</ele>
        <time>2011-06-12T12:00:33Z</time>
      </trkpt>
      <trkpt lat="45.63115" lon="6.2252">
        <ele>2010</ele>
        <time>2011-06-12T12:00:38Z</time>
      </trkpt>
      <trkpt lat="45.63116" lon="6.22523">
        <ele>2011</ele>
        <time>2011-06-12T12:00:43Z</time>
      </trkpt>
      <trkpt lat="45.63115" lon="6.22524">
        <ele>2011</ele>
        <time>2011-06-12T12:00:48Z</time>
      </trkpt>
      <trkpt lat="45.63115" lon="6.22526">
        <ele>2012</ele>
        <time>2011-06-12T12:00:53Z</time>
      </trkpt>
      <trkpt lat="45.63113" lon="6.22526">
        <ele>2012</ele>
        <time>2011-06-12T12:00:58Z</time>
      </trkpt>
      <trkpt lat="45.63112" lon="6.22527">
        <ele>2013</ele>
        <time>2011-06-12T12:01:03Z</time>
      </trkpt>
      <trkpt lat="45.63111" lon="6.22526">
        <ele>2013</ele>
        <time>2011-06-12T12:01:08Z</time>
      </trkpt>
      <trkpt lat="45.6311" lon="6.22528">
        <ele>2013</ele>
        <time>2011-06-12T12:01:13Z</time>
      </trkpt>
      <trkpt lat="45.63109" lon="6.22528">
        <ele>2013</ele>
        <time>2011-06-12T12:01:18Z</time>
      </trkpt>
      <trkpt lat="45.63108" lon="6.22528">
        <ele>2014</ele>
        <time>2011-06-12T12:01:23Z</time>
      </trkpt>
      <trkpt lat="45.63107" lon="6.22528">
        <ele>2014</ele>
        <time>2011-06-12T12:01:28Z</time>
      </trkpt>
      <trkpt lat="45.63106" lon="6.2253">
        <ele>2014</ele>
        <time>2011-06-12T12:01:33Z</time>
      </trkpt>
      <trkpt lat="45.63106" lon="6.22529">
        <ele>2014</ele>
        <time>2011-06-12T12:01:38Z</time>
      </trkpt>
      <trkpt lat="45.63105" lon="6.2253">
        <ele>2015</ele>
        <time>2011-06-12T12:01:43Z</time>
      </trkpt>
      <trkpt lat="45.63104" lon="6.2253">
        <ele>2015</ele>
        <time>2011-06-12T12:01:48Z</time>
      </trkpt>
      <trkpt lat="45.63104" lon="6.22531">
        <ele>2015</ele>
        <time>2011-06-12T12:01:53Z</time>
      </trkpt>
      <trkpt lat="45.63103" lon="6.22533">
        <ele>2016</ele>
        <time>2011-06-12T12:01:58Z</time>
      </trkpt>
      <trkpt lat="45.63103" lon="6.22532">
        <ele>2015</ele>
        <time>2011-06-12T12:02:03Z</time>
      </trkpt>
      <trkpt lat="45.63102" lon="6.22529">
        <ele>2015</ele>
        <time>2011-06-12T12:02:08Z</time>
      </trkpt>
      <trkpt lat="45.63099" lon="6.22527">
        <ele>2014</ele>
        <time>2011-06-12T12:02:13Z</time>
      </trkpt>
      <trkpt lat="45.63097" lon="6.22526">
        <ele>2014</ele>
        <time>2011-06-12T12:02:18Z</time>
      </trkpt>
      <trkpt lat="45.63095" lon="6.22527">
        <ele>2014</ele>
        <time>2011-06-12T12:02:23Z</time>
      </trkpt>
      <trkpt lat="45.63094" lon="6.22528">
        <ele>2015</ele>
        <time>2011-06-12T12:02:28Z</time>
      </trkpt>
      <trkpt lat="45.63093" lon="6.22529">
        <ele>2015</ele>
        <time>2011-06-12T12:02:33Z</time>
      </trkpt>
      <trkpt lat="45.63094" lon="6.22528">
        <ele>2014</ele>
        <time>2011-06-12T12:02:38Z</time>
      </trkpt>
      <trkpt lat="45.63095" lon="6.2253">
        <ele>2015</ele>
        <time>2011-06-12T12:02:43Z</time>
      </trkpt>
      <trkpt lat="45.63096" lon="6.22531">
        <ele>2016</ele>
        <time>2011-06-12T12:02:48Z</time>
      </trkpt>
      <trkpt lat="45.63096" lon="6.22532">
        <ele>2016</ele>
        <time>2011-06-12T12:02:53Z</time>
      </trkpt>
      <trkpt lat="45.63096" lon="6.22532">
        <ele>2016</ele>
        <time>2011-06-12T12:02:58Z</time>
      </trkpt>
      <trkpt lat="45.63097" lon="6.22533">
        <ele>2017</ele>
        <time>2011-06-12T12:03:03Z</time>
      </trkpt>
      <trkpt lat="45.63095" lon="6.22533">
        <ele>2017</ele>
        <time>2011-06-12T12:03:08Z</time>
      </trkpt>
      <trkpt lat="45.63094" lon="6.22534">
        <ele>2017</ele>
        <time>2011-06-12T12:03:13Z</time>
      </trkpt>
      <trkpt lat="45.63094" lon="6.22535">
        <ele>2018</ele>
        <time>2011-06-12T12:03:18Z</time>
      </trkpt>
      <trkpt lat="45.63094" lon="6.22535">
        <ele>2018</ele>
        <time>2011-06-12T12:03:23Z</time>
      </trkpt>
      <trkpt lat="45.63093" lon="6.22537">
        <ele>2018</ele>
        <time>2011-06-12T12:03:28Z</time>
      </trkpt>
      <trkpt lat="45.63093" lon="6.22537">
        <ele>2018</ele>
        <time>2011-06-12T12:03:33Z</time>
      </trkpt>
      <trkpt lat="45.63093" lon="6.22536">
        <ele>2018</ele>
        <time>2011-06-12T12:03:38Z</time>
      </trkpt>
      <trkpt lat="45.63093" lon="6.22538">
        <ele>2019</ele>
        <time>2011-06-12T12:03:43Z</time>
      </trkpt>
      <trkpt lat="45.63096" lon="6.22539">
        <ele>2019</ele>
        <time>2011-06-12T12:03:48Z</time>
      </trkpt>
      <trkpt lat="45.63098" lon="6.22539">
        <ele>2019</ele>
        <time>2011-06-12T12:03:53Z</time>
      </trkpt>
      <trkpt lat="45.63099" lon="6.22541">
        <ele>2020</ele>
        <time>2011-06-12T12:03:58Z</time>
      </trkpt>
      <trkpt lat="45.631" lon="6.22544">
        <ele>2021</ele>
        <time>2011-06-12T12:04:03Z</time>
      </trkpt>
      <trkpt lat="45.63098" lon="6.22545">
        <ele>2022</ele>
        <time>2011-06-12T12:04:08Z</time>
      </trkpt>
      <trkpt lat="45.63097" lon="6.22544">
        <ele>2022</ele>
        <time>2011-06-12T12:04:13Z</time>
      </trkpt>
      <trkpt lat="45.63097" lon="6.22544">
        <ele>2022</ele>
        <time>2011-06-12T12:04:18Z</time>
      </trkpt>
      <trkpt lat="45.63096" lon="6.22547">
        <ele>2023</ele>
        <time>2011-06-12T12:04:23Z</time>
      </trkpt>
      <trkpt lat="45.63095" lon="6.22549">
        <ele>2024</ele>
        <time>2011-06-12T12:04:28Z</time>
      </trkpt>
      <trkpt lat="45.63094" lon="6.2255">
        <ele>2025</ele>
        <time>2011-06-12T12:04:33Z</time>
      </trkpt>
      <trkpt lat="45.63093" lon="6.22553">
        <ele>2027</ele>
        <time>2011-06-12T12:04:38Z</time>
      </trkpt>
      <trkpt lat="45.63093" lon="6.22554">
        <ele>2028</ele>
        <time>2011-06-12T12:04:43Z</time>
      </trkpt>
      <trkpt lat="45.63093" lon="6.22554">
        <ele>2028</ele>
        <time>2011-06-12T12:04:48Z</time>
      </trkpt>
      <trkpt lat="45.63092" lon="6.22554">
        <ele>2028</ele>
        <time>2011-06-12T12:04:53Z</time>
      </trkpt>
      <trkpt lat="45.63092" lon="6.22554">
        <ele>2028</ele>
        <time>2011-06-12T12:04:58Z</time>
      </trkpt>
      <trkpt lat="45.63091" lon="6.22553">
        <ele>2028</ele>
        <time>2011-06-12T12:05:03Z</time>
      </trkpt>
      <trkpt lat="45.63091" lon="6.22556">
        <ele>2029</ele>
        <time>2011-06-12T12:05:08Z</time>
      </trkpt>
      <trkpt lat="45.63091" lon="6.22557">
        <ele>2030</ele>
        <time>2011-06-12T12:05:13Z</time>
      </trkpt>
      <trkpt lat="45.6309" lon="6.22558">
        <ele>2031</ele>
        <time>2011-06-12T12:05:18Z</time>
      </trkpt>
      <trkpt lat="45.63091" lon="6.2256">
        <ele>2032</ele>
        <time>2011-06-12T12:05:23Z</time>
      </trkpt>
      <trkpt lat="45.6309" lon="6.22561">
        <ele>2033</ele>
        <time>2011-06-12T12:05:28Z</time>
      </trkpt>
      <trkpt lat="45.63091" lon="6.22563">
        <ele>2034</ele>
        <time>2011-06-12T12:05:33Z</time>
      </trkpt>
      <trkpt lat="45.63091" lon="6.22565">
        <ele>2036</ele>
        <time>2011-06-12T12:05:38Z</time>
      </trkpt>
      <trkpt lat="45.63092" lon="6.22567">
        <ele>2037</ele>
        <time>2011-06-12T12:05:43Z</time>
      </trkpt>
      <trkpt lat="45.63091" lon="6.22567">
        <ele>2037</ele>
        <time>2011-06-12T12:05:48Z</time>
      </trkpt>
      <trkpt lat="45.6309" lon="6.22567">
        <ele>2037</ele>
        <time>2011-06-12T12:05:53Z</time>
      </trkpt>
      <trkpt lat="45.6309" lon="6.22567">
        <ele>2037</ele>
        <time>2011-06-12T12:05:58Z</time>
      </trkpt>
      <trkpt lat="45.63091" lon="6.22568">
        <ele>2038</ele>
        <time>2011-06-12T12:06:03Z</time>
      </trkpt>
      <trkpt lat="45.63091" lon="6.22569">
        <ele>2038</ele>
        <time>2011-06-12T12:06:08Z</time>
      </trkpt>
      <trkpt lat="45.63092" lon="6.22569">
        <ele>2039</ele>
        <time>2011-06-12T12:06:13Z</time>
      </trkpt>
      <trkpt lat="45.63092" lon="6.22569">
        <ele>2039</ele>
        <time>2011-06-12T12:06:18Z</time>
      </trkpt>
      <trkpt lat="45.63092" lon="6.22569">
        <ele>2039</ele>
        <time>2011-06-12T12:06:23Z</time>
      </trkpt>
      <trkpt lat="45.63091" lon="6.22569">
        <ele>2039</ele>
        <time>2011-06-12T12:06:28Z</time>
      </trkpt>
      <trkpt lat="45.63091" lon="6.2257">
        <ele>2040</ele>
        <time>2011-06-12T12:06:33Z</time>
      </trkpt>
      <trkpt lat="45.63092" lon="6.22572">
        <ele>2040</ele>
        <time>2011-06-12T12:06:38Z</time>
      </trkpt>
      <trkpt lat="45.63093" lon="6.22571">
        <ele>2040</ele>
        <time>2011-06-12T12:06:43Z</time>
      </trkpt>
      <trkpt lat="45.63092" lon="6.22572">
        <ele>2040</ele>
        <time>2011-06-12T12:06:48Z</time>
      </trkpt>
      <trkpt lat="45.63092" lon="6.22572">
        <ele>2040</ele>
        <time>2011-06-12T12:06:53Z</time>
      </trkpt>
      <trkpt lat="45.63091" lon="6.22572">
        <ele>2041</ele>
        <time>2011-06-12T12:06:58Z</time>
      </trkpt>
      <trkpt lat="45.63091" lon="6.22571">
        <ele>2041</ele>
        <time>2011-06-12T12:07:03Z</time>
      </trkpt>
      <trkpt lat="45.63088" lon="6.2257">
        <ele>2041</ele>
        <time>2011-06-12T12:07:08Z</time>
      </trkpt>
      <trkpt lat="45.63087" lon="6.22572">
        <ele>2043</ele>
        <time>2011-06-12T12:07:13Z</time>
      </trkpt>
      <trkpt lat="45.63084" lon="6.22573">
        <ele>2044</ele>
        <time>2011-06-12T12:07:18Z</time>
      </trkpt>
      <trkpt lat="45.63084" lon="6.22574">
        <ele>2046</ele>
        <time>2011-06-12T12:07:23Z</time>
      </trkpt>
      <trkpt lat="45.63084" lon="6.22576">
        <ele>2048</ele>
        <time>2011-06-12T12:07:28Z</time>
      </trkpt>
      <trkpt lat="45.63083" lon="6.22577">
        <ele>2050</ele>
        <time>2011-06-12T12:07:33Z</time>
      </trkpt>
      <trkpt lat="45.63083" lon="6.22577">
        <ele>2051</ele>
        <time>2011-06-12T12:07:38Z</time>
      </trkpt>
      <trkpt lat="45.63083" lon="6.22578">
        <ele>2052</ele>
        <time>2011-06-12T12:07:43Z</time>
      </trkpt>
      <trkpt lat="45.63083" lon="6.22579">
        <ele>2052</ele>
        <time>2011-06-12T12:07:48Z</time>
      </trkpt>
      <trkpt lat="45.63083" lon="6.22579">
        <ele>2053</ele>
        <time>2011-06-12T12:07:53Z</time>
      </trkpt>
      <trkpt lat="45.63082" lon="6.2258">
        <ele>2053</ele>
        <time>2011-06-12T12:07:58Z</time>
      </trkpt>
      <trkpt lat="45.63082" lon="6.2258">
        <ele>2054</ele>
        <time>2011-06-12T12:08:03Z</time>
      </trkpt>
      <trkpt lat="45.63082" lon="6.2258">
        <ele>2054</ele>
        <time>2011-06-12T12:08:08Z</time>
      </trkpt>
      <trkpt lat="45.63082" lon="6.2258">
        <ele>2054</ele>
        <time>2011-06-12T12:08:13Z</time>
      </trkpt>
      <trkpt lat="45.63082" lon="6.22581">
        <ele>2055</ele>
        <time>2011-06-12T12:08:18Z</time>
      </trkpt>
      <trkpt lat="45.63081" lon="6.2258">
        <ele>2054</ele>
        <time>2011-06-12T12:08:23Z</time>
      </trkpt>
      <trkpt lat="45.63081" lon="6.22581">
        <ele>2055</ele>
        <time>2011-06-12T12:08:28Z</time>
      </trkpt>
      <trkpt lat="45.63081" lon="6.22582">
        <ele>2055</ele>
        <time>2011-06-12T12:08:33Z</time>
      </trkpt>
      <trkpt lat="45.6308" lon="6.22582">
        <ele>2054</ele>
        <time>2011-06-12T12:08:38Z</time>
      </trkpt>
      <trkpt lat="45.6308" lon="6.22582">
        <ele>2054</ele>
        <time>2011-06-12T12:08:43Z</time>
      </trkpt>
      <trkpt lat="45.6308" lon="6.22581">
        <ele>2053</ele>
        <time>2011-06-12T12:08:48Z</time>
      </trkpt>
      <trkpt lat="45.63081" lon="6.22582">
        <ele>2055</ele>
        <time>2011-06-12T12:08:53Z</time>
      </trkpt>
      <trkpt lat="45.6308" lon="6.22582">
        <ele>2054</ele>
        <time>2011-06-12T12:08:58Z</time>
      </trkpt>
      <trkpt lat="45.6308" lon="6.22583">
        <ele>2054</ele>
        <time>2011-06-12T12:09:03Z</time>
      </trkpt>
      <trkpt lat="45.63079" lon="6.22584">
        <ele>2059</ele>
        <time>2011-06-12T12:09:08Z</time>
      </trkpt>
      <trkpt lat="45.6308" lon="6.22585">
        <ele>2059</ele>
        <time>2011-06-12T12:09:13Z</time>
      </trkpt>
      <trkpt lat="45.6308" lon="6.22586">
        <ele>2059</ele>
        <time>2011-06-12T12:09:18Z</time>
      </trkpt>
      <trkpt lat="45.6308" lon="6.22588">
        <ele>2059</ele>
        <time>2011-06-12T12:09:23Z</time>
      </trkpt>
      <trkpt lat="45.63077" lon="6.22588">
        <ele>2059</ele>
        <time>2011-06-12T12:09:28Z</time>
      </trkpt>
      <trkpt lat="45.63078" lon="6.22591">
        <ele>2059</ele>
        <time>2011-06-12T12:09:33Z</time>
      </trkpt>
      <trkpt lat="45.6308" lon="6.2259">
        <ele>2059</ele>
        <time>2011-06-12T12:09:38Z</time>
      </trkpt>
      <trkpt lat="45.63079" lon="6.22592">
        <ele>2060</ele>
        <time>2011-06-12T12:09:43Z</time>
      </trkpt>
      <trkpt lat="45.63081" lon="6.22592">
        <ele>2060</ele>
        <time>2011-06-12T12:09:48Z</time>
      </trkpt>
      <trkpt lat="45.6308" lon="6.22594">
        <ele>2060</ele>
        <time>2011-06-12T12:09:53Z</time>
      </trkpt>
      <trkpt lat="45.63081" lon="6.22596">
        <ele>2060</ele>
        <time>2011-06-12T12:09:58Z</time>
      </trkpt>
      <trkpt lat="45.6308" lon="6.22596">
        <ele>2060</ele>
        <time>2011-06-12T12:10:03Z</time>
      </trkpt>
      <trkpt lat="45.63079" lon="6.22597">
        <ele>2060</ele>
        <time>2011-06-12T12:10:08Z</time>
      </trkpt>
      <trkpt lat="45.63078" lon="6.226">
        <ele>2060</ele>
        <time>2011-06-12T12:10:13Z</time>
      </trkpt>
      <trkpt lat="45.63079" lon="6.22604">
        <ele>2061</ele>
        <time>2011-06-12T12:10:18Z</time>
      </trkpt>
      <trkpt lat="45.63077" lon="6.22604">
        <ele>2061</ele>
        <time>2011-06-12T12:10:23Z</time>
      </trkpt>
      <trkpt lat="45.63076" lon="6.22605">
        <ele>2061</ele>
        <time>2011-06-12T12:10:28Z</time>
      </trkpt>
      <trkpt lat="45.63077" lon="6.22608">
        <ele>2062</ele>
        <time>2011-06-12T12:10:33Z</time>
      </trkpt>
      <trkpt lat="45.63077" lon="6.22611">
        <ele>2062</ele>
        <time>2011-06-12T12:10:38Z</time>
      </trkpt>
      <trkpt lat="45.63077" lon="6.22613">
        <ele>2063</ele>
        <time>2011-06-12T12:10:43Z</time>
      </trkpt>
      <trkpt lat="45.63075" lon="6.22612">
        <ele>2062</ele>
        <time>2011-06-12T12:10:48Z</time>
      </trkpt>
      <trkpt lat="45.63074" lon="6.22612">
        <ele>2062</ele>
        <time>2011-06-12T12:10:53Z</time>
      </trkpt>
      <trkpt lat="45.63072" lon="6.22612">
        <ele>2062</ele>
        <time>2011-06-12T12:10:58Z</time>
      </trkpt>
      <trkpt lat="45.63071" lon="6.22615">
        <ele>2062</ele>
        <time>2011-06-12T12:11:03Z</time>
      </trkpt>
      <trkpt lat="45.6307" lon="6.22613">
        <ele>2062</ele>
        <time>2011-06-12T12:11:08Z</time>
      </trkpt>
      <trkpt lat="45.63068" lon="6.22614">
        <ele>2062</ele>
        <time>2011-06-12T12:11:13Z</time>
      </trkpt>
      <trkpt lat="45.63068" lon="6.22616">
        <ele>2062</ele>
        <time>2011-06-12T12:11:18Z</time>
      </trkpt>
      <trkpt lat="45.63068" lon="6.22618">
        <ele>2063</ele>
        <time>2011-06-12T12:11:23Z</time>
      </trkpt>
      <trkpt lat="45.63067" lon="6.22619">
        <ele>2063</ele>
        <time>2011-06-12T12:11:28Z</time>
      </trkpt>
      <trkpt lat="45.63065" lon="6.22619">
        <ele>2063</ele>
        <time>2011-06-12T12:11:33Z</time>
      </trkpt>
      <trkpt lat="45.63064" lon="6.22622">
        <ele>2063</ele>
        <time>2011-06-12T12:11:38Z</time>
      </trkpt>
      <trkpt lat="45.63064" lon="6.22623">
        <ele>2063</ele>
        <time>2011-06-12T12:11:43Z</time>
      </trkpt>
      <trkpt lat="45.63064" lon="6.22626">
        <ele>2064</ele>
        <time>2011-06-12T12:11:48Z</time>
      </trkpt>
      <trkpt lat="45.63062" lon="6.22627">
        <ele>2064</ele>
        <time>2011-06-12T12:11:53Z</time>
      </trkpt>
      <trkpt lat="45.63061" lon="6.22628">
        <ele>2064</ele>
        <time>2011-06-12T12:11:58Z</time>
      </trkpt>
      <trkpt lat="45.63059" lon="6.22628">
        <ele>2064</ele>
        <time>2011-06-12T12:12:03Z</time>
      </trkpt>
      <trkpt lat="45.63057" lon="6.22628">
        <ele>2064</ele>
        <time>2011-06-12T12:12:08Z</time>
      </trkpt>
      <trkpt lat="45.63057" lon="6.2263">
        <ele>2064</ele>
        <time>2011-06-12T12:12:13Z</time>
      </trkpt>
      <trkpt lat="45.63056" lon="6.22631">
        <ele>2064</ele>
        <time>2011-06-12T12:12:18Z</time>
      </trkpt>
      <trkpt lat="45.63055" lon="6.22633">
        <ele>2064</ele>
        <time>2011-06-12T12:12:23Z</time>
      </trkpt>
      <trkpt lat="45.63055" lon="6.22636">
        <ele>2065</ele>
        <time>2011-06-12T12:12:28Z</time>
      </trkpt>
      <trkpt lat="45.63054" lon="6.22638">
        <ele>2066</ele>
        <time>2011-06-12T12:12:33Z</time>
      </trkpt>
      <trkpt lat="45.63052" lon="6.22639">
        <ele>2065</ele>
        <time>2011-06-12T12:12:38Z</time>
      </trkpt>
      <trkpt lat="45.63051" lon="6.22642">
        <ele>2066</ele>
        <time>2011-06-12T12:12:43Z</time>
      </trkpt>
      <trkpt lat="45.63051" lon="6.22642">
        <ele>2066</ele>
        <time>2011-06-12T12:12:48Z</time>
      </trkpt>
      <trkpt lat="45.63051" lon="6.22643">
        <ele>2066</ele>
        <time>2011-06-12T12:12:53Z</time>
      </trkpt>
      <trkpt lat="45.63051" lon="6.22643">
        <ele>2066</ele>
        <time>2011-06-12T12:12:58Z</time>
      </trkpt>
      <trkpt lat="45.6305" lon="6.22643">
        <ele>2066</ele>
        <time>2011-06-12T12:13:03Z</time>
      </trkpt>
      <trkpt lat="45.6305" lon="6.22643">
        <ele>2066</ele>
        <time>2011-06-12T12:13:08Z</time>
      </trkpt>
      <trkpt lat="45.6305" lon="6.22643">
        <ele>2066</ele>
        <time>2011-06-12T12:13:13Z</time>
      </trkpt>
      <trkpt lat="45.6305" lon="6.22642">
        <ele>2066</ele>
        <time>2011-06-12T12:13:18Z</time>
      </trkpt>
      <trkpt lat="45.6305" lon="6.22642">
        <ele>2065</ele>
        <time>2011-06-12T12:13:23Z</time>
      </trkpt>
      <trkpt lat="45.6305" lon="6.22641">
        <ele>2065</ele>
        <time>2011-06-12T12:13:28Z</time>
      </trkpt>
      <trkpt lat="45.6305" lon="6.22642">
        <ele>2065</ele>
        <time>2011-06-12T12:13:33Z</time>
      </trkpt>
      <trkpt lat="45.6305" lon="6.22642">
        <ele>2065</ele>
        <time>2011-06-12T12:13:38Z</time>
      </trkpt>
      <trkpt lat="45.6305" lon="6.22643">
        <ele>2066</ele>
        <time>2011-06-12T12:13:43Z</time>
      </trkpt>
      <trkpt lat="45.6305" lon="6.22643">
        <ele>2066</ele>
        <time>2011-06-12T12:13:48Z</time>
      </trkpt>
      <trkpt lat="45.63049" lon="6.22643">
        <ele>2066</ele>
        <time>2011-06-12T12:13:53Z</time>
      </trkpt>
      <trkpt lat="45.63049" lon="6.22643">
        <ele>2066</ele>
        <time>2011-06-12T12:13:58Z</time>
      </trkpt>
      <trkpt lat="45.63049" lon="6.22643">
        <ele>2066</ele>
        <time>2011-06-12T12:14:03Z</time>
      </trkpt>
      <trkpt lat="45.63049" lon="6.22643">
        <ele>2066</ele>
        <time>2011-06-12T12:14:08Z</time>
      </trkpt>
      <trkpt lat="45.63049" lon="6.22643">
        <ele>2066</ele>
        <time>2011-06-12T12:14:13Z</time>
      </trkpt>
      <trkpt lat="45.63049" lon="6.22643">
        <ele>2066</ele>
        <time>2011-06-12T12:14:18Z</time>
      </trkpt>
      <trkpt lat="45.63049" lon="6.22642">
        <ele>2065</ele>
        <time>2011-06-12T12:14:23Z</time>
      </trkpt>
      <trkpt lat="45.63049" lon="6.22642">
        <ele>2065</ele>
        <time>2011-06-12T12:14:28Z</time>
      </trkpt>
      <trkpt lat="45.63049" lon="6.22642">
        <ele>2065</ele>
        <time>2011-06-12T12:14:33Z</time>
      </trkpt>
      <trkpt lat="45.63049" lon="6.22642">
        <ele>2065</ele>
        <time>2011-06-12T12:14:38Z</time>
      </trkpt>
      <trkpt lat="45.63049" lon="6.22642">
        <ele>2065</ele>
        <time>2011-06-12T12:14:43Z</time>
      </trkpt>
      <trkpt lat="45.63049" lon="6.22642">
        <ele>2065</ele>
        <time>2011-06-12T12:14:48Z</time>
      </trkpt>
      <trkpt lat="45.63049" lon="6.22642">
        <ele>2065</ele>
        <time>2011-06-12T12:14:53Z</time>
      </trkpt>
      <trkpt lat="45.63049" lon="6.22642">
        <ele>2065</ele>
        <time>2011-06-12T12:14:58Z</time>
      </trkpt>
      <trkpt lat="45.63049" lon="6.22642">
        <ele>2065</ele>
        <time>2011-06-12T12:15:03Z</time>
      </trkpt>
      <trkpt lat="45.63049" lon="6.22642">
        <ele>2065</ele>
        <time>2011-06-12T12:15:08Z</time>
      </trkpt>
      <trkpt lat="45.63049" lon="6.22642">
        <ele>2065</ele>
        <time>2011-06-12T12:15:13Z</time>
      </trkpt>
      <trkpt lat="45.63049" lon="6.22643">
        <ele>2065</ele>
        <time>2011-06-12T12:15:18Z</time>
      </trkpt>
      <trkpt lat="45.6305" lon="6.22645">
        <ele>2066</ele>
        <time>2011-06-12T12:15:23Z</time>
      </trkpt>
      <trkpt lat="45.6305" lon="6.22645">
        <ele>2066</ele>
        <time>2011-06-12T12:15:28Z</time>
      </trkpt>
      <trkpt lat="45.6305" lon="6.22645">
        <ele>2066</ele>
        <time>2011-06-12T12:15:33Z</time>
      </trkpt>
      <trkpt lat="45.63051" lon="6.22646">
        <ele>2066</ele>
        <time>2011-06-12T12:15:38Z</time>
      </trkpt>
      <trkpt lat="45.63052" lon="6.22651">
        <ele>2068</ele>
        <time>2011-06-12T12:15:43Z</time>
      </trkpt>
      <trkpt lat="45.63054" lon="6.22655">
        <ele>2069</ele>
        <time>2011-06-12T12:15:48Z</time>
      </trkpt>
      <trkpt lat="45.63055" lon="6.2266">
        <ele>2070</ele>
        <time>2011-06-12T12:15:53Z</time>
      </trkpt>
      <trkpt lat="45.63057" lon="6.22664">
        <ele>2071</ele>
        <time>2011-06-12T12:15:58Z</time>
      </trkpt>
      <trkpt lat="45.63057" lon="6.22669">
        <ele>2085</ele>
        <time>2011-06-12T12:16:03Z</time>
      </trkpt>
      <trkpt lat="45.63057" lon="6.22672">
        <ele>2085</ele>
        <time>2011-06-12T12:16:08Z</time>
      </trkpt>
      <trkpt lat="45.63058" lon="6.22674">
        <ele>2085</ele>
        <time>2011-06-12T12:16:13Z</time>
      </trkpt>
      <trkpt lat="45.63058" lon="6.22678">
        <ele>2085</ele>
        <time>2011-06-12T12:16:18Z</time>
      </trkpt>
      <trkpt lat="45.63059" lon="6.22682">
        <ele>2085</ele>
        <time>2011-06-12T12:16:23Z</time>
      </trkpt>
      <trkpt lat="45.6306" lon="6.22685">
        <ele>2086</ele>
        <time>2011-06-12T12:16:28Z</time>
      </trkpt>
      <trkpt lat="45.6306" lon="6.22687">
        <ele>2086</ele>
        <time>2011-06-12T12:16:33Z</time>
      </trkpt>
      <trkpt lat="45.63061" lon="6.2269">
        <ele>2086</ele>
        <time>2011-06-12T12:16:38Z</time>
      </trkpt>
      <trkpt lat="45.63062" lon="6.22694">
        <ele>2086</ele>
        <time>2011-06-12T12:16:43Z</time>
      </trkpt>
      <trkpt lat="45.63064" lon="6.22697">
        <ele>2087</ele>
        <time>2011-06-12T12:16:48Z</time>
      </trkpt>
      <trkpt lat="45.63064" lon="6.22701">
        <ele>2087</ele>
        <time>2011-06-12T12:16:53Z</time>
      </trkpt>
      <trkpt lat="45.63065" lon="6.22703">
        <ele>2087</ele>
        <time>2011-06-12T12:16:58Z</time>
      </trkpt>
      <trkpt lat="45.63067" lon="6.22706">
        <ele>2088</ele>
        <time>2011-06-12T12:17:03Z</time>
      </trkpt>
      <trkpt lat="45.63069" lon="6.2271">
        <ele>2089</ele>
        <time>2011-06-12T12:17:08Z</time>
      </trkpt>
      <trkpt lat="45.6307" lon="6.22714">
        <ele>2090</ele>
        <time>2011-06-12T12:17:13Z</time>
      </trkpt>
      <trkpt lat="45.63071" lon="6.22719">
        <ele>2091</ele>
        <time>2011-06-12T12:17:18Z</time>
      </trkpt>
      <trkpt lat="45.63072" lon="6.22722">
        <ele>2092</ele>
        <time>2011-06-12T12:17:23Z</time>
      </trkpt>
      <trkpt lat="45.63072" lon="6.22724">
        <ele>2093</ele>
        <time>2011-06-12T12:17:28Z</time>
      </trkpt>
      <trkpt lat="45.63073" lon="6.22727">
        <ele>2094</ele>
        <time>2011-06-12T12:17:33Z</time>
      </trkpt>
      <trkpt lat="45.63075" lon="6.2273">
        <ele>2096</ele>
        <time>2011-06-12T12:17:38Z</time>
      </trkpt>
      <trkpt lat="45.63076" lon="6.22734">
        <ele>2098</ele>
        <time>2011-06-12T12:17:43Z</time>
      </trkpt>
      <trkpt lat="45.63076" lon="6.22736">
        <ele>2099</ele>
        <time>2011-06-12T12:17:48Z</time>
      </trkpt>
      <trkpt lat="45.63077" lon="6.22739">
        <ele>2101</ele>
        <time>2011-06-12T12:17:53Z</time>
      </trkpt>
      <trkpt lat="45.63077" lon="6.22742">
        <ele>2103</ele>
        <time>2011-06-12T12:17:58Z</time>
      </trkpt>
      <trkpt lat="45.63078" lon="6.22745">
        <ele>2105</ele>
        <time>2011-06-12T12:18:03Z</time>
      </trkpt>
      <trkpt lat="45.63079" lon="6.22747">
        <ele>2107</ele>
        <time>2011-06-12T12:18:08Z</time>
      </trkpt>
      <trkpt lat="45.6308" lon="6.2275">
        <ele>2109</ele>
        <time>2011-06-12T12:18:13Z</time>
      </trkpt>
      <trkpt lat="45.6308" lon="6.22752">
        <ele>2110</ele>
        <time>2011-06-12T12:18:18Z</time>
      </trkpt>
      <trkpt lat="45.63081" lon="6.22755">
        <ele>2109</ele>
        <time>2011-06-12T12:18:23Z</time>
      </trkpt>
      <trkpt lat="45.63081" lon="6.22759">
        <ele>2108</ele>
        <time>2011-06-12T12:18:28Z</time>
      </trkpt>
      <trkpt lat="45.63082" lon="6.22761">
        <ele>2107</ele>
        <time>2011-06-12T12:18:33Z</time>
      </trkpt>
      <trkpt lat="45.63082" lon="6.22763">
        <ele>2106</ele>
        <time>2011-06-12T12:18:38Z</time>
      </trkpt>
      <trkpt lat="45.63082" lon="6.22766">
        <ele>2106</ele>
        <time>2011-06-12T12:18:43Z</time>
      </trkpt>
      <trkpt lat="45.63083" lon="6.22768">
        <ele>2105</ele>
        <time>2011-06-12T12:18:48Z</time>
      </trkpt>
      <trkpt lat="45.63083" lon="6.2277">
        <ele>2105</ele>
        <time>2011-06-12T12:18:53Z</time>
      </trkpt>
      <trkpt lat="45.63083" lon="6.22773">
        <ele>2104</ele>
        <time>2011-06-12T12:18:58Z</time>
      </trkpt>
      <trkpt lat="45.63084" lon="6.22777">
        <ele>2114</ele>
        <time>2011-06-12T12:19:03Z</time>
      </trkpt>
      <trkpt lat="45.63084" lon="6.22779">
        <ele>2114</ele>
        <time>2011-06-12T12:19:08Z</time>
      </trkpt>
      <trkpt lat="45.63084" lon="6.22782">
        <ele>2114</ele>
        <time>2011-06-12T12:19:13Z</time>
      </trkpt>
      <trkpt lat="45.63083" lon="6.22784">
        <ele>2104</ele>
        <time>2011-06-12T12:19:18Z</time>
      </trkpt>
      <trkpt lat="45.63083" lon="6.22787">
        <ele>2104</ele>
        <time>2011-06-12T12:19:23Z</time>
      </trkpt>
      <trkpt lat="45.63084" lon="6.2279">
        <ele>2116</ele>
        <time>2011-06-12T12:19:28Z</time>
      </trkpt>
      <trkpt lat="45.63086" lon="6.22793">
        <ele>2116</ele>
        <time>2011-06-12T12:19:33Z</time>
      </trkpt>
      <trkpt lat="45.63087" lon="6.22797">
        <ele>2117</ele>
        <time>2011-06-12T12:19:38Z</time>
      </trkpt>
      <trkpt lat="45.63089" lon="6.22802">
        <ele>2118</ele>
        <time>2011-06-12T12:19:43Z</time>
      </trkpt>
      <trkpt lat="45.6309" lon="6.22806">
        <ele>2119</ele>
        <time>2011-06-12T12:19:48Z</time>
      </trkpt>
      <trkpt lat="45.63091" lon="6.2281">
        <ele>2120</ele>
        <time>2011-06-12T12:19:53Z</time>
      </trkpt>
      <trkpt lat="45.63093" lon="6.22813">
        <ele>2121</ele>
        <time>2011-06-12T12:19:58Z</time>
      </trkpt>
      <trkpt lat="45.63093" lon="6.22816">
        <ele>2122</ele>
        <time>2011-06-12T12:20:03Z</time>
      </trkpt>
      <trkpt lat="45.63094" lon="6.2282">
        <ele>2123</ele>
        <time>2011-06-12T12:20:08Z</time>
      </trkpt>
      <trkpt lat="45.63096" lon="6.22823">
        <ele>2123</ele>
        <time>2011-06-12T12:20:13Z</time>
      </trkpt>
      <trkpt lat="45.63097" lon="6.22826">
        <ele>2124</ele>
        <time>2011-06-12T12:20:18Z</time>
      </trkpt>
      <trkpt lat="45.63097" lon="6.22829">
        <ele>2124</ele>
        <time>2011-06-12T12:20:23Z</time>
      </trkpt>
      <trkpt lat="45.63098" lon="6.22832">
        <ele>2124</ele>
        <time>2011-06-12T12:20:28Z</time>
      </trkpt>
      <trkpt lat="45.631" lon="6.22834">
        <ele>2132</ele>
        <time>2011-06-12T12:20:33Z</time>
      </trkpt>
      <trkpt lat="45.63101" lon="6.22836">
        <ele>2132</ele>
        <time>2011-06-12T12:20:38Z</time>
      </trkpt>
      <trkpt lat="45.63101" lon="6.22838">
        <ele>2132</ele>
        <time>2011-06-12T12:20:43Z</time>
      </trkpt>
      <trkpt lat="45.63102" lon="6.2284">
        <ele>2132</ele>
        <time>2011-06-12T12:20:48Z</time>
      </trkpt>
      <trkpt lat="45.63102" lon="6.22842">
        <ele>2132</ele>
        <time>2011-06-12T12:20:53Z</time>
      </trkpt>
      <trkpt lat="45.63103" lon="6.22845">
        <ele>2132</ele>
        <time>2011-06-12T12:20:58Z</time>
      </trkpt>
      <trkpt lat="45.63104" lon="6.22847">
        <ele>2131</ele>
        <time>2011-06-12T12:21:03Z</time>
      </trkpt>
      <trkpt lat="45.63103" lon="6.22848">
        <ele>2131</ele>
        <time>2011-06-12T12:21:08Z</time>
      </trkpt>
      <trkpt lat="45.63104" lon="6.2285">
        <ele>2131</ele>
        <time>2011-06-12T12:21:13Z</time>
      </trkpt>
      <trkpt lat="45.63103" lon="6.22851">
        <ele>2131</ele>
        <time>2011-06-12T12:21:18Z</time>
      </trkpt>
      <trkpt lat="45.63104" lon="6.22854">
        <ele>2131</ele>
        <time>2011-06-12T12:21:23Z</time>
      </trkpt>
      <trkpt lat="45.63105" lon="6.22856">
        <ele>2131</ele>
        <time>2011-06-12T12:21:28Z</time>
      </trkpt>
      <trkpt lat="45.63106" lon="6.22857">
        <ele>2131</ele>
        <time>2011-06-12T12:21:33Z</time>
      </trkpt>
      <trkpt lat="45.63105" lon="6.22859">
        <ele>2131</ele>
        <time>2011-06-12T12:21:38Z</time>
      </trkpt>
      <trkpt lat="45.63106" lon="6.22862">
        <ele>2131</ele>
        <time>2011-06-12T12:21:43Z</time>
      </trkpt>
      <trkpt lat="45.63107" lon="6.22864">
        <ele>2131</ele>
        <time>2011-06-12T12:21:48Z</time>
      </trkpt>
      <trkpt lat="45.63108" lon="6.22866">
        <ele>2131</ele>
        <time>2011-06-12T12:21:53Z</time>
      </trkpt>
      <trkpt lat="45.63109" lon="6.22868">
        <ele>2131</ele>
        <time>2011-06-12T12:21:58Z</time>
      </trkpt>
      <trkpt lat="45.6311" lon="6.2287">
        <ele>2132</ele>
        <time>2011-06-12T12:22:03Z</time>
      </trkpt>
      <trkpt lat="45.63112" lon="6.22873">
        <ele>2132</ele>
        <time>2011-06-12T12:22:08Z</time>
      </trkpt>
      <trkpt lat="45.63113" lon="6.22876">
        <ele>2132</ele>
        <time>2011-06-12T12:22:13Z</time>
      </trkpt>
      <trkpt lat="45.63113" lon="6.22879">
        <ele>2132</ele>
        <time>2011-06-12T12:22:18Z</time>
      </trkpt>
      <trkpt lat="45.63113" lon="6.22882">
        <ele>2132</ele>
        <time>2011-06-12T12:22:23Z</time>
      </trkpt>
      <trkpt lat="45.63115" lon="6.22885">
        <ele>2132</ele>
        <time>2011-06-12T12:22:28Z</time>
      </trkpt>
      <trkpt lat="45.63116" lon="6.22889">
        <ele>2132</ele>
        <time>2011-06-12T12:22:33Z</time>
      </trkpt>
      <trkpt lat="45.63117" lon="6.22892">
        <ele>2132</ele>
        <time>2011-06-12T12:22:38Z</time>
      </trkpt>
      <trkpt lat="45.63118" lon="6.22896">
        <ele>2133</ele>
        <time>2011-06-12T12:22:43Z</time>
      </trkpt>
      <trkpt lat="45.63118" lon="6.22898">
        <ele>2133</ele>
        <time>2011-06-12T12:22:48Z</time>
      </trkpt>
      <trkpt lat="45.63118" lon="6.22899">
        <ele>2133</ele>
        <time>2011-06-12T12:22:53Z</time>
      </trkpt>
      <trkpt lat="45.63116" lon="6.229">
        <ele>2132</ele>
        <time>2011-06-12T12:22:58Z</time>
      </trkpt>
      <trkpt lat="45.63116" lon="6.22902">
        <ele>2132</ele>
        <time>2011-06-12T12:23:03Z</time>
      </trkpt>
      <trkpt lat="45.63117" lon="6.22903">
        <ele>2132</ele>
        <time>2011-06-12T12:23:08Z</time>
      </trkpt>
      <trkpt lat="45.63117" lon="6.22905">
        <ele>2133</ele>
        <time>2011-06-12T12:23:13Z</time>
      </trkpt>
      <trkpt lat="45.63118" lon="6.22907">
        <ele>2133</ele>
        <time>2011-06-12T12:23:18Z</time>
      </trkpt>
      <trkpt lat="45.63119" lon="6.22908">
        <ele>2133</ele>
        <time>2011-06-12T12:23:23Z</time>
      </trkpt>
      <trkpt lat="45.6312" lon="6.2291">
        <ele>2133</ele>
        <time>2011-06-12T12:23:28Z</time>
      </trkpt>
      <trkpt lat="45.6312" lon="6.22912">
        <ele>2133</ele>
        <time>2011-06-12T12:23:33Z</time>
      </trkpt>
      <trkpt lat="45.6312" lon="6.22914">
        <ele>2133</ele>
        <time>2011-06-12T12:23:38Z</time>
      </trkpt>
      <trkpt lat="45.6312" lon="6.22915">
        <ele>2133</ele>
        <time>2011-06-12T12:23:43Z</time>
      </trkpt>
      <trkpt lat="45.6312" lon="6.22917">
        <ele>2133</ele>
        <time>2011-06-12T12:23:48Z</time>
      </trkpt>
      <trkpt lat="45.63121" lon="6.22918">
        <ele>2133</ele>
        <time>2011-06-12T12:23:53Z</time>
      </trkpt>
      <trkpt lat="45.63121" lon="6.2292">
        <ele>2133</ele>
        <time>2011-06-12T12:23:58Z</time>
      </trkpt>
      <trkpt lat="45.63121" lon="6.22923">
        <ele>2133</ele>
        <time>2011-06-12T12:24:03Z</time>
      </trkpt>
      <trkpt lat="45.63123" lon="6.22924">
        <ele>2134</ele>
        <time>2011-06-12T12:24:08Z</time>
      </trkpt>
      <trkpt lat="45.63125" lon="6.22925">
        <ele>2134</ele>
        <time>2011-06-12T12:24:13Z</time>
      </trkpt>
      <trkpt lat="45.63127" lon="6.22925">
        <ele>2135</ele>
        <time>2011-06-12T12:24:18Z</time>
      </trkpt>
      <trkpt lat="45.63129" lon="6.22925">
        <ele>2136</ele>
        <time>2011-06-12T12:24:23Z</time>
      </trkpt>
      <trkpt lat="45.63133" lon="6.22927">
        <ele>2137</ele>
        <time>2011-06-12T12:53:53Z</time>
      </trkpt>
      <trkpt lat="45.63133" lon="6.22929">
        <ele>2137</ele>
        <time>2011-06-12T12:53:58Z</time>
      </trkpt>
      <trkpt lat="45.63136" lon="6.22932">
        <ele>2137</ele>
        <time>2011-06-12T12:54:03Z</time>
      </trkpt>
      <trkpt lat="45.63139" lon="6.22933">
        <ele>2138</ele>
        <time>2011-06-12T12:54:08Z</time>
      </trkpt>
      <trkpt lat="45.63142" lon="6.22935">
        <ele>2139</ele>
        <time>2011-06-12T12:54:13Z</time>
      </trkpt>
      <trkpt lat="45.63146" lon="6.22936">
        <ele>2140</ele>
        <time>2011-06-12T12:54:18Z</time>
      </trkpt>
      <trkpt lat="45.63149" lon="6.22941">
        <ele>2140</ele>
        <time>2011-06-12T12:54:23Z</time>
      </trkpt>
      <trkpt lat="45.63152" lon="6.22945">
        <ele>2140</ele>
        <time>2011-06-12T12:54:28Z</time>
      </trkpt>
      <trkpt lat="45.63155" lon="6.22946">
        <ele>2141</ele>
        <time>2011-06-12T12:54:33Z</time>
      </trkpt>
      <trkpt lat="45.63156" lon="6.22948">
        <ele>2140</ele>
        <time>2011-06-12T12:54:38Z</time>
      </trkpt>
      <trkpt lat="45.63159" lon="6.22949">
        <ele>2141</ele>
        <time>2011-06-12T12:54:43Z</time>
      </trkpt>
      <trkpt lat="45.63161" lon="6.22951">
        <ele>2141</ele>
        <time>2011-06-12T12:54:48Z</time>
      </trkpt>
      <trkpt lat="45.63162" lon="6.22952">
        <ele>2141</ele>
        <time>2011-06-12T12:54:53Z</time>
      </trkpt>
      <trkpt lat="45.63163" lon="6.22953">
        <ele>2141</ele>
        <time>2011-06-12T12:54:58Z</time>
      </trkpt>
      <trkpt lat="45.63165" lon="6.22956">
        <ele>2141</ele>
        <time>2011-06-12T12:55:03Z</time>
      </trkpt>
      <trkpt lat="45.63167" lon="6.2296">
        <ele>2141</ele>
        <time>2011-06-12T12:55:08Z</time>
      </trkpt>
      <trkpt lat="45.63168" lon="6.22964">
        <ele>2145</ele>
        <time>2011-06-12T12:55:13Z</time>
      </trkpt>
      <trkpt lat="45.6317" lon="6.22968">
        <ele>2145</ele>
        <time>2011-06-12T12:55:18Z</time>
      </trkpt>
      <trkpt lat="45.6317" lon="6.2297">
        <ele>2145</ele>
        <time>2011-06-12T12:55:23Z</time>
      </trkpt>
      <trkpt lat="45.6317" lon="6.2297">
        <ele>2145</ele>
        <time>2011-06-12T12:55:28Z</time>
      </trkpt>
      <trkpt lat="45.6317" lon="6.22974">
        <ele>2146</ele>
        <time>2011-06-12T12:55:33Z</time>
      </trkpt>
      <trkpt lat="45.63171" lon="6.22975">
        <ele>2146</ele>
        <time>2011-06-12T12:55:38Z</time>
      </trkpt>
      <trkpt lat="45.63172" lon="6.22977">
        <ele>2146</ele>
        <time>2011-06-12T12:55:43Z</time>
      </trkpt>
      <trkpt lat="45.63174" lon="6.22978">
        <ele>2146</ele>
        <time>2011-06-12T12:55:48Z</time>
      </trkpt>
      <trkpt lat="45.63176" lon="6.2298">
        <ele>2146</ele>
        <time>2011-06-12T12:55:53Z</time>
      </trkpt>
      <trkpt lat="45.63179" lon="6.22982">
        <ele>2146</ele>
        <time>2011-06-12T12:55:58Z</time>
      </trkpt>
      <trkpt lat="45.63181" lon="6.22984">
        <ele>2146</ele>
        <time>2011-06-12T12:56:03Z</time>
      </trkpt>
      <trkpt lat="45.63183" lon="6.22988">
        <ele>2146</ele>
        <time>2011-06-12T12:56:08Z</time>
      </trkpt>
      <trkpt lat="45.63186" lon="6.22993">
        <ele>2146</ele>
        <time>2011-06-12T12:56:13Z</time>
      </trkpt>
      <trkpt lat="45.6319" lon="6.22996">
        <ele>2146</ele>
        <time>2011-06-12T12:56:18Z</time>
      </trkpt>
      <trkpt lat="45.63193" lon="6.23">
        <ele>2145</ele>
        <time>2011-06-12T12:56:23Z</time>
      </trkpt>
      <trkpt lat="45.63195" lon="6.23">
        <ele>2150</ele>
        <time>2011-06-12T12:56:28Z</time>
      </trkpt>
      <trkpt lat="45.63196" lon="6.23002">
        <ele>2150</ele>
        <time>2011-06-12T12:56:33Z</time>
      </trkpt>
      <trkpt lat="45.63196" lon="6.23004">
        <ele>2150</ele>
        <time>2011-06-12T12:56:38Z</time>
      </trkpt>
      <trkpt lat="45.63196" lon="6.23004">
        <ele>2150</ele>
        <time>2011-06-12T12:56:43Z</time>
      </trkpt>
      <trkpt lat="45.63196" lon="6.23006">
        <ele>2150</ele>
        <time>2011-06-12T12:56:48Z</time>
      </trkpt>
      <trkpt lat="45.63197" lon="6.23006">
        <ele>2150</ele>
        <time>2011-06-12T12:56:53Z</time>
      </trkpt>
      <trkpt lat="45.63197" lon="6.23006">
        <ele>2150</ele>
        <time>2011-06-12T12:56:58Z</time>
      </trkpt>
      <trkpt lat="45.63196" lon="6.23008">
        <ele>2150</ele>
        <time>2011-06-12T12:57:03Z</time>
      </trkpt>
      <trkpt lat="45.63197" lon="6.23009">
        <ele>2150</ele>
        <time>2011-06-12T12:57:08Z</time>
      </trkpt>
      <trkpt lat="45.63197" lon="6.23011">
        <ele>2150</ele>
        <time>2011-06-12T12:57:13Z</time>
      </trkpt>
      <trkpt lat="45.63198" lon="6.23013">
        <ele>2150</ele>
        <time>2011-06-12T12:57:18Z</time>
      </trkpt>
      <trkpt lat="45.63199" lon="6.23014">
        <ele>2149</ele>
        <time>2011-06-12T12:57:23Z</time>
      </trkpt>
      <trkpt lat="45.632" lon="6.23015">
        <ele>2149</ele>
        <time>2011-06-12T12:57:28Z</time>
      </trkpt>
      <trkpt lat="45.632" lon="6.23017">
        <ele>2149</ele>
        <time>2011-06-12T12:57:33Z</time>
      </trkpt>
      <trkpt lat="45.63199" lon="6.23016">
        <ele>2149</ele>
        <time>2011-06-12T12:57:38Z</time>
      </trkpt>
      <trkpt lat="45.63198" lon="6.23016">
        <ele>2150</ele>
        <time>2011-06-12T12:57:43Z</time>
      </trkpt>
      <trkpt lat="45.63197" lon="6.23017">
        <ele>2150</ele>
        <time>2011-06-12T12:57:48Z</time>
      </trkpt>
      <trkpt lat="45.63197" lon="6.23018">
        <ele>2150</ele>
        <time>2011-06-12T12:57:53Z</time>
      </trkpt>
      <trkpt lat="45.63197" lon="6.23019">
        <ele>2150</ele>
        <time>2011-06-12T12:57:58Z</time>
      </trkpt>
      <trkpt lat="45.63197" lon="6.2302">
        <ele>2150</ele>
        <time>2011-06-12T12:58:03Z</time>
      </trkpt>
      <trkpt lat="45.63197" lon="6.23021">
        <ele>2149</ele>
        <time>2011-06-12T12:58:08Z</time>
      </trkpt>
      <trkpt lat="45.63197" lon="6.23021">
        <ele>2149</ele>
        <time>2011-06-12T12:58:13Z</time>
      </trkpt>
      <trkpt lat="45.63197" lon="6.23022">
        <ele>2150</ele>
        <time>2011-06-12T12:58:18Z</time>
      </trkpt>
      <trkpt lat="45.63195" lon="6.23022">
        <ele>2150</ele>
        <time>2011-06-12T12:58:23Z</time>
      </trkpt>
      <trkpt lat="45.63194" lon="6.23024">
        <ele>2150</ele>
        <time>2011-06-12T12:58:28Z</time>
      </trkpt>
      <trkpt lat="45.63194" lon="6.23026">
        <ele>2150</ele>
        <time>2011-06-12T12:58:33Z</time>
      </trkpt>
      <trkpt lat="45.63194" lon="6.23028">
        <ele>2150</ele>
        <time>2011-06-12T12:58:38Z</time>
      </trkpt>
      <trkpt lat="45.63194" lon="6.2303">
        <ele>2149</ele>
        <time>2011-06-12T12:58:43Z</time>
      </trkpt>
      <trkpt lat="45.63193" lon="6.23032">
        <ele>2149</ele>
        <time>2011-06-12T12:58:48Z</time>
      </trkpt>
      <trkpt lat="45.63191" lon="6.23034">
        <ele>2149</ele>
        <time>2011-06-12T12:58:53Z</time>
      </trkpt>
      <trkpt lat="45.63191" lon="6.23037">
        <ele>2149</ele>
        <time>2011-06-12T12:58:58Z</time>
      </trkpt>
      <trkpt lat="45.6319" lon="6.23041">
        <ele>2149</ele>
        <time>2011-06-12T12:59:03Z</time>
      </trkpt>
      <trkpt lat="45.6319" lon="6.23045">
        <ele>2149</ele>
        <time>2011-06-12T12:59:08Z</time>
      </trkpt>
      <trkpt lat="45.63189" lon="6.23049">
        <ele>2149</ele>
        <time>2011-06-12T12:59:13Z</time>
      </trkpt>
      <trkpt lat="45.63191" lon="6.23044">
        <ele>2149</ele>
        <time>2011-06-12T12:59:18Z</time>
      </trkpt>
      <trkpt lat="45.63189" lon="6.23046">
        <ele>2149</ele>
        <time>2011-06-12T12:59:23Z</time>
      </trkpt>
      <trkpt lat="45.63188" lon="6.23046">
        <ele>2149</ele>
        <time>2011-06-12T12:59:28Z</time>
      </trkpt>
      <trkpt lat="45.63186" lon="6.23049">
        <ele>2149</ele>
        <time>2011-06-12T12:59:33Z</time>
      </trkpt>
      <trkpt lat="45.63185" lon="6.23048">
        <ele>2149</ele>
        <time>2011-06-12T12:59:38Z</time>
      </trkpt>
      <trkpt lat="45.63185" lon="6.23049">
        <ele>2149</ele>
        <time>2011-06-12T12:59:43Z</time>
      </trkpt>
      <trkpt lat="45.63184" lon="6.23047">
        <ele>2149</ele>
        <time>2011-06-12T12:59:48Z</time>
      </trkpt>
      <trkpt lat="45.63184" lon="6.2305">
        <ele>2149</ele>
        <time>2011-06-12T12:59:53Z</time>
      </trkpt>
      <trkpt lat="45.63183" lon="6.2305">
        <ele>2149</ele>
        <time>2011-06-12T12:59:58Z</time>
      </trkpt>
      <trkpt lat="45.63181" lon="6.23052">
        <ele>2149</ele>
        <time>2011-06-12T13:00:03Z</time>
      </trkpt>
      <trkpt lat="45.63179" lon="6.23052">
        <ele>2149</ele>
        <time>2011-06-12T13:00:08Z</time>
      </trkpt>
      <trkpt lat="45.63178" lon="6.23053">
        <ele>2149</ele>
        <time>2011-06-12T13:00:13Z</time>
      </trkpt>
      <trkpt lat="45.63176" lon="6.23055">
        <ele>2149</ele>
        <time>2011-06-12T13:00:18Z</time>
      </trkpt>
      <trkpt lat="45.63175" lon="6.23054">
        <ele>2149</ele>
        <time>2011-06-12T13:00:23Z</time>
      </trkpt>
      <trkpt lat="45.63175" lon="6.23053">
        <ele>2149</ele>
        <time>2011-06-12T13:00:28Z</time>
      </trkpt>
      <trkpt lat="45.63173" lon="6.23053">
        <ele>2149</ele>
        <time>2011-06-12T13:00:33Z</time>
      </trkpt>
      <trkpt lat="45.63172" lon="6.23054">
        <ele>2149</ele>
        <time>2011-06-12T13:00:38Z</time>
      </trkpt>
      <trkpt lat="45.63171" lon="6.23054">
        <ele>2149</ele>
        <time>2011-06-12T13:00:43Z</time>
      </trkpt>
      <trkpt lat="45.63169" lon="6.23055">
        <ele>2148</ele>
        <time>2011-06-12T13:00:48Z</time>
      </trkpt>
      <trkpt lat="45.63167" lon="6.23056">
        <ele>2129</ele>
        <time>2011-06-12T13:00:53Z</time>
      </trkpt>
      <trkpt lat="45.63166" lon="6.23056">
        <ele>2129</ele>
        <time>2011-06-12T13:00:58Z</time>
      </trkpt>
      <trkpt lat="45.63164" lon="6.23057">
        <ele>2129</ele>
        <time>2011-06-12T13:01:03Z</time>
      </trkpt>
      <trkpt lat="45.63162" lon="6.23057">
        <ele>2129</ele>
        <time>2011-06-12T13:01:08Z</time>
      </trkpt>
      <trkpt lat="45.63161" lon="6.23058">
        <ele>2129</ele>
        <time>2011-06-12T13:01:13Z</time>
      </trkpt>
      <trkpt lat="45.63158" lon="6.23058">
        <ele>2128</ele>
        <time>2011-06-12T13:01:18Z</time>
      </trkpt>
      <trkpt lat="45.63156" lon="6.2306">
        <ele>2128</ele>
        <time>2011-06-12T13:01:23Z</time>
      </trkpt>
      <trkpt lat="45.63155" lon="6.23063">
        <ele>2128</ele>
        <time>2011-06-12T13:01:28Z</time>
      </trkpt>
      <trkpt lat="45.63153" lon="6.23064">
        <ele>2128</ele>
        <time>2011-06-12T13:01:33Z</time>
      </trkpt>
      <trkpt lat="45.63151" lon="6.23063">
        <ele>2127</ele>
        <time>2011-06-12T13:01:38Z</time>
      </trkpt>
      <trkpt lat="45.63149" lon="6.23066">
        <ele>2127</ele>
        <time>2011-06-12T13:01:43Z</time>
      </trkpt>
      <trkpt lat="45.63149" lon="6.2307">
        <ele>2127</ele>
        <time>2011-06-12T13:01:48Z</time>
      </trkpt>
      <trkpt lat="45.63147" lon="6.2307">
        <ele>2126</ele>
        <time>2011-06-12T13:01:53Z</time>
      </trkpt>
      <trkpt lat="45.63145" lon="6.23074">
        <ele>2126</ele>
        <time>2011-06-12T13:01:58Z</time>
      </trkpt>
      <trkpt lat="45.63143" lon="6.23076">
        <ele>2125</ele>
        <time>2011-06-12T13:02:03Z</time>
      </trkpt>
      <trkpt lat="45.63143" lon="6.23079">
        <ele>2125</ele>
        <time>2011-06-12T13:02:08Z</time>
      </trkpt>
      <trkpt lat="45.63142" lon="6.2308">
        <ele>2124</ele>
        <time>2011-06-12T13:02:13Z</time>
      </trkpt>
      <trkpt lat="45.63141" lon="6.23083">
        <ele>2123</ele>
        <time>2011-06-12T13:02:18Z</time>
      </trkpt>
      <trkpt lat="45.63139" lon="6.23083">
        <ele>2122</ele>
        <time>2011-06-12T13:02:23Z</time>
      </trkpt>
      <trkpt lat="45.63136" lon="6.23086">
        <ele>2108</ele>
        <time>2011-06-12T13:02:28Z</time>
      </trkpt>
      <trkpt lat="45.63134" lon="6.23088">
        <ele>2106</ele>
        <time>2011-06-12T13:02:33Z</time>
      </trkpt>
      <trkpt lat="45.63132" lon="6.23092">
        <ele>2104</ele>
        <time>2011-06-12T13:02:38Z</time>
      </trkpt>
      <trkpt lat="45.6313" lon="6.23096">
        <ele>2103</ele>
        <time>2011-06-12T13:02:43Z</time>
      </trkpt>
      <trkpt lat="45.63132" lon="6.23095">
        <ele>2104</ele>
        <time>2011-06-12T13:02:48Z</time>
      </trkpt>
      <trkpt lat="45.63134" lon="6.23093">
        <ele>2105</ele>
        <time>2011-06-12T13:02:53Z</time>
      </trkpt>
      <trkpt lat="45.63135" lon="6.23092">
        <ele>2107</ele>
        <time>2011-06-12T13:02:58Z</time>
      </trkpt>
      <trkpt lat="45.63136" lon="6.23091">
        <ele>2107</ele>
        <time>2011-06-12T13:03:03Z</time>
      </trkpt>
      <trkpt lat="45.63134" lon="6.2309">
        <ele>2106</ele>
        <time>2011-06-12T13:03:08Z</time>
      </trkpt>
      <trkpt lat="45.63135" lon="6.23088">
        <ele>2107</ele>
        <time>2011-06-12T13:03:13Z</time>
      </trkpt>
      <trkpt lat="45.63134" lon="6.23085">
        <ele>2106</ele>
        <time>2011-06-12T13:03:18Z</time>
      </trkpt>
      <trkpt lat="45.6313" lon="6.23085">
        <ele>2103</ele>
        <time>2011-06-12T13:03:23Z</time>
      </trkpt>
      <trkpt lat="45.63127" lon="6.23088">
        <ele>2101</ele>
        <time>2011-06-12T13:03:28Z</time>
      </trkpt>
      <trkpt lat="45.63125" lon="6.23088">
        <ele>2100</ele>
        <time>2011-06-12T13:03:33Z</time>
      </trkpt>
      <trkpt lat="45.63122" lon="6.23089">
        <ele>2098</ele>
        <time>2011-06-12T13:03:38Z</time>
      </trkpt>
      <trkpt lat="45.6312" lon="6.23091">
        <ele>2096</ele>
        <time>2011-06-12T13:03:43Z</time>
      </trkpt>
      <trkpt lat="45.63119" lon="6.2309">
        <ele>2096</ele>
        <time>2011-06-12T13:03:48Z</time>
      </trkpt>
      <trkpt lat="45.63117" lon="6.2309">
        <ele>2095</ele>
        <time>2011-06-12T13:03:53Z</time>
      </trkpt>
      <trkpt lat="45.63116" lon="6.23091">
        <ele>2094</ele>
        <time>2011-06-12T13:03:58Z</time>
      </trkpt>
      <trkpt lat="45.63114" lon="6.2309">
        <ele>2093</ele>
        <time>2011-06-12T13:04:03Z</time>
      </trkpt>
      <trkpt lat="45.63112" lon="6.23087">
        <ele>2091</ele>
        <time>2011-06-12T13:04:08Z</time>
      </trkpt>
      <trkpt lat="45.6311" lon="6.23084">
        <ele>2090</ele>
        <time>2011-06-12T13:04:13Z</time>
      </trkpt>
      <trkpt lat="45.63109" lon="6.23085">
        <ele>2089</ele>
        <time>2011-06-12T13:04:18Z</time>
      </trkpt>
      <trkpt lat="45.63107" lon="6.23086">
        <ele>2088</ele>
        <time>2011-06-12T13:04:23Z</time>
      </trkpt>
      <trkpt lat="45.63106" lon="6.23085">
        <ele>2088</ele>
        <time>2011-06-12T13:04:28Z</time>
      </trkpt>
      <trkpt lat="45.63105" lon="6.23086">
        <ele>2087</ele>
        <time>2011-06-12T13:04:33Z</time>
      </trkpt>
      <trkpt lat="45.63105" lon="6.23086">
        <ele>2087</ele>
        <time>2011-06-12T13:04:38Z</time>
      </trkpt>
      <trkpt lat="45.63105" lon="6.23086">
        <ele>2087</ele>
        <time>2011-06-12T13:04:43Z</time>
      </trkpt>
      <trkpt lat="45.63105" lon="6.23086">
        <ele>2087</ele>
        <time>2011-06-12T13:04:48Z</time>
      </trkpt>
      <trkpt lat="45.63105" lon="6.23086">
        <ele>2087</ele>
        <time>2011-06-12T13:04:53Z</time>
      </trkpt>
      <trkpt lat="45.63104" lon="6.23086">
        <ele>2086</ele>
        <time>2011-06-12T13:04:58Z</time>
      </trkpt>
      <trkpt lat="45.63104" lon="6.23086">
        <ele>2086</ele>
        <time>2011-06-12T13:05:03Z</time>
      </trkpt>
      <trkpt lat="45.63103" lon="6.23085">
        <ele>2086</ele>
        <time>2011-06-12T13:05:08Z</time>
      </trkpt>
      <trkpt lat="45.63102" lon="6.23086">
        <ele>2085</ele>
        <time>2011-06-12T13:05:13Z</time>
      </trkpt>
      <trkpt lat="45.631" lon="6.23084">
        <ele>2083</ele>
        <time>2011-06-12T13:05:18Z</time>
      </trkpt>
      <trkpt lat="45.63099" lon="6.23083">
        <ele>2092</ele>
        <time>2011-06-12T13:05:23Z</time>
      </trkpt>
      <trkpt lat="45.63097" lon="6.23085">
        <ele>2081</ele>
        <time>2011-06-12T13:05:28Z</time>
      </trkpt>
      <trkpt lat="45.63096" lon="6.23081">
        <ele>2088</ele>
        <time>2011-06-12T13:05:33Z</time>
      </trkpt>
      <trkpt lat="45.63094" lon="6.23081">
        <ele>2086</ele>
        <time>2011-06-12T13:05:38Z</time>
      </trkpt>
      <trkpt lat="45.63093" lon="6.23082">
        <ele>2085</ele>
        <time>2011-06-12T13:05:43Z</time>
      </trkpt>
      <trkpt lat="45.63091" lon="6.23082">
        <ele>2082</ele>
        <time>2011-06-12T13:05:48Z</time>
      </trkpt>
      <trkpt lat="45.6309" lon="6.23081">
        <ele>2081</ele>
        <time>2011-06-12T13:05:53Z</time>
      </trkpt>
      <trkpt lat="45.63089" lon="6.23079">
        <ele>2081</ele>
        <time>2011-06-12T13:05:58Z</time>
      </trkpt>
      <trkpt lat="45.63088" lon="6.23079">
        <ele>2080</ele>
        <time>2011-06-12T13:06:03Z</time>
      </trkpt>
      <trkpt lat="45.63086" lon="6.23082">
        <ele>2075</ele>
        <time>2011-06-12T13:06:08Z</time>
      </trkpt>
      <trkpt lat="45.63084" lon="6.23085">
        <ele>2070</ele>
        <time>2011-06-12T13:06:13Z</time>
      </trkpt>
      <trkpt lat="45.6308" lon="6.23085">
        <ele>2064</ele>
        <time>2011-06-12T13:06:18Z</time>
      </trkpt>
      <trkpt lat="45.63076" lon="6.23089">
        <ele>2058</ele>
        <time>2011-06-12T13:06:23Z</time>
      </trkpt>
      <trkpt lat="45.63071" lon="6.23095">
        <ele>2051</ele>
        <time>2011-06-12T13:06:28Z</time>
      </trkpt>
      <trkpt lat="45.6307" lon="6.23098">
        <ele>2049</ele>
        <time>2011-06-12T13:06:33Z</time>
      </trkpt>
      <trkpt lat="45.63068" lon="6.23099">
        <ele>2048</ele>
        <time>2011-06-12T13:06:38Z</time>
      </trkpt>
      <trkpt lat="45.63067" lon="6.231">
        <ele>2047</ele>
        <time>2011-06-12T13:06:43Z</time>
      </trkpt>
      <trkpt lat="45.63066" lon="6.23101">
        <ele>2046</ele>
        <time>2011-06-12T13:06:48Z</time>
      </trkpt>
      <trkpt lat="45.63065" lon="6.23102">
        <ele>2045</ele>
        <time>2011-06-12T13:06:53Z</time>
      </trkpt>
      <trkpt lat="45.63064" lon="6.23102">
        <ele>2045</ele>
        <time>2011-06-12T13:06:58Z</time>
      </trkpt>
      <trkpt lat="45.6306" lon="6.23104">
        <ele>2042</ele>
        <time>2011-06-12T13:07:03Z</time>
      </trkpt>
      <trkpt lat="45.63057" lon="6.23109">
        <ele>2040</ele>
        <time>2011-06-12T13:07:08Z</time>
      </trkpt>
      <trkpt lat="45.63055" lon="6.23113">
        <ele>2038</ele>
        <time>2011-06-12T13:07:13Z</time>
      </trkpt>
      <trkpt lat="45.63056" lon="6.23117">
        <ele>2038</ele>
        <time>2011-06-12T13:07:18Z</time>
      </trkpt>
      <trkpt lat="45.63055" lon="6.23122">
        <ele>2037</ele>
        <time>2011-06-12T13:07:23Z</time>
      </trkpt>
      <trkpt lat="45.63054" lon="6.23125">
        <ele>2036</ele>
        <time>2011-06-12T13:07:28Z</time>
      </trkpt>
      <trkpt lat="45.63052" lon="6.23127">
        <ele>2036</ele>
        <time>2011-06-12T13:07:33Z</time>
      </trkpt>
      <trkpt lat="45.63051" lon="6.2313">
        <ele>2035</ele>
        <time>2011-06-12T13:07:38Z</time>
      </trkpt>
      <trkpt lat="45.63051" lon="6.23131">
        <ele>2035</ele>
        <time>2011-06-12T13:07:43Z</time>
      </trkpt>
      <trkpt lat="45.6305" lon="6.23136">
        <ele>2034</ele>
        <time>2011-06-12T13:07:48Z</time>
      </trkpt>
      <trkpt lat="45.63051" lon="6.23139">
        <ele>2034</ele>
        <time>2011-06-12T13:07:53Z</time>
      </trkpt>
      <trkpt lat="45.63053" lon="6.23136">
        <ele>2035</ele>
        <time>2011-06-12T13:07:58Z</time>
      </trkpt>
      <trkpt lat="45.63053" lon="6.23137">
        <ele>2035</ele>
        <time>2011-06-12T13:08:03Z</time>
      </trkpt>
      <trkpt lat="45.63054" lon="6.23137">
        <ele>2035</ele>
        <time>2011-06-12T13:08:08Z</time>
      </trkpt>
      <trkpt lat="45.63053" lon="6.23138">
        <ele>2035</ele>
        <time>2011-06-12T13:08:13Z</time>
      </trkpt>
      <trkpt lat="45.63053" lon="6.23139">
        <ele>2035</ele>
        <time>2011-06-12T13:08:18Z</time>
      </trkpt>
      <trkpt lat="45.63053" lon="6.23139">
        <ele>2035</ele>
        <time>2011-06-12T13:08:23Z</time>
      </trkpt>
      <trkpt lat="45.63053" lon="6.23139">
        <ele>2035</ele>
        <time>2011-06-12T13:08:28Z</time>
      </trkpt>
      <trkpt lat="45.63052" lon="6.23139">
        <ele>2034</ele>
        <time>2011-06-12T13:08:33Z</time>
      </trkpt>
      <trkpt lat="45.63051" lon="6.2314">
        <ele>2034</ele>
        <time>2011-06-12T13:08:38Z</time>
      </trkpt>
      <trkpt lat="45.63051" lon="6.23139">
        <ele>2034</ele>
        <time>2011-06-12T13:08:43Z</time>
      </trkpt>
      <trkpt lat="45.6305" lon="6.23139">
        <ele>2034</ele>
        <time>2011-06-12T13:08:48Z</time>
      </trkpt>
      <trkpt lat="45.63049" lon="6.23139">
        <ele>2034</ele>
        <time>2011-06-12T13:08:53Z</time>
      </trkpt>
      <trkpt lat="45.63049" lon="6.23139">
        <ele>2034</ele>
        <time>2011-06-12T13:08:58Z</time>
      </trkpt>
      <trkpt lat="45.63049" lon="6.23139">
        <ele>2034</ele>
        <time>2011-06-12T13:09:03Z</time>
      </trkpt>
      <trkpt lat="45.63048" lon="6.2314">
        <ele>2033</ele>
        <time>2011-06-12T13:09:08Z</time>
      </trkpt>
      <trkpt lat="45.63049" lon="6.2314">
        <ele>2033</ele>
        <time>2011-06-12T13:09:13Z</time>
      </trkpt>
      <trkpt lat="45.6305" lon="6.23141">
        <ele>2034</ele>
        <time>2011-06-12T13:09:18Z</time>
      </trkpt>
      <trkpt lat="45.63051" lon="6.23141">
        <ele>2034</ele>
        <time>2011-06-12T13:09:23Z</time>
      </trkpt>
      <trkpt lat="45.63051" lon="6.23139">
        <ele>2034</ele>
        <time>2011-06-12T13:09:28Z</time>
      </trkpt>
      <trkpt lat="45.63051" lon="6.23138">
        <ele>2034</ele>
        <time>2011-06-12T13:09:33Z</time>
      </trkpt>
      <trkpt lat="45.6305" lon="6.23138">
        <ele>2034</ele>
        <time>2011-06-12T13:09:38Z</time>
      </trkpt>
      <trkpt lat="45.63048" lon="6.23137">
        <ele>2034</ele>
        <time>2011-06-12T13:09:43Z</time>
      </trkpt>
      <trkpt lat="45.63048" lon="6.23136">
        <ele>2034</ele>
        <time>2011-06-12T13:09:48Z</time>
      </trkpt>
      <trkpt lat="45.63046" lon="6.23136">
        <ele>2033</ele>
        <time>2011-06-12T13:09:53Z</time>
      </trkpt>
      <trkpt lat="45.63045" lon="6.23136">
        <ele>2033</ele>
        <time>2011-06-12T13:09:58Z</time>
      </trkpt>
      <trkpt lat="45.63043" lon="6.23136">
        <ele>2032</ele>
        <time>2011-06-12T13:10:03Z</time>
      </trkpt>
      <trkpt lat="45.63041" lon="6.23135">
        <ele>2032</ele>
        <time>2011-06-12T13:10:08Z</time>
      </trkpt>
      <trkpt lat="45.63041" lon="6.23136">
        <ele>2032</ele>
        <time>2011-06-12T13:10:13Z</time>
      </trkpt>
      <trkpt lat="45.63038" lon="6.23135">
        <ele>2031</ele>
        <time>2011-06-12T13:10:18Z</time>
      </trkpt>
      <trkpt lat="45.63036" lon="6.23134">
        <ele>2030</ele>
        <time>2011-06-12T13:10:23Z</time>
      </trkpt>
      <trkpt lat="45.63034" lon="6.23134">
        <ele>2030</ele>
        <time>2011-06-12T13:10:28Z</time>
      </trkpt>
      <trkpt lat="45.63031" lon="6.23131">
        <ele>2029</ele>
        <time>2011-06-12T13:10:33Z</time>
      </trkpt>
      <trkpt lat="45.63028" lon="6.2313">
        <ele>2029</ele>
        <time>2011-06-12T13:10:38Z</time>
      </trkpt>
      <trkpt lat="45.63028" lon="6.2313">
        <ele>2029</ele>
        <time>2011-06-12T13:10:43Z</time>
      </trkpt>
      <trkpt lat="45.63027" lon="6.23132">
        <ele>2028</ele>
        <time>2011-06-12T13:10:48Z</time>
      </trkpt>
      <trkpt lat="45.63027" lon="6.23135">
        <ele>2028</ele>
        <time>2011-06-12T13:10:53Z</time>
      </trkpt>
      <trkpt lat="45.63029" lon="6.23138">
        <ele>2028</ele>
        <time>2011-06-12T13:10:58Z</time>
      </trkpt>
      <trkpt lat="45.63029" lon="6.23137">
        <ele>2028</ele>
        <time>2011-06-12T13:11:03Z</time>
      </trkpt>
      <trkpt lat="45.63029" lon="6.23137">
        <ele>2028</ele>
        <time>2011-06-12T13:11:08Z</time>
      </trkpt>
      <trkpt lat="45.63027" lon="6.23136">
        <ele>2028</ele>
        <time>2011-06-12T13:11:13Z</time>
      </trkpt>
      <trkpt lat="45.63022" lon="6.23139">
        <ele>2026</ele>
        <time>2011-06-12T13:11:18Z</time>
      </trkpt>
      <trkpt lat="45.63025" lon="6.23141">
        <ele>2026</ele>
        <time>2011-06-12T13:11:23Z</time>
      </trkpt>
      <trkpt lat="45.63026" lon="6.23143">
        <ele>2026</ele>
        <time>2011-06-12T13:11:28Z</time>
      </trkpt>
      <trkpt lat="45.63023" lon="6.23145">
        <ele>2025</ele>
        <time>2011-06-12T13:11:33Z</time>
      </trkpt>
      <trkpt lat="45.63021" lon="6.23147">
        <ele>2024</ele>
        <time>2011-06-12T13:11:38Z</time>
      </trkpt>
      <trkpt lat="45.63019" lon="6.23152">
        <ele>2022</ele>
        <time>2011-06-12T13:11:43Z</time>
      </trkpt>
      <trkpt lat="45.63017" lon="6.23158">
        <ele>2020</ele>
        <time>2011-06-12T13:11:48Z</time>
      </trkpt>
      <trkpt lat="45.63012" lon="6.23162">
        <ele>2016</ele>
        <time>2011-06-12T13:11:53Z</time>
      </trkpt>
      <trkpt lat="45.6301" lon="6.23168">
        <ele>2008</ele>
        <time>2011-06-12T13:11:58Z</time>
      </trkpt>
      <trkpt lat="45.63009" lon="6.23174">
        <ele>2008</ele>
        <time>2011-06-12T13:12:03Z</time>
      </trkpt>
      <trkpt lat="45.63009" lon="6.23179">
        <ele>2008</ele>
        <time>2011-06-12T13:12:08Z</time>
      </trkpt>
      <trkpt lat="45.63008" lon="6.23183">
        <ele>2008</ele>
        <time>2011-06-12T13:12:13Z</time>
      </trkpt>
      <trkpt lat="45.63006" lon="6.23189">
        <ele>2008</ele>
        <time>2011-06-12T13:12:18Z</time>
      </trkpt>
      <trkpt lat="45.63005" lon="6.23195">
        <ele>2008</ele>
        <time>2011-06-12T13:12:23Z</time>
      </trkpt>
      <trkpt lat="45.63002" lon="6.23199">
        <ele>2008</ele>
        <time>2011-06-12T13:12:28Z</time>
      </trkpt>
      <trkpt lat="45.63002" lon="6.232">
        <ele>2008</ele>
        <time>2011-06-12T13:12:33Z</time>
      </trkpt>
      <trkpt lat="45.63002" lon="6.23201">
        <ele>2007</ele>
        <time>2011-06-12T13:12:38Z</time>
      </trkpt>
      <trkpt lat="45.63003" lon="6.23201">
        <ele>2008</ele>
        <time>2011-06-12T13:12:43Z</time>
      </trkpt>
      <trkpt lat="45.63002" lon="6.23201">
        <ele>2007</ele>
        <time>2011-06-12T13:12:48Z</time>
      </trkpt>
      <trkpt lat="45.63002" lon="6.23206">
        <ele>2007</ele>
        <time>2011-06-12T13:12:53Z</time>
      </trkpt>
      <trkpt lat="45.63002" lon="6.23205">
        <ele>2007</ele>
        <time>2011-06-12T13:12:58Z</time>
      </trkpt>
      <trkpt lat="45.63001" lon="6.23203">
        <ele>2007</ele>
        <time>2011-06-12T13:13:03Z</time>
      </trkpt>
      <trkpt lat="45.63002" lon="6.23201">
        <ele>2007</ele>
        <time>2011-06-12T13:13:08Z</time>
      </trkpt>
      <trkpt lat="45.63006" lon="6.23199">
        <ele>2008</ele>
        <time>2011-06-12T13:13:13Z</time>
      </trkpt>
      <trkpt lat="45.63005" lon="6.23197">
        <ele>2008</ele>
        <time>2011-06-12T13:13:18Z</time>
      </trkpt>
      <trkpt lat="45.63006" lon="6.23198">
        <ele>2008</ele>
        <time>2011-06-12T13:13:23Z</time>
      </trkpt>
      <trkpt lat="45.63006" lon="6.23199">
        <ele>2008</ele>
        <time>2011-06-12T13:13:28Z</time>
      </trkpt>
      <trkpt lat="45.63005" lon="6.23198">
        <ele>2008</ele>
        <time>2011-06-12T13:13:33Z</time>
      </trkpt>
      <trkpt lat="45.63002" lon="6.232">
        <ele>2008</ele>
        <time>2011-06-12T13:13:38Z</time>
      </trkpt>
      <trkpt lat="45.63002" lon="6.23201">
        <ele>2007</ele>
        <time>2011-06-12T13:13:43Z</time>
      </trkpt>
      <trkpt lat="45.63002" lon="6.23202">
        <ele>2007</ele>
        <time>2011-06-12T13:13:48Z</time>
      </trkpt>
      <trkpt lat="45.63002" lon="6.23202">
        <ele>2007</ele>
        <time>2011-06-12T13:13:53Z</time>
      </trkpt>
      <trkpt lat="45.63002" lon="6.23204">
        <ele>2007</ele>
        <time>2011-06-12T13:13:58Z</time>
      </trkpt>
      <trkpt lat="45.63001" lon="6.23205">
        <ele>2007</ele>
        <time>2011-06-12T13:14:03Z</time>
      </trkpt>
      <trkpt lat="45.63001" lon="6.23205">
        <ele>2007</ele>
        <time>2011-06-12T13:14:08Z</time>
      </trkpt>
      <trkpt lat="45.63001" lon="6.23206">
        <ele>2007</ele>
        <time>2011-06-12T13:14:13Z</time>
      </trkpt>
      <trkpt lat="45.63001" lon="6.23207">
        <ele>2007</ele>
        <time>2011-06-12T13:14:18Z</time>
      </trkpt>
      <trkpt lat="45.63001" lon="6.23208">
        <ele>2007</ele>
        <time>2011-06-12T13:14:23Z</time>
      </trkpt>
      <trkpt lat="45.63001" lon="6.23208">
        <ele>2007</ele>
        <time>2011-06-12T13:14:28Z</time>
      </trkpt>
      <trkpt lat="45.63001" lon="6.23209">
        <ele>2007</ele>
        <time>2011-06-12T13:14:33Z</time>
      </trkpt>
      <trkpt lat="45.63001" lon="6.23209">
        <ele>2007</ele>
        <time>2011-06-12T13:14:38Z</time>
      </trkpt>
      <trkpt lat="45.63001" lon="6.23209">
        <ele>2007</ele>
        <time>2011-06-12T13:14:43Z</time>
      </trkpt>
      <trkpt lat="45.63001" lon="6.23209">
        <ele>2007</ele>
        <time>2011-06-12T13:14:48Z</time>
      </trkpt>
      <trkpt lat="45.63002" lon="6.23209">
        <ele>2007</ele>
        <time>2011-06-12T13:14:53Z</time>
      </trkpt>
      <trkpt lat="45.63001" lon="6.23209">
        <ele>2007</ele>
        <time>2011-06-12T13:14:58Z</time>
      </trkpt>
      <trkpt lat="45.63001" lon="6.23209">
        <ele>2007</ele>
        <time>2011-06-12T13:15:03Z</time>
      </trkpt>
      <trkpt lat="45.63" lon="6.2321">
        <ele>1985</ele>
        <time>2011-06-12T13:15:08Z</time>
      </trkpt>
      <trkpt lat="45.62999" lon="6.23212">
        <ele>1985</ele>
        <time>2011-06-12T13:15:13Z</time>
      </trkpt>
      <trkpt lat="45.62999" lon="6.23213">
        <ele>1985</ele>
        <time>2011-06-12T13:15:18Z</time>
      </trkpt>
      <trkpt lat="45.62998" lon="6.23215">
        <ele>1985</ele>
        <time>2011-06-12T13:15:23Z</time>
      </trkpt>
      <trkpt lat="45.62996" lon="6.23218">
        <ele>1985</ele>
        <time>2011-06-12T13:15:28Z</time>
      </trkpt>
      <trkpt lat="45.62994" lon="6.23223">
        <ele>1985</ele>
        <time>2011-06-12T13:15:33Z</time>
      </trkpt>
      <trkpt lat="45.62991" lon="6.23229">
        <ele>1985</ele>
        <time>2011-06-12T13:15:38Z</time>
      </trkpt>
      <trkpt lat="45.62989" lon="6.23236">
        <ele>1986</ele>
        <time>2011-06-12T13:15:43Z</time>
      </trkpt>
      <trkpt lat="45.62986" lon="6.23243">
        <ele>1986</ele>
        <time>2011-06-12T13:15:48Z</time>
      </trkpt>
      <trkpt lat="45.62985" lon="6.23246">
        <ele>1986</ele>
        <time>2011-06-12T13:15:53Z</time>
      </trkpt>
      <trkpt lat="45.62985" lon="6.23247">
        <ele>1986</ele>
        <time>2011-06-12T13:15:58Z</time>
      </trkpt>
      <trkpt lat="45.62986" lon="6.23248">
        <ele>1987</ele>
        <time>2011-06-12T13:16:03Z</time>
      </trkpt>
      <trkpt lat="45.62986" lon="6.23248">
        <ele>1987</ele>
        <time>2011-06-12T13:16:08Z</time>
      </trkpt>
      <trkpt lat="45.62986" lon="6.23249">
        <ele>1987</ele>
        <time>2011-06-12T13:16:13Z</time>
      </trkpt>
      <trkpt lat="45.62986" lon="6.2325">
        <ele>1987</ele>
        <time>2011-06-12T13:16:18Z</time>
      </trkpt>
      <trkpt lat="45.62986" lon="6.23251">
        <ele>1990</ele>
        <time>2011-06-12T13:16:23Z</time>
      </trkpt>
      <trkpt lat="45.62987" lon="6.23251">
        <ele>1990</ele>
        <time>2011-06-12T13:16:28Z</time>
      </trkpt>
      <trkpt lat="45.62987" lon="6.23252">
        <ele>1990</ele>
        <time>2011-06-12T13:16:33Z</time>
      </trkpt>
      <trkpt lat="45.62987" lon="6.23252">
        <ele>1990</ele>
        <time>2011-06-12T13:16:38Z</time>
      </trkpt>
      <trkpt lat="45.62987" lon="6.23253">
        <ele>1990</ele>
        <time>2011-06-12T13:16:43Z</time>
      </trkpt>
      <trkpt lat="45.62986" lon="6.23258">
        <ele>1990</ele>
        <time>2011-06-12T13:16:48Z</time>
      </trkpt>
      <trkpt lat="45.62984" lon="6.23264">
        <ele>1989</ele>
        <time>2011-06-12T13:16:53Z</time>
      </trkpt>
      <trkpt lat="45.62982" lon="6.2327">
        <ele>1988</ele>
        <time>2011-06-12T13:16:58Z</time>
      </trkpt>
      <trkpt lat="45.6298" lon="6.23277">
        <ele>1988</ele>
        <time>2011-06-12T13:17:03Z</time>
      </trkpt>
      <trkpt lat="45.62979" lon="6.23284">
        <ele>1988</ele>
        <time>2011-06-12T13:17:08Z</time>
      </trkpt>
      <trkpt lat="45.62977" lon="6.2329">
        <ele>1988</ele>
        <time>2011-06-12T13:17:13Z</time>
      </trkpt>
      <trkpt lat="45.62973" lon="6.23297">
        <ele>1988</ele>
        <time>2011-06-12T13:17:18Z</time>
      </trkpt>
      <trkpt lat="45.6297" lon="6.23305">
        <ele>1988</ele>
        <time>2011-06-12T13:17:23Z</time>
      </trkpt>
      <trkpt lat="45.62969" lon="6.23311">
        <ele>1988</ele>
        <time>2011-06-12T13:17:28Z</time>
      </trkpt>
      <trkpt lat="45.62965" lon="6.23317">
        <ele>1989</ele>
        <time>2011-06-12T13:17:33Z</time>
      </trkpt>
      <trkpt lat="45.62962" lon="6.23323">
        <ele>1988</ele>
        <time>2011-06-12T13:17:38Z</time>
      </trkpt>
      <trkpt lat="45.62958" lon="6.23331">
        <ele>1988</ele>
        <time>2011-06-12T13:17:43Z</time>
      </trkpt>
      <trkpt lat="45.62954" lon="6.23338">
        <ele>1995</ele>
        <time>2011-06-12T13:17:48Z</time>
      </trkpt>
      <trkpt lat="45.6295" lon="6.23346">
        <ele>1995</ele>
        <time>2011-06-12T13:17:53Z</time>
      </trkpt>
      <trkpt lat="45.62946" lon="6.23353">
        <ele>1995</ele>
        <time>2011-06-12T13:17:58Z</time>
      </trkpt>
      <trkpt lat="45.62942" lon="6.2336">
        <ele>1996</ele>
        <time>2011-06-12T13:18:03Z</time>
      </trkpt>
      <trkpt lat="45.62938" lon="6.23367">
        <ele>1997</ele>
        <time>2011-06-12T13:18:08Z</time>
      </trkpt>
      <trkpt lat="45.62935" lon="6.23374">
        <ele>1998</ele>
        <time>2011-06-12T13:18:13Z</time>
      </trkpt>
      <trkpt lat="45.62934" lon="6.23375">
        <ele>1998</ele>
        <time>2011-06-12T13:18:18Z</time>
      </trkpt>
      <trkpt lat="45.62934" lon="6.23375">
        <ele>1998</ele>
        <time>2011-06-12T13:18:23Z</time>
      </trkpt>
      <trkpt lat="45.62934" lon="6.23375">
        <ele>1998</ele>
        <time>2011-06-12T13:18:28Z</time>
      </trkpt>
      <trkpt lat="45.62935" lon="6.23376">
        <ele>1998</ele>
        <time>2011-06-12T13:18:33Z</time>
      </trkpt>
      <trkpt lat="45.62935" lon="6.23376">
        <ele>1998</ele>
        <time>2011-06-12T13:18:38Z</time>
      </trkpt>
      <trkpt lat="45.62935" lon="6.23376">
        <ele>1998</ele>
        <time>2011-06-12T13:18:43Z</time>
      </trkpt>
      <trkpt lat="45.62935" lon="6.23376">
        <ele>1998</ele>
        <time>2011-06-12T13:18:48Z</time>
      </trkpt>
      <trkpt lat="45.62935" lon="6.23377">
        <ele>1998</ele>
        <time>2011-06-12T13:18:53Z</time>
      </trkpt>
      <trkpt lat="45.62935" lon="6.23377">
        <ele>1998</ele>
        <time>2011-06-12T13:18:58Z</time>
      </trkpt>
      <trkpt lat="45.62935" lon="6.23377">
        <ele>1998</ele>
        <time>2011-06-12T13:19:03Z</time>
      </trkpt>
      <trkpt lat="45.62935" lon="6.23377">
        <ele>1998</ele>
        <time>2011-06-12T13:19:08Z</time>
      </trkpt>
      <trkpt lat="45.62935" lon="6.23378">
        <ele>1998</ele>
        <time>2011-06-12T13:19:13Z</time>
      </trkpt>
      <trkpt lat="45.62934" lon="6.23381">
        <ele>1999</ele>
        <time>2011-06-12T13:19:18Z</time>
      </trkpt>
      <trkpt lat="45.62936" lon="6.23383">
        <ele>1999</ele>
        <time>2011-06-12T13:19:23Z</time>
      </trkpt>
      <trkpt lat="45.62936" lon="6.23386">
        <ele>2000</ele>
        <time>2011-06-12T13:19:28Z</time>
      </trkpt>
      <trkpt lat="45.62938" lon="6.23388">
        <ele>2000</ele>
        <time>2011-06-12T13:19:33Z</time>
      </trkpt>
      <trkpt lat="45.62939" lon="6.23389">
        <ele>2000</ele>
        <time>2011-06-12T13:19:38Z</time>
      </trkpt>
      <trkpt lat="45.62941" lon="6.2339">
        <ele>2000</ele>
        <time>2011-06-12T13:19:43Z</time>
      </trkpt>
      <trkpt lat="45.6294" lon="6.23393">
        <ele>2000</ele>
        <time>2011-06-12T13:19:48Z</time>
      </trkpt>
      <trkpt lat="45.62941" lon="6.23396">
        <ele>2001</ele>
        <time>2011-06-12T13:19:53Z</time>
      </trkpt>
      <trkpt lat="45.62941" lon="6.23399">
        <ele>2001</ele>
        <time>2011-06-12T13:19:58Z</time>
      </trkpt>
      <trkpt lat="45.62942" lon="6.23402">
        <ele>2002</ele>
        <time>2011-06-12T13:20:03Z</time>
      </trkpt>
      <trkpt lat="45.62942" lon="6.23406">
        <ele>2002</ele>
        <time>2011-06-12T13:20:08Z</time>
      </trkpt>
      <trkpt lat="45.62943" lon="6.23409">
        <ele>2002</ele>
        <time>2011-06-12T13:20:13Z</time>
      </trkpt>
      <trkpt lat="45.62942" lon="6.23411">
        <ele>2003</ele>
        <time>2011-06-12T13:20:18Z</time>
      </trkpt>
      <trkpt lat="45.62942" lon="6.23414">
        <ele>2003</ele>
        <time>2011-06-12T13:20:23Z</time>
      </trkpt>
      <trkpt lat="45.62942" lon="6.23417">
        <ele>2009</ele>
        <time>2011-06-12T13:20:28Z</time>
      </trkpt>
      <trkpt lat="45.62941" lon="6.2342">
        <ele>2009</ele>
        <time>2011-06-12T13:20:33Z</time>
      </trkpt>
      <trkpt lat="45.62941" lon="6.23422">
        <ele>2009</ele>
        <time>2011-06-12T13:20:38Z</time>
      </trkpt>
      <trkpt lat="45.62941" lon="6.23426">
        <ele>2009</ele>
        <time>2011-06-12T13:20:43Z</time>
      </trkpt>
      <trkpt lat="45.62941" lon="6.23428">
        <ele>2009</ele>
        <time>2011-06-12T13:20:48Z</time>
      </trkpt>
      <trkpt lat="45.62941" lon="6.23431">
        <ele>2009</ele>
        <time>2011-06-12T13:20:53Z</time>
      </trkpt>
      <trkpt lat="45.6294" lon="6.23433">
        <ele>2009</ele>
        <time>2011-06-12T13:20:58Z</time>
      </trkpt>
      <trkpt lat="45.62939" lon="6.23436">
        <ele>2009</ele>
        <time>2011-06-12T13:21:03Z</time>
      </trkpt>
      <trkpt lat="45.62938" lon="6.23438">
        <ele>2010</ele>
        <time>2011-06-12T13:21:08Z</time>
      </trkpt>
      <trkpt lat="45.62937" lon="6.2344">
        <ele>2010</ele>
        <time>2011-06-12T13:21:13Z</time>
      </trkpt>
      <trkpt lat="45.62937" lon="6.23441">
        <ele>2010</ele>
        <time>2011-06-12T13:21:18Z</time>
      </trkpt>
      <trkpt lat="45.62937" lon="6.23444">
        <ele>2010</ele>
        <time>2011-06-12T13:21:23Z</time>
      </trkpt>
      <trkpt lat="45.62936" lon="6.23446">
        <ele>2010</ele>
        <time>2011-06-12T13:21:28Z</time>
      </trkpt>
      <trkpt lat="45.62935" lon="6.23449">
        <ele>2011</ele>
        <time>2011-06-12T13:21:33Z</time>
      </trkpt>
      <trkpt lat="45.62934" lon="6.23451">
        <ele>2011</ele>
        <time>2011-06-12T13:21:38Z</time>
      </trkpt>
      <trkpt lat="45.62933" lon="6.23454">
        <ele>2011</ele>
        <time>2011-06-12T13:21:43Z</time>
      </trkpt>
      <trkpt lat="45.62934" lon="6.23456">
        <ele>2012</ele>
        <time>2011-06-12T13:21:48Z</time>
      </trkpt>
      <trkpt lat="45.62934" lon="6.23457">
        <ele>2012</ele>
        <time>2011-06-12T13:21:53Z</time>
      </trkpt>
      <trkpt lat="45.62936" lon="6.23458">
        <ele>2011</ele>
        <time>2011-06-12T13:21:58Z</time>
      </trkpt>
      <trkpt lat="45.62938" lon="6.23459">
        <ele>2011</ele>
        <time>2011-06-12T13:22:03Z</time>
      </trkpt>
      <trkpt lat="45.62939" lon="6.2346">
        <ele>2011</ele>
        <time>2011-06-12T13:22:08Z</time>
      </trkpt>
      <trkpt lat="45.6294" lon="6.23462">
        <ele>2011</ele>
        <time>2011-06-12T13:22:13Z</time>
      </trkpt>
      <trkpt lat="45.62941" lon="6.23464">
        <ele>2011</ele>
        <time>2011-06-12T13:22:18Z</time>
      </trkpt>
      <trkpt lat="45.62942" lon="6.23466">
        <ele>2011</ele>
        <time>2011-06-12T13:22:23Z</time>
      </trkpt>
      <trkpt lat="45.62943" lon="6.23468">
        <ele>2011</ele>
        <time>2011-06-12T13:22:28Z</time>
      </trkpt>
      <trkpt lat="45.62945" lon="6.23469">
        <ele>2011</ele>
        <time>2011-06-12T13:22:33Z</time>
      </trkpt>
      <trkpt lat="45.62945" lon="6.23471">
        <ele>2011</ele>
        <time>2011-06-12T13:22:38Z</time>
      </trkpt>
      <trkpt lat="45.62945" lon="6.23473">
        <ele>2012</ele>
        <time>2011-06-12T13:22:43Z</time>
      </trkpt>
      <trkpt lat="45.62944" lon="6.23476">
        <ele>2012</ele>
        <time>2011-06-12T13:22:48Z</time>
      </trkpt>
      <trkpt lat="45.62943" lon="6.23477">
        <ele>2013</ele>
        <time>2011-06-12T13:22:53Z</time>
      </trkpt>
      <trkpt lat="45.62941" lon="6.2348">
        <ele>2014</ele>
        <time>2011-06-12T13:22:58Z</time>
      </trkpt>
      <trkpt lat="45.6294" lon="6.23482">
        <ele>2015</ele>
        <time>2011-06-12T13:23:03Z</time>
      </trkpt>
      <trkpt lat="45.62938" lon="6.23484">
        <ele>2016</ele>
        <time>2011-06-12T13:23:08Z</time>
      </trkpt>
      <trkpt lat="45.62937" lon="6.23487">
        <ele>2018</ele>
        <time>2011-06-12T13:23:13Z</time>
      </trkpt>
      <trkpt lat="45.62936" lon="6.23489">
        <ele>2019</ele>
        <time>2011-06-12T13:23:18Z</time>
      </trkpt>
      <trkpt lat="45.62935" lon="6.23491">
        <ele>2020</ele>
        <time>2011-06-12T13:23:23Z</time>
      </trkpt>
      <trkpt lat="45.62934" lon="6.23494">
        <ele>2021</ele>
        <time>2011-06-12T13:23:28Z</time>
      </trkpt>
      <trkpt lat="45.62934" lon="6.23496">
        <ele>2022</ele>
        <time>2011-06-12T13:23:33Z</time>
      </trkpt>
      <trkpt lat="45.62933" lon="6.23497">
        <ele>2022</ele>
        <time>2011-06-12T13:23:38Z</time>
      </trkpt>
      <trkpt lat="45.62932" lon="6.23499">
        <ele>2023</ele>
        <time>2011-06-12T13:23:43Z</time>
      </trkpt>
      <trkpt lat="45.62931" lon="6.23501">
        <ele>2027</ele>
        <time>2011-06-12T13:23:48Z</time>
      </trkpt>
      <trkpt lat="45.6293" lon="6.23503">
        <ele>2027</ele>
        <time>2011-06-12T13:23:53Z</time>
      </trkpt>
      <trkpt lat="45.62929" lon="6.23506">
        <ele>2028</ele>
        <time>2011-06-12T13:23:58Z</time>
      </trkpt>
      <trkpt lat="45.62928" lon="6.23508">
        <ele>2028</ele>
        <time>2011-06-12T13:24:03Z</time>
      </trkpt>
      <trkpt lat="45.62928" lon="6.23511">
        <ele>2027</ele>
        <time>2011-06-12T13:24:08Z</time>
      </trkpt>
      <trkpt lat="45.62928" lon="6.23514">
        <ele>2026</ele>
        <time>2011-06-12T13:24:13Z</time>
      </trkpt>
      <trkpt lat="45.62927" lon="6.23516">
        <ele>2026</ele>
        <time>2011-06-12T13:24:18Z</time>
      </trkpt>
      <trkpt lat="45.62927" lon="6.23518">
        <ele>2025</ele>
        <time>2011-06-12T13:24:23Z</time>
      </trkpt>
      <trkpt lat="45.62927" lon="6.23521">
        <ele>2024</ele>
        <time>2011-06-12T13:24:28Z</time>
      </trkpt>
      <trkpt lat="45.62926" lon="6.23522">
        <ele>2024</ele>
        <time>2011-06-12T13:24:33Z</time>
      </trkpt>
      <trkpt lat="45.62925" lon="6.23524">
        <ele>2024</ele>
        <time>2011-06-12T13:24:38Z</time>
      </trkpt>
      <trkpt lat="45.62924" lon="6.23526">
        <ele>2024</ele>
        <time>2011-06-12T13:24:43Z</time>
      </trkpt>
      <trkpt lat="45.62922" lon="6.23528">
        <ele>2024</ele>
        <time>2011-06-12T13:24:48Z</time>
      </trkpt>
      <trkpt lat="45.6292" lon="6.2353">
        <ele>2024</ele>
        <time>2011-06-12T13:24:53Z</time>
      </trkpt>
      <trkpt lat="45.62918" lon="6.23533">
        <ele>2024</ele>
        <time>2011-06-12T13:24:58Z</time>
      </trkpt>
      <trkpt lat="45.62916" lon="6.23535">
        <ele>2047</ele>
        <time>2011-06-12T13:25:03Z</time>
      </trkpt>
      <trkpt lat="45.62913" lon="6.23537">
        <ele>2047</ele>
        <time>2011-06-12T13:25:08Z</time>
      </trkpt>
      <trkpt lat="45.62911" lon="6.2354">
        <ele>2047</ele>
        <time>2011-06-12T13:25:13Z</time>
      </trkpt>
      <trkpt lat="45.62908" lon="6.23542">
        <ele>2048</ele>
        <time>2011-06-12T13:25:18Z</time>
      </trkpt>
      <trkpt lat="45.62906" lon="6.23544">
        <ele>2048</ele>
        <time>2011-06-12T13:25:23Z</time>
      </trkpt>
      <trkpt lat="45.62904" lon="6.23546">
        <ele>2048</ele>
        <time>2011-06-12T13:25:28Z</time>
      </trkpt>
      <trkpt lat="45.62901" lon="6.23548">
        <ele>2049</ele>
        <time>2011-06-12T13:25:33Z</time>
      </trkpt>
      <trkpt lat="45.62898" lon="6.23551">
        <ele>2049</ele>
        <time>2011-06-12T13:25:38Z</time>
      </trkpt>
      <trkpt lat="45.62896" lon="6.23553">
        <ele>2050</ele>
        <time>2011-06-12T13:25:43Z</time>
      </trkpt>
      <trkpt lat="45.62894" lon="6.23555">
        <ele>2050</ele>
        <time>2011-06-12T13:25:48Z</time>
      </trkpt>
      <trkpt lat="45.62892" lon="6.23558">
        <ele>2050</ele>
        <time>2011-06-12T13:25:53Z</time>
      </trkpt>
      <trkpt lat="45.6289" lon="6.2356">
        <ele>2051</ele>
        <time>2011-06-12T13:25:58Z</time>
      </trkpt>
      <trkpt lat="45.62888" lon="6.23562">
        <ele>2051</ele>
        <time>2011-06-12T13:26:03Z</time>
      </trkpt>
      <trkpt lat="45.62885" lon="6.23564">
        <ele>2052</ele>
        <time>2011-06-12T13:26:08Z</time>
      </trkpt>
      <trkpt lat="45.62882" lon="6.23568">
        <ele>2053</ele>
        <time>2011-06-12T13:26:13Z</time>
      </trkpt>
      <trkpt lat="45.62879" lon="6.2357">
        <ele>2054</ele>
        <time>2011-06-12T13:26:18Z</time>
      </trkpt>
      <trkpt lat="45.62877" lon="6.23573">
        <ele>2054</ele>
        <time>2011-06-12T13:26:23Z</time>
      </trkpt>
      <trkpt lat="45.62875" lon="6.23575">
        <ele>2055</ele>
        <time>2011-06-12T13:26:28Z</time>
      </trkpt>
      <trkpt lat="45.62873" lon="6.23577">
        <ele>2056</ele>
        <time>2011-06-12T13:26:33Z</time>
      </trkpt>
      <trkpt lat="45.6287" lon="6.23579">
        <ele>2057</ele>
        <time>2011-06-12T13:26:38Z</time>
      </trkpt>
      <trkpt lat="45.62868" lon="6.23581">
        <ele>2058</ele>
        <time>2011-06-12T13:26:43Z</time>
      </trkpt>
      <trkpt lat="45.62865" lon="6.23583">
        <ele>2059</ele>
        <time>2011-06-12T13:26:48Z</time>
      </trkpt>
      <trkpt lat="45.62863" lon="6.23585">
        <ele>2064</ele>
        <time>2011-06-12T13:26:53Z</time>
      </trkpt>
      <trkpt lat="45.62861" lon="6.23587">
        <ele>2065</ele>
        <time>2011-06-12T13:26:58Z</time>
      </trkpt>
      <trkpt lat="45.62859" lon="6.23588">
        <ele>2066</ele>
        <time>2011-06-12T13:27:03Z</time>
      </trkpt>
      <trkpt lat="45.62855" lon="6.2359">
        <ele>2067</ele>
        <time>2011-06-12T13:27:08Z</time>
      </trkpt>
      <trkpt lat="45.62852" lon="6.2359">
        <ele>2068</ele>
        <time>2011-06-12T13:27:13Z</time>
      </trkpt>
      <trkpt lat="45.62848" lon="6.23591">
        <ele>2070</ele>
        <time>2011-06-12T13:27:18Z</time>
      </trkpt>
      <trkpt lat="45.62845" lon="6.23592">
        <ele>2071</ele>
        <time>2011-06-12T13:27:23Z</time>
      </trkpt>
      <trkpt lat="45.62842" lon="6.23594">
        <ele>2072</ele>
        <time>2011-06-12T13:27:28Z</time>
      </trkpt>
      <trkpt lat="45.62839" lon="6.23596">
        <ele>2072</ele>
        <time>2011-06-12T13:27:33Z</time>
      </trkpt>
      <trkpt lat="45.62837" lon="6.23597">
        <ele>2072</ele>
        <time>2011-06-12T13:27:38Z</time>
      </trkpt>
      <trkpt lat="45.62835" lon="6.23599">
        <ele>2072</ele>
        <time>2011-06-12T13:27:43Z</time>
      </trkpt>
      <trkpt lat="45.62833" lon="6.236">
        <ele>2089</ele>
        <time>2011-06-12T13:27:48Z</time>
      </trkpt>
      <trkpt lat="45.6283" lon="6.23602">
        <ele>2090</ele>
        <time>2011-06-12T13:27:53Z</time>
      </trkpt>
      <trkpt lat="45.62829" lon="6.23604">
        <ele>2090</ele>
        <time>2011-06-12T13:27:58Z</time>
      </trkpt>
      <trkpt lat="45.62826" lon="6.23605">
        <ele>2091</ele>
        <time>2011-06-12T13:28:03Z</time>
      </trkpt>
      <trkpt lat="45.62825" lon="6.23606">
        <ele>2091</ele>
        <time>2011-06-12T13:28:08Z</time>
      </trkpt>
      <trkpt lat="45.62823" lon="6.23608">
        <ele>2092</ele>
        <time>2011-06-12T13:28:13Z</time>
      </trkpt>
      <trkpt lat="45.62822" lon="6.23608">
        <ele>2092</ele>
        <time>2011-06-12T13:28:18Z</time>
      </trkpt>
      <trkpt lat="45.62821" lon="6.2361">
        <ele>2092</ele>
        <time>2011-06-12T13:28:23Z</time>
      </trkpt>
      <trkpt lat="45.62821" lon="6.23612">
        <ele>2093</ele>
        <time>2011-06-12T13:28:28Z</time>
      </trkpt>
      <trkpt lat="45.62823" lon="6.23614">
        <ele>2093</ele>
        <time>2011-06-12T13:28:33Z</time>
      </trkpt>
      <trkpt lat="45.62824" lon="6.23616">
        <ele>2093</ele>
        <time>2011-06-12T13:28:38Z</time>
      </trkpt>
      <trkpt lat="45.62823" lon="6.23616">
        <ele>2093</ele>
        <time>2011-06-12T13:28:43Z</time>
      </trkpt>
      <trkpt lat="45.62823" lon="6.23616">
        <ele>2094</ele>
        <time>2011-06-12T13:28:48Z</time>
      </trkpt>
      <trkpt lat="45.62824" lon="6.23617">
        <ele>2094</ele>
        <time>2011-06-12T13:28:53Z</time>
      </trkpt>
      <trkpt lat="45.62825" lon="6.23619">
        <ele>2094</ele>
        <time>2011-06-12T13:28:58Z</time>
      </trkpt>
      <trkpt lat="45.62826" lon="6.23622">
        <ele>2094</ele>
        <time>2011-06-12T13:29:03Z</time>
      </trkpt>
      <trkpt lat="45.62828" lon="6.23625">
        <ele>2095</ele>
        <time>2011-06-12T13:29:08Z</time>
      </trkpt>
      <trkpt lat="45.62829" lon="6.23627">
        <ele>2095</ele>
        <time>2011-06-12T13:29:13Z</time>
      </trkpt>
      <trkpt lat="45.62829" lon="6.2363">
        <ele>2095</ele>
        <time>2011-06-12T13:29:18Z</time>
      </trkpt>
      <trkpt lat="45.6283" lon="6.23632">
        <ele>2096</ele>
        <time>2011-06-12T13:29:23Z</time>
      </trkpt>
      <trkpt lat="45.62828" lon="6.23634">
        <ele>2096</ele>
        <time>2011-06-12T13:29:28Z</time>
      </trkpt>
      <trkpt lat="45.62825" lon="6.23634">
        <ele>2096</ele>
        <time>2011-06-12T13:29:33Z</time>
      </trkpt>
      <trkpt lat="45.62824" lon="6.23636">
        <ele>2096</ele>
        <time>2011-06-12T13:29:38Z</time>
      </trkpt>
      <trkpt lat="45.62822" lon="6.23637">
        <ele>2097</ele>
        <time>2011-06-12T13:29:43Z</time>
      </trkpt>
      <trkpt lat="45.6282" lon="6.23638">
        <ele>2097</ele>
        <time>2011-06-12T13:29:48Z</time>
      </trkpt>
      <trkpt lat="45.62818" lon="6.23639">
        <ele>2097</ele>
        <time>2011-06-12T13:29:53Z</time>
      </trkpt>
      <trkpt lat="45.62816" lon="6.23641">
        <ele>2097</ele>
        <time>2011-06-12T13:29:58Z</time>
      </trkpt>
      <trkpt lat="45.62813" lon="6.23642">
        <ele>2098</ele>
        <time>2011-06-12T13:30:03Z</time>
      </trkpt>
      <trkpt lat="45.62811" lon="6.23643">
        <ele>2098</ele>
        <time>2011-06-12T13:30:08Z</time>
      </trkpt>
      <trkpt lat="45.62808" lon="6.23645">
        <ele>2098</ele>
        <time>2011-06-12T13:30:13Z</time>
      </trkpt>
      <trkpt lat="45.62806" lon="6.23646">
        <ele>2099</ele>
        <time>2011-06-12T13:30:18Z</time>
      </trkpt>
      <trkpt lat="45.62803" lon="6.23647">
        <ele>2099</ele>
        <time>2011-06-12T13:30:23Z</time>
      </trkpt>
      <trkpt lat="45.628" lon="6.23649">
        <ele>2100</ele>
        <time>2011-06-12T13:30:28Z</time>
      </trkpt>
      <trkpt lat="45.62797" lon="6.2365">
        <ele>2100</ele>
        <time>2011-06-12T13:30:33Z</time>
      </trkpt>
      <trkpt lat="45.62794" lon="6.23651">
        <ele>2101</ele>
        <time>2011-06-12T13:30:38Z</time>
      </trkpt>
      <trkpt lat="45.62791" lon="6.23653">
        <ele>2101</ele>
        <time>2011-06-12T13:30:43Z</time>
      </trkpt>
      <trkpt lat="45.62788" lon="6.23654">
        <ele>2102</ele>
        <time>2011-06-12T13:30:48Z</time>
      </trkpt>
      <trkpt lat="45.62784" lon="6.23656">
        <ele>2103</ele>
        <time>2011-06-12T13:30:53Z</time>
      </trkpt>
      <trkpt lat="45.62782" lon="6.23659">
        <ele>2104</ele>
        <time>2011-06-12T13:30:58Z</time>
      </trkpt>
      <trkpt lat="45.6278" lon="6.23661">
        <ele>2105</ele>
        <time>2011-06-12T13:31:03Z</time>
      </trkpt>
      <trkpt lat="45.62779" lon="6.23662">
        <ele>2105</ele>
        <time>2011-06-12T13:31:08Z</time>
      </trkpt>
      <trkpt lat="45.62779" lon="6.23663">
        <ele>2105</ele>
        <time>2011-06-12T13:31:13Z</time>
      </trkpt>
      <trkpt lat="45.62777" lon="6.23666">
        <ele>2106</ele>
        <time>2011-06-12T13:31:18Z</time>
      </trkpt>
      <trkpt lat="45.62776" lon="6.23669">
        <ele>2112</ele>
        <time>2011-06-12T13:31:23Z</time>
      </trkpt>
      <trkpt lat="45.62775" lon="6.23671">
        <ele>2112</ele>
        <time>2011-06-12T13:31:28Z</time>
      </trkpt>
      <trkpt lat="45.62774" lon="6.23674">
        <ele>2113</ele>
        <time>2011-06-12T13:31:33Z</time>
      </trkpt>
      <trkpt lat="45.62773" lon="6.23676">
        <ele>2113</ele>
        <time>2011-06-12T13:31:38Z</time>
      </trkpt>
      <trkpt lat="45.62772" lon="6.23679">
        <ele>2113</ele>
        <time>2011-06-12T13:31:43Z</time>
      </trkpt>
      <trkpt lat="45.62771" lon="6.23682">
        <ele>2113</ele>
        <time>2011-06-12T13:31:48Z</time>
      </trkpt>
      <trkpt lat="45.62769" lon="6.23685">
        <ele>2113</ele>
        <time>2011-06-12T13:31:53Z</time>
      </trkpt>
      <trkpt lat="45.62767" lon="6.23688">
        <ele>2113</ele>
        <time>2011-06-12T13:31:58Z</time>
      </trkpt>
      <trkpt lat="45.62769" lon="6.23691">
        <ele>2113</ele>
        <time>2011-06-12T13:32:03Z</time>
      </trkpt>
      <trkpt lat="45.62771" lon="6.23694">
        <ele>2112</ele>
        <time>2011-06-12T13:32:08Z</time>
      </trkpt>
      <trkpt lat="45.62773" lon="6.23697">
        <ele>2112</ele>
        <time>2011-06-12T13:32:13Z</time>
      </trkpt>
      <trkpt lat="45.62774" lon="6.23699">
        <ele>2111</ele>
        <time>2011-06-12T13:32:18Z</time>
      </trkpt>
      <trkpt lat="45.62776" lon="6.23701">
        <ele>2111</ele>
        <time>2011-06-12T13:32:23Z</time>
      </trkpt>
      <trkpt lat="45.62777" lon="6.23705">
        <ele>2111</ele>
        <time>2011-06-12T13:32:28Z</time>
      </trkpt>
      <trkpt lat="45.62778" lon="6.23707">
        <ele>2111</ele>
        <time>2011-06-12T13:32:33Z</time>
      </trkpt>
      <trkpt lat="45.6278" lon="6.2371">
        <ele>2110</ele>
        <time>2011-06-12T13:32:38Z</time>
      </trkpt>
      <trkpt lat="45.6278" lon="6.23713">
        <ele>2110</ele>
        <time>2011-06-12T13:32:43Z</time>
      </trkpt>
      <trkpt lat="45.62782" lon="6.23716">
        <ele>2110</ele>
        <time>2011-06-12T13:32:48Z</time>
      </trkpt>
      <trkpt lat="45.62785" lon="6.23718">
        <ele>2110</ele>
        <time>2011-06-12T13:32:53Z</time>
      </trkpt>
      <trkpt lat="45.62787" lon="6.2372">
        <ele>2109</ele>
        <time>2011-06-12T13:32:58Z</time>
      </trkpt>
      <trkpt lat="45.6279" lon="6.23722">
        <ele>2108</ele>
        <time>2011-06-12T13:33:03Z</time>
      </trkpt>
      <trkpt lat="45.62792" lon="6.23725">
        <ele>2108</ele>
        <time>2011-06-12T13:33:08Z</time>
      </trkpt>
      <trkpt lat="45.62795" lon="6.23728">
        <ele>2107</ele>
        <time>2011-06-12T13:33:13Z</time>
      </trkpt>
      <trkpt lat="45.62796" lon="6.23731">
        <ele>2106</ele>
        <time>2011-06-12T13:33:18Z</time>
      </trkpt>
      <trkpt lat="45.62797" lon="6.23735">
        <ele>2106</ele>
        <time>2011-06-12T13:33:23Z</time>
      </trkpt>
      <trkpt lat="45.62797" lon="6.2374">
        <ele>2106</ele>
        <time>2011-06-12T13:33:28Z</time>
      </trkpt>
      <trkpt lat="45.62798" lon="6.23745">
        <ele>2105</ele>
        <time>2011-06-12T13:33:33Z</time>
      </trkpt>
      <trkpt lat="45.628" lon="6.23749">
        <ele>2104</ele>
        <time>2011-06-12T13:33:38Z</time>
      </trkpt>
      <trkpt lat="45.628" lon="6.23751">
        <ele>2111</ele>
        <time>2011-06-12T13:33:43Z</time>
      </trkpt>
      <trkpt lat="45.628" lon="6.23754">
        <ele>2111</ele>
        <time>2011-06-12T13:33:48Z</time>
      </trkpt>
      <trkpt lat="45.62802" lon="6.23759">
        <ele>2111</ele>
        <time>2011-06-12T13:33:53Z</time>
      </trkpt>
      <trkpt lat="45.62803" lon="6.23764">
        <ele>2112</ele>
        <time>2011-06-12T13:33:58Z</time>
      </trkpt>
      <trkpt lat="45.62805" lon="6.23768">
        <ele>2112</ele>
        <time>2011-06-12T13:34:03Z</time>
      </trkpt>
      <trkpt lat="45.62806" lon="6.23769">
        <ele>2112</ele>
        <time>2011-06-12T13:34:08Z</time>
      </trkpt>
      <trkpt lat="45.62808" lon="6.23774">
        <ele>2113</ele>
        <time>2011-06-12T13:34:13Z</time>
      </trkpt>
      <trkpt lat="45.62809" lon="6.23776">
        <ele>2113</ele>
        <time>2011-06-12T13:34:18Z</time>
      </trkpt>
      <trkpt lat="45.62809" lon="6.23778">
        <ele>2114</ele>
        <time>2011-06-12T13:34:23Z</time>
      </trkpt>
      <trkpt lat="45.62811" lon="6.23782">
        <ele>2115</ele>
        <time>2011-06-12T13:34:28Z</time>
      </trkpt>
      <trkpt lat="45.62811" lon="6.23788">
        <ele>2117</ele>
        <time>2011-06-12T13:34:33Z</time>
      </trkpt>
      <trkpt lat="45.62811" lon="6.23789">
        <ele>2117</ele>
        <time>2011-06-12T13:34:38Z</time>
      </trkpt>
      <trkpt lat="45.6281" lon="6.2379">
        <ele>2117</ele>
        <time>2011-06-12T13:34:43Z</time>
      </trkpt>
      <trkpt lat="45.6281" lon="6.23791">
        <ele>2117</ele>
        <time>2011-06-12T13:34:48Z</time>
      </trkpt>
      <trkpt lat="45.6281" lon="6.23791">
        <ele>2118</ele>
        <time>2011-06-12T13:34:53Z</time>
      </trkpt>
      <trkpt lat="45.6281" lon="6.23792">
        <ele>2118</ele>
        <time>2011-06-12T13:34:58Z</time>
      </trkpt>
      <trkpt lat="45.6281" lon="6.23792">
        <ele>2118</ele>
        <time>2011-06-12T13:35:03Z</time>
      </trkpt>
      <trkpt lat="45.6281" lon="6.23792">
        <ele>2118</ele>
        <time>2011-06-12T13:35:08Z</time>
      </trkpt>
      <trkpt lat="45.6281" lon="6.23792">
        <ele>2118</ele>
        <time>2011-06-12T13:35:13Z</time>
      </trkpt>
      <trkpt lat="45.62809" lon="6.23795">
        <ele>2119</ele>
        <time>2011-06-12T13:35:18Z</time>
      </trkpt>
      <trkpt lat="45.62809" lon="6.23795">
        <ele>2119</ele>
        <time>2011-06-12T13:35:23Z</time>
      </trkpt>
      <trkpt lat="45.62809" lon="6.23795">
        <ele>2119</ele>
        <time>2011-06-12T13:35:28Z</time>
      </trkpt>
      <trkpt lat="45.62809" lon="6.23794">
        <ele>2118</ele>
        <time>2011-06-12T13:35:33Z</time>
      </trkpt>
      <trkpt lat="45.62809" lon="6.23793">
        <ele>2118</ele>
        <time>2011-06-12T13:35:38Z</time>
      </trkpt>
      <trkpt lat="45.6281" lon="6.23793">
        <ele>2118</ele>
        <time>2011-06-12T13:35:43Z</time>
      </trkpt>
      <trkpt lat="45.62809" lon="6.23793">
        <ele>2118</ele>
        <time>2011-06-12T13:35:48Z</time>
      </trkpt>
      <trkpt lat="45.62809" lon="6.23793">
        <ele>2118</ele>
        <time>2011-06-12T13:35:53Z</time>
      </trkpt>
      <trkpt lat="45.62809" lon="6.23793">
        <ele>2118</ele>
        <time>2011-06-12T13:35:58Z</time>
      </trkpt>
      <trkpt lat="45.62809" lon="6.23794">
        <ele>2118</ele>
        <time>2011-06-12T13:36:03Z</time>
      </trkpt>
      <trkpt lat="45.62809" lon="6.23794">
        <ele>2118</ele>
        <time>2011-06-12T13:36:08Z</time>
      </trkpt>
      <trkpt lat="45.6281" lon="6.23794">
        <ele>2118</ele>
        <time>2011-06-12T13:36:13Z</time>
      </trkpt>
      <trkpt lat="45.6281" lon="6.23794">
        <ele>2118</ele>
        <time>2011-06-12T13:36:18Z</time>
      </trkpt>
      <trkpt lat="45.6281" lon="6.23794">
        <ele>2118</ele>
        <time>2011-06-12T13:36:23Z</time>
      </trkpt>
      <trkpt lat="45.6281" lon="6.23794">
        <ele>2118</ele>
        <time>2011-06-12T13:36:28Z</time>
      </trkpt>
      <trkpt lat="45.6281" lon="6.23794">
        <ele>2118</ele>
        <time>2011-06-12T13:36:33Z</time>
      </trkpt>
      <trkpt lat="45.6281" lon="6.23794">
        <ele>2118</ele>
        <time>2011-06-12T13:36:38Z</time>
      </trkpt>
      <trkpt lat="45.62811" lon="6.23794">
        <ele>2118</ele>
        <time>2011-06-12T13:36:43Z</time>
      </trkpt>
      <trkpt lat="45.62811" lon="6.23794">
        <ele>2118</ele>
        <time>2011-06-12T13:36:48Z</time>
      </trkpt>
      <trkpt lat="45.62812" lon="6.23794">
        <ele>2118</ele>
        <time>2011-06-12T13:36:53Z</time>
      </trkpt>
      <trkpt lat="45.62812" lon="6.23794">
        <ele>2118</ele>
        <time>2011-06-12T13:36:58Z</time>
      </trkpt>
      <trkpt lat="45.62813" lon="6.23794">
        <ele>2118</ele>
        <time>2011-06-12T13:37:03Z</time>
      </trkpt>
      <trkpt lat="45.62813" lon="6.23794">
        <ele>2118</ele>
        <time>2011-06-12T13:37:08Z</time>
      </trkpt>
      <trkpt lat="45.62813" lon="6.23794">
        <ele>2118</ele>
        <time>2011-06-12T13:37:13Z</time>
      </trkpt>
      <trkpt lat="45.62813" lon="6.23794">
        <ele>2118</ele>
        <time>2011-06-12T13:37:18Z</time>
      </trkpt>
      <trkpt lat="45.62813" lon="6.23794">
        <ele>2118</ele>
        <time>2011-06-12T13:37:23Z</time>
      </trkpt>
      <trkpt lat="45.62813" lon="6.23794">
        <ele>2118</ele>
        <time>2011-06-12T13:37:28Z</time>
      </trkpt>
      <trkpt lat="45.62813" lon="6.23794">
        <ele>2118</ele>
        <time>2011-06-12T13:37:33Z</time>
      </trkpt>
      <trkpt lat="45.62813" lon="6.23794">
        <ele>2118</ele>
        <time>2011-06-12T13:37:38Z</time>
      </trkpt>
      <trkpt lat="45.62813" lon="6.23794">
        <ele>2118</ele>
        <time>2011-06-12T13:37:43Z</time>
      </trkpt>
      <trkpt lat="45.62813" lon="6.23794">
        <ele>2118</ele>
        <time>2011-06-12T13:37:48Z</time>
      </trkpt>
      <trkpt lat="45.62813" lon="6.23794">
        <ele>2118</ele>
        <time>2011-06-12T13:37:53Z</time>
      </trkpt>
      <trkpt lat="45.62813" lon="6.23794">
        <ele>2118</ele>
        <time>2011-06-12T13:37:58Z</time>
      </trkpt>
      <trkpt lat="45.62813" lon="6.23794">
        <ele>2118</ele>
        <time>2011-06-12T13:38:03Z</time>
      </trkpt>
      <trkpt lat="45.62813" lon="6.23794">
        <ele>2118</ele>
        <time>2011-06-12T13:38:08Z</time>
      </trkpt>
      <trkpt lat="45.62813" lon="6.23794">
        <ele>2118</ele>
        <time>2011-06-12T13:38:13Z</time>
      </trkpt>
      <trkpt lat="45.62813" lon="6.23794">
        <ele>2118</ele>
        <time>2011-06-12T13:38:18Z</time>
      </trkpt>
      <trkpt lat="45.62813" lon="6.23794">
        <ele>2118</ele>
        <time>2011-06-12T13:38:23Z</time>
      </trkpt>
      <trkpt lat="45.62813" lon="6.23794">
        <ele>2118</ele>
        <time>2011-06-12T13:38:28Z</time>
      </trkpt>
      <trkpt lat="45.62812" lon="6.23794">
        <ele>2118</ele>
        <time>2011-06-12T13:38:33Z</time>
      </trkpt>
      <trkpt lat="45.62812" lon="6.23794">
        <ele>2118</ele>
        <time>2011-06-12T13:38:38Z</time>
      </trkpt>
      <trkpt lat="45.62812" lon="6.23794">
        <ele>2118</ele>
        <time>2011-06-12T13:38:43Z</time>
      </trkpt>
      <trkpt lat="45.62812" lon="6.23794">
        <ele>2118</ele>
        <time>2011-06-12T13:38:48Z</time>
      </trkpt>
      <trkpt lat="45.62812" lon="6.23794">
        <ele>2118</ele>
        <time>2011-06-12T13:38:53Z</time>
      </trkpt>
      <trkpt lat="45.62812" lon="6.23794">
        <ele>2118</ele>
        <time>2011-06-12T13:38:58Z</time>
      </trkpt>
      <trkpt lat="45.62812" lon="6.23794">
        <ele>2118</ele>
        <time>2011-06-12T13:39:03Z</time>
      </trkpt>
      <trkpt lat="45.62812" lon="6.23794">
        <ele>2118</ele>
        <time>2011-06-12T13:39:08Z</time>
      </trkpt>
      <trkpt lat="45.62812" lon="6.23794">
        <ele>2118</ele>
        <time>2011-06-12T13:39:13Z</time>
      </trkpt>
      <trkpt lat="45.62812" lon="6.23794">
        <ele>2118</ele>
        <time>2011-06-12T13:39:18Z</time>
      </trkpt>
      <trkpt lat="45.62812" lon="6.23794">
        <ele>2118</ele>
        <time>2011-06-12T13:39:23Z</time>
      </trkpt>
      <trkpt lat="45.62812" lon="6.23794">
        <ele>2118</ele>
        <time>2011-06-12T13:39:28Z</time>
      </trkpt>
      <trkpt lat="45.62812" lon="6.23794">
        <ele>2118</ele>
        <time>2011-06-12T13:39:33Z</time>
      </trkpt>
      <trkpt lat="45.62812" lon="6.23794">
        <ele>2118</ele>
        <time>2011-06-12T13:39:38Z</time>
      </trkpt>
      <trkpt lat="45.62811" lon="6.23794">
        <ele>2118</ele>
        <time>2011-06-12T13:39:43Z</time>
      </trkpt>
      <trkpt lat="45.62811" lon="6.23794">
        <ele>2118</ele>
        <time>2011-06-12T13:39:48Z</time>
      </trkpt>
      <trkpt lat="45.62811" lon="6.23794">
        <ele>2118</ele>
        <time>2011-06-12T13:39:53Z</time>
      </trkpt>
      <trkpt lat="45.62811" lon="6.23794">
        <ele>2118</ele>
        <time>2011-06-12T13:39:58Z</time>
      </trkpt>
      <trkpt lat="45.62811" lon="6.23794">
        <ele>2118</ele>
        <time>2011-06-12T13:40:03Z</time>
      </trkpt>
      <trkpt lat="45.62811" lon="6.23794">
        <ele>2118</ele>
        <time>2011-06-12T13:40:08Z</time>
      </trkpt>
      <trkpt lat="45.62811" lon="6.23794">
        <ele>2118</ele>
        <time>2011-06-12T13:40:13Z</time>
      </trkpt>
      <trkpt lat="45.62811" lon="6.23794">
        <ele>2118</ele>
        <time>2011-06-12T13:40:18Z</time>
      </trkpt>
      <trkpt lat="45.62811" lon="6.23794">
        <ele>2118</ele>
        <time>2011-06-12T13:40:23Z</time>
      </trkpt>
      <trkpt lat="45.62811" lon="6.23794">
        <ele>2118</ele>
        <time>2011-06-12T13:40:28Z</time>
      </trkpt>
      <trkpt lat="45.62811" lon="6.23794">
        <ele>2118</ele>
        <time>2011-06-12T13:40:33Z</time>
      </trkpt>
      <trkpt lat="45.62811" lon="6.23794">
        <ele>2118</ele>
        <time>2011-06-12T13:40:38Z</time>
      </trkpt>
      <trkpt lat="45.62811" lon="6.23794">
        <ele>2118</ele>
        <time>2011-06-12T13:40:43Z</time>
      </trkpt>
      <trkpt lat="45.62811" lon="6.23794">
        <ele>2118</ele>
        <time>2011-06-12T13:40:48Z</time>
      </trkpt>
      <trkpt lat="45.62811" lon="6.23794">
        <ele>2118</ele>
        <time>2011-06-12T13:40:53Z</time>
      </trkpt>
      <trkpt lat="45.62811" lon="6.23794">
        <ele>2118</ele>
        <time>2011-06-12T13:40:58Z</time>
      </trkpt>
      <trkpt lat="45.62811" lon="6.23794">
        <ele>2118</ele>
        <time>2011-06-12T13:41:03Z</time>
      </trkpt>
      <trkpt lat="45.62811" lon="6.23794">
        <ele>2118</ele>
        <time>2011-06-12T13:41:08Z</time>
      </trkpt>
      <trkpt lat="45.62811" lon="6.23794">
        <ele>2118</ele>
        <time>2011-06-12T13:41:13Z</time>
      </trkpt>
      <trkpt lat="45.62811" lon="6.23794">
        <ele>2118</ele>
        <time>2011-06-12T13:41:18Z</time>
      </trkpt>
      <trkpt lat="45.62811" lon="6.23794">
        <ele>2118</ele>
        <time>2011-06-12T13:41:23Z</time>
      </trkpt>
      <trkpt lat="45.62811" lon="6.23794">
        <ele>2118</ele>
        <time>2011-06-12T13:41:28Z</time>
      </trkpt>
      <trkpt lat="45.6281" lon="6.23797">
        <ele>2119</ele>
        <time>2011-06-12T13:41:33Z</time>
      </trkpt>
      <trkpt lat="45.6281" lon="6.23796">
        <ele>2119</ele>
        <time>2011-06-12T13:41:38Z</time>
      </trkpt>
      <trkpt lat="45.62809" lon="6.23796">
        <ele>2119</ele>
        <time>2011-06-12T13:41:43Z</time>
      </trkpt>
      <trkpt lat="45.62809" lon="6.23796">
        <ele>2119</ele>
        <time>2011-06-12T13:41:48Z</time>
      </trkpt>
      <trkpt lat="45.62809" lon="6.23796">
        <ele>2119</ele>
        <time>2011-06-12T13:41:53Z</time>
      </trkpt>
      <trkpt lat="45.62808" lon="6.23796">
        <ele>2119</ele>
        <time>2011-06-12T13:41:58Z</time>
      </trkpt>
      <trkpt lat="45.62807" lon="6.23796">
        <ele>2119</ele>
        <time>2011-06-12T13:42:03Z</time>
      </trkpt>
      <trkpt lat="45.62807" lon="6.23796">
        <ele>2119</ele>
        <time>2011-06-12T13:42:08Z</time>
      </trkpt>
      <trkpt lat="45.62807" lon="6.23796">
        <ele>2119</ele>
        <time>2011-06-12T13:42:13Z</time>
      </trkpt>
      <trkpt lat="45.62807" lon="6.23796">
        <ele>2119</ele>
        <time>2011-06-12T13:42:18Z</time>
      </trkpt>
      <trkpt lat="45.62807" lon="6.23796">
        <ele>2119</ele>
        <time>2011-06-12T13:42:23Z</time>
      </trkpt>
      <trkpt lat="45.62807" lon="6.23796">
        <ele>2119</ele>
        <time>2011-06-12T13:42:28Z</time>
      </trkpt>
      <trkpt lat="45.62806" lon="6.23798">
        <ele>2120</ele>
        <time>2011-06-12T13:42:33Z</time>
      </trkpt>
      <trkpt lat="45.62805" lon="6.23804">
        <ele>2121</ele>
        <time>2011-06-12T13:42:38Z</time>
      </trkpt>
      <trkpt lat="45.62805" lon="6.23808">
        <ele>2122</ele>
        <time>2011-06-12T13:42:43Z</time>
      </trkpt>
      <trkpt lat="45.62805" lon="6.23808">
        <ele>2122</ele>
        <time>2011-06-12T13:42:48Z</time>
      </trkpt>
      <trkpt lat="45.62805" lon="6.23808">
        <ele>2122</ele>
        <time>2011-06-12T13:42:53Z</time>
      </trkpt>
      <trkpt lat="45.62805" lon="6.23808">
        <ele>2122</ele>
        <time>2011-06-12T13:42:58Z</time>
      </trkpt>
      <trkpt lat="45.62805" lon="6.23807">
        <ele>2122</ele>
        <time>2011-06-12T13:43:03Z</time>
      </trkpt>
      <trkpt lat="45.62805" lon="6.23807">
        <ele>2122</ele>
        <time>2011-06-12T13:43:08Z</time>
      </trkpt>
      <trkpt lat="45.62805" lon="6.2381">
        <ele>2122</ele>
        <time>2011-06-12T13:43:13Z</time>
      </trkpt>
      <trkpt lat="45.62805" lon="6.23812">
        <ele>2123</ele>
        <time>2011-06-12T13:43:18Z</time>
      </trkpt>
      <trkpt lat="45.62804" lon="6.23812">
        <ele>2123</ele>
        <time>2011-06-12T13:43:23Z</time>
      </trkpt>
      <trkpt lat="45.62804" lon="6.23812">
        <ele>2123</ele>
        <time>2011-06-12T13:43:28Z</time>
      </trkpt>
      <trkpt lat="45.62804" lon="6.23812">
        <ele>2123</ele>
        <time>2011-06-12T13:43:33Z</time>
      </trkpt>
      <trkpt lat="45.62804" lon="6.23812">
        <ele>2123</ele>
        <time>2011-06-12T13:43:38Z</time>
      </trkpt>
      <trkpt lat="45.62804" lon="6.23812">
        <ele>2123</ele>
        <time>2011-06-12T13:43:43Z</time>
      </trkpt>
      <trkpt lat="45.62804" lon="6.23812">
        <ele>2123</ele>
        <time>2011-06-12T13:43:48Z</time>
      </trkpt>
      <trkpt lat="45.62804" lon="6.23812">
        <ele>2123</ele>
        <time>2011-06-12T13:43:53Z</time>
      </trkpt>
      <trkpt lat="45.62804" lon="6.23812">
        <ele>2123</ele>
        <time>2011-06-12T13:43:58Z</time>
      </trkpt>
      <trkpt lat="45.62804" lon="6.23812">
        <ele>2123</ele>
        <time>2011-06-12T13:44:03Z</time>
      </trkpt>
      <trkpt lat="45.62804" lon="6.23812">
        <ele>2123</ele>
        <time>2011-06-12T13:44:08Z</time>
      </trkpt>
      <trkpt lat="45.62803" lon="6.23812">
        <ele>2123</ele>
        <time>2011-06-12T13:44:13Z</time>
      </trkpt>
      <trkpt lat="45.62803" lon="6.23812">
        <ele>2123</ele>
        <time>2011-06-12T13:44:18Z</time>
      </trkpt>
      <trkpt lat="45.62803" lon="6.23811">
        <ele>2123</ele>
        <time>2011-06-12T13:44:23Z</time>
      </trkpt>
      <trkpt lat="45.62803" lon="6.23811">
        <ele>2123</ele>
        <time>2011-06-12T13:44:28Z</time>
      </trkpt>
      <trkpt lat="45.62803" lon="6.23815">
        <ele>2123</ele>
        <time>2011-06-12T13:44:33Z</time>
      </trkpt>
      <trkpt lat="45.62802" lon="6.23821">
        <ele>2124</ele>
        <time>2011-06-12T13:44:38Z</time>
      </trkpt>
      <trkpt lat="45.62801" lon="6.23828">
        <ele>2125</ele>
        <time>2011-06-12T13:44:43Z</time>
      </trkpt>
      <trkpt lat="45.62802" lon="6.23836">
        <ele>2133</ele>
        <time>2011-06-12T13:44:48Z</time>
      </trkpt>
      <trkpt lat="45.62803" lon="6.23843">
        <ele>2133</ele>
        <time>2011-06-12T13:44:53Z</time>
      </trkpt>
      <trkpt lat="45.62803" lon="6.2385">
        <ele>2133</ele>
        <time>2011-06-12T13:44:58Z</time>
      </trkpt>
      <trkpt lat="45.62804" lon="6.23857">
        <ele>2133</ele>
        <time>2011-06-12T13:45:03Z</time>
      </trkpt>
      <trkpt lat="45.62803" lon="6.23864">
        <ele>2133</ele>
        <time>2011-06-12T13:45:08Z</time>
      </trkpt>
      <trkpt lat="45.62801" lon="6.2387">
        <ele>2133</ele>
        <time>2011-06-12T13:45:13Z</time>
      </trkpt>
      <trkpt lat="45.628" lon="6.23876">
        <ele>2132</ele>
        <time>2011-06-12T13:45:18Z</time>
      </trkpt>
      <trkpt lat="45.62798" lon="6.23883">
        <ele>2132</ele>
        <time>2011-06-12T13:45:23Z</time>
      </trkpt>
      <trkpt lat="45.62797" lon="6.23891">
        <ele>2132</ele>
        <time>2011-06-12T13:45:28Z</time>
      </trkpt>
      <trkpt lat="45.62797" lon="6.239">
        <ele>2132</ele>
        <time>2011-06-12T13:45:33Z</time>
      </trkpt>
      <trkpt lat="45.62798" lon="6.23909">
        <ele>2133</ele>
        <time>2011-06-12T13:45:38Z</time>
      </trkpt>
      <trkpt lat="45.628" lon="6.23918">
        <ele>2117</ele>
        <time>2011-06-12T13:45:43Z</time>
      </trkpt>
      <trkpt lat="45.628" lon="6.23926">
        <ele>2115</ele>
        <time>2011-06-12T13:45:48Z</time>
      </trkpt>
      <trkpt lat="45.628" lon="6.23936">
        <ele>2113</ele>
        <time>2011-06-12T13:45:53Z</time>
      </trkpt>
      <trkpt lat="45.62801" lon="6.23944">
        <ele>2110</ele>
        <time>2011-06-12T13:45:58Z</time>
      </trkpt>
      <trkpt lat="45.62801" lon="6.23953">
        <ele>2107</ele>
        <time>2011-06-12T13:46:03Z</time>
      </trkpt>
      <trkpt lat="45.628" lon="6.23961">
        <ele>2104</ele>
        <time>2011-06-12T13:46:08Z</time>
      </trkpt>
      <trkpt lat="45.628" lon="6.23969">
        <ele>2101</ele>
        <time>2011-06-12T13:46:13Z</time>
      </trkpt>
      <trkpt lat="45.628" lon="6.23976">
        <ele>2098</ele>
        <time>2011-06-12T13:46:18Z</time>
      </trkpt>
      <trkpt lat="45.628" lon="6.23984">
        <ele>2095</ele>
        <time>2011-06-12T13:46:23Z</time>
      </trkpt>
      <trkpt lat="45.62798" lon="6.23991">
        <ele>2094</ele>
        <time>2011-06-12T13:46:28Z</time>
      </trkpt>
      <trkpt lat="45.62796" lon="6.23998">
        <ele>2094</ele>
        <time>2011-06-12T13:46:33Z</time>
      </trkpt>
      <trkpt lat="45.62796" lon="6.24005">
        <ele>2071</ele>
        <time>2011-06-12T13:46:38Z</time>
      </trkpt>
      <trkpt lat="45.62796" lon="6.24006">
        <ele>2070</ele>
        <time>2011-06-12T13:46:43Z</time>
      </trkpt>
      <trkpt lat="45.62796" lon="6.24007">
        <ele>2071</ele>
        <time>2011-06-12T13:46:48Z</time>
      </trkpt>
      <trkpt lat="45.62794" lon="6.24012">
        <ele>2071</ele>
        <time>2011-06-12T13:46:53Z</time>
      </trkpt>
      <trkpt lat="45.62793" lon="6.24019">
        <ele>2071</ele>
        <time>2011-06-12T13:46:58Z</time>
      </trkpt>
      <trkpt lat="45.62793" lon="6.24026">
        <ele>2070</ele>
        <time>2011-06-12T13:47:03Z</time>
      </trkpt>
      <trkpt lat="45.62792" lon="6.24033">
        <ele>2070</ele>
        <time>2011-06-12T13:47:08Z</time>
      </trkpt>
      <trkpt lat="45.6279" lon="6.24041">
        <ele>2069</ele>
        <time>2011-06-12T13:47:13Z</time>
      </trkpt>
      <trkpt lat="45.6279" lon="6.24048">
        <ele>2068</ele>
        <time>2011-06-12T13:47:18Z</time>
      </trkpt>
      <trkpt lat="45.6279" lon="6.24057">
        <ele>2067</ele>
        <time>2011-06-12T13:47:23Z</time>
      </trkpt>
      <trkpt lat="45.62792" lon="6.24065">
        <ele>2066</ele>
        <time>2011-06-12T13:47:28Z</time>
      </trkpt>
      <trkpt lat="45.62793" lon="6.24073">
        <ele>2064</ele>
        <time>2011-06-12T13:47:33Z</time>
      </trkpt>
      <trkpt lat="45.62793" lon="6.24081">
        <ele>2063</ele>
        <time>2011-06-12T13:47:38Z</time>
      </trkpt>
      <trkpt lat="45.62795" lon="6.24091">
        <ele>2051</ele>
        <time>2011-06-12T13:47:43Z</time>
      </trkpt>
      <trkpt lat="45.62797" lon="6.241">
        <ele>2050</ele>
        <time>2011-06-12T13:47:48Z</time>
      </trkpt>
      <trkpt lat="45.62799" lon="6.24108">
        <ele>2049</ele>
        <time>2011-06-12T13:47:53Z</time>
      </trkpt>
      <trkpt lat="45.628" lon="6.24109">
        <ele>2048</ele>
        <time>2011-06-12T13:47:58Z</time>
      </trkpt>
      <trkpt lat="45.628" lon="6.2411">
        <ele>2048</ele>
        <time>2011-06-12T13:48:03Z</time>
      </trkpt>
      <trkpt lat="45.628" lon="6.24111">
        <ele>2048</ele>
        <time>2011-06-12T13:48:08Z</time>
      </trkpt>
      <trkpt lat="45.628" lon="6.24112">
        <ele>2048</ele>
        <time>2011-06-12T13:48:13Z</time>
      </trkpt>
      <trkpt lat="45.62799" lon="6.24117">
        <ele>2049</ele>
        <time>2011-06-12T13:48:18Z</time>
      </trkpt>
      <trkpt lat="45.62798" lon="6.24123">
        <ele>2049</ele>
        <time>2011-06-12T13:48:23Z</time>
      </trkpt>
      <trkpt lat="45.62796" lon="6.2413">
        <ele>2049</ele>
        <time>2011-06-12T13:48:28Z</time>
      </trkpt>
      <trkpt lat="45.62796" lon="6.24137">
        <ele>2049</ele>
        <time>2011-06-12T13:48:33Z</time>
      </trkpt>
      <trkpt lat="45.62795" lon="6.24144">
        <ele>2048</ele>
        <time>2011-06-12T13:48:38Z</time>
      </trkpt>
      <trkpt lat="45.62795" lon="6.24152">
        <ele>2048</ele>
        <time>2011-06-12T13:48:43Z</time>
      </trkpt>
      <trkpt lat="45.62795" lon="6.2416">
        <ele>2048</ele>
        <time>2011-06-12T13:48:48Z</time>
      </trkpt>
      <trkpt lat="45.62793" lon="6.24167">
        <ele>2042</ele>
        <time>2011-06-12T13:48:53Z</time>
      </trkpt>
      <trkpt lat="45.62792" lon="6.24174">
        <ele>2042</ele>
        <time>2011-06-12T13:48:58Z</time>
      </trkpt>
      <trkpt lat="45.62792" lon="6.24181">
        <ele>2042</ele>
        <time>2011-06-12T13:49:03Z</time>
      </trkpt>
      <trkpt lat="45.6279" lon="6.24188">
        <ele>2043</ele>
        <time>2011-06-12T13:49:08Z</time>
      </trkpt>
      <trkpt lat="45.62789" lon="6.24195">
        <ele>2043</ele>
        <time>2011-06-12T13:49:13Z</time>
      </trkpt>
      <trkpt lat="45.62788" lon="6.24204">
        <ele>2042</ele>
        <time>2011-06-12T13:49:18Z</time>
      </trkpt>
      <trkpt lat="45.62787" lon="6.24211">
        <ele>2042</ele>
        <time>2011-06-12T13:49:23Z</time>
      </trkpt>
      <trkpt lat="45.62786" lon="6.24218">
        <ele>2042</ele>
        <time>2011-06-12T13:49:28Z</time>
      </trkpt>
      <trkpt lat="45.62784" lon="6.24226">
        <ele>2043</ele>
        <time>2011-06-12T13:49:33Z</time>
      </trkpt>
      <trkpt lat="45.62784" lon="6.24235">
        <ele>2043</ele>
        <time>2011-06-12T13:49:38Z</time>
      </trkpt>
      <trkpt lat="45.62783" lon="6.24242">
        <ele>2043</ele>
        <time>2011-06-12T13:49:43Z</time>
      </trkpt>
      <trkpt lat="45.62782" lon="6.2425">
        <ele>2043</ele>
        <time>2011-06-12T13:49:48Z</time>
      </trkpt>
      <trkpt lat="45.62782" lon="6.24258">
        <ele>2038</ele>
        <time>2011-06-12T13:49:53Z</time>
      </trkpt>
      <trkpt lat="45.62782" lon="6.24266">
        <ele>2038</ele>
        <time>2011-06-12T13:49:58Z</time>
      </trkpt>
      <trkpt lat="45.62781" lon="6.24274">
        <ele>2037</ele>
        <time>2011-06-12T13:50:03Z</time>
      </trkpt>
      <trkpt lat="45.6278" lon="6.24283">
        <ele>2037</ele>
        <time>2011-06-12T13:50:08Z</time>
      </trkpt>
      <trkpt lat="45.62778" lon="6.24292">
        <ele>2037</ele>
        <time>2011-06-12T13:50:13Z</time>
      </trkpt>
      <trkpt lat="45.62777" lon="6.243">
        <ele>2037</ele>
        <time>2011-06-12T13:50:18Z</time>
      </trkpt>
      <trkpt lat="45.62776" lon="6.2431">
        <ele>2037</ele>
        <time>2011-06-12T13:50:23Z</time>
      </trkpt>
      <trkpt lat="45.62773" lon="6.24319">
        <ele>2039</ele>
        <time>2011-06-12T13:50:28Z</time>
      </trkpt>
      <trkpt lat="45.62771" lon="6.24328">
        <ele>2040</ele>
        <time>2011-06-12T13:50:33Z</time>
      </trkpt>
      <trkpt lat="45.62768" lon="6.24335">
        <ele>2032</ele>
        <time>2011-06-12T13:50:38Z</time>
      </trkpt>
      <trkpt lat="45.62765" lon="6.24344">
        <ele>2032</ele>
        <time>2011-06-12T13:50:43Z</time>
      </trkpt>
      <trkpt lat="45.62764" lon="6.24348">
        <ele>2031</ele>
        <time>2011-06-12T13:50:48Z</time>
      </trkpt>
      <trkpt lat="45.62762" lon="6.24344">
        <ele>2034</ele>
        <time>2011-06-12T13:50:53Z</time>
      </trkpt>
      <trkpt lat="45.62761" lon="6.24345">
        <ele>2034</ele>
        <time>2011-06-12T13:50:58Z</time>
      </trkpt>
      <trkpt lat="45.62761" lon="6.24345">
        <ele>2033</ele>
        <time>2011-06-12T13:51:03Z</time>
      </trkpt>
      <trkpt lat="45.62761" lon="6.24345">
        <ele>2033</ele>
        <time>2011-06-12T13:51:08Z</time>
      </trkpt>
      <trkpt lat="45.62761" lon="6.24347">
        <ele>2033</ele>
        <time>2011-06-12T13:51:13Z</time>
      </trkpt>
      <trkpt lat="45.62761" lon="6.24347">
        <ele>2032</ele>
        <time>2011-06-12T13:51:18Z</time>
      </trkpt>
      <trkpt lat="45.62761" lon="6.24347">
        <ele>2032</ele>
        <time>2011-06-12T13:51:23Z</time>
      </trkpt>
      <trkpt lat="45.62761" lon="6.24348">
        <ele>2031</ele>
        <time>2011-06-12T13:51:28Z</time>
      </trkpt>
      <trkpt lat="45.62762" lon="6.24349">
        <ele>2031</ele>
        <time>2011-06-12T13:51:33Z</time>
      </trkpt>
      <trkpt lat="45.62761" lon="6.24349">
        <ele>2031</ele>
        <time>2011-06-12T13:51:38Z</time>
      </trkpt>
      <trkpt lat="45.62761" lon="6.24349">
        <ele>2031</ele>
        <time>2011-06-12T13:51:43Z</time>
      </trkpt>
      <trkpt lat="45.62761" lon="6.24349">
        <ele>2031</ele>
        <time>2011-06-12T13:51:48Z</time>
      </trkpt>
      <trkpt lat="45.62761" lon="6.24349">
        <ele>2031</ele>
        <time>2011-06-12T13:51:53Z</time>
      </trkpt>
      <trkpt lat="45.62761" lon="6.24349">
        <ele>2031</ele>
        <time>2011-06-12T13:51:58Z</time>
      </trkpt>
      <trkpt lat="45.62761" lon="6.24349">
        <ele>2031</ele>
        <time>2011-06-12T13:52:03Z</time>
      </trkpt>
      <trkpt lat="45.62761" lon="6.24349">
        <ele>2031</ele>
        <time>2011-06-12T13:52:08Z</time>
      </trkpt>
      <trkpt lat="45.62761" lon="6.24349">
        <ele>2031</ele>
        <time>2011-06-12T13:52:13Z</time>
      </trkpt>
      <trkpt lat="45.62761" lon="6.24349">
        <ele>2031</ele>
        <time>2011-06-12T13:52:18Z</time>
      </trkpt>
      <trkpt lat="45.62761" lon="6.2435">
        <ele>2031</ele>
        <time>2011-06-12T13:52:23Z</time>
      </trkpt>
      <trkpt lat="45.62761" lon="6.2435">
        <ele>2030</ele>
        <time>2011-06-12T13:52:28Z</time>
      </trkpt>
      <trkpt lat="45.62761" lon="6.2435">
        <ele>2030</ele>
        <time>2011-06-12T13:52:33Z</time>
      </trkpt>
      <trkpt lat="45.62761" lon="6.24349">
        <ele>2031</ele>
        <time>2011-06-12T13:52:38Z</time>
      </trkpt>
      <trkpt lat="45.62761" lon="6.2435">
        <ele>2031</ele>
        <time>2011-06-12T13:52:43Z</time>
      </trkpt>
      <trkpt lat="45.62762" lon="6.2435">
        <ele>2030</ele>
        <time>2011-06-12T13:52:48Z</time>
      </trkpt>
      <trkpt lat="45.62762" lon="6.24351">
        <ele>2030</ele>
        <time>2011-06-12T13:52:53Z</time>
      </trkpt>
      <trkpt lat="45.62762" lon="6.2435">
        <ele>2030</ele>
        <time>2011-06-12T13:52:58Z</time>
      </trkpt>
      <trkpt lat="45.62762" lon="6.2435">
        <ele>2030</ele>
        <time>2011-06-12T13:53:03Z</time>
      </trkpt>
      <trkpt lat="45.62761" lon="6.2435">
        <ele>2031</ele>
        <time>2011-06-12T13:53:08Z</time>
      </trkpt>
      <trkpt lat="45.62761" lon="6.2435">
        <ele>2031</ele>
        <time>2011-06-12T13:53:13Z</time>
      </trkpt>
      <trkpt lat="45.62761" lon="6.24349">
        <ele>2031</ele>
        <time>2011-06-12T13:53:18Z</time>
      </trkpt>
      <trkpt lat="45.62761" lon="6.24349">
        <ele>2031</ele>
        <time>2011-06-12T13:53:23Z</time>
      </trkpt>
      <trkpt lat="45.62761" lon="6.24349">
        <ele>2031</ele>
        <time>2011-06-12T13:53:28Z</time>
      </trkpt>
      <trkpt lat="45.62761" lon="6.24349">
        <ele>2031</ele>
        <time>2011-06-12T13:53:33Z</time>
      </trkpt>
      <trkpt lat="45.62761" lon="6.24349">
        <ele>2031</ele>
        <time>2011-06-12T13:53:38Z</time>
      </trkpt>
      <trkpt lat="45.62761" lon="6.24349">
        <ele>2031</ele>
        <time>2011-06-12T13:53:43Z</time>
      </trkpt>
      <trkpt lat="45.62761" lon="6.24349">
        <ele>2031</ele>
        <time>2011-06-12T13:53:48Z</time>
      </trkpt>
      <trkpt lat="45.62761" lon="6.24349">
        <ele>2031</ele>
        <time>2011-06-12T13:53:53Z</time>
      </trkpt>
      <trkpt lat="45.62761" lon="6.24349">
        <ele>2031</ele>
        <time>2011-06-12T13:53:58Z</time>
      </trkpt>
      <trkpt lat="45.62761" lon="6.24349">
        <ele>2031</ele>
        <time>2011-06-12T13:54:03Z</time>
      </trkpt>
      <trkpt lat="45.62761" lon="6.24349">
        <ele>2031</ele>
        <time>2011-06-12T13:54:08Z</time>
      </trkpt>
      <trkpt lat="45.62761" lon="6.2435">
        <ele>2031</ele>
        <time>2011-06-12T13:54:13Z</time>
      </trkpt>
      <trkpt lat="45.62761" lon="6.2435">
        <ele>2031</ele>
        <time>2011-06-12T13:54:18Z</time>
      </trkpt>
      <trkpt lat="45.62761" lon="6.2435">
        <ele>2031</ele>
        <time>2011-06-12T13:54:23Z</time>
      </trkpt>
      <trkpt lat="45.62761" lon="6.2435">
        <ele>2031</ele>
        <time>2011-06-12T13:54:28Z</time>
      </trkpt>
      <trkpt lat="45.62761" lon="6.2435">
        <ele>2031</ele>
        <time>2011-06-12T13:54:33Z</time>
      </trkpt>
      <trkpt lat="45.62761" lon="6.2435">
        <ele>2031</ele>
        <time>2011-06-12T13:54:38Z</time>
      </trkpt>
      <trkpt lat="45.62761" lon="6.2435">
        <ele>2031</ele>
        <time>2011-06-12T13:54:43Z</time>
      </trkpt>
      <trkpt lat="45.62761" lon="6.2435">
        <ele>2031</ele>
        <time>2011-06-12T13:54:48Z</time>
      </trkpt>
      <trkpt lat="45.62761" lon="6.24349">
        <ele>2031</ele>
        <time>2011-06-12T13:54:53Z</time>
      </trkpt>
      <trkpt lat="45.62761" lon="6.24349">
        <ele>2031</ele>
        <time>2011-06-12T13:54:58Z</time>
      </trkpt>
      <trkpt lat="45.62761" lon="6.24349">
        <ele>2031</ele>
        <time>2011-06-12T13:55:03Z</time>
      </trkpt>
      <trkpt lat="45.62761" lon="6.24349">
        <ele>2031</ele>
        <time>2011-06-12T13:55:08Z</time>
      </trkpt>
      <trkpt lat="45.62761" lon="6.2435">
        <ele>2031</ele>
        <time>2011-06-12T13:55:13Z</time>
      </trkpt>
      <trkpt lat="45.62761" lon="6.24353">
        <ele>2029</ele>
        <time>2011-06-12T13:55:18Z</time>
      </trkpt>
      <trkpt lat="45.62761" lon="6.24355">
        <ele>2028</ele>
        <time>2011-06-12T13:55:23Z</time>
      </trkpt>
      <trkpt lat="45.62761" lon="6.24358">
        <ele>2026</ele>
        <time>2011-06-12T13:55:28Z</time>
      </trkpt>
      <trkpt lat="45.62759" lon="6.24362">
        <ele>2024</ele>
        <time>2011-06-12T13:55:33Z</time>
      </trkpt>
      <trkpt lat="45.62758" lon="6.24362">
        <ele>2025</ele>
        <time>2011-06-12T13:55:38Z</time>
      </trkpt>
      <trkpt lat="45.62759" lon="6.24367">
        <ele>2022</ele>
        <time>2011-06-12T13:55:43Z</time>
      </trkpt>
      <trkpt lat="45.6276" lon="6.24371">
        <ele>2020</ele>
        <time>2011-06-12T13:55:48Z</time>
      </trkpt>
      <trkpt lat="45.62761" lon="6.24377">
        <ele>2018</ele>
        <time>2011-06-12T13:55:53Z</time>
      </trkpt>
      <trkpt lat="45.62762" lon="6.24382">
        <ele>2016</ele>
        <time>2011-06-12T13:55:58Z</time>
      </trkpt>
      <trkpt lat="45.62761" lon="6.24387">
        <ele>2015</ele>
        <time>2011-06-12T13:56:03Z</time>
      </trkpt>
      <trkpt lat="45.62763" lon="6.24393">
        <ele>2013</ele>
        <time>2011-06-12T13:56:08Z</time>
      </trkpt>
      <trkpt lat="45.62764" lon="6.244">
        <ele>2012</ele>
        <time>2011-06-12T13:56:13Z</time>
      </trkpt>
      <trkpt lat="45.62765" lon="6.24406">
        <ele>2010</ele>
        <time>2011-06-12T13:56:18Z</time>
      </trkpt>
      <trkpt lat="45.62766" lon="6.2441">
        <ele>2010</ele>
        <time>2011-06-12T13:56:23Z</time>
      </trkpt>
      <trkpt lat="45.62767" lon="6.24413">
        <ele>2010</ele>
        <time>2011-06-12T13:56:28Z</time>
      </trkpt>
      <trkpt lat="45.62767" lon="6.24414">
        <ele>2010</ele>
        <time>2011-06-12T13:56:33Z</time>
      </trkpt>
      <trkpt lat="45.62768" lon="6.24415">
        <ele>2009</ele>
        <time>2011-06-12T13:56:38Z</time>
      </trkpt>
      <trkpt lat="45.62767" lon="6.24415">
        <ele>2009</ele>
        <time>2011-06-12T13:56:43Z</time>
      </trkpt>
      <trkpt lat="45.62769" lon="6.2442">
        <ele>1996</ele>
        <time>2011-06-12T13:56:48Z</time>
      </trkpt>
      <trkpt lat="45.62769" lon="6.24426">
        <ele>1995</ele>
        <time>2011-06-12T13:56:53Z</time>
      </trkpt>
      <trkpt lat="45.62769" lon="6.24431">
        <ele>1994</ele>
        <time>2011-06-12T13:56:58Z</time>
      </trkpt>
      <trkpt lat="45.6277" lon="6.24436">
        <ele>1993</ele>
        <time>2011-06-12T13:57:03Z</time>
      </trkpt>
      <trkpt lat="45.62769" lon="6.2444">
        <ele>1993</ele>
        <time>2011-06-12T13:57:08Z</time>
      </trkpt>
      <trkpt lat="45.62768" lon="6.24443">
        <ele>1992</ele>
        <time>2011-06-12T13:57:13Z</time>
      </trkpt>
      <trkpt lat="45.62767" lon="6.24447">
        <ele>1991</ele>
        <time>2011-06-12T13:57:18Z</time>
      </trkpt>
      <trkpt lat="45.62766" lon="6.24451">
        <ele>1991</ele>
        <time>2011-06-12T13:57:23Z</time>
      </trkpt>
      <trkpt lat="45.62766" lon="6.24455">
        <ele>1990</ele>
        <time>2011-06-12T13:57:28Z</time>
      </trkpt>
      <trkpt lat="45.62766" lon="6.24461">
        <ele>1989</ele>
        <time>2011-06-12T13:57:33Z</time>
      </trkpt>
      <trkpt lat="45.62766" lon="6.24469">
        <ele>1988</ele>
        <time>2011-06-12T13:57:38Z</time>
      </trkpt>
      <trkpt lat="45.62766" lon="6.24473">
        <ele>1987</ele>
        <time>2011-06-12T13:57:43Z</time>
      </trkpt>
      <trkpt lat="45.62766" lon="6.24474">
        <ele>1987</ele>
        <time>2011-06-12T13:57:48Z</time>
      </trkpt>
      <trkpt lat="45.62766" lon="6.24479">
        <ele>1987</ele>
        <time>2011-06-12T13:57:53Z</time>
      </trkpt>
      <trkpt lat="45.62765" lon="6.24485">
        <ele>1986</ele>
        <time>2011-06-12T13:57:58Z</time>
      </trkpt>
      <trkpt lat="45.62765" lon="6.24492">
        <ele>1986</ele>
        <time>2011-06-12T13:58:03Z</time>
      </trkpt>
      <trkpt lat="45.62766" lon="6.24499">
        <ele>1986</ele>
        <time>2011-06-12T13:58:08Z</time>
      </trkpt>
      <trkpt lat="45.62764" lon="6.24503">
        <ele>1978</ele>
        <time>2011-06-12T13:58:13Z</time>
      </trkpt>
      <trkpt lat="45.62764" lon="6.24506">
        <ele>1977</ele>
        <time>2011-06-12T13:58:18Z</time>
      </trkpt>
      <trkpt lat="45.62763" lon="6.24508">
        <ele>1977</ele>
        <time>2011-06-12T13:58:23Z</time>
      </trkpt>
      <trkpt lat="45.62764" lon="6.2451">
        <ele>1976</ele>
        <time>2011-06-12T13:58:28Z</time>
      </trkpt>
      <trkpt lat="45.62764" lon="6.24514">
        <ele>1975</ele>
        <time>2011-06-12T13:58:33Z</time>
      </trkpt>
      <trkpt lat="45.62763" lon="6.24517">
        <ele>1975</ele>
        <time>2011-06-12T13:58:38Z</time>
      </trkpt>
      <trkpt lat="45.62764" lon="6.24518">
        <ele>1974</ele>
        <time>2011-06-12T13:58:43Z</time>
      </trkpt>
      <trkpt lat="45.62764" lon="6.24522">
        <ele>1973</ele>
        <time>2011-06-12T13:58:48Z</time>
      </trkpt>
      <trkpt lat="45.62766" lon="6.24526">
        <ele>1972</ele>
        <time>2011-06-12T13:58:53Z</time>
      </trkpt>
      <trkpt lat="45.62768" lon="6.24531">
        <ele>1971</ele>
        <time>2011-06-12T13:58:58Z</time>
      </trkpt>
      <trkpt lat="45.6277" lon="6.24535">
        <ele>1969</ele>
        <time>2011-06-12T13:59:03Z</time>
      </trkpt>
      <trkpt lat="45.62771" lon="6.24535">
        <ele>1969</ele>
        <time>2011-06-12T13:59:08Z</time>
      </trkpt>
      <trkpt lat="45.62771" lon="6.24536">
        <ele>1969</ele>
        <time>2011-06-12T13:59:13Z</time>
      </trkpt>
      <trkpt lat="45.62772" lon="6.24538">
        <ele>1969</ele>
        <time>2011-06-12T13:59:18Z</time>
      </trkpt>
      <trkpt lat="45.62774" lon="6.24541">
        <ele>1968</ele>
        <time>2011-06-12T13:59:23Z</time>
      </trkpt>
      <trkpt lat="45.62774" lon="6.24544">
        <ele>1968</ele>
        <time>2011-06-12T13:59:28Z</time>
      </trkpt>
      <trkpt lat="45.62778" lon="6.2455">
        <ele>1967</ele>
        <time>2011-06-12T13:59:33Z</time>
      </trkpt>
      <trkpt lat="45.6278" lon="6.24558">
        <ele>1966</ele>
        <time>2011-06-12T13:59:38Z</time>
      </trkpt>
      <trkpt lat="45.62782" lon="6.24563">
        <ele>1965</ele>
        <time>2011-06-12T13:59:43Z</time>
      </trkpt>
      <trkpt lat="45.62784" lon="6.24565">
        <ele>1965</ele>
        <time>2011-06-12T13:59:48Z</time>
      </trkpt>
      <trkpt lat="45.62784" lon="6.24565">
        <ele>1965</ele>
        <time>2011-06-12T13:59:53Z</time>
      </trkpt>
      <trkpt lat="45.62785" lon="6.24565">
        <ele>1965</ele>
        <time>2011-06-12T13:59:58Z</time>
      </trkpt>
      <trkpt lat="45.62784" lon="6.24567">
        <ele>1965</ele>
        <time>2011-06-12T14:00:03Z</time>
      </trkpt>
      <trkpt lat="45.62784" lon="6.24569">
        <ele>1964</ele>
        <time>2011-06-12T14:00:08Z</time>
      </trkpt>
      <trkpt lat="45.62782" lon="6.2457">
        <ele>1964</ele>
        <time>2011-06-12T14:00:13Z</time>
      </trkpt>
      <trkpt lat="45.62783" lon="6.24572">
        <ele>1964</ele>
        <time>2011-06-12T14:00:18Z</time>
      </trkpt>
      <trkpt lat="45.62784" lon="6.24574">
        <ele>1964</ele>
        <time>2011-06-12T14:00:23Z</time>
      </trkpt>
      <trkpt lat="45.62784" lon="6.24576">
        <ele>1964</ele>
        <time>2011-06-12T14:00:28Z</time>
      </trkpt>
      <trkpt lat="45.62782" lon="6.24577">
        <ele>1964</ele>
        <time>2011-06-12T14:00:33Z</time>
      </trkpt>
      <trkpt lat="45.62783" lon="6.2458">
        <ele>1964</ele>
        <time>2011-06-12T14:00:38Z</time>
      </trkpt>
      <trkpt lat="45.62784" lon="6.24581">
        <ele>1964</ele>
        <time>2011-06-12T14:00:43Z</time>
      </trkpt>
      <trkpt lat="45.62782" lon="6.24582">
        <ele>1964</ele>
        <time>2011-06-12T14:00:48Z</time>
      </trkpt>
      <trkpt lat="45.62782" lon="6.24583">
        <ele>1964</ele>
        <time>2011-06-12T14:00:53Z</time>
      </trkpt>
      <trkpt lat="45.62782" lon="6.24585">
        <ele>1949</ele>
        <time>2011-06-12T14:00:58Z</time>
      </trkpt>
      <trkpt lat="45.62783" lon="6.24586">
        <ele>1949</ele>
        <time>2011-06-12T14:01:03Z</time>
      </trkpt>
      <trkpt lat="45.62783" lon="6.24589">
        <ele>1949</ele>
        <time>2011-06-12T14:01:08Z</time>
      </trkpt>
      <trkpt lat="45.62782" lon="6.2459">
        <ele>1949</ele>
        <time>2011-06-12T14:01:13Z</time>
      </trkpt>
      <trkpt lat="45.6278" lon="6.24591">
        <ele>1949</ele>
        <time>2011-06-12T14:01:18Z</time>
      </trkpt>
      <trkpt lat="45.6278" lon="6.24592">
        <ele>1949</ele>
        <time>2011-06-12T14:01:23Z</time>
      </trkpt>
      <trkpt lat="45.62781" lon="6.24591">
        <ele>1949</ele>
        <time>2011-06-12T14:01:28Z</time>
      </trkpt>
      <trkpt lat="45.62781" lon="6.24593">
        <ele>1948</ele>
        <time>2011-06-12T14:01:33Z</time>
      </trkpt>
      <trkpt lat="45.62782" lon="6.24595">
        <ele>1948</ele>
        <time>2011-06-12T14:01:38Z</time>
      </trkpt>
      <trkpt lat="45.6278" lon="6.24597">
        <ele>1948</ele>
        <time>2011-06-12T14:01:43Z</time>
      </trkpt>
      <trkpt lat="45.6278" lon="6.24598">
        <ele>1948</ele>
        <time>2011-06-12T14:01:48Z</time>
      </trkpt>
      <trkpt lat="45.6278" lon="6.246">
        <ele>1948</ele>
        <time>2011-06-12T14:01:53Z</time>
      </trkpt>
      <trkpt lat="45.62781" lon="6.24605">
        <ele>1947</ele>
        <time>2011-06-12T14:01:58Z</time>
      </trkpt>
      <trkpt lat="45.62783" lon="6.24608">
        <ele>1946</ele>
        <time>2011-06-12T14:02:03Z</time>
      </trkpt>
      <trkpt lat="45.62784" lon="6.24612">
        <ele>1945</ele>
        <time>2011-06-12T14:02:08Z</time>
      </trkpt>
      <trkpt lat="45.62786" lon="6.24616">
        <ele>1944</ele>
        <time>2011-06-12T14:02:13Z</time>
      </trkpt>
      <trkpt lat="45.62786" lon="6.24616">
        <ele>1944</ele>
        <time>2011-06-12T14:02:18Z</time>
      </trkpt>
      <trkpt lat="45.62785" lon="6.24619">
        <ele>1944</ele>
        <time>2011-06-12T14:02:23Z</time>
      </trkpt>
      <trkpt lat="45.62787" lon="6.24624">
        <ele>1943</ele>
        <time>2011-06-12T14:02:28Z</time>
      </trkpt>
      <trkpt lat="45.62788" lon="6.24632">
        <ele>1942</ele>
        <time>2011-06-12T14:02:33Z</time>
      </trkpt>
      <trkpt lat="45.62788" lon="6.24638">
        <ele>1941</ele>
        <time>2011-06-12T14:02:38Z</time>
      </trkpt>
      <trkpt lat="45.6279" lon="6.24643">
        <ele>1940</ele>
        <time>2011-06-12T14:02:43Z</time>
      </trkpt>
      <trkpt lat="45.6279" lon="6.24647">
        <ele>1939</ele>
        <time>2011-06-12T14:02:48Z</time>
      </trkpt>
      <trkpt lat="45.62791" lon="6.2465">
        <ele>1938</ele>
        <time>2011-06-12T14:02:53Z</time>
      </trkpt>
      <trkpt lat="45.62791" lon="6.2465">
        <ele>1938</ele>
        <time>2011-06-12T14:02:58Z</time>
      </trkpt>
      <trkpt lat="45.62791" lon="6.24651">
        <ele>1938</ele>
        <time>2011-06-12T14:03:03Z</time>
      </trkpt>
      <trkpt lat="45.62792" lon="6.24652">
        <ele>1938</ele>
        <time>2011-06-12T14:03:08Z</time>
      </trkpt>
      <trkpt lat="45.62791" lon="6.24652">
        <ele>1938</ele>
        <time>2011-06-12T14:03:13Z</time>
      </trkpt>
      <trkpt lat="45.62791" lon="6.24653">
        <ele>1938</ele>
        <time>2011-06-12T14:03:18Z</time>
      </trkpt>
      <trkpt lat="45.62791" lon="6.24654">
        <ele>1938</ele>
        <time>2011-06-12T14:03:23Z</time>
      </trkpt>
      <trkpt lat="45.62791" lon="6.24655">
        <ele>1938</ele>
        <time>2011-06-12T14:03:28Z</time>
      </trkpt>
      <trkpt lat="45.62792" lon="6.24657">
        <ele>1938</ele>
        <time>2011-06-12T14:03:33Z</time>
      </trkpt>
      <trkpt lat="45.62792" lon="6.24657">
        <ele>1938</ele>
        <time>2011-06-12T14:03:38Z</time>
      </trkpt>
      <trkpt lat="45.62792" lon="6.24657">
        <ele>1938</ele>
        <time>2011-06-12T14:03:43Z</time>
      </trkpt>
      <trkpt lat="45.62792" lon="6.24657">
        <ele>1938</ele>
        <time>2011-06-12T14:03:48Z</time>
      </trkpt>
      <trkpt lat="45.62792" lon="6.24657">
        <ele>1938</ele>
        <time>2011-06-12T14:03:53Z</time>
      </trkpt>
      <trkpt lat="45.62792" lon="6.24658">
        <ele>1938</ele>
        <time>2011-06-12T14:03:58Z</time>
      </trkpt>
      <trkpt lat="45.62792" lon="6.24658">
        <ele>1938</ele>
        <time>2011-06-12T14:04:03Z</time>
      </trkpt>
      <trkpt lat="45.62791" lon="6.24658">
        <ele>1938</ele>
        <time>2011-06-12T14:04:08Z</time>
      </trkpt>
      <trkpt lat="45.62791" lon="6.24659">
        <ele>1937</ele>
        <time>2011-06-12T14:04:13Z</time>
      </trkpt>
      <trkpt lat="45.62791" lon="6.24659">
        <ele>1937</ele>
        <time>2011-06-12T14:04:18Z</time>
      </trkpt>
      <trkpt lat="45.62791" lon="6.24659">
        <ele>1937</ele>
        <time>2011-06-12T14:04:23Z</time>
      </trkpt>
      <trkpt lat="45.62791" lon="6.2466">
        <ele>1937</ele>
        <time>2011-06-12T14:04:28Z</time>
      </trkpt>
      <trkpt lat="45.62791" lon="6.2466">
        <ele>1937</ele>
        <time>2011-06-12T14:04:33Z</time>
      </trkpt>
      <trkpt lat="45.62791" lon="6.2466">
        <ele>1937</ele>
        <time>2011-06-12T14:04:38Z</time>
      </trkpt>
      <trkpt lat="45.62791" lon="6.2466">
        <ele>1937</ele>
        <time>2011-06-12T14:04:43Z</time>
      </trkpt>
      <trkpt lat="45.62791" lon="6.24661">
        <ele>1937</ele>
        <time>2011-06-12T14:04:48Z</time>
      </trkpt>
      <trkpt lat="45.62791" lon="6.24661">
        <ele>1937</ele>
        <time>2011-06-12T14:04:53Z</time>
      </trkpt>
      <trkpt lat="45.62791" lon="6.24662">
        <ele>1937</ele>
        <time>2011-06-12T14:04:58Z</time>
      </trkpt>
      <trkpt lat="45.62791" lon="6.24662">
        <ele>1937</ele>
        <time>2011-06-12T14:05:03Z</time>
      </trkpt>
      <trkpt lat="45.62791" lon="6.24662">
        <ele>1937</ele>
        <time>2011-06-12T14:05:08Z</time>
      </trkpt>
      <trkpt lat="45.62791" lon="6.24662">
        <ele>1937</ele>
        <time>2011-06-12T14:05:13Z</time>
      </trkpt>
      <trkpt lat="45.62792" lon="6.24662">
        <ele>1937</ele>
        <time>2011-06-12T14:05:18Z</time>
      </trkpt>
      <trkpt lat="45.62792" lon="6.24663">
        <ele>1937</ele>
        <time>2011-06-12T14:05:23Z</time>
      </trkpt>
      <trkpt lat="45.62792" lon="6.24663">
        <ele>1937</ele>
        <time>2011-06-12T14:05:28Z</time>
      </trkpt>
      <trkpt lat="45.62792" lon="6.24663">
        <ele>1937</ele>
        <time>2011-06-12T14:05:33Z</time>
      </trkpt>
      <trkpt lat="45.62792" lon="6.24663">
        <ele>1937</ele>
        <time>2011-06-12T14:05:38Z</time>
      </trkpt>
      <trkpt lat="45.62792" lon="6.24664">
        <ele>1937</ele>
        <time>2011-06-12T14:05:43Z</time>
      </trkpt>
      <trkpt lat="45.62793" lon="6.24664">
        <ele>1937</ele>
        <time>2011-06-12T14:05:48Z</time>
      </trkpt>
      <trkpt lat="45.62793" lon="6.24663">
        <ele>1937</ele>
        <time>2011-06-12T14:05:53Z</time>
      </trkpt>
      <trkpt lat="45.62793" lon="6.24663">
        <ele>1937</ele>
        <time>2011-06-12T14:05:58Z</time>
      </trkpt>
      <trkpt lat="45.62793" lon="6.24664">
        <ele>1937</ele>
        <time>2011-06-12T14:06:03Z</time>
      </trkpt>
      <trkpt lat="45.62792" lon="6.24664">
        <ele>1937</ele>
        <time>2011-06-12T14:06:08Z</time>
      </trkpt>
      <trkpt lat="45.62793" lon="6.2466">
        <ele>1937</ele>
        <time>2011-06-12T14:06:13Z</time>
      </trkpt>
      <trkpt lat="45.62793" lon="6.24661">
        <ele>1937</ele>
        <time>2011-06-12T14:06:18Z</time>
      </trkpt>
      <trkpt lat="45.62792" lon="6.24665">
        <ele>1937</ele>
        <time>2011-06-12T14:06:23Z</time>
      </trkpt>
      <trkpt lat="45.62793" lon="6.24666">
        <ele>1937</ele>
        <time>2011-06-12T14:06:28Z</time>
      </trkpt>
      <trkpt lat="45.62793" lon="6.24667">
        <ele>1920</ele>
        <time>2011-06-12T14:06:33Z</time>
      </trkpt>
      <trkpt lat="45.62793" lon="6.24668">
        <ele>1920</ele>
        <time>2011-06-12T14:06:38Z</time>
      </trkpt>
      <trkpt lat="45.62793" lon="6.2467">
        <ele>1920</ele>
        <time>2011-06-12T14:06:43Z</time>
      </trkpt>
      <trkpt lat="45.62793" lon="6.24675">
        <ele>1920</ele>
        <time>2011-06-12T14:06:48Z</time>
      </trkpt>
      <trkpt lat="45.62794" lon="6.2468">
        <ele>1919</ele>
        <time>2011-06-12T14:06:53Z</time>
      </trkpt>
      <trkpt lat="45.62795" lon="6.24685">
        <ele>1919</ele>
        <time>2011-06-12T14:06:58Z</time>
      </trkpt>
      <trkpt lat="45.62797" lon="6.2469">
        <ele>1918</ele>
        <time>2011-06-12T14:07:03Z</time>
      </trkpt>
      <trkpt lat="45.628" lon="6.24694">
        <ele>1917</ele>
        <time>2011-06-12T14:07:08Z</time>
      </trkpt>
      <trkpt lat="45.628" lon="6.247">
        <ele>1917</ele>
        <time>2011-06-12T14:07:13Z</time>
      </trkpt>
      <trkpt lat="45.628" lon="6.24709">
        <ele>1916</ele>
        <time>2011-06-12T14:07:18Z</time>
      </trkpt>
      <trkpt lat="45.62802" lon="6.24716">
        <ele>1915</ele>
        <time>2011-06-12T14:07:23Z</time>
      </trkpt>
      <trkpt lat="45.62801" lon="6.24722">
        <ele>1914</ele>
        <time>2011-06-12T14:07:28Z</time>
      </trkpt>
      <trkpt lat="45.628" lon="6.24725">
        <ele>1914</ele>
        <time>2011-06-12T14:07:33Z</time>
      </trkpt>
      <trkpt lat="45.62801" lon="6.2473">
        <ele>1913</ele>
        <time>2011-06-12T14:07:38Z</time>
      </trkpt>
      <trkpt lat="45.62802" lon="6.24734">
        <ele>1913</ele>
        <time>2011-06-12T14:07:43Z</time>
      </trkpt>
      <trkpt lat="45.62803" lon="6.24737">
        <ele>1913</ele>
        <time>2011-06-12T14:07:48Z</time>
      </trkpt>
      <trkpt lat="45.62804" lon="6.24742">
        <ele>1912</ele>
        <time>2011-06-12T14:07:53Z</time>
      </trkpt>
      <trkpt lat="45.62805" lon="6.24748">
        <ele>1912</ele>
        <time>2011-06-12T14:07:58Z</time>
      </trkpt>
      <trkpt lat="45.62807" lon="6.24756">
        <ele>1903</ele>
        <time>2011-06-12T14:08:03Z</time>
      </trkpt>
      <trkpt lat="45.62809" lon="6.24762">
        <ele>1903</ele>
        <time>2011-06-12T14:08:08Z</time>
      </trkpt>
      <trkpt lat="45.6281" lon="6.24767">
        <ele>1903</ele>
        <time>2011-06-12T14:08:13Z</time>
      </trkpt>
      <trkpt lat="45.62812" lon="6.24773">
        <ele>1903</ele>
        <time>2011-06-12T14:08:18Z</time>
      </trkpt>
      <trkpt lat="45.62813" lon="6.24779">
        <ele>1903</ele>
        <time>2011-06-12T14:08:23Z</time>
      </trkpt>
      <trkpt lat="45.62813" lon="6.24784">
        <ele>1903</ele>
        <time>2011-06-12T14:08:28Z</time>
      </trkpt>
      <trkpt lat="45.62815" lon="6.24789">
        <ele>1903</ele>
        <time>2011-06-12T14:08:33Z</time>
      </trkpt>
      <trkpt lat="45.62817" lon="6.24795">
        <ele>1903</ele>
        <time>2011-06-12T14:08:38Z</time>
      </trkpt>
      <trkpt lat="45.62817" lon="6.24801">
        <ele>1903</ele>
        <time>2011-06-12T14:08:43Z</time>
      </trkpt>
      <trkpt lat="45.62816" lon="6.24806">
        <ele>1903</ele>
        <time>2011-06-12T14:08:48Z</time>
      </trkpt>
      <trkpt lat="45.62816" lon="6.24813">
        <ele>1904</ele>
        <time>2011-06-12T14:08:53Z</time>
      </trkpt>
      <trkpt lat="45.62819" lon="6.24818">
        <ele>1905</ele>
        <time>2011-06-12T14:08:58Z</time>
      </trkpt>
      <trkpt lat="45.62821" lon="6.24824">
        <ele>1907</ele>
        <time>2011-06-12T14:09:03Z</time>
      </trkpt>
      <trkpt lat="45.62824" lon="6.24832">
        <ele>1909</ele>
        <time>2011-06-12T14:09:08Z</time>
      </trkpt>
      <trkpt lat="45.62827" lon="6.24839">
        <ele>1907</ele>
        <time>2011-06-12T14:09:13Z</time>
      </trkpt>
      <trkpt lat="45.62829" lon="6.24844">
        <ele>1905</ele>
        <time>2011-06-12T14:09:18Z</time>
      </trkpt>
      <trkpt lat="45.62831" lon="6.24851">
        <ele>1902</ele>
        <time>2011-06-12T14:09:23Z</time>
      </trkpt>
      <trkpt lat="45.62834" lon="6.24857">
        <ele>1908</ele>
        <time>2011-06-12T14:09:28Z</time>
      </trkpt>
      <trkpt lat="45.62836" lon="6.24863">
        <ele>1908</ele>
        <time>2011-06-12T14:09:33Z</time>
      </trkpt>
      <trkpt lat="45.62837" lon="6.24867">
        <ele>1907</ele>
        <time>2011-06-12T14:09:38Z</time>
      </trkpt>
      <trkpt lat="45.62838" lon="6.2487">
        <ele>1907</ele>
        <time>2011-06-12T14:09:43Z</time>
      </trkpt>
      <trkpt lat="45.62838" lon="6.24875">
        <ele>1907</ele>
        <time>2011-06-12T14:09:48Z</time>
      </trkpt>
      <trkpt lat="45.62839" lon="6.24881">
        <ele>1907</ele>
        <time>2011-06-12T14:09:53Z</time>
      </trkpt>
      <trkpt lat="45.62839" lon="6.24886">
        <ele>1907</ele>
        <time>2011-06-12T14:09:58Z</time>
      </trkpt>
      <trkpt lat="45.6284" lon="6.24891">
        <ele>1907</ele>
        <time>2011-06-12T14:10:03Z</time>
      </trkpt>
      <trkpt lat="45.62841" lon="6.24895">
        <ele>1907</ele>
        <time>2011-06-12T14:10:08Z</time>
      </trkpt>
      <trkpt lat="45.62842" lon="6.249">
        <ele>1907</ele>
        <time>2011-06-12T14:10:13Z</time>
      </trkpt>
      <trkpt lat="45.62845" lon="6.24903">
        <ele>1907</ele>
        <time>2011-06-12T14:10:18Z</time>
      </trkpt>
      <trkpt lat="45.62846" lon="6.24909">
        <ele>1907</ele>
        <time>2011-06-12T14:10:23Z</time>
      </trkpt>
      <trkpt lat="45.62852" lon="6.24913">
        <ele>1907</ele>
        <time>2011-06-12T14:10:28Z</time>
      </trkpt>
      <trkpt lat="45.62857" lon="6.24917">
        <ele>1905</ele>
        <time>2011-06-12T14:10:33Z</time>
      </trkpt>
      <trkpt lat="45.62861" lon="6.24919">
        <ele>1905</ele>
        <time>2011-06-12T14:10:38Z</time>
      </trkpt>
      <trkpt lat="45.62865" lon="6.24921">
        <ele>1905</ele>
        <time>2011-06-12T14:10:43Z</time>
      </trkpt>
      <trkpt lat="45.62869" lon="6.24924">
        <ele>1905</ele>
        <time>2011-06-12T14:10:48Z</time>
      </trkpt>
      <trkpt lat="45.62873" lon="6.24926">
        <ele>1905</ele>
        <time>2011-06-12T14:10:53Z</time>
      </trkpt>
      <trkpt lat="45.62876" lon="6.24929">
        <ele>1905</ele>
        <time>2011-06-12T14:10:58Z</time>
      </trkpt>
      <trkpt lat="45.62879" lon="6.24934">
        <ele>1904</ele>
        <time>2011-06-12T14:11:03Z</time>
      </trkpt>
      <trkpt lat="45.62885" lon="6.24937">
        <ele>1905</ele>
        <time>2011-06-12T14:11:08Z</time>
      </trkpt>
      <trkpt lat="45.62891" lon="6.24942">
        <ele>1905</ele>
        <time>2011-06-12T14:11:13Z</time>
      </trkpt>
      <trkpt lat="45.62896" lon="6.24945">
        <ele>1905</ele>
        <time>2011-06-12T14:11:18Z</time>
      </trkpt>
      <trkpt lat="45.62901" lon="6.24948">
        <ele>1906</ele>
        <time>2011-06-12T14:11:23Z</time>
      </trkpt>
      <trkpt lat="45.62902" lon="6.24948">
        <ele>1906</ele>
        <time>2011-06-12T14:11:28Z</time>
      </trkpt>
      <trkpt lat="45.62901" lon="6.2495">
        <ele>1906</ele>
        <time>2011-06-12T14:11:33Z</time>
      </trkpt>
      <trkpt lat="45.62903" lon="6.24952">
        <ele>1906</ele>
        <time>2011-06-12T14:11:38Z</time>
      </trkpt>
      <trkpt lat="45.62904" lon="6.24953">
        <ele>1906</ele>
        <time>2011-06-12T14:11:43Z</time>
      </trkpt>
      <trkpt lat="45.62906" lon="6.24955">
        <ele>1906</ele>
        <time>2011-06-12T14:11:48Z</time>
      </trkpt>
      <trkpt lat="45.62909" lon="6.24957">
        <ele>1906</ele>
        <time>2011-06-12T14:11:53Z</time>
      </trkpt>
      <trkpt lat="45.62911" lon="6.24962">
        <ele>1906</ele>
        <time>2011-06-12T14:11:58Z</time>
      </trkpt>
      <trkpt lat="45.62916" lon="6.24969">
        <ele>1907</ele>
        <time>2011-06-12T14:12:03Z</time>
      </trkpt>
      <trkpt lat="45.62919" lon="6.24976">
        <ele>1906</ele>
        <time>2011-06-12T14:12:08Z</time>
      </trkpt>
      <trkpt lat="45.62923" lon="6.24983">
        <ele>1908</ele>
        <time>2011-06-12T14:12:13Z</time>
      </trkpt>
      <trkpt lat="45.62926" lon="6.24987">
        <ele>1908</ele>
        <time>2011-06-12T14:12:18Z</time>
      </trkpt>
      <trkpt lat="45.6293" lon="6.24989">
        <ele>1908</ele>
        <time>2011-06-12T14:12:23Z</time>
      </trkpt>
      <trkpt lat="45.62932" lon="6.24992">
        <ele>1908</ele>
        <time>2011-06-12T14:12:28Z</time>
      </trkpt>
      <trkpt lat="45.62935" lon="6.24996">
        <ele>1907</ele>
        <time>2011-06-12T14:12:33Z</time>
      </trkpt>
      <trkpt lat="45.6294" lon="6.25002">
        <ele>1906</ele>
        <time>2011-06-12T14:12:38Z</time>
      </trkpt>
      <trkpt lat="45.62943" lon="6.25006">
        <ele>1904</ele>
        <time>2011-06-12T14:12:43Z</time>
      </trkpt>
      <trkpt lat="45.62946" lon="6.25009">
        <ele>1903</ele>
        <time>2011-06-12T14:12:48Z</time>
      </trkpt>
      <trkpt lat="45.6295" lon="6.25012">
        <ele>1902</ele>
        <time>2011-06-12T14:12:53Z</time>
      </trkpt>
      <trkpt lat="45.62954" lon="6.25012">
        <ele>1902</ele>
        <time>2011-06-12T14:12:58Z</time>
      </trkpt>
      <trkpt lat="45.62959" lon="6.25014">
        <ele>1901</ele>
        <time>2011-06-12T14:13:03Z</time>
      </trkpt>
      <trkpt lat="45.62963" lon="6.25015">
        <ele>1901</ele>
        <time>2011-06-12T14:13:08Z</time>
      </trkpt>
      <trkpt lat="45.62969" lon="6.25017">
        <ele>1900</ele>
        <time>2011-06-12T14:13:13Z</time>
      </trkpt>
      <trkpt lat="45.62971" lon="6.25021">
        <ele>1900</ele>
        <time>2011-06-12T14:13:18Z</time>
      </trkpt>
      <trkpt lat="45.62975" lon="6.25021">
        <ele>1900</ele>
        <time>2011-06-12T14:13:23Z</time>
      </trkpt>
      <trkpt lat="45.62979" lon="6.25021">
        <ele>1899</ele>
        <time>2011-06-12T14:13:28Z</time>
      </trkpt>
      <trkpt lat="45.62983" lon="6.25022">
        <ele>1899</ele>
        <time>2011-06-12T14:13:33Z</time>
      </trkpt>
      <trkpt lat="45.62986" lon="6.25024">
        <ele>1899</ele>
        <time>2011-06-12T14:13:38Z</time>
      </trkpt>
      <trkpt lat="45.62989" lon="6.25027">
        <ele>1899</ele>
        <time>2011-06-12T14:13:43Z</time>
      </trkpt>
      <trkpt lat="45.62992" lon="6.25028">
        <ele>1899</ele>
        <time>2011-06-12T14:13:48Z</time>
      </trkpt>
      <trkpt lat="45.62996" lon="6.2503">
        <ele>1899</ele>
        <time>2011-06-12T14:13:53Z</time>
      </trkpt>
      <trkpt lat="45.62999" lon="6.25032">
        <ele>1899</ele>
        <time>2011-06-12T14:13:58Z</time>
      </trkpt>
      <trkpt lat="45.63001" lon="6.25033">
        <ele>1892</ele>
        <time>2011-06-12T14:14:03Z</time>
      </trkpt>
      <trkpt lat="45.63004" lon="6.25034">
        <ele>1892</ele>
        <time>2011-06-12T14:14:08Z</time>
      </trkpt>
      <trkpt lat="45.63007" lon="6.25037">
        <ele>1892</ele>
        <time>2011-06-12T14:14:13Z</time>
      </trkpt>
      <trkpt lat="45.63011" lon="6.2504">
        <ele>1892</ele>
        <time>2011-06-12T14:14:18Z</time>
      </trkpt>
      <trkpt lat="45.63014" lon="6.25044">
        <ele>1892</ele>
        <time>2011-06-12T14:14:23Z</time>
      </trkpt>
      <trkpt lat="45.63018" lon="6.25047">
        <ele>1892</ele>
        <time>2011-06-12T14:14:28Z</time>
      </trkpt>
      <trkpt lat="45.63021" lon="6.2505">
        <ele>1892</ele>
        <time>2011-06-12T14:14:33Z</time>
      </trkpt>
      <trkpt lat="45.63026" lon="6.25053">
        <ele>1891</ele>
        <time>2011-06-12T14:14:38Z</time>
      </trkpt>
      <trkpt lat="45.6303" lon="6.25056">
        <ele>1891</ele>
        <time>2011-06-12T14:14:43Z</time>
      </trkpt>
      <trkpt lat="45.63035" lon="6.25058">
        <ele>1891</ele>
        <time>2011-06-12T14:14:48Z</time>
      </trkpt>
      <trkpt lat="45.6304" lon="6.25063">
        <ele>1891</ele>
        <time>2011-06-12T14:14:53Z</time>
      </trkpt>
      <trkpt lat="45.63042" lon="6.25065">
        <ele>1891</ele>
        <time>2011-06-12T14:14:58Z</time>
      </trkpt>
      <trkpt lat="45.63046" lon="6.25068">
        <ele>1891</ele>
        <time>2011-06-12T14:15:03Z</time>
      </trkpt>
      <trkpt lat="45.63049" lon="6.2507">
        <ele>1891</ele>
        <time>2011-06-12T14:15:08Z</time>
      </trkpt>
      <trkpt lat="45.63053" lon="6.25072">
        <ele>1891</ele>
        <time>2011-06-12T14:15:13Z</time>
      </trkpt>
      <trkpt lat="45.63058" lon="6.25076">
        <ele>1891</ele>
        <time>2011-06-12T14:15:18Z</time>
      </trkpt>
      <trkpt lat="45.63064" lon="6.25079">
        <ele>1892</ele>
        <time>2011-06-12T14:15:23Z</time>
      </trkpt>
      <trkpt lat="45.63067" lon="6.25086">
        <ele>1893</ele>
        <time>2011-06-12T14:15:28Z</time>
      </trkpt>
      <trkpt lat="45.63069" lon="6.25088">
        <ele>1893</ele>
        <time>2011-06-12T14:15:33Z</time>
      </trkpt>
      <trkpt lat="45.6307" lon="6.25089">
        <ele>1893</ele>
        <time>2011-06-12T14:15:38Z</time>
      </trkpt>
      <trkpt lat="45.63072" lon="6.25091">
        <ele>1893</ele>
        <time>2011-06-12T14:15:43Z</time>
      </trkpt>
      <trkpt lat="45.63074" lon="6.25093">
        <ele>1893</ele>
        <time>2011-06-12T14:15:48Z</time>
      </trkpt>
      <trkpt lat="45.63074" lon="6.25093">
        <ele>1893</ele>
        <time>2011-06-12T14:15:53Z</time>
      </trkpt>
      <trkpt lat="45.63074" lon="6.25093">
        <ele>1893</ele>
        <time>2011-06-12T14:15:58Z</time>
      </trkpt>
      <trkpt lat="45.63074" lon="6.25094">
        <ele>1893</ele>
        <time>2011-06-12T14:16:03Z</time>
      </trkpt>
      <trkpt lat="45.63074" lon="6.25094">
        <ele>1893</ele>
        <time>2011-06-12T14:16:08Z</time>
      </trkpt>
      <trkpt lat="45.63074" lon="6.25094">
        <ele>1893</ele>
        <time>2011-06-12T14:16:13Z</time>
      </trkpt>
      <trkpt lat="45.63074" lon="6.25094">
        <ele>1893</ele>
        <time>2011-06-12T14:16:18Z</time>
      </trkpt>
      <trkpt lat="45.63074" lon="6.25095">
        <ele>1893</ele>
        <time>2011-06-12T14:16:23Z</time>
      </trkpt>
      <trkpt lat="45.63074" lon="6.25095">
        <ele>1893</ele>
        <time>2011-06-12T14:16:28Z</time>
      </trkpt>
      <trkpt lat="45.63075" lon="6.25095">
        <ele>1893</ele>
        <time>2011-06-12T14:16:33Z</time>
      </trkpt>
      <trkpt lat="45.63075" lon="6.25095">
        <ele>1893</ele>
        <time>2011-06-12T14:16:38Z</time>
      </trkpt>
      <trkpt lat="45.63075" lon="6.25096">
        <ele>1893</ele>
        <time>2011-06-12T14:16:43Z</time>
      </trkpt>
      <trkpt lat="45.63075" lon="6.25097">
        <ele>1893</ele>
        <time>2011-06-12T14:16:48Z</time>
      </trkpt>
      <trkpt lat="45.63075" lon="6.25098">
        <ele>1892</ele>
        <time>2011-06-12T14:16:53Z</time>
      </trkpt>
      <trkpt lat="45.63076" lon="6.25098">
        <ele>1892</ele>
        <time>2011-06-12T14:16:58Z</time>
      </trkpt>
      <trkpt lat="45.63076" lon="6.25098">
        <ele>1892</ele>
        <time>2011-06-12T14:17:03Z</time>
      </trkpt>
      <trkpt lat="45.63075" lon="6.25099">
        <ele>1892</ele>
        <time>2011-06-12T14:17:08Z</time>
      </trkpt>
      <trkpt lat="45.63075" lon="6.25099">
        <ele>1892</ele>
        <time>2011-06-12T14:17:13Z</time>
      </trkpt>
      <trkpt lat="45.63075" lon="6.25098">
        <ele>1892</ele>
        <time>2011-06-12T14:17:18Z</time>
      </trkpt>
      <trkpt lat="45.63075" lon="6.25098">
        <ele>1892</ele>
        <time>2011-06-12T14:17:23Z</time>
      </trkpt>
      <trkpt lat="45.63075" lon="6.25098">
        <ele>1892</ele>
        <time>2011-06-12T14:17:28Z</time>
      </trkpt>
      <trkpt lat="45.63076" lon="6.25098">
        <ele>1892</ele>
        <time>2011-06-12T14:17:33Z</time>
      </trkpt>
      <trkpt lat="45.63076" lon="6.25099">
        <ele>1892</ele>
        <time>2011-06-12T14:17:38Z</time>
      </trkpt>
      <trkpt lat="45.63076" lon="6.25101">
        <ele>1892</ele>
        <time>2011-06-12T14:17:43Z</time>
      </trkpt>
      <trkpt lat="45.63076" lon="6.25104">
        <ele>1892</ele>
        <time>2011-06-12T14:17:48Z</time>
      </trkpt>
      <trkpt lat="45.63076" lon="6.25105">
        <ele>1892</ele>
        <time>2011-06-12T14:17:53Z</time>
      </trkpt>
      <trkpt lat="45.63076" lon="6.25104">
        <ele>1892</ele>
        <time>2011-06-12T14:17:58Z</time>
      </trkpt>
      <trkpt lat="45.63076" lon="6.25103">
        <ele>1892</ele>
        <time>2011-06-12T14:18:03Z</time>
      </trkpt>
      <trkpt lat="45.63076" lon="6.25103">
        <ele>1892</ele>
        <time>2011-06-12T14:18:08Z</time>
      </trkpt>
      <trkpt lat="45.63076" lon="6.25102">
        <ele>1892</ele>
        <time>2011-06-12T14:18:13Z</time>
      </trkpt>
      <trkpt lat="45.63076" lon="6.25102">
        <ele>1892</ele>
        <time>2011-06-12T14:18:18Z</time>
      </trkpt>
      <trkpt lat="45.63075" lon="6.25102">
        <ele>1892</ele>
        <time>2011-06-12T14:18:23Z</time>
      </trkpt>
      <trkpt lat="45.63075" lon="6.25102">
        <ele>1892</ele>
        <time>2011-06-12T14:18:28Z</time>
      </trkpt>
      <trkpt lat="45.63076" lon="6.25101">
        <ele>1892</ele>
        <time>2011-06-12T14:18:33Z</time>
      </trkpt>
      <trkpt lat="45.63076" lon="6.25101">
        <ele>1892</ele>
        <time>2011-06-12T14:18:38Z</time>
      </trkpt>
      <trkpt lat="45.63076" lon="6.25101">
        <ele>1892</ele>
        <time>2011-06-12T14:18:43Z</time>
      </trkpt>
      <trkpt lat="45.63076" lon="6.25101">
        <ele>1892</ele>
        <time>2011-06-12T14:18:48Z</time>
      </trkpt>
      <trkpt lat="45.63076" lon="6.25101">
        <ele>1892</ele>
        <time>2011-06-12T14:18:53Z</time>
      </trkpt>
      <trkpt lat="45.63076" lon="6.251">
        <ele>1892</ele>
        <time>2011-06-12T14:18:58Z</time>
      </trkpt>
      <trkpt lat="45.63078" lon="6.25101">
        <ele>1892</ele>
        <time>2011-06-12T14:19:03Z</time>
      </trkpt>
      <trkpt lat="45.63078" lon="6.25103">
        <ele>1892</ele>
        <time>2011-06-12T14:19:08Z</time>
      </trkpt>
      <trkpt lat="45.6308" lon="6.25107">
        <ele>1892</ele>
        <time>2011-06-12T14:19:13Z</time>
      </trkpt>
      <trkpt lat="45.6308" lon="6.2511">
        <ele>1891</ele>
        <time>2011-06-12T14:19:18Z</time>
      </trkpt>
      <trkpt lat="45.63081" lon="6.25112">
        <ele>1891</ele>
        <time>2011-06-12T14:19:23Z</time>
      </trkpt>
      <trkpt lat="45.63081" lon="6.25115">
        <ele>1891</ele>
        <time>2011-06-12T14:19:28Z</time>
      </trkpt>
      <trkpt lat="45.63082" lon="6.25119">
        <ele>1891</ele>
        <time>2011-06-12T14:19:33Z</time>
      </trkpt>
      <trkpt lat="45.63084" lon="6.25124">
        <ele>1889</ele>
        <time>2011-06-12T14:19:38Z</time>
      </trkpt>
      <trkpt lat="45.63085" lon="6.25128">
        <ele>1889</ele>
        <time>2011-06-12T14:19:43Z</time>
      </trkpt>
      <trkpt lat="45.63086" lon="6.25128">
        <ele>1889</ele>
        <time>2011-06-12T14:19:48Z</time>
      </trkpt>
      <trkpt lat="45.63087" lon="6.25132">
        <ele>1890</ele>
        <time>2011-06-12T14:19:53Z</time>
      </trkpt>
      <trkpt lat="45.63088" lon="6.25135">
        <ele>1890</ele>
        <time>2011-06-12T14:19:58Z</time>
      </trkpt>
      <trkpt lat="45.6309" lon="6.25139">
        <ele>1890</ele>
        <time>2011-06-12T14:20:03Z</time>
      </trkpt>
      <trkpt lat="45.63092" lon="6.25143">
        <ele>1890</ele>
        <time>2011-06-12T14:20:08Z</time>
      </trkpt>
      <trkpt lat="45.63093" lon="6.25146">
        <ele>1891</ele>
        <time>2011-06-12T14:20:13Z</time>
      </trkpt>
      <trkpt lat="45.63095" lon="6.25147">
        <ele>1891</ele>
        <time>2011-06-12T14:20:18Z</time>
      </trkpt>
      <trkpt lat="45.63096" lon="6.2515">
        <ele>1891</ele>
        <time>2011-06-12T14:20:23Z</time>
      </trkpt>
      <trkpt lat="45.63098" lon="6.25153">
        <ele>1891</ele>
        <time>2011-06-12T14:20:28Z</time>
      </trkpt>
      <trkpt lat="45.63103" lon="6.25156">
        <ele>1890</ele>
        <time>2011-06-12T14:20:33Z</time>
      </trkpt>
      <trkpt lat="45.63108" lon="6.25159">
        <ele>1890</ele>
        <time>2011-06-12T14:20:38Z</time>
      </trkpt>
      <trkpt lat="45.63111" lon="6.25163">
        <ele>1889</ele>
        <time>2011-06-12T14:20:43Z</time>
      </trkpt>
      <trkpt lat="45.63114" lon="6.25165">
        <ele>1889</ele>
        <time>2011-06-12T14:20:48Z</time>
      </trkpt>
      <trkpt lat="45.63116" lon="6.25167">
        <ele>1885</ele>
        <time>2011-06-12T14:20:53Z</time>
      </trkpt>
      <trkpt lat="45.63118" lon="6.25169">
        <ele>1885</ele>
        <time>2011-06-12T14:20:58Z</time>
      </trkpt>
      <trkpt lat="45.6312" lon="6.25172">
        <ele>1884</ele>
        <time>2011-06-12T14:21:03Z</time>
      </trkpt>
      <trkpt lat="45.63121" lon="6.25173">
        <ele>1884</ele>
        <time>2011-06-12T14:21:08Z</time>
      </trkpt>
      <trkpt lat="45.63122" lon="6.25176">
        <ele>1884</ele>
        <time>2011-06-12T14:21:13Z</time>
      </trkpt>
      <trkpt lat="45.63124" lon="6.25178">
        <ele>1883</ele>
        <time>2011-06-12T14:21:18Z</time>
      </trkpt>
      <trkpt lat="45.63125" lon="6.25181">
        <ele>1883</ele>
        <time>2011-06-12T14:21:23Z</time>
      </trkpt>
      <trkpt lat="45.63127" lon="6.25184">
        <ele>1883</ele>
        <time>2011-06-12T14:21:28Z</time>
      </trkpt>
      <trkpt lat="45.6313" lon="6.25186">
        <ele>1882</ele>
        <time>2011-06-12T14:21:33Z</time>
      </trkpt>
      <trkpt lat="45.63134" lon="6.25187">
        <ele>1882</ele>
        <time>2011-06-12T14:21:38Z</time>
      </trkpt>
      <trkpt lat="45.63138" lon="6.25188">
        <ele>1882</ele>
        <time>2011-06-12T14:21:43Z</time>
      </trkpt>
      <trkpt lat="45.63142" lon="6.25189">
        <ele>1882</ele>
        <time>2011-06-12T14:21:48Z</time>
      </trkpt>
      <trkpt lat="45.63145" lon="6.2519">
        <ele>1882</ele>
        <time>2011-06-12T14:21:53Z</time>
      </trkpt>
      <trkpt lat="45.63147" lon="6.25191">
        <ele>1882</ele>
        <time>2011-06-12T14:21:58Z</time>
      </trkpt>
      <trkpt lat="45.63149" lon="6.25192">
        <ele>1882</ele>
        <time>2011-06-12T14:22:03Z</time>
      </trkpt>
      <trkpt lat="45.63152" lon="6.25192">
        <ele>1882</ele>
        <time>2011-06-12T14:22:08Z</time>
      </trkpt>
      <trkpt lat="45.63155" lon="6.25193">
        <ele>1882</ele>
        <time>2011-06-12T14:22:13Z</time>
      </trkpt>
      <trkpt lat="45.63157" lon="6.25194">
        <ele>1882</ele>
        <time>2011-06-12T14:22:18Z</time>
      </trkpt>
      <trkpt lat="45.63159" lon="6.25193">
        <ele>1883</ele>
        <time>2011-06-12T14:22:23Z</time>
      </trkpt>
      <trkpt lat="45.63161" lon="6.25195">
        <ele>1883</ele>
        <time>2011-06-12T14:22:28Z</time>
      </trkpt>
      <trkpt lat="45.63162" lon="6.25195">
        <ele>1883</ele>
        <time>2011-06-12T14:22:33Z</time>
      </trkpt>
      <trkpt lat="45.63162" lon="6.25195">
        <ele>1882</ele>
        <time>2011-06-12T14:22:38Z</time>
      </trkpt>
      <trkpt lat="45.63164" lon="6.25195">
        <ele>1883</ele>
        <time>2011-06-12T14:22:43Z</time>
      </trkpt>
      <trkpt lat="45.63165" lon="6.25196">
        <ele>1882</ele>
        <time>2011-06-12T14:22:48Z</time>
      </trkpt>
      <trkpt lat="45.63166" lon="6.25196">
        <ele>1883</ele>
        <time>2011-06-12T14:22:53Z</time>
      </trkpt>
      <trkpt lat="45.63168" lon="6.25196">
        <ele>1879</ele>
        <time>2011-06-12T14:22:58Z</time>
      </trkpt>
      <trkpt lat="45.63171" lon="6.25196">
        <ele>1879</ele>
        <time>2011-06-12T14:23:03Z</time>
      </trkpt>
      <trkpt lat="45.63175" lon="6.25196">
        <ele>1878</ele>
        <time>2011-06-12T14:23:08Z</time>
      </trkpt>
      <trkpt lat="45.6318" lon="6.25195">
        <ele>1878</ele>
        <time>2011-06-12T14:23:13Z</time>
      </trkpt>
      <trkpt lat="45.63184" lon="6.25195">
        <ele>1877</ele>
        <time>2011-06-12T14:23:18Z</time>
      </trkpt>
      <trkpt lat="45.63188" lon="6.25196">
        <ele>1877</ele>
        <time>2011-06-12T14:23:23Z</time>
      </trkpt>
      <trkpt lat="45.6319" lon="6.25195">
        <ele>1877</ele>
        <time>2011-06-12T14:23:28Z</time>
      </trkpt>
      <trkpt lat="45.63191" lon="6.25196">
        <ele>1876</ele>
        <time>2011-06-12T14:23:33Z</time>
      </trkpt>
      <trkpt lat="45.63193" lon="6.25197">
        <ele>1876</ele>
        <time>2011-06-12T14:23:38Z</time>
      </trkpt>
      <trkpt lat="45.63196" lon="6.25198">
        <ele>1876</ele>
        <time>2011-06-12T14:23:43Z</time>
      </trkpt>
      <trkpt lat="45.63198" lon="6.25199">
        <ele>1875</ele>
        <time>2011-06-12T14:23:48Z</time>
      </trkpt>
      <trkpt lat="45.63201" lon="6.252">
        <ele>1875</ele>
        <time>2011-06-12T14:23:53Z</time>
      </trkpt>
      <trkpt lat="45.63203" lon="6.252">
        <ele>1875</ele>
        <time>2011-06-12T14:23:58Z</time>
      </trkpt>
      <trkpt lat="45.63205" lon="6.252">
        <ele>1874</ele>
        <time>2011-06-12T14:24:03Z</time>
      </trkpt>
      <trkpt lat="45.63207" lon="6.252">
        <ele>1874</ele>
        <time>2011-06-12T14:24:08Z</time>
      </trkpt>
      <trkpt lat="45.6321" lon="6.25199">
        <ele>1874</ele>
        <time>2011-06-12T14:24:13Z</time>
      </trkpt>
      <trkpt lat="45.63213" lon="6.25198">
        <ele>1873</ele>
        <time>2011-06-12T14:24:18Z</time>
      </trkpt>
      <trkpt lat="45.63216" lon="6.25198">
        <ele>1873</ele>
        <time>2011-06-12T14:24:23Z</time>
      </trkpt>
      <trkpt lat="45.63219" lon="6.25197">
        <ele>1872</ele>
        <time>2011-06-12T14:24:28Z</time>
      </trkpt>
      <trkpt lat="45.63222" lon="6.25198">
        <ele>1872</ele>
        <time>2011-06-12T14:24:33Z</time>
      </trkpt>
      <trkpt lat="45.63224" lon="6.25197">
        <ele>1871</ele>
        <time>2011-06-12T14:24:38Z</time>
      </trkpt>
      <trkpt lat="45.63228" lon="6.25196">
        <ele>1871</ele>
        <time>2011-06-12T14:24:43Z</time>
      </trkpt>
      <trkpt lat="45.63232" lon="6.25196">
        <ele>1870</ele>
        <time>2011-06-12T14:24:48Z</time>
      </trkpt>
      <trkpt lat="45.63236" lon="6.25196">
        <ele>1870</ele>
        <time>2011-06-12T14:24:53Z</time>
      </trkpt>
      <trkpt lat="45.6324" lon="6.25197">
        <ele>1869</ele>
        <time>2011-06-12T14:24:58Z</time>
      </trkpt>
      <trkpt lat="45.63243" lon="6.25197">
        <ele>1869</ele>
        <time>2011-06-12T14:25:03Z</time>
      </trkpt>
      <trkpt lat="45.63247" lon="6.25197">
        <ele>1869</ele>
        <time>2011-06-12T14:25:08Z</time>
      </trkpt>
      <trkpt lat="45.6325" lon="6.25197">
        <ele>1852</ele>
        <time>2011-06-12T14:25:13Z</time>
      </trkpt>
      <trkpt lat="45.63254" lon="6.25197">
        <ele>1852</ele>
        <time>2011-06-12T14:25:18Z</time>
      </trkpt>
      <trkpt lat="45.63257" lon="6.25197">
        <ele>1852</ele>
        <time>2011-06-12T14:25:23Z</time>
      </trkpt>
      <trkpt lat="45.6326" lon="6.25197">
        <ele>1851</ele>
        <time>2011-06-12T14:25:28Z</time>
      </trkpt>
      <trkpt lat="45.63264" lon="6.25197">
        <ele>1851</ele>
        <time>2011-06-12T14:25:33Z</time>
      </trkpt>
      <trkpt lat="45.63267" lon="6.25197">
        <ele>1851</ele>
        <time>2011-06-12T14:25:38Z</time>
      </trkpt>
      <trkpt lat="45.63271" lon="6.25197">
        <ele>1850</ele>
        <time>2011-06-12T14:25:43Z</time>
      </trkpt>
      <trkpt lat="45.63275" lon="6.25196">
        <ele>1849</ele>
        <time>2011-06-12T14:25:48Z</time>
      </trkpt>
      <trkpt lat="45.63279" lon="6.25196">
        <ele>1849</ele>
        <time>2011-06-12T14:25:53Z</time>
      </trkpt>
      <trkpt lat="45.63279" lon="6.25197">
        <ele>1849</ele>
        <time>2011-06-12T14:25:58Z</time>
      </trkpt>
      <trkpt lat="45.63282" lon="6.25196">
        <ele>1848</ele>
        <time>2011-06-12T14:26:03Z</time>
      </trkpt>
      <trkpt lat="45.63286" lon="6.25196">
        <ele>1847</ele>
        <time>2011-06-12T14:26:08Z</time>
      </trkpt>
      <trkpt lat="45.63289" lon="6.25196">
        <ele>1847</ele>
        <time>2011-06-12T14:26:13Z</time>
      </trkpt>
      <trkpt lat="45.63292" lon="6.25195">
        <ele>1846</ele>
        <time>2011-06-12T14:26:18Z</time>
      </trkpt>
      <trkpt lat="45.63296" lon="6.25194">
        <ele>1845</ele>
        <time>2011-06-12T14:26:23Z</time>
      </trkpt>
      <trkpt lat="45.63301" lon="6.25194">
        <ele>1844</ele>
        <time>2011-06-12T14:26:28Z</time>
      </trkpt>
      <trkpt lat="45.63303" lon="6.25194">
        <ele>1844</ele>
        <time>2011-06-12T14:26:33Z</time>
      </trkpt>
      <trkpt lat="45.63305" lon="6.25194">
        <ele>1843</ele>
        <time>2011-06-12T14:26:38Z</time>
      </trkpt>
      <trkpt lat="45.63307" lon="6.25195">
        <ele>1843</ele>
        <time>2011-06-12T14:26:43Z</time>
      </trkpt>
      <trkpt lat="45.6331" lon="6.25195">
        <ele>1842</ele>
        <time>2011-06-12T14:26:48Z</time>
      </trkpt>
      <trkpt lat="45.63314" lon="6.25196">
        <ele>1842</ele>
        <time>2011-06-12T14:26:53Z</time>
      </trkpt>
      <trkpt lat="45.63316" lon="6.25197">
        <ele>1841</ele>
        <time>2011-06-12T14:26:58Z</time>
      </trkpt>
      <trkpt lat="45.63319" lon="6.25199">
        <ele>1841</ele>
        <time>2011-06-12T14:27:03Z</time>
      </trkpt>
      <trkpt lat="45.63322" lon="6.25199">
        <ele>1841</ele>
        <time>2011-06-12T14:27:08Z</time>
      </trkpt>
      <trkpt lat="45.63325" lon="6.25201">
        <ele>1841</ele>
        <time>2011-06-12T14:27:13Z</time>
      </trkpt>
      <trkpt lat="45.63328" lon="6.25203">
        <ele>1841</ele>
        <time>2011-06-12T14:27:18Z</time>
      </trkpt>
      <trkpt lat="45.63331" lon="6.25205">
        <ele>1841</ele>
        <time>2011-06-12T14:27:23Z</time>
      </trkpt>
      <trkpt lat="45.63333" lon="6.25207">
        <ele>1841</ele>
        <time>2011-06-12T14:27:28Z</time>
      </trkpt>
      <trkpt lat="45.63336" lon="6.25211">
        <ele>1822</ele>
        <time>2011-06-12T14:27:33Z</time>
      </trkpt>
      <trkpt lat="45.6334" lon="6.25216">
        <ele>1823</ele>
        <time>2011-06-12T14:27:38Z</time>
      </trkpt>
      <trkpt lat="45.63344" lon="6.25221">
        <ele>1823</ele>
        <time>2011-06-12T14:27:43Z</time>
      </trkpt>
      <trkpt lat="45.63348" lon="6.25222">
        <ele>1823</ele>
        <time>2011-06-12T14:27:48Z</time>
      </trkpt>
      <trkpt lat="45.63351" lon="6.25224">
        <ele>1822</ele>
        <time>2011-06-12T14:27:53Z</time>
      </trkpt>
      <trkpt lat="45.63354" lon="6.25227">
        <ele>1822</ele>
        <time>2011-06-12T14:27:58Z</time>
      </trkpt>
      <trkpt lat="45.63355" lon="6.25229">
        <ele>1822</ele>
        <time>2011-06-12T14:28:03Z</time>
      </trkpt>
      <trkpt lat="45.63357" lon="6.2523">
        <ele>1822</ele>
        <time>2011-06-12T14:28:08Z</time>
      </trkpt>
      <trkpt lat="45.63359" lon="6.25232">
        <ele>1822</ele>
        <time>2011-06-12T14:28:13Z</time>
      </trkpt>
      <trkpt lat="45.63363" lon="6.25235">
        <ele>1822</ele>
        <time>2011-06-12T14:28:18Z</time>
      </trkpt>
      <trkpt lat="45.63368" lon="6.25239">
        <ele>1821</ele>
        <time>2011-06-12T14:28:23Z</time>
      </trkpt>
      <trkpt lat="45.63371" lon="6.25242">
        <ele>1820</ele>
        <time>2011-06-12T14:28:28Z</time>
      </trkpt>
      <trkpt lat="45.63375" lon="6.25246">
        <ele>1820</ele>
        <time>2011-06-12T14:28:33Z</time>
      </trkpt>
      <trkpt lat="45.63378" lon="6.25249">
        <ele>1819</ele>
        <time>2011-06-12T14:28:38Z</time>
      </trkpt>
      <trkpt lat="45.63381" lon="6.25253">
        <ele>1817</ele>
        <time>2011-06-12T14:28:43Z</time>
      </trkpt>
      <trkpt lat="45.63384" lon="6.25257">
        <ele>1817</ele>
        <time>2011-06-12T14:28:48Z</time>
      </trkpt>
      <trkpt lat="45.63385" lon="6.25262">
        <ele>1816</ele>
        <time>2011-06-12T14:28:53Z</time>
      </trkpt>
      <trkpt lat="45.63386" lon="6.25263">
        <ele>1816</ele>
        <time>2011-06-12T14:28:58Z</time>
      </trkpt>
      <trkpt lat="45.63387" lon="6.25263">
        <ele>1816</ele>
        <time>2011-06-12T14:29:03Z</time>
      </trkpt>
      <trkpt lat="45.63389" lon="6.25266">
        <ele>1816</ele>
        <time>2011-06-12T14:29:08Z</time>
      </trkpt>
      <trkpt lat="45.6339" lon="6.25269">
        <ele>1815</ele>
        <time>2011-06-12T14:29:13Z</time>
      </trkpt>
      <trkpt lat="45.6339" lon="6.2527">
        <ele>1815</ele>
        <time>2011-06-12T14:29:18Z</time>
      </trkpt>
      <trkpt lat="45.6339" lon="6.25269">
        <ele>1815</ele>
        <time>2011-06-12T14:29:23Z</time>
      </trkpt>
      <trkpt lat="45.6339" lon="6.25269">
        <ele>1815</ele>
        <time>2011-06-12T14:29:28Z</time>
      </trkpt>
      <trkpt lat="45.63391" lon="6.25269">
        <ele>1815</ele>
        <time>2011-06-12T14:29:33Z</time>
      </trkpt>
      <trkpt lat="45.6339" lon="6.25269">
        <ele>1815</ele>
        <time>2011-06-12T14:29:38Z</time>
      </trkpt>
      <trkpt lat="45.63391" lon="6.2527">
        <ele>1815</ele>
        <time>2011-06-12T14:29:43Z</time>
      </trkpt>
      <trkpt lat="45.63392" lon="6.25272">
        <ele>1815</ele>
        <time>2011-06-12T14:29:48Z</time>
      </trkpt>
      <trkpt lat="45.63395" lon="6.25276">
        <ele>1815</ele>
        <time>2011-06-12T14:29:53Z</time>
      </trkpt>
      <trkpt lat="45.63397" lon="6.25279">
        <ele>1814</ele>
        <time>2011-06-12T14:29:58Z</time>
      </trkpt>
      <trkpt lat="45.634" lon="6.25283">
        <ele>1814</ele>
        <time>2011-06-12T14:30:03Z</time>
      </trkpt>
      <trkpt lat="45.63404" lon="6.25288">
        <ele>1814</ele>
        <time>2011-06-12T14:30:08Z</time>
      </trkpt>
      <trkpt lat="45.63408" lon="6.25292">
        <ele>1813</ele>
        <time>2011-06-12T14:30:13Z</time>
      </trkpt>
      <trkpt lat="45.63412" lon="6.25296">
        <ele>1813</ele>
        <time>2011-06-12T14:30:18Z</time>
      </trkpt>
      <trkpt lat="45.63416" lon="6.25299">
        <ele>1812</ele>
        <time>2011-06-12T14:30:23Z</time>
      </trkpt>
      <trkpt lat="45.63419" lon="6.25303">
        <ele>1803</ele>
        <time>2011-06-12T14:30:28Z</time>
      </trkpt>
      <trkpt lat="45.63424" lon="6.25306">
        <ele>1803</ele>
        <time>2011-06-12T14:30:33Z</time>
      </trkpt>
      <trkpt lat="45.63428" lon="6.2531">
        <ele>1803</ele>
        <time>2011-06-12T14:30:38Z</time>
      </trkpt>
      <trkpt lat="45.63432" lon="6.25311">
        <ele>1803</ele>
        <time>2011-06-12T14:30:43Z</time>
      </trkpt>
      <trkpt lat="45.63436" lon="6.25314">
        <ele>1802</ele>
        <time>2011-06-12T14:30:48Z</time>
      </trkpt>
      <trkpt lat="45.63439" lon="6.25317">
        <ele>1802</ele>
        <time>2011-06-12T14:30:53Z</time>
      </trkpt>
      <trkpt lat="45.63443" lon="6.25321">
        <ele>1802</ele>
        <time>2011-06-12T14:30:58Z</time>
      </trkpt>
      <trkpt lat="45.63446" lon="6.25324">
        <ele>1802</ele>
        <time>2011-06-12T14:31:03Z</time>
      </trkpt>
      <trkpt lat="45.6345" lon="6.25326">
        <ele>1801</ele>
        <time>2011-06-12T14:31:08Z</time>
      </trkpt>
      <trkpt lat="45.63453" lon="6.25329">
        <ele>1801</ele>
        <time>2011-06-12T14:31:13Z</time>
      </trkpt>
      <trkpt lat="45.63456" lon="6.25333">
        <ele>1801</ele>
        <time>2011-06-12T14:31:18Z</time>
      </trkpt>
      <trkpt lat="45.6346" lon="6.25337">
        <ele>1799</ele>
        <time>2011-06-12T14:31:23Z</time>
      </trkpt>
      <trkpt lat="45.63464" lon="6.25342">
        <ele>1798</ele>
        <time>2011-06-12T14:31:28Z</time>
      </trkpt>
      <trkpt lat="45.63468" lon="6.25345">
        <ele>1798</ele>
        <time>2011-06-12T14:31:33Z</time>
      </trkpt>
      <trkpt lat="45.63472" lon="6.25348">
        <ele>1798</ele>
        <time>2011-06-12T14:31:38Z</time>
      </trkpt>
      <trkpt lat="45.63475" lon="6.2535">
        <ele>1797</ele>
        <time>2011-06-12T14:31:43Z</time>
      </trkpt>
      <trkpt lat="45.63479" lon="6.25353">
        <ele>1797</ele>
        <time>2011-06-12T14:31:48Z</time>
      </trkpt>
      <trkpt lat="45.63483" lon="6.25356">
        <ele>1797</ele>
        <time>2011-06-12T14:31:53Z</time>
      </trkpt>
      <trkpt lat="45.63488" lon="6.2536">
        <ele>1797</ele>
        <time>2011-06-12T14:31:58Z</time>
      </trkpt>
      <trkpt lat="45.63493" lon="6.25363">
        <ele>1796</ele>
        <time>2011-06-12T14:32:03Z</time>
      </trkpt>
      <trkpt lat="45.63498" lon="6.25366">
        <ele>1796</ele>
        <time>2011-06-12T14:32:08Z</time>
      </trkpt>
      <trkpt lat="45.63504" lon="6.2537">
        <ele>1792</ele>
        <time>2011-06-12T14:32:13Z</time>
      </trkpt>
      <trkpt lat="45.63509" lon="6.25375">
        <ele>1791</ele>
        <time>2011-06-12T14:32:18Z</time>
      </trkpt>
      <trkpt lat="45.63515" lon="6.25378">
        <ele>1791</ele>
        <time>2011-06-12T14:32:23Z</time>
      </trkpt>
      <trkpt lat="45.63521" lon="6.25382">
        <ele>1791</ele>
        <time>2011-06-12T14:32:28Z</time>
      </trkpt>
      <trkpt lat="45.63525" lon="6.25384">
        <ele>1790</ele>
        <time>2011-06-12T14:32:33Z</time>
      </trkpt>
      <trkpt lat="45.63532" lon="6.25387">
        <ele>1790</ele>
        <time>2011-06-12T14:32:38Z</time>
      </trkpt>
      <trkpt lat="45.63538" lon="6.25389">
        <ele>1790</ele>
        <time>2011-06-12T14:32:43Z</time>
      </trkpt>
      <trkpt lat="45.63544" lon="6.25391">
        <ele>1789</ele>
        <time>2011-06-12T14:32:48Z</time>
      </trkpt>
      <trkpt lat="45.63549" lon="6.25391">
        <ele>1789</ele>
        <time>2011-06-12T14:32:53Z</time>
      </trkpt>
      <trkpt lat="45.63553" lon="6.25391">
        <ele>1789</ele>
        <time>2011-06-12T14:32:58Z</time>
      </trkpt>
      <trkpt lat="45.63557" lon="6.25391">
        <ele>1789</ele>
        <time>2011-06-12T14:33:03Z</time>
      </trkpt>
      <trkpt lat="45.63562" lon="6.25391">
        <ele>1788</ele>
        <time>2011-06-12T14:33:08Z</time>
      </trkpt>
      <trkpt lat="45.63563" lon="6.2539">
        <ele>1788</ele>
        <time>2011-06-12T14:33:13Z</time>
      </trkpt>
      <trkpt lat="45.63569" lon="6.25388">
        <ele>1788</ele>
        <time>2011-06-12T14:33:18Z</time>
      </trkpt>
      <trkpt lat="45.63575" lon="6.25389">
        <ele>1788</ele>
        <time>2011-06-12T14:33:23Z</time>
      </trkpt>
      <trkpt lat="45.63583" lon="6.25388">
        <ele>1788</ele>
        <time>2011-06-12T14:33:28Z</time>
      </trkpt>
      <trkpt lat="45.63591" lon="6.25387">
        <ele>1784</ele>
        <time>2011-06-12T14:33:33Z</time>
      </trkpt>
      <trkpt lat="45.63596" lon="6.25387">
        <ele>1784</ele>
        <time>2011-06-12T14:33:38Z</time>
      </trkpt>
      <trkpt lat="45.63602" lon="6.25386">
        <ele>1784</ele>
        <time>2011-06-12T14:33:43Z</time>
      </trkpt>
      <trkpt lat="45.63607" lon="6.25386">
        <ele>1784</ele>
        <time>2011-06-12T14:33:48Z</time>
      </trkpt>
      <trkpt lat="45.63612" lon="6.25386">
        <ele>1784</ele>
        <time>2011-06-12T14:33:53Z</time>
      </trkpt>
      <trkpt lat="45.63616" lon="6.25387">
        <ele>1784</ele>
        <time>2011-06-12T14:33:58Z</time>
      </trkpt>
      <trkpt lat="45.6362" lon="6.25386">
        <ele>1784</ele>
        <time>2011-06-12T14:34:03Z</time>
      </trkpt>
      <trkpt lat="45.63625" lon="6.25386">
        <ele>1784</ele>
        <time>2011-06-12T14:34:08Z</time>
      </trkpt>
      <trkpt lat="45.63631" lon="6.25386">
        <ele>1784</ele>
        <time>2011-06-12T14:34:13Z</time>
      </trkpt>
      <trkpt lat="45.63636" lon="6.25386">
        <ele>1783</ele>
        <time>2011-06-12T14:34:18Z</time>
      </trkpt>
      <trkpt lat="45.63641" lon="6.25385">
        <ele>1783</ele>
        <time>2011-06-12T14:34:23Z</time>
      </trkpt>
      <trkpt lat="45.63646" lon="6.25383">
        <ele>1783</ele>
        <time>2011-06-12T14:34:28Z</time>
      </trkpt>
      <trkpt lat="45.63651" lon="6.25382">
        <ele>1783</ele>
        <time>2011-06-12T14:34:33Z</time>
      </trkpt>
      <trkpt lat="45.63657" lon="6.25381">
        <ele>1783</ele>
        <time>2011-06-12T14:34:38Z</time>
      </trkpt>
      <trkpt lat="45.63662" lon="6.2538">
        <ele>1783</ele>
        <time>2011-06-12T14:34:43Z</time>
      </trkpt>
      <trkpt lat="45.63667" lon="6.25379">
        <ele>1786</ele>
        <time>2011-06-12T14:34:48Z</time>
      </trkpt>
      <trkpt lat="45.63672" lon="6.25376">
        <ele>1786</ele>
        <time>2011-06-12T14:34:53Z</time>
      </trkpt>
      <trkpt lat="45.63677" lon="6.25375">
        <ele>1787</ele>
        <time>2011-06-12T14:34:58Z</time>
      </trkpt>
      <trkpt lat="45.63683" lon="6.25374">
        <ele>1787</ele>
        <time>2011-06-12T14:35:03Z</time>
      </trkpt>
      <trkpt lat="45.63706" lon="6.25369">
        <ele>1789</ele>
        <time>2011-06-12T14:39:38Z</time>
      </trkpt>
      <trkpt lat="45.6371" lon="6.2537">
        <ele>1789</ele>
        <time>2011-06-12T14:39:43Z</time>
      </trkpt>
      <trkpt lat="45.63713" lon="6.25369">
        <ele>1789</ele>
        <time>2011-06-12T14:39:48Z</time>
      </trkpt>
      <trkpt lat="45.63716" lon="6.25369">
        <ele>1789</ele>
        <time>2011-06-12T14:39:53Z</time>
      </trkpt>
      <trkpt lat="45.63719" lon="6.25369">
        <ele>1789</ele>
        <time>2011-06-12T14:39:58Z</time>
      </trkpt>
      <trkpt lat="45.63722" lon="6.25369">
        <ele>1790</ele>
        <time>2011-06-12T14:40:03Z</time>
      </trkpt>
      <trkpt lat="45.63725" lon="6.25369">
        <ele>1790</ele>
        <time>2011-06-12T14:40:08Z</time>
      </trkpt>
      <trkpt lat="45.63728" lon="6.2537">
        <ele>1790</ele>
        <time>2011-06-12T14:40:13Z</time>
      </trkpt>
      <trkpt lat="45.63731" lon="6.2537">
        <ele>1790</ele>
        <time>2011-06-12T14:40:18Z</time>
      </trkpt>
      <trkpt lat="45.63733" lon="6.25369">
        <ele>1790</ele>
        <time>2011-06-12T14:40:23Z</time>
      </trkpt>
      <trkpt lat="45.63738" lon="6.25369">
        <ele>1791</ele>
        <time>2011-06-12T14:40:28Z</time>
      </trkpt>
      <trkpt lat="45.63742" lon="6.25367">
        <ele>1791</ele>
        <time>2011-06-12T14:40:33Z</time>
      </trkpt>
      <trkpt lat="45.63746" lon="6.25366">
        <ele>1791</ele>
        <time>2011-06-12T14:40:38Z</time>
      </trkpt>
      <trkpt lat="45.63749" lon="6.25365">
        <ele>1792</ele>
        <time>2011-06-12T14:40:43Z</time>
      </trkpt>
      <trkpt lat="45.63752" lon="6.25365">
        <ele>1796</ele>
        <time>2011-06-12T14:40:48Z</time>
      </trkpt>
      <trkpt lat="45.63755" lon="6.25365">
        <ele>1796</ele>
        <time>2011-06-12T14:40:53Z</time>
      </trkpt>
      <trkpt lat="45.63759" lon="6.25363">
        <ele>1796</ele>
        <time>2011-06-12T14:40:58Z</time>
      </trkpt>
      <trkpt lat="45.63762" lon="6.25363">
        <ele>1796</ele>
        <time>2011-06-12T14:41:03Z</time>
      </trkpt>
      <trkpt lat="45.63767" lon="6.25363">
        <ele>1796</ele>
        <time>2011-06-12T14:41:08Z</time>
      </trkpt>
      <trkpt lat="45.63772" lon="6.25362">
        <ele>1796</ele>
        <time>2011-06-12T14:41:13Z</time>
      </trkpt>
      <trkpt lat="45.63776" lon="6.25361">
        <ele>1796</ele>
        <time>2011-06-12T14:41:18Z</time>
      </trkpt>
      <trkpt lat="45.63781" lon="6.2536">
        <ele>1796</ele>
        <time>2011-06-12T14:41:23Z</time>
      </trkpt>
      <trkpt lat="45.63786" lon="6.2536">
        <ele>1796</ele>
        <time>2011-06-12T14:41:28Z</time>
      </trkpt>
      <trkpt lat="45.63791" lon="6.2536">
        <ele>1796</ele>
        <time>2011-06-12T14:41:33Z</time>
      </trkpt>
      <trkpt lat="45.63794" lon="6.2536">
        <ele>1796</ele>
        <time>2011-06-12T14:41:38Z</time>
      </trkpt>
      <trkpt lat="45.63799" lon="6.2536">
        <ele>1796</ele>
        <time>2011-06-12T14:41:43Z</time>
      </trkpt>
      <trkpt lat="45.63804" lon="6.25359">
        <ele>1796</ele>
        <time>2011-06-12T14:41:48Z</time>
      </trkpt>
      <trkpt lat="45.63807" lon="6.25359">
        <ele>1797</ele>
        <time>2011-06-12T14:41:53Z</time>
      </trkpt>
      <trkpt lat="45.6381" lon="6.25361">
        <ele>1797</ele>
        <time>2011-06-12T14:41:58Z</time>
      </trkpt>
      <trkpt lat="45.63814" lon="6.25362">
        <ele>1797</ele>
        <time>2011-06-12T14:42:03Z</time>
      </trkpt>
      <trkpt lat="45.63817" lon="6.25364">
        <ele>1797</ele>
        <time>2011-06-12T14:42:08Z</time>
      </trkpt>
      <trkpt lat="45.63821" lon="6.25365">
        <ele>1796</ele>
        <time>2011-06-12T14:42:13Z</time>
      </trkpt>
      <trkpt lat="45.63824" lon="6.25366">
        <ele>1796</ele>
        <time>2011-06-12T14:42:18Z</time>
      </trkpt>
      <trkpt lat="45.63827" lon="6.25365">
        <ele>1797</ele>
        <time>2011-06-12T14:42:23Z</time>
      </trkpt>
      <trkpt lat="45.6383" lon="6.25367">
        <ele>1796</ele>
        <time>2011-06-12T14:42:28Z</time>
      </trkpt>
      <trkpt lat="45.63833" lon="6.25368">
        <ele>1796</ele>
        <time>2011-06-12T14:42:33Z</time>
      </trkpt>
      <trkpt lat="45.63836" lon="6.25368">
        <ele>1800</ele>
        <time>2011-06-12T14:42:38Z</time>
      </trkpt>
      <trkpt lat="45.63838" lon="6.25369">
        <ele>1800</ele>
        <time>2011-06-12T14:42:43Z</time>
      </trkpt>
      <trkpt lat="45.63841" lon="6.25369">
        <ele>1800</ele>
        <time>2011-06-12T14:42:48Z</time>
      </trkpt>
      <trkpt lat="45.63842" lon="6.2537">
        <ele>1800</ele>
        <time>2011-06-12T14:42:53Z</time>
      </trkpt>
      <trkpt lat="45.63845" lon="6.25371">
        <ele>1800</ele>
        <time>2011-06-12T14:42:58Z</time>
      </trkpt>
      <trkpt lat="45.63846" lon="6.25371">
        <ele>1800</ele>
        <time>2011-06-12T14:43:03Z</time>
      </trkpt>
      <trkpt lat="45.6385" lon="6.25372">
        <ele>1800</ele>
        <time>2011-06-12T14:43:08Z</time>
      </trkpt>
      <trkpt lat="45.63852" lon="6.25374">
        <ele>1800</ele>
        <time>2011-06-12T14:43:13Z</time>
      </trkpt>
      <trkpt lat="45.63854" lon="6.25376">
        <ele>1800</ele>
        <time>2011-06-12T14:43:18Z</time>
      </trkpt>
      <trkpt lat="45.63858" lon="6.25373">
        <ele>1800</ele>
        <time>2011-06-12T14:43:23Z</time>
      </trkpt>
      <trkpt lat="45.63863" lon="6.25373">
        <ele>1800</ele>
        <time>2011-06-12T14:43:28Z</time>
      </trkpt>
      <trkpt lat="45.63868" lon="6.25371">
        <ele>1801</ele>
        <time>2011-06-12T14:43:33Z</time>
      </trkpt>
      <trkpt lat="45.63873" lon="6.25369">
        <ele>1801</ele>
        <time>2011-06-12T14:43:38Z</time>
      </trkpt>
      <trkpt lat="45.63877" lon="6.25366">
        <ele>1802</ele>
        <time>2011-06-12T14:43:43Z</time>
      </trkpt>
      <trkpt lat="45.63882" lon="6.25363">
        <ele>1803</ele>
        <time>2011-06-12T14:43:48Z</time>
      </trkpt>
      <trkpt lat="45.63886" lon="6.2536">
        <ele>1804</ele>
        <time>2011-06-12T14:43:53Z</time>
      </trkpt>
      <trkpt lat="45.6389" lon="6.25358">
        <ele>1805</ele>
        <time>2011-06-12T14:43:58Z</time>
      </trkpt>
      <trkpt lat="45.63894" lon="6.25356">
        <ele>1806</ele>
        <time>2011-06-12T14:44:03Z</time>
      </trkpt>
      <trkpt lat="45.63899" lon="6.25354">
        <ele>1807</ele>
        <time>2011-06-12T14:44:08Z</time>
      </trkpt>
      <trkpt lat="45.63903" lon="6.25351">
        <ele>1808</ele>
        <time>2011-06-12T14:44:13Z</time>
      </trkpt>
      <trkpt lat="45.63907" lon="6.25349">
        <ele>1810</ele>
        <time>2011-06-12T14:44:18Z</time>
      </trkpt>
      <trkpt lat="45.6391" lon="6.25348">
        <ele>1811</ele>
        <time>2011-06-12T14:44:23Z</time>
      </trkpt>
      <trkpt lat="45.63913" lon="6.25346">
        <ele>1812</ele>
        <time>2011-06-12T14:44:28Z</time>
      </trkpt>
      <trkpt lat="45.63917" lon="6.25344">
        <ele>1815</ele>
        <time>2011-06-12T14:44:33Z</time>
      </trkpt>
      <trkpt lat="45.63921" lon="6.25341">
        <ele>1815</ele>
        <time>2011-06-12T14:44:38Z</time>
      </trkpt>
      <trkpt lat="45.63924" lon="6.2534">
        <ele>1815</ele>
        <time>2011-06-12T14:44:43Z</time>
      </trkpt>
      <trkpt lat="45.63928" lon="6.25339">
        <ele>1814</ele>
        <time>2011-06-12T14:44:48Z</time>
      </trkpt>
      <trkpt lat="45.63931" lon="6.25336">
        <ele>1813</ele>
        <time>2011-06-12T14:44:53Z</time>
      </trkpt>
      <trkpt lat="45.63934" lon="6.25333">
        <ele>1817</ele>
        <time>2011-06-12T14:44:58Z</time>
      </trkpt>
      <trkpt lat="45.63937" lon="6.2533">
        <ele>1817</ele>
        <time>2011-06-12T14:45:03Z</time>
      </trkpt>
      <trkpt lat="45.63938" lon="6.2533">
        <ele>1817</ele>
        <time>2011-06-12T14:45:08Z</time>
      </trkpt>
      <trkpt lat="45.6394" lon="6.2533">
        <ele>1817</ele>
        <time>2011-06-12T14:45:13Z</time>
      </trkpt>
      <trkpt lat="45.6394" lon="6.25329">
        <ele>1817</ele>
        <time>2011-06-12T14:45:18Z</time>
      </trkpt>
      <trkpt lat="45.63943" lon="6.25326">
        <ele>1816</ele>
        <time>2011-06-12T14:45:23Z</time>
      </trkpt>
      <trkpt lat="45.63947" lon="6.25323">
        <ele>1816</ele>
        <time>2011-06-12T14:45:28Z</time>
      </trkpt>
      <trkpt lat="45.6395" lon="6.25321">
        <ele>1816</ele>
        <time>2011-06-12T14:45:33Z</time>
      </trkpt>
      <trkpt lat="45.63953" lon="6.2532">
        <ele>1816</ele>
        <time>2011-06-12T14:45:38Z</time>
      </trkpt>
      <trkpt lat="45.63957" lon="6.25318">
        <ele>1816</ele>
        <time>2011-06-12T14:45:43Z</time>
      </trkpt>
      <trkpt lat="45.63959" lon="6.25317">
        <ele>1816</ele>
        <time>2011-06-12T14:45:48Z</time>
      </trkpt>
      <trkpt lat="45.63959" lon="6.25317">
        <ele>1816</ele>
        <time>2011-06-12T14:45:53Z</time>
      </trkpt>
      <trkpt lat="45.6396" lon="6.25316">
        <ele>1816</ele>
        <time>2011-06-12T14:45:58Z</time>
      </trkpt>
      <trkpt lat="45.6396" lon="6.25316">
        <ele>1816</ele>
        <time>2011-06-12T14:46:03Z</time>
      </trkpt>
      <trkpt lat="45.6396" lon="6.25315">
        <ele>1815</ele>
        <time>2011-06-12T14:46:08Z</time>
      </trkpt>
      <trkpt lat="45.63961" lon="6.25315">
        <ele>1815</ele>
        <time>2011-06-12T14:46:13Z</time>
      </trkpt>
      <trkpt lat="45.63961" lon="6.25315">
        <ele>1815</ele>
        <time>2011-06-12T14:46:18Z</time>
      </trkpt>
      <trkpt lat="45.63961" lon="6.25315">
        <ele>1815</ele>
        <time>2011-06-12T14:46:23Z</time>
      </trkpt>
      <trkpt lat="45.6396" lon="6.25314">
        <ele>1815</ele>
        <time>2011-06-12T14:46:28Z</time>
      </trkpt>
      <trkpt lat="45.6396" lon="6.25315">
        <ele>1815</ele>
        <time>2011-06-12T14:46:33Z</time>
      </trkpt>
      <trkpt lat="45.6396" lon="6.25314">
        <ele>1815</ele>
        <time>2011-06-12T14:46:38Z</time>
      </trkpt>
      <trkpt lat="45.6396" lon="6.25314">
        <ele>1815</ele>
        <time>2011-06-12T14:46:43Z</time>
      </trkpt>
      <trkpt lat="45.6396" lon="6.25315">
        <ele>1815</ele>
        <time>2011-06-12T14:46:48Z</time>
      </trkpt>
      <trkpt lat="45.6396" lon="6.25315">
        <ele>1815</ele>
        <time>2011-06-12T14:46:53Z</time>
      </trkpt>
      <trkpt lat="45.6396" lon="6.25315">
        <ele>1815</ele>
        <time>2011-06-12T14:46:58Z</time>
      </trkpt>
      <trkpt lat="45.6396" lon="6.25315">
        <ele>1815</ele>
        <time>2011-06-12T14:47:03Z</time>
      </trkpt>
      <trkpt lat="45.6396" lon="6.25315">
        <ele>1815</ele>
        <time>2011-06-12T14:47:08Z</time>
      </trkpt>
      <trkpt lat="45.63962" lon="6.25314">
        <ele>1815</ele>
        <time>2011-06-12T14:47:13Z</time>
      </trkpt>
      <trkpt lat="45.63963" lon="6.25309">
        <ele>1815</ele>
        <time>2011-06-12T14:47:18Z</time>
      </trkpt>
      <trkpt lat="45.63966" lon="6.25304">
        <ele>1815</ele>
        <time>2011-06-12T14:47:23Z</time>
      </trkpt>
      <trkpt lat="45.63968" lon="6.25301">
        <ele>1815</ele>
        <time>2011-06-12T14:47:28Z</time>
      </trkpt>
      <trkpt lat="45.63969" lon="6.25296">
        <ele>1815</ele>
        <time>2011-06-12T14:47:33Z</time>
      </trkpt>
      <trkpt lat="45.6397" lon="6.25292">
        <ele>1815</ele>
        <time>2011-06-12T14:47:38Z</time>
      </trkpt>
      <trkpt lat="45.63973" lon="6.25287">
        <ele>1815</ele>
        <time>2011-06-12T14:47:43Z</time>
      </trkpt>
      <trkpt lat="45.63976" lon="6.25283">
        <ele>1815</ele>
        <time>2011-06-12T14:47:48Z</time>
      </trkpt>
      <trkpt lat="45.63978" lon="6.25279">
        <ele>1815</ele>
        <time>2011-06-12T14:47:53Z</time>
      </trkpt>
      <trkpt lat="45.63979" lon="6.25276">
        <ele>1815</ele>
        <time>2011-06-12T14:47:58Z</time>
      </trkpt>
      <trkpt lat="45.63981" lon="6.25271">
        <ele>1815</ele>
        <time>2011-06-12T14:48:03Z</time>
      </trkpt>
      <trkpt lat="45.63983" lon="6.25266">
        <ele>1816</ele>
        <time>2011-06-12T14:48:08Z</time>
      </trkpt>
      <trkpt lat="45.63985" lon="6.25262">
        <ele>1816</ele>
        <time>2011-06-12T14:48:13Z</time>
      </trkpt>
      <trkpt lat="45.63987" lon="6.25258">
        <ele>1816</ele>
        <time>2011-06-12T14:48:18Z</time>
      </trkpt>
      <trkpt lat="45.63988" lon="6.25253">
        <ele>1817</ele>
        <time>2011-06-12T14:48:23Z</time>
      </trkpt>
      <trkpt lat="45.63989" lon="6.25248">
        <ele>1809</ele>
        <time>2011-06-12T14:48:28Z</time>
      </trkpt>
      <trkpt lat="45.6399" lon="6.25243">
        <ele>1809</ele>
        <time>2011-06-12T14:48:33Z</time>
      </trkpt>
      <trkpt lat="45.63991" lon="6.25242">
        <ele>1808</ele>
        <time>2011-06-12T14:48:38Z</time>
      </trkpt>
      <trkpt lat="45.63991" lon="6.25241">
        <ele>1808</ele>
        <time>2011-06-12T14:48:43Z</time>
      </trkpt>
      <trkpt lat="45.63992" lon="6.2524">
        <ele>1808</ele>
        <time>2011-06-12T14:48:48Z</time>
      </trkpt>
      <trkpt lat="45.63992" lon="6.25239">
        <ele>1808</ele>
        <time>2011-06-12T14:48:53Z</time>
      </trkpt>
      <trkpt lat="45.63992" lon="6.25239">
        <ele>1807</ele>
        <time>2011-06-12T14:48:58Z</time>
      </trkpt>
      <trkpt lat="45.63992" lon="6.25238">
        <ele>1807</ele>
        <time>2011-06-12T14:49:03Z</time>
      </trkpt>
      <trkpt lat="45.63993" lon="6.25238">
        <ele>1807</ele>
        <time>2011-06-12T14:49:08Z</time>
      </trkpt>
      <trkpt lat="45.63993" lon="6.25235">
        <ele>1806</ele>
        <time>2011-06-12T14:49:13Z</time>
      </trkpt>
      <trkpt lat="45.63995" lon="6.25231">
        <ele>1804</ele>
        <time>2011-06-12T14:49:18Z</time>
      </trkpt>
      <trkpt lat="45.63998" lon="6.25225">
        <ele>1801</ele>
        <time>2011-06-12T14:49:23Z</time>
      </trkpt>
      <trkpt lat="45.64001" lon="6.25221">
        <ele>1804</ele>
        <time>2011-06-12T14:49:28Z</time>
      </trkpt>
      <trkpt lat="45.64002" lon="6.25217">
        <ele>1803</ele>
        <time>2011-06-12T14:49:33Z</time>
      </trkpt>
      <trkpt lat="45.64006" lon="6.25213">
        <ele>1802</ele>
        <time>2011-06-12T14:49:38Z</time>
      </trkpt>
      <trkpt lat="45.64009" lon="6.25209">
        <ele>1800</ele>
        <time>2011-06-12T14:49:43Z</time>
      </trkpt>
      <trkpt lat="45.6401" lon="6.25208">
        <ele>1800</ele>
        <time>2011-06-12T14:49:48Z</time>
      </trkpt>
      <trkpt lat="45.6401" lon="6.25207">
        <ele>1800</ele>
        <time>2011-06-12T14:49:53Z</time>
      </trkpt>
      <trkpt lat="45.6401" lon="6.25206">
        <ele>1800</ele>
        <time>2011-06-12T14:49:58Z</time>
      </trkpt>
      <trkpt lat="45.64009" lon="6.25207">
        <ele>1800</ele>
        <time>2011-06-12T14:50:03Z</time>
      </trkpt>
      <trkpt lat="45.64009" lon="6.25206">
        <ele>1800</ele>
        <time>2011-06-12T14:50:08Z</time>
      </trkpt>
      <trkpt lat="45.64009" lon="6.25205">
        <ele>1800</ele>
        <time>2011-06-12T14:50:13Z</time>
      </trkpt>
      <trkpt lat="45.64009" lon="6.25205">
        <ele>1799</ele>
        <time>2011-06-12T14:50:18Z</time>
      </trkpt>
      <trkpt lat="45.64009" lon="6.25205">
        <ele>1799</ele>
        <time>2011-06-12T14:50:23Z</time>
      </trkpt>
      <trkpt lat="45.64009" lon="6.25204">
        <ele>1799</ele>
        <time>2011-06-12T14:50:28Z</time>
      </trkpt>
      <trkpt lat="45.64009" lon="6.25204">
        <ele>1799</ele>
        <time>2011-06-12T14:50:33Z</time>
      </trkpt>
      <trkpt lat="45.6401" lon="6.25203">
        <ele>1799</ele>
        <time>2011-06-12T14:50:38Z</time>
      </trkpt>
      <trkpt lat="45.64014" lon="6.25199">
        <ele>1798</ele>
        <time>2011-06-12T14:50:43Z</time>
      </trkpt>
      <trkpt lat="45.64019" lon="6.25197">
        <ele>1798</ele>
        <time>2011-06-12T14:50:48Z</time>
      </trkpt>
      <trkpt lat="45.64023" lon="6.25192">
        <ele>1797</ele>
        <time>2011-06-12T14:50:53Z</time>
      </trkpt>
      <trkpt lat="45.64027" lon="6.25189">
        <ele>1797</ele>
        <time>2011-06-12T14:50:58Z</time>
      </trkpt>
      <trkpt lat="45.6403" lon="6.25184">
        <ele>1796</ele>
        <time>2011-06-12T14:51:03Z</time>
      </trkpt>
      <trkpt lat="45.64033" lon="6.25178">
        <ele>1796</ele>
        <time>2011-06-12T14:51:08Z</time>
      </trkpt>
      <trkpt lat="45.64034" lon="6.25174">
        <ele>1796</ele>
        <time>2011-06-12T14:51:13Z</time>
      </trkpt>
      <trkpt lat="45.64035" lon="6.2517">
        <ele>1796</ele>
        <time>2011-06-12T14:51:18Z</time>
      </trkpt>
      <trkpt lat="45.64037" lon="6.25164">
        <ele>1784</ele>
        <time>2011-06-12T14:51:23Z</time>
      </trkpt>
      <trkpt lat="45.64039" lon="6.25159">
        <ele>1784</ele>
        <time>2011-06-12T14:51:28Z</time>
      </trkpt>
      <trkpt lat="45.64044" lon="6.25153">
        <ele>1783</ele>
        <time>2011-06-12T14:51:33Z</time>
      </trkpt>
      <trkpt lat="45.64044" lon="6.25148">
        <ele>1783</ele>
        <time>2011-06-12T14:51:38Z</time>
      </trkpt>
      <trkpt lat="45.64044" lon="6.25143">
        <ele>1782</ele>
        <time>2011-06-12T14:51:43Z</time>
      </trkpt>
      <trkpt lat="45.64044" lon="6.25136">
        <ele>1782</ele>
        <time>2011-06-12T14:51:48Z</time>
      </trkpt>
      <trkpt lat="45.64048" lon="6.25129">
        <ele>1781</ele>
        <time>2011-06-12T14:51:53Z</time>
      </trkpt>
      <trkpt lat="45.64049" lon="6.25125">
        <ele>1780</ele>
        <time>2011-06-12T14:51:58Z</time>
      </trkpt>
      <trkpt lat="45.6405" lon="6.25119">
        <ele>1780</ele>
        <time>2011-06-12T14:52:03Z</time>
      </trkpt>
      <trkpt lat="45.64052" lon="6.25114">
        <ele>1779</ele>
        <time>2011-06-12T14:52:08Z</time>
      </trkpt>
      <trkpt lat="45.64052" lon="6.25108">
        <ele>1779</ele>
        <time>2011-06-12T14:52:13Z</time>
      </trkpt>
      <trkpt lat="45.64052" lon="6.25103">
        <ele>1778</ele>
        <time>2011-06-12T14:52:18Z</time>
      </trkpt>
      <trkpt lat="45.64053" lon="6.25096">
        <ele>1778</ele>
        <time>2011-06-12T14:52:23Z</time>
      </trkpt>
      <trkpt lat="45.64054" lon="6.25087">
        <ele>1777</ele>
        <time>2011-06-12T14:52:28Z</time>
      </trkpt>
      <trkpt lat="45.64054" lon="6.2508">
        <ele>1763</ele>
        <time>2011-06-12T14:52:33Z</time>
      </trkpt>
      <trkpt lat="45.64054" lon="6.25071">
        <ele>1762</ele>
        <time>2011-06-12T14:52:38Z</time>
      </trkpt>
      <trkpt lat="45.64056" lon="6.2506">
        <ele>1761</ele>
        <time>2011-06-12T14:52:43Z</time>
      </trkpt>
      <trkpt lat="45.64056" lon="6.25052">
        <ele>1759</ele>
        <time>2011-06-12T14:52:48Z</time>
      </trkpt>
      <trkpt lat="45.64055" lon="6.25045">
        <ele>1758</ele>
        <time>2011-06-12T14:52:53Z</time>
      </trkpt>
      <trkpt lat="45.64058" lon="6.25037">
        <ele>1758</ele>
        <time>2011-06-12T14:52:58Z</time>
      </trkpt>
      <trkpt lat="45.64062" lon="6.25027">
        <ele>1757</ele>
        <time>2011-06-12T14:53:03Z</time>
      </trkpt>
      <trkpt lat="45.64068" lon="6.25023">
        <ele>1758</ele>
        <time>2011-06-12T14:53:08Z</time>
      </trkpt>
      <trkpt lat="45.64068" lon="6.25017">
        <ele>1758</ele>
        <time>2011-06-12T14:53:13Z</time>
      </trkpt>
      <trkpt lat="45.6407" lon="6.25013">
        <ele>1758</ele>
        <time>2011-06-12T14:53:18Z</time>
      </trkpt>
      <trkpt lat="45.64071" lon="6.25009">
        <ele>1759</ele>
        <time>2011-06-12T14:53:23Z</time>
      </trkpt>
      <trkpt lat="45.64072" lon="6.25004">
        <ele>1759</ele>
        <time>2011-06-12T14:53:28Z</time>
      </trkpt>
      <trkpt lat="45.64072" lon="6.25">
        <ele>1750</ele>
        <time>2011-06-12T14:53:33Z</time>
      </trkpt>
      <trkpt lat="45.64073" lon="6.24994">
        <ele>1749</ele>
        <time>2011-06-12T14:53:38Z</time>
      </trkpt>
      <trkpt lat="45.64075" lon="6.24988">
        <ele>1747</ele>
        <time>2011-06-12T14:53:43Z</time>
      </trkpt>
      <trkpt lat="45.64077" lon="6.24984">
        <ele>1745</ele>
        <time>2011-06-12T14:53:48Z</time>
      </trkpt>
      <trkpt lat="45.64078" lon="6.2498">
        <ele>1743</ele>
        <time>2011-06-12T14:53:53Z</time>
      </trkpt>
      <trkpt lat="45.64079" lon="6.24976">
        <ele>1741</ele>
        <time>2011-06-12T14:53:58Z</time>
      </trkpt>
      <trkpt lat="45.64081" lon="6.24972">
        <ele>1739</ele>
        <time>2011-06-12T14:54:03Z</time>
      </trkpt>
      <trkpt lat="45.64082" lon="6.24969">
        <ele>1738</ele>
        <time>2011-06-12T14:54:08Z</time>
      </trkpt>
      <trkpt lat="45.64081" lon="6.24966">
        <ele>1737</ele>
        <time>2011-06-12T14:54:13Z</time>
      </trkpt>
      <trkpt lat="45.64081" lon="6.24961">
        <ele>1735</ele>
        <time>2011-06-12T14:54:18Z</time>
      </trkpt>
      <trkpt lat="45.64083" lon="6.24956">
        <ele>1734</ele>
        <time>2011-06-12T14:54:23Z</time>
      </trkpt>
      <trkpt lat="45.64085" lon="6.24951">
        <ele>1731</ele>
        <time>2011-06-12T14:54:28Z</time>
      </trkpt>
      <trkpt lat="45.64087" lon="6.24946">
        <ele>1730</ele>
        <time>2011-06-12T14:54:33Z</time>
      </trkpt>
      <trkpt lat="45.64089" lon="6.24944">
        <ele>1730</ele>
        <time>2011-06-12T14:54:38Z</time>
      </trkpt>
      <trkpt lat="45.6409" lon="6.24941">
        <ele>1729</ele>
        <time>2011-06-12T14:54:43Z</time>
      </trkpt>
      <trkpt lat="45.64092" lon="6.24936">
        <ele>1729</ele>
        <time>2011-06-12T14:54:48Z</time>
      </trkpt>
      <trkpt lat="45.64093" lon="6.24932">
        <ele>1729</ele>
        <time>2011-06-12T14:54:53Z</time>
      </trkpt>
      <trkpt lat="45.64094" lon="6.24929">
        <ele>1729</ele>
        <time>2011-06-12T14:54:58Z</time>
      </trkpt>
      <trkpt lat="45.64096" lon="6.24926">
        <ele>1729</ele>
        <time>2011-06-12T14:55:03Z</time>
      </trkpt>
      <trkpt lat="45.64099" lon="6.24923">
        <ele>1728</ele>
        <time>2011-06-12T14:55:08Z</time>
      </trkpt>
      <trkpt lat="45.641" lon="6.2492">
        <ele>1728</ele>
        <time>2011-06-12T14:55:13Z</time>
      </trkpt>
      <trkpt lat="45.64102" lon="6.24915">
        <ele>1712</ele>
        <time>2011-06-12T14:55:18Z</time>
      </trkpt>
      <trkpt lat="45.64103" lon="6.24913">
        <ele>1711</ele>
        <time>2011-06-12T14:55:23Z</time>
      </trkpt>
      <trkpt lat="45.64104" lon="6.24912">
        <ele>1711</ele>
        <time>2011-06-12T14:55:28Z</time>
      </trkpt>
      <trkpt lat="45.64105" lon="6.2491">
        <ele>1710</ele>
        <time>2011-06-12T14:55:33Z</time>
      </trkpt>
      <trkpt lat="45.64108" lon="6.24911">
        <ele>1708</ele>
        <time>2011-06-12T14:55:38Z</time>
      </trkpt>
      <trkpt lat="45.64109" lon="6.24911">
        <ele>1708</ele>
        <time>2011-06-12T14:55:43Z</time>
      </trkpt>
      <trkpt lat="45.6411" lon="6.24909">
        <ele>1707</ele>
        <time>2011-06-12T14:55:48Z</time>
      </trkpt>
      <trkpt lat="45.64111" lon="6.24907">
        <ele>1706</ele>
        <time>2011-06-12T14:55:53Z</time>
      </trkpt>
      <trkpt lat="45.64114" lon="6.24905">
        <ele>1704</ele>
        <time>2011-06-12T14:55:58Z</time>
      </trkpt>
      <trkpt lat="45.64117" lon="6.24902">
        <ele>1702</ele>
        <time>2011-06-12T14:56:03Z</time>
      </trkpt>
      <trkpt lat="45.6412" lon="6.249">
        <ele>1701</ele>
        <time>2011-06-12T14:56:08Z</time>
      </trkpt>
      <trkpt lat="45.64124" lon="6.24899">
        <ele>1700</ele>
        <time>2011-06-12T14:56:13Z</time>
      </trkpt>
      <trkpt lat="45.64127" lon="6.24898">
        <ele>1699</ele>
        <time>2011-06-12T14:56:18Z</time>
      </trkpt>
      <trkpt lat="45.64129" lon="6.24898">
        <ele>1699</ele>
        <time>2011-06-12T14:56:23Z</time>
      </trkpt>
      <trkpt lat="45.64132" lon="6.24898">
        <ele>1698</ele>
        <time>2011-06-12T14:56:28Z</time>
      </trkpt>
      <trkpt lat="45.64134" lon="6.24896">
        <ele>1697</ele>
        <time>2011-06-12T14:56:33Z</time>
      </trkpt>
      <trkpt lat="45.64138" lon="6.24895">
        <ele>1697</ele>
        <time>2011-06-12T14:56:38Z</time>
      </trkpt>
      <trkpt lat="45.64141" lon="6.24891">
        <ele>1696</ele>
        <time>2011-06-12T14:56:43Z</time>
      </trkpt>
      <trkpt lat="45.64143" lon="6.24889">
        <ele>1695</ele>
        <time>2011-06-12T14:56:48Z</time>
      </trkpt>
      <trkpt lat="45.64144" lon="6.24886">
        <ele>1694</ele>
        <time>2011-06-12T14:56:53Z</time>
      </trkpt>
      <trkpt lat="45.64147" lon="6.24883">
        <ele>1694</ele>
        <time>2011-06-12T14:56:58Z</time>
      </trkpt>
      <trkpt lat="45.64149" lon="6.2488">
        <ele>1693</ele>
        <time>2011-06-12T14:57:03Z</time>
      </trkpt>
      <trkpt lat="45.6415" lon="6.24877">
        <ele>1692</ele>
        <time>2011-06-12T14:57:08Z</time>
      </trkpt>
      <trkpt lat="45.64151" lon="6.24873">
        <ele>1692</ele>
        <time>2011-06-12T14:57:13Z</time>
      </trkpt>
      <trkpt lat="45.64153" lon="6.2487">
        <ele>1691</ele>
        <time>2011-06-12T14:57:18Z</time>
      </trkpt>
      <trkpt lat="45.64156" lon="6.24866">
        <ele>1689</ele>
        <time>2011-06-12T14:57:23Z</time>
      </trkpt>
      <trkpt lat="45.6416" lon="6.24863">
        <ele>1689</ele>
        <time>2011-06-12T14:57:28Z</time>
      </trkpt>
      <trkpt lat="45.64163" lon="6.24862">
        <ele>1688</ele>
        <time>2011-06-12T14:57:33Z</time>
      </trkpt>
      <trkpt lat="45.64167" lon="6.24862">
        <ele>1671</ele>
        <time>2011-06-12T14:57:38Z</time>
      </trkpt>
      <trkpt lat="45.64171" lon="6.24859">
        <ele>1670</ele>
        <time>2011-06-12T14:57:43Z</time>
      </trkpt>
      <trkpt lat="45.64174" lon="6.24855">
        <ele>1670</ele>
        <time>2011-06-12T14:57:48Z</time>
      </trkpt>
      <trkpt lat="45.64176" lon="6.24853">
        <ele>1670</ele>
        <time>2011-06-12T14:57:53Z</time>
      </trkpt>
      <trkpt lat="45.6418" lon="6.24853">
        <ele>1669</ele>
        <time>2011-06-12T14:57:58Z</time>
      </trkpt>
      <trkpt lat="45.64183" lon="6.24852">
        <ele>1669</ele>
        <time>2011-06-12T14:58:03Z</time>
      </trkpt>
      <trkpt lat="45.64188" lon="6.24851">
        <ele>1668</ele>
        <time>2011-06-12T14:58:08Z</time>
      </trkpt>
      <trkpt lat="45.64194" lon="6.24846">
        <ele>1667</ele>
        <time>2011-06-12T14:58:13Z</time>
      </trkpt>
      <trkpt lat="45.64198" lon="6.24839">
        <ele>1666</ele>
        <time>2011-06-12T14:58:18Z</time>
      </trkpt>
      <trkpt lat="45.64198" lon="6.24835">
        <ele>1666</ele>
        <time>2011-06-12T14:58:23Z</time>
      </trkpt>
      <trkpt lat="45.64198" lon="6.24833">
        <ele>1654</ele>
        <time>2011-06-12T14:58:28Z</time>
      </trkpt>
      <trkpt lat="45.64201" lon="6.24832">
        <ele>1653</ele>
        <time>2011-06-12T14:58:33Z</time>
      </trkpt>
      <trkpt lat="45.64203" lon="6.2483">
        <ele>1652</ele>
        <time>2011-06-12T14:58:38Z</time>
      </trkpt>
      <trkpt lat="45.64204" lon="6.24829">
        <ele>1652</ele>
        <time>2011-06-12T14:58:43Z</time>
      </trkpt>
      <trkpt lat="45.64206" lon="6.24829">
        <ele>1651</ele>
        <time>2011-06-12T14:58:48Z</time>
      </trkpt>
      <trkpt lat="45.64209" lon="6.2483">
        <ele>1651</ele>
        <time>2011-06-12T14:58:53Z</time>
      </trkpt>
      <trkpt lat="45.64211" lon="6.2483">
        <ele>1650</ele>
        <time>2011-06-12T14:58:58Z</time>
      </trkpt>
      <trkpt lat="45.64214" lon="6.24831">
        <ele>1649</ele>
        <time>2011-06-12T14:59:03Z</time>
      </trkpt>
      <trkpt lat="45.64215" lon="6.24831">
        <ele>1649</ele>
        <time>2011-06-12T14:59:08Z</time>
      </trkpt>
      <trkpt lat="45.64217" lon="6.24828">
        <ele>1649</ele>
        <time>2011-06-12T14:59:13Z</time>
      </trkpt>
      <trkpt lat="45.64219" lon="6.24826">
        <ele>1648</ele>
        <time>2011-06-12T14:59:18Z</time>
      </trkpt>
      <trkpt lat="45.64221" lon="6.24826">
        <ele>1648</ele>
        <time>2011-06-12T14:59:23Z</time>
      </trkpt>
      <trkpt lat="45.64225" lon="6.24824">
        <ele>1647</ele>
        <time>2011-06-12T14:59:28Z</time>
      </trkpt>
      <trkpt lat="45.64229" lon="6.24823">
        <ele>1647</ele>
        <time>2011-06-12T14:59:33Z</time>
      </trkpt>
      <trkpt lat="45.64232" lon="6.24821">
        <ele>1647</ele>
        <time>2011-06-12T14:59:38Z</time>
      </trkpt>
      <trkpt lat="45.64235" lon="6.2482">
        <ele>1646</ele>
        <time>2011-06-12T14:59:43Z</time>
      </trkpt>
      <trkpt lat="45.64238" lon="6.2482">
        <ele>1646</ele>
        <time>2011-06-12T14:59:48Z</time>
      </trkpt>
      <trkpt lat="45.6424" lon="6.24818">
        <ele>1646</ele>
        <time>2011-06-12T14:59:53Z</time>
      </trkpt>
      <trkpt lat="45.64242" lon="6.24819">
        <ele>1646</ele>
        <time>2011-06-12T14:59:58Z</time>
      </trkpt>
      <trkpt lat="45.64243" lon="6.24818">
        <ele>1646</ele>
        <time>2011-06-12T15:00:03Z</time>
      </trkpt>
      <trkpt lat="45.64243" lon="6.24817">
        <ele>1646</ele>
        <time>2011-06-12T15:00:08Z</time>
      </trkpt>
      <trkpt lat="45.64244" lon="6.24815">
        <ele>1645</ele>
        <time>2011-06-12T15:00:13Z</time>
      </trkpt>
      <trkpt lat="45.64245" lon="6.24815">
        <ele>1645</ele>
        <time>2011-06-12T15:00:18Z</time>
      </trkpt>
      <trkpt lat="45.64246" lon="6.24814">
        <ele>1645</ele>
        <time>2011-06-12T15:00:23Z</time>
      </trkpt>
      <trkpt lat="45.64248" lon="6.24814">
        <ele>1645</ele>
        <time>2011-06-12T15:00:28Z</time>
      </trkpt>
      <trkpt lat="45.6425" lon="6.24815">
        <ele>1633</ele>
        <time>2011-06-12T15:00:33Z</time>
      </trkpt>
      <trkpt lat="45.64253" lon="6.24817">
        <ele>1633</ele>
        <time>2011-06-12T15:00:38Z</time>
      </trkpt>
      <trkpt lat="45.64254" lon="6.24816">
        <ele>1632</ele>
        <time>2011-06-12T15:00:43Z</time>
      </trkpt>
      <trkpt lat="45.64256" lon="6.24815">
        <ele>1632</ele>
        <time>2011-06-12T15:00:48Z</time>
      </trkpt>
      <trkpt lat="45.64258" lon="6.24816">
        <ele>1632</ele>
        <time>2011-06-12T15:00:53Z</time>
      </trkpt>
      <trkpt lat="45.64261" lon="6.24816">
        <ele>1631</ele>
        <time>2011-06-12T15:00:58Z</time>
      </trkpt>
      <trkpt lat="45.64264" lon="6.24817">
        <ele>1630</ele>
        <time>2011-06-12T15:01:03Z</time>
      </trkpt>
      <trkpt lat="45.64266" lon="6.24817">
        <ele>1629</ele>
        <time>2011-06-12T15:01:08Z</time>
      </trkpt>
      <trkpt lat="45.64267" lon="6.24817">
        <ele>1629</ele>
        <time>2011-06-12T15:01:13Z</time>
      </trkpt>
      <trkpt lat="45.6427" lon="6.24817">
        <ele>1628</ele>
        <time>2011-06-12T15:01:18Z</time>
      </trkpt>
      <trkpt lat="45.6427" lon="6.24817">
        <ele>1628</ele>
        <time>2011-06-12T15:01:23Z</time>
      </trkpt>
      <trkpt lat="45.64271" lon="6.24817">
        <ele>1627</ele>
        <time>2011-06-12T15:01:28Z</time>
      </trkpt>
      <trkpt lat="45.64273" lon="6.24815">
        <ele>1626</ele>
        <time>2011-06-12T15:01:33Z</time>
      </trkpt>
      <trkpt lat="45.64274" lon="6.24816">
        <ele>1626</ele>
        <time>2011-06-12T15:01:38Z</time>
      </trkpt>
      <trkpt lat="45.64275" lon="6.24815">
        <ele>1625</ele>
        <time>2011-06-12T15:01:43Z</time>
      </trkpt>
      <trkpt lat="45.64277" lon="6.24817">
        <ele>1625</ele>
        <time>2011-06-12T15:01:48Z</time>
      </trkpt>
      <trkpt lat="45.64278" lon="6.24815">
        <ele>1624</ele>
        <time>2011-06-12T15:01:53Z</time>
      </trkpt>
      <trkpt lat="45.64279" lon="6.24814">
        <ele>1624</ele>
        <time>2011-06-12T15:01:58Z</time>
      </trkpt>
      <trkpt lat="45.6428" lon="6.24814">
        <ele>1623</ele>
        <time>2011-06-12T15:02:03Z</time>
      </trkpt>
      <trkpt lat="45.64281" lon="6.24817">
        <ele>1623</ele>
        <time>2011-06-12T15:02:08Z</time>
      </trkpt>
      <trkpt lat="45.64283" lon="6.24818">
        <ele>1623</ele>
        <time>2011-06-12T15:02:13Z</time>
      </trkpt>
      <trkpt lat="45.64286" lon="6.24819">
        <ele>1622</ele>
        <time>2011-06-12T15:02:18Z</time>
      </trkpt>
      <trkpt lat="45.64288" lon="6.24821">
        <ele>1621</ele>
        <time>2011-06-12T15:02:23Z</time>
      </trkpt>
      <trkpt lat="45.64291" lon="6.24823">
        <ele>1620</ele>
        <time>2011-06-12T15:02:28Z</time>
      </trkpt>
      <trkpt lat="45.64293" lon="6.24824">
        <ele>1620</ele>
        <time>2011-06-12T15:02:33Z</time>
      </trkpt>
      <trkpt lat="45.64295" lon="6.24824">
        <ele>1619</ele>
        <time>2011-06-12T15:02:38Z</time>
      </trkpt>
      <trkpt lat="45.64297" lon="6.24822">
        <ele>1618</ele>
        <time>2011-06-12T15:02:43Z</time>
      </trkpt>
      <trkpt lat="45.64299" lon="6.2482">
        <ele>1617</ele>
        <time>2011-06-12T15:02:48Z</time>
      </trkpt>
      <trkpt lat="45.64301" lon="6.24817">
        <ele>1617</ele>
        <time>2011-06-12T15:02:53Z</time>
      </trkpt>
      <trkpt lat="45.64302" lon="6.24813">
        <ele>1616</ele>
        <time>2011-06-12T15:02:58Z</time>
      </trkpt>
      <trkpt lat="45.64301" lon="6.24812">
        <ele>1617</ele>
        <time>2011-06-12T15:03:03Z</time>
      </trkpt>
      <trkpt lat="45.64301" lon="6.2481">
        <ele>1617</ele>
        <time>2011-06-12T15:03:08Z</time>
      </trkpt>
      <trkpt lat="45.64302" lon="6.24808">
        <ele>1616</ele>
        <time>2011-06-12T15:03:13Z</time>
      </trkpt>
      <trkpt lat="45.64305" lon="6.24803">
        <ele>1616</ele>
        <time>2011-06-12T15:03:18Z</time>
      </trkpt>
      <trkpt lat="45.64306" lon="6.24798">
        <ele>1615</ele>
        <time>2011-06-12T15:03:23Z</time>
      </trkpt>
      <trkpt lat="45.64309" lon="6.24797">
        <ele>1615</ele>
        <time>2011-06-12T15:03:28Z</time>
      </trkpt>
      <trkpt lat="45.64313" lon="6.248">
        <ele>1614</ele>
        <time>2011-06-12T15:03:33Z</time>
      </trkpt>
      <trkpt lat="45.64316" lon="6.24799">
        <ele>1613</ele>
        <time>2011-06-12T15:03:38Z</time>
      </trkpt>
      <trkpt lat="45.64321" lon="6.24797">
        <ele>1613</ele>
        <time>2011-06-12T15:03:43Z</time>
      </trkpt>
      <trkpt lat="45.64324" lon="6.24795">
        <ele>1612</ele>
        <time>2011-06-12T15:03:48Z</time>
      </trkpt>
      <trkpt lat="45.64323" lon="6.24792">
        <ele>1612</ele>
        <time>2011-06-12T15:06:13Z</time>
      </trkpt>
      <trkpt lat="45.64324" lon="6.24787">
        <ele>1612</ele>
        <time>2011-06-12T15:06:18Z</time>
      </trkpt>
      <trkpt lat="45.64325" lon="6.24781">
        <ele>1611</ele>
        <time>2011-06-12T15:06:23Z</time>
      </trkpt>
      <trkpt lat="45.64324" lon="6.24774">
        <ele>1610</ele>
        <time>2011-06-12T15:06:28Z</time>
      </trkpt>
      <trkpt lat="45.64324" lon="6.24767">
        <ele>1609</ele>
        <time>2011-06-12T15:06:33Z</time>
      </trkpt>
      <trkpt lat="45.64324" lon="6.24761">
        <ele>1607</ele>
        <time>2011-06-12T15:06:38Z</time>
      </trkpt>
      <trkpt lat="45.64321" lon="6.24755">
        <ele>1607</ele>
        <time>2011-06-12T15:06:43Z</time>
      </trkpt>
      <trkpt lat="45.64318" lon="6.24752">
        <ele>1608</ele>
        <time>2011-06-12T15:06:48Z</time>
      </trkpt>
      <trkpt lat="45.64311" lon="6.24749">
        <ele>1596</ele>
        <time>2011-06-12T15:06:53Z</time>
      </trkpt>
      <trkpt lat="45.64305" lon="6.24746">
        <ele>1595</ele>
        <time>2011-06-12T15:06:58Z</time>
      </trkpt>
      <trkpt lat="45.64299" lon="6.24744">
        <ele>1596</ele>
        <time>2011-06-12T15:07:03Z</time>
      </trkpt>
      <trkpt lat="45.64293" lon="6.24743">
        <ele>1596</ele>
        <time>2011-06-12T15:07:08Z</time>
      </trkpt>
      <trkpt lat="45.64287" lon="6.24741">
        <ele>1597</ele>
        <time>2011-06-12T15:07:13Z</time>
      </trkpt>
      <trkpt lat="45.64281" lon="6.2474">
        <ele>1598</ele>
        <time>2011-06-12T15:07:18Z</time>
      </trkpt>
      <trkpt lat="45.64276" lon="6.24735">
        <ele>1599</ele>
        <time>2011-06-12T15:07:23Z</time>
      </trkpt>
      <trkpt lat="45.64274" lon="6.2473">
        <ele>1598</ele>
        <time>2011-06-12T15:07:28Z</time>
      </trkpt>
      <trkpt lat="45.64272" lon="6.24725">
        <ele>1596</ele>
        <time>2011-06-12T15:07:33Z</time>
      </trkpt>
      <trkpt lat="45.6427" lon="6.24722">
        <ele>1596</ele>
        <time>2011-06-12T15:07:38Z</time>
      </trkpt>
      <trkpt lat="45.64267" lon="6.24718">
        <ele>1595</ele>
        <time>2011-06-12T15:07:43Z</time>
      </trkpt>
      <trkpt lat="45.64261" lon="6.24717">
        <ele>1595</ele>
        <time>2011-06-12T15:07:48Z</time>
      </trkpt>
      <trkpt lat="45.64252" lon="6.24717">
        <ele>1596</ele>
        <time>2011-06-12T15:07:53Z</time>
      </trkpt>
      <trkpt lat="45.64246" lon="6.24719">
        <ele>1603</ele>
        <time>2011-06-12T15:07:58Z</time>
      </trkpt>
      <trkpt lat="45.64241" lon="6.24718">
        <ele>1602</ele>
        <time>2011-06-12T15:08:03Z</time>
      </trkpt>
      <trkpt lat="45.64237" lon="6.24716">
        <ele>1601</ele>
        <time>2011-06-12T15:08:08Z</time>
      </trkpt>
      <trkpt lat="45.6423" lon="6.24714">
        <ele>1600</ele>
        <time>2011-06-12T15:08:13Z</time>
      </trkpt>
      <trkpt lat="45.64226" lon="6.24713">
        <ele>1600</ele>
        <time>2011-06-12T15:08:18Z</time>
      </trkpt>
      <trkpt lat="45.64221" lon="6.24709">
        <ele>1598</ele>
        <time>2011-06-12T15:08:23Z</time>
      </trkpt>
      <trkpt lat="45.64216" lon="6.24708">
        <ele>1598</ele>
        <time>2011-06-12T15:08:28Z</time>
      </trkpt>
      <trkpt lat="45.64209" lon="6.24707">
        <ele>1598</ele>
        <time>2011-06-12T15:08:33Z</time>
      </trkpt>
      <trkpt lat="45.64204" lon="6.24707">
        <ele>1599</ele>
        <time>2011-06-12T15:08:38Z</time>
      </trkpt>
      <trkpt lat="45.64201" lon="6.24709">
        <ele>1599</ele>
        <time>2011-06-12T15:08:43Z</time>
      </trkpt>
      <trkpt lat="45.64197" lon="6.24712">
        <ele>1600</ele>
        <time>2011-06-12T15:08:48Z</time>
      </trkpt>
      <trkpt lat="45.64193" lon="6.24714">
        <ele>1602</ele>
        <time>2011-06-12T15:08:53Z</time>
      </trkpt>
      <trkpt lat="45.64188" lon="6.24716">
        <ele>1603</ele>
        <time>2011-06-12T15:08:58Z</time>
      </trkpt>
      <trkpt lat="45.64184" lon="6.24716">
        <ele>1603</ele>
        <time>2011-06-12T15:09:03Z</time>
      </trkpt>
      <trkpt lat="45.64182" lon="6.24713">
        <ele>1602</ele>
        <time>2011-06-12T15:09:08Z</time>
      </trkpt>
      <trkpt lat="45.64177" lon="6.2471">
        <ele>1600</ele>
        <time>2011-06-12T15:09:13Z</time>
      </trkpt>
      <trkpt lat="45.64172" lon="6.24707">
        <ele>1599</ele>
        <time>2011-06-12T15:09:18Z</time>
      </trkpt>
      <trkpt lat="45.64167" lon="6.24705">
        <ele>1598</ele>
        <time>2011-06-12T15:09:23Z</time>
      </trkpt>
      <trkpt lat="45.64162" lon="6.24706">
        <ele>1596</ele>
        <time>2011-06-12T15:09:28Z</time>
      </trkpt>
      <trkpt lat="45.64156" lon="6.24706">
        <ele>1596</ele>
        <time>2011-06-12T15:09:33Z</time>
      </trkpt>
      <trkpt lat="45.6415" lon="6.24706">
        <ele>1596</ele>
        <time>2011-06-12T15:09:38Z</time>
      </trkpt>
      <trkpt lat="45.64148" lon="6.24705">
        <ele>1596</ele>
        <time>2011-06-12T15:09:43Z</time>
      </trkpt>
      <trkpt lat="45.64145" lon="6.24706">
        <ele>1596</ele>
        <time>2011-06-12T15:09:48Z</time>
      </trkpt>
      <trkpt lat="45.64143" lon="6.24706">
        <ele>1596</ele>
        <time>2011-06-12T15:09:53Z</time>
      </trkpt>
      <trkpt lat="45.64141" lon="6.24707">
        <ele>1596</ele>
        <time>2011-06-12T15:09:58Z</time>
      </trkpt>
      <trkpt lat="45.64138" lon="6.24705">
        <ele>1595</ele>
        <time>2011-06-12T15:10:03Z</time>
      </trkpt>
      <trkpt lat="45.64137" lon="6.24704">
        <ele>1595</ele>
        <time>2011-06-12T15:10:08Z</time>
      </trkpt>
      <trkpt lat="45.64137" lon="6.24705">
        <ele>1595</ele>
        <time>2011-06-12T15:10:13Z</time>
      </trkpt>
      <trkpt lat="45.64135" lon="6.24705">
        <ele>1595</ele>
        <time>2011-06-12T15:10:18Z</time>
      </trkpt>
      <trkpt lat="45.64132" lon="6.24709">
        <ele>1596</ele>
        <time>2011-06-12T15:10:23Z</time>
      </trkpt>
      <trkpt lat="45.64128" lon="6.24708">
        <ele>1596</ele>
        <time>2011-06-12T15:10:28Z</time>
      </trkpt>
      <trkpt lat="45.64122" lon="6.24706">
        <ele>1595</ele>
        <time>2011-06-12T15:10:33Z</time>
      </trkpt>
      <trkpt lat="45.64115" lon="6.24704">
        <ele>1594</ele>
        <time>2011-06-12T15:10:38Z</time>
      </trkpt>
      <trkpt lat="45.64108" lon="6.24702">
        <ele>1592</ele>
        <time>2011-06-12T15:10:43Z</time>
      </trkpt>
      <trkpt lat="45.64101" lon="6.24701">
        <ele>1591</ele>
        <time>2011-06-12T15:10:48Z</time>
      </trkpt>
      <trkpt lat="45.64095" lon="6.24701">
        <ele>1591</ele>
        <time>2011-06-12T15:10:53Z</time>
      </trkpt>
      <trkpt lat="45.64088" lon="6.24704">
        <ele>1591</ele>
        <time>2011-06-12T15:10:58Z</time>
      </trkpt>
      <trkpt lat="45.64081" lon="6.24705">
        <ele>1582</ele>
        <time>2011-06-12T15:11:03Z</time>
      </trkpt>
      <trkpt lat="45.64075" lon="6.2471">
        <ele>1584</ele>
        <time>2011-06-12T15:11:08Z</time>
      </trkpt>
      <trkpt lat="45.64068" lon="6.24715">
        <ele>1585</ele>
        <time>2011-06-12T15:11:13Z</time>
      </trkpt>
      <trkpt lat="45.64062" lon="6.24719">
        <ele>1586</ele>
        <time>2011-06-12T15:11:18Z</time>
      </trkpt>
      <trkpt lat="45.64055" lon="6.24723">
        <ele>1586</ele>
        <time>2011-06-12T15:11:23Z</time>
      </trkpt>
      <trkpt lat="45.64048" lon="6.24727">
        <ele>1586</ele>
        <time>2011-06-12T15:11:28Z</time>
      </trkpt>
      <trkpt lat="45.64044" lon="6.24731">
        <ele>1586</ele>
        <time>2011-06-12T15:11:33Z</time>
      </trkpt>
      <trkpt lat="45.64039" lon="6.24735">
        <ele>1586</ele>
        <time>2011-06-12T15:11:38Z</time>
      </trkpt>
      <trkpt lat="45.64032" lon="6.24739">
        <ele>1586</ele>
        <time>2011-06-12T15:11:43Z</time>
      </trkpt>
      <trkpt lat="45.64026" lon="6.24741">
        <ele>1587</ele>
        <time>2011-06-12T15:11:48Z</time>
      </trkpt>
      <trkpt lat="45.64019" lon="6.24745">
        <ele>1588</ele>
        <time>2011-06-12T15:11:53Z</time>
      </trkpt>
      <trkpt lat="45.64013" lon="6.24749">
        <ele>1590</ele>
        <time>2011-06-12T15:11:58Z</time>
      </trkpt>
      <trkpt lat="45.64006" lon="6.24752">
        <ele>1603</ele>
        <time>2011-06-12T15:12:03Z</time>
      </trkpt>
      <trkpt lat="45.63999" lon="6.24754">
        <ele>1596</ele>
        <time>2011-06-12T15:12:08Z</time>
      </trkpt>
      <trkpt lat="45.63992" lon="6.24757">
        <ele>1597</ele>
        <time>2011-06-12T15:12:13Z</time>
      </trkpt>
      <trkpt lat="45.63985" lon="6.24758">
        <ele>1598</ele>
        <time>2011-06-12T15:12:18Z</time>
      </trkpt>
      <trkpt lat="45.6398" lon="6.24759">
        <ele>1598</ele>
        <time>2011-06-12T15:12:23Z</time>
      </trkpt>
      <trkpt lat="45.63974" lon="6.24763">
        <ele>1598</ele>
        <time>2011-06-12T15:12:28Z</time>
      </trkpt>
      <trkpt lat="45.63969" lon="6.24762">
        <ele>1597</ele>
        <time>2011-06-12T15:12:33Z</time>
      </trkpt>
      <trkpt lat="45.63962" lon="6.24762">
        <ele>1595</ele>
        <time>2011-06-12T15:12:38Z</time>
      </trkpt>
      <trkpt lat="45.63956" lon="6.24764">
        <ele>1594</ele>
        <time>2011-06-12T15:12:43Z</time>
      </trkpt>
      <trkpt lat="45.63948" lon="6.24766">
        <ele>1591</ele>
        <time>2011-06-12T15:12:48Z</time>
      </trkpt>
      <trkpt lat="45.63941" lon="6.2477">
        <ele>1590</ele>
        <time>2011-06-12T15:12:53Z</time>
      </trkpt>
      <trkpt lat="45.63934" lon="6.24774">
        <ele>1589</ele>
        <time>2011-06-12T15:12:58Z</time>
      </trkpt>
      <trkpt lat="45.63927" lon="6.24775">
        <ele>1588</ele>
        <time>2011-06-12T15:13:03Z</time>
      </trkpt>
      <trkpt lat="45.63921" lon="6.24777">
        <ele>1587</ele>
        <time>2011-06-12T15:13:08Z</time>
      </trkpt>
      <trkpt lat="45.63917" lon="6.24778">
        <ele>1588</ele>
        <time>2011-06-12T15:13:13Z</time>
      </trkpt>
      <trkpt lat="45.63911" lon="6.24782">
        <ele>1570</ele>
        <time>2011-06-12T15:13:18Z</time>
      </trkpt>
      <trkpt lat="45.63905" lon="6.24786">
        <ele>1571</ele>
        <time>2011-06-12T15:13:23Z</time>
      </trkpt>
      <trkpt lat="45.63899" lon="6.24789">
        <ele>1572</ele>
        <time>2011-06-12T15:13:28Z</time>
      </trkpt>
      <trkpt lat="45.63892" lon="6.24792">
        <ele>1572</ele>
        <time>2011-06-12T15:13:33Z</time>
      </trkpt>
      <trkpt lat="45.63886" lon="6.24795">
        <ele>1572</ele>
        <time>2011-06-12T15:13:38Z</time>
      </trkpt>
      <trkpt lat="45.63879" lon="6.24797">
        <ele>1572</ele>
        <time>2011-06-12T15:13:43Z</time>
      </trkpt>
      <trkpt lat="45.63873" lon="6.24801">
        <ele>1571</ele>
        <time>2011-06-12T15:13:48Z</time>
      </trkpt>
      <trkpt lat="45.63867" lon="6.24804">
        <ele>1571</ele>
        <time>2011-06-12T15:13:53Z</time>
      </trkpt>
      <trkpt lat="45.63862" lon="6.24809">
        <ele>1572</ele>
        <time>2011-06-12T15:13:58Z</time>
      </trkpt>
      <trkpt lat="45.63856" lon="6.24811">
        <ele>1572</ele>
        <time>2011-06-12T15:14:03Z</time>
      </trkpt>
      <trkpt lat="45.63853" lon="6.24813">
        <ele>1572</ele>
        <time>2011-06-12T15:14:08Z</time>
      </trkpt>
      <trkpt lat="45.63851" lon="6.24816">
        <ele>1573</ele>
        <time>2011-06-12T15:14:13Z</time>
      </trkpt>
      <trkpt lat="45.63848" lon="6.24817">
        <ele>1573</ele>
        <time>2011-06-12T15:14:18Z</time>
      </trkpt>
      <trkpt lat="45.63843" lon="6.24818">
        <ele>1573</ele>
        <time>2011-06-12T15:14:23Z</time>
      </trkpt>
      <trkpt lat="45.63839" lon="6.24823">
        <ele>1574</ele>
        <time>2011-06-12T15:14:28Z</time>
      </trkpt>
      <trkpt lat="45.63836" lon="6.24821">
        <ele>1574</ele>
        <time>2011-06-12T15:14:33Z</time>
      </trkpt>
      <trkpt lat="45.63831" lon="6.2482">
        <ele>1565</ele>
        <time>2011-06-12T15:14:38Z</time>
      </trkpt>
      <trkpt lat="45.63823" lon="6.24823">
        <ele>1565</ele>
        <time>2011-06-12T15:14:43Z</time>
      </trkpt>
      <trkpt lat="45.63817" lon="6.24824">
        <ele>1562</ele>
        <time>2011-06-12T15:14:48Z</time>
      </trkpt>
      <trkpt lat="45.63812" lon="6.24825">
        <ele>1561</ele>
        <time>2011-06-12T15:14:53Z</time>
      </trkpt>
      <trkpt lat="45.63805" lon="6.2483">
        <ele>1559</ele>
        <time>2011-06-12T15:14:58Z</time>
      </trkpt>
      <trkpt lat="45.63797" lon="6.24834">
        <ele>1579</ele>
        <time>2011-06-12T15:15:03Z</time>
      </trkpt>
      <trkpt lat="45.63793" lon="6.24836">
        <ele>1578</ele>
        <time>2011-06-12T15:15:08Z</time>
      </trkpt>
      <trkpt lat="45.6379" lon="6.24837">
        <ele>1578</ele>
        <time>2011-06-12T15:15:13Z</time>
      </trkpt>
      <trkpt lat="45.63784" lon="6.24839">
        <ele>1576</ele>
        <time>2011-06-12T15:15:18Z</time>
      </trkpt>
      <trkpt lat="45.63777" lon="6.24839">
        <ele>1575</ele>
        <time>2011-06-12T15:15:23Z</time>
      </trkpt>
      <trkpt lat="45.63775" lon="6.24839">
        <ele>1574</ele>
        <time>2011-06-12T15:15:28Z</time>
      </trkpt>
      <trkpt lat="45.6377" lon="6.24843">
        <ele>1572</ele>
        <time>2011-06-12T15:15:33Z</time>
      </trkpt>
      <trkpt lat="45.63765" lon="6.24844">
        <ele>1571</ele>
        <time>2011-06-12T15:15:38Z</time>
      </trkpt>
      <trkpt lat="45.6376" lon="6.24844">
        <ele>1569</ele>
        <time>2011-06-12T15:15:43Z</time>
      </trkpt>
      <trkpt lat="45.63754" lon="6.24845">
        <ele>1568</ele>
        <time>2011-06-12T15:15:48Z</time>
      </trkpt>
      <trkpt lat="45.63751" lon="6.24844">
        <ele>1566</ele>
        <time>2011-06-12T15:15:53Z</time>
      </trkpt>
      <trkpt lat="45.63747" lon="6.24849">
        <ele>1564</ele>
        <time>2011-06-12T15:15:58Z</time>
      </trkpt>
      <trkpt lat="45.63744" lon="6.24851">
        <ele>1565</ele>
        <time>2011-06-12T15:16:03Z</time>
      </trkpt>
      <trkpt lat="45.63742" lon="6.24859">
        <ele>1567</ele>
        <time>2011-06-12T15:16:08Z</time>
      </trkpt>
      <trkpt lat="45.6374" lon="6.24867">
        <ele>1569</ele>
        <time>2011-06-12T15:16:13Z</time>
      </trkpt>
      <trkpt lat="45.63738" lon="6.24869">
        <ele>1570</ele>
        <time>2011-06-12T15:16:18Z</time>
      </trkpt>
      <trkpt lat="45.63738" lon="6.24867">
        <ele>1569</ele>
        <time>2011-06-12T15:16:23Z</time>
      </trkpt>
      <trkpt lat="45.63739" lon="6.24864">
        <ele>1568</ele>
        <time>2011-06-12T15:16:28Z</time>
      </trkpt>
      <trkpt lat="45.63736" lon="6.2486">
        <ele>1567</ele>
        <time>2011-06-12T15:16:33Z</time>
      </trkpt>
      <trkpt lat="45.63735" lon="6.24852">
        <ele>1566</ele>
        <time>2011-06-12T15:16:38Z</time>
      </trkpt>
      <trkpt lat="45.63726" lon="6.24847">
        <ele>1566</ele>
        <time>2011-06-12T15:16:43Z</time>
      </trkpt>
      <trkpt lat="45.63719" lon="6.24848">
        <ele>1566</ele>
        <time>2011-06-12T15:16:48Z</time>
      </trkpt>
      <trkpt lat="45.6371" lon="6.2485">
        <ele>1567</ele>
        <time>2011-06-12T15:16:53Z</time>
      </trkpt>
      <trkpt lat="45.63703" lon="6.24854">
        <ele>1567</ele>
        <time>2011-06-12T15:16:58Z</time>
      </trkpt>
      <trkpt lat="45.63698" lon="6.24851">
        <ele>1567</ele>
        <time>2011-06-12T15:17:03Z</time>
      </trkpt>
      <trkpt lat="45.63695" lon="6.24848">
        <ele>1566</ele>
        <time>2011-06-12T15:17:08Z</time>
      </trkpt>
      <trkpt lat="45.63689" lon="6.2485">
        <ele>1566</ele>
        <time>2011-06-12T15:17:13Z</time>
      </trkpt>
      <trkpt lat="45.63685" lon="6.24852">
        <ele>1566</ele>
        <time>2011-06-12T15:17:18Z</time>
      </trkpt>
      <trkpt lat="45.63682" lon="6.24855">
        <ele>1566</ele>
        <time>2011-06-12T15:17:23Z</time>
      </trkpt>
      <trkpt lat="45.6368" lon="6.24854">
        <ele>1566</ele>
        <time>2011-06-12T15:17:28Z</time>
      </trkpt>
      <trkpt lat="45.63679" lon="6.24852">
        <ele>1565</ele>
        <time>2011-06-12T15:17:33Z</time>
      </trkpt>
      <trkpt lat="45.63677" lon="6.24853">
        <ele>1565</ele>
        <time>2011-06-12T15:17:38Z</time>
      </trkpt>
      <trkpt lat="45.63673" lon="6.24854">
        <ele>1565</ele>
        <time>2011-06-12T15:17:43Z</time>
      </trkpt>
      <trkpt lat="45.63672" lon="6.24851">
        <ele>1565</ele>
        <time>2011-06-12T15:17:48Z</time>
      </trkpt>
      <trkpt lat="45.63669" lon="6.24846">
        <ele>1563</ele>
        <time>2011-06-12T15:17:53Z</time>
      </trkpt>
      <trkpt lat="45.63665" lon="6.24841">
        <ele>1563</ele>
        <time>2011-06-12T15:17:58Z</time>
      </trkpt>
      <trkpt lat="45.63661" lon="6.24838">
        <ele>1563</ele>
        <time>2011-06-12T15:18:03Z</time>
      </trkpt>
      <trkpt lat="45.63656" lon="6.24835">
        <ele>1565</ele>
        <time>2011-06-12T15:18:08Z</time>
      </trkpt>
      <trkpt lat="45.63653" lon="6.24831">
        <ele>1558</ele>
        <time>2011-06-12T15:18:13Z</time>
      </trkpt>
      <trkpt lat="45.63649" lon="6.24827">
        <ele>1558</ele>
        <time>2011-06-12T15:18:18Z</time>
      </trkpt>
      <trkpt lat="45.63645" lon="6.24823">
        <ele>1558</ele>
        <time>2011-06-12T15:18:23Z</time>
      </trkpt>
      <trkpt lat="45.63641" lon="6.24822">
        <ele>1559</ele>
        <time>2011-06-12T15:18:28Z</time>
      </trkpt>
      <trkpt lat="45.63636" lon="6.24818">
        <ele>1559</ele>
        <time>2011-06-12T15:18:33Z</time>
      </trkpt>
      <trkpt lat="45.6363" lon="6.24817">
        <ele>1559</ele>
        <time>2011-06-12T15:18:38Z</time>
      </trkpt>
      <trkpt lat="45.63625" lon="6.24818">
        <ele>1560</ele>
        <time>2011-06-12T15:18:43Z</time>
      </trkpt>
      <trkpt lat="45.6362" lon="6.24817">
        <ele>1561</ele>
        <time>2011-06-12T15:18:48Z</time>
      </trkpt>
      <trkpt lat="45.63615" lon="6.24817">
        <ele>1561</ele>
        <time>2011-06-12T15:18:53Z</time>
      </trkpt>
      <trkpt lat="45.63611" lon="6.24816">
        <ele>1562</ele>
        <time>2011-06-12T15:18:58Z</time>
      </trkpt>
      <trkpt lat="45.63606" lon="6.24813">
        <ele>1562</ele>
        <time>2011-06-12T15:19:03Z</time>
      </trkpt>
      <trkpt lat="45.63603" lon="6.24808">
        <ele>1562</ele>
        <time>2011-06-12T15:19:08Z</time>
      </trkpt>
      <trkpt lat="45.636" lon="6.24803">
        <ele>1562</ele>
        <time>2011-06-12T15:19:13Z</time>
      </trkpt>
      <trkpt lat="45.63598" lon="6.24799">
        <ele>1561</ele>
        <time>2011-06-12T15:19:18Z</time>
      </trkpt>
      <trkpt lat="45.63598" lon="6.24795">
        <ele>1561</ele>
        <time>2011-06-12T15:19:23Z</time>
      </trkpt>
      <trkpt lat="45.63595" lon="6.24789">
        <ele>1560</ele>
        <time>2011-06-12T15:19:28Z</time>
      </trkpt>
      <trkpt lat="45.63593" lon="6.24782">
        <ele>1560</ele>
        <time>2011-06-12T15:19:33Z</time>
      </trkpt>
      <trkpt lat="45.63591" lon="6.24777">
        <ele>1559</ele>
        <time>2011-06-12T15:19:38Z</time>
      </trkpt>
      <trkpt lat="45.63589" lon="6.2477">
        <ele>1559</ele>
        <time>2011-06-12T15:19:43Z</time>
      </trkpt>
      <trkpt lat="45.63586" lon="6.24768">
        <ele>1559</ele>
        <time>2011-06-12T15:19:48Z</time>
      </trkpt>
      <trkpt lat="45.63583" lon="6.24764">
        <ele>1569</ele>
        <time>2011-06-12T15:19:53Z</time>
      </trkpt>
      <trkpt lat="45.6358" lon="6.24761">
        <ele>1568</ele>
        <time>2011-06-12T15:19:58Z</time>
      </trkpt>
      <trkpt lat="45.63579" lon="6.2476">
        <ele>1567</ele>
        <time>2011-06-12T15:20:03Z</time>
      </trkpt>
      <trkpt lat="45.63582" lon="6.24756">
        <ele>1565</ele>
        <time>2011-06-12T15:20:08Z</time>
      </trkpt>
      <trkpt lat="45.63582" lon="6.24752">
        <ele>1562</ele>
        <time>2011-06-12T15:20:13Z</time>
      </trkpt>
      <trkpt lat="45.63579" lon="6.24746">
        <ele>1564</ele>
        <time>2011-06-12T15:20:18Z</time>
      </trkpt>
      <trkpt lat="45.63577" lon="6.24741">
        <ele>1567</ele>
        <time>2011-06-12T15:20:23Z</time>
      </trkpt>
      <trkpt lat="45.63579" lon="6.24735">
        <ele>1569</ele>
        <time>2011-06-12T15:20:28Z</time>
      </trkpt>
      <trkpt lat="45.63582" lon="6.24731">
        <ele>1570</ele>
        <time>2011-06-12T15:20:33Z</time>
      </trkpt>
      <trkpt lat="45.63582" lon="6.2473">
        <ele>1570</ele>
        <time>2011-06-12T15:20:38Z</time>
      </trkpt>
      <trkpt lat="45.63582" lon="6.24727">
        <ele>1571</ele>
        <time>2011-06-12T15:20:43Z</time>
      </trkpt>
      <trkpt lat="45.63582" lon="6.24727">
        <ele>1571</ele>
        <time>2011-06-12T15:20:48Z</time>
      </trkpt>
      <trkpt lat="45.63582" lon="6.24727">
        <ele>1571</ele>
        <time>2011-06-12T15:20:53Z</time>
      </trkpt>
      <trkpt lat="45.63583" lon="6.24728">
        <ele>1571</ele>
        <time>2011-06-12T15:20:58Z</time>
      </trkpt>
      <trkpt lat="45.63587" lon="6.24728">
        <ele>1557</ele>
        <time>2011-06-12T15:21:03Z</time>
      </trkpt>
      <trkpt lat="45.63591" lon="6.24731">
        <ele>1557</ele>
        <time>2011-06-12T15:21:08Z</time>
      </trkpt>
      <trkpt lat="45.63595" lon="6.24731">
        <ele>1556</ele>
        <time>2011-06-12T15:21:13Z</time>
      </trkpt>
      <trkpt lat="45.63598" lon="6.24733">
        <ele>1556</ele>
        <time>2011-06-12T15:21:18Z</time>
      </trkpt>
      <trkpt lat="45.63603" lon="6.24735">
        <ele>1555</ele>
        <time>2011-06-12T15:21:23Z</time>
      </trkpt>
      <trkpt lat="45.63609" lon="6.24737">
        <ele>1554</ele>
        <time>2011-06-12T15:21:28Z</time>
      </trkpt>
      <trkpt lat="45.63616" lon="6.24739">
        <ele>1553</ele>
        <time>2011-06-12T15:21:33Z</time>
      </trkpt>
      <trkpt lat="45.63621" lon="6.24739">
        <ele>1552</ele>
        <time>2011-06-12T15:21:38Z</time>
      </trkpt>
      <trkpt lat="45.63627" lon="6.24739">
        <ele>1551</ele>
        <time>2011-06-12T15:21:43Z</time>
      </trkpt>
      <trkpt lat="45.63633" lon="6.24739">
        <ele>1550</ele>
        <time>2011-06-12T15:21:48Z</time>
      </trkpt>
      <trkpt lat="45.63638" lon="6.24737">
        <ele>1549</ele>
        <time>2011-06-12T15:21:53Z</time>
      </trkpt>
      <trkpt lat="45.63641" lon="6.24734">
        <ele>1549</ele>
        <time>2011-06-12T15:21:58Z</time>
      </trkpt>
      <trkpt lat="45.63644" lon="6.24731">
        <ele>1549</ele>
        <time>2011-06-12T15:22:03Z</time>
      </trkpt>
      <trkpt lat="45.63648" lon="6.24728">
        <ele>1548</ele>
        <time>2011-06-12T15:22:08Z</time>
      </trkpt>
      <trkpt lat="45.63653" lon="6.24724">
        <ele>1548</ele>
        <time>2011-06-12T15:22:13Z</time>
      </trkpt>
      <trkpt lat="45.63657" lon="6.24723">
        <ele>1547</ele>
        <time>2011-06-12T15:22:18Z</time>
      </trkpt>
      <trkpt lat="45.63661" lon="6.24722">
        <ele>1547</ele>
        <time>2011-06-12T15:22:23Z</time>
      </trkpt>
      <trkpt lat="45.63664" lon="6.24719">
        <ele>1547</ele>
        <time>2011-06-12T15:22:28Z</time>
      </trkpt>
      <trkpt lat="45.63668" lon="6.24716">
        <ele>1533</ele>
        <time>2011-06-12T15:22:33Z</time>
      </trkpt>
      <trkpt lat="45.63672" lon="6.24713">
        <ele>1533</ele>
        <time>2011-06-12T15:22:38Z</time>
      </trkpt>
      <trkpt lat="45.63677" lon="6.2471">
        <ele>1532</ele>
        <time>2011-06-12T15:22:43Z</time>
      </trkpt>
      <trkpt lat="45.63683" lon="6.24706">
        <ele>1532</ele>
        <time>2011-06-12T15:22:48Z</time>
      </trkpt>
      <trkpt lat="45.63687" lon="6.24702">
        <ele>1531</ele>
        <time>2011-06-12T15:22:53Z</time>
      </trkpt>
      <trkpt lat="45.63691" lon="6.24693">
        <ele>1531</ele>
        <time>2011-06-12T15:22:58Z</time>
      </trkpt>
      <trkpt lat="45.63696" lon="6.2469">
        <ele>1530</ele>
        <time>2011-06-12T15:23:03Z</time>
      </trkpt>
      <trkpt lat="45.63702" lon="6.24684">
        <ele>1529</ele>
        <time>2011-06-12T15:23:08Z</time>
      </trkpt>
      <trkpt lat="45.63706" lon="6.24677">
        <ele>1528</ele>
        <time>2011-06-12T15:23:13Z</time>
      </trkpt>
      <trkpt lat="45.63713" lon="6.24674">
        <ele>1527</ele>
        <time>2011-06-12T15:23:18Z</time>
      </trkpt>
      <trkpt lat="45.63718" lon="6.24668">
        <ele>1526</ele>
        <time>2011-06-12T15:23:23Z</time>
      </trkpt>
      <trkpt lat="45.63721" lon="6.24666">
        <ele>1521</ele>
        <time>2011-06-12T15:23:28Z</time>
      </trkpt>
      <trkpt lat="45.63725" lon="6.24659">
        <ele>1520</ele>
        <time>2011-06-12T15:23:33Z</time>
      </trkpt>
      <trkpt lat="45.63735" lon="6.2465">
        <ele>1519</ele>
        <time>2011-06-12T15:23:38Z</time>
      </trkpt>
      <trkpt lat="45.63739" lon="6.24643">
        <ele>1518</ele>
        <time>2011-06-12T15:23:43Z</time>
      </trkpt>
      <trkpt lat="45.63742" lon="6.2464">
        <ele>1518</ele>
        <time>2011-06-12T15:23:48Z</time>
      </trkpt>
      <trkpt lat="45.63745" lon="6.24635">
        <ele>1518</ele>
        <time>2011-06-12T15:23:53Z</time>
      </trkpt>
      <trkpt lat="45.63747" lon="6.24633">
        <ele>1518</ele>
        <time>2011-06-12T15:23:58Z</time>
      </trkpt>
      <trkpt lat="45.63746" lon="6.24627">
        <ele>1518</ele>
        <time>2011-06-12T15:24:03Z</time>
      </trkpt>
      <trkpt lat="45.63746" lon="6.24621">
        <ele>1517</ele>
        <time>2011-06-12T15:24:08Z</time>
      </trkpt>
      <trkpt lat="45.63746" lon="6.24617">
        <ele>1517</ele>
        <time>2011-06-12T15:24:13Z</time>
      </trkpt>
      <trkpt lat="45.63746" lon="6.24611">
        <ele>1516</ele>
        <time>2011-06-12T15:24:18Z</time>
      </trkpt>
      <trkpt lat="45.63747" lon="6.24602">
        <ele>1514</ele>
        <time>2011-06-12T15:24:23Z</time>
      </trkpt>
      <trkpt lat="45.63749" lon="6.24593">
        <ele>1511</ele>
        <time>2011-06-12T15:24:28Z</time>
      </trkpt>
      <trkpt lat="45.63749" lon="6.24584">
        <ele>1506</ele>
        <time>2011-06-12T15:24:33Z</time>
      </trkpt>
      <trkpt lat="45.63749" lon="6.24574">
        <ele>1508</ele>
        <time>2011-06-12T15:24:38Z</time>
      </trkpt>
      <trkpt lat="45.63752" lon="6.2457">
        <ele>1496</ele>
        <time>2011-06-12T15:24:43Z</time>
      </trkpt>
      <trkpt lat="45.63754" lon="6.24564">
        <ele>1493</ele>
        <time>2011-06-12T15:24:48Z</time>
      </trkpt>
      <trkpt lat="45.63758" lon="6.24561">
        <ele>1491</ele>
        <time>2011-06-12T15:24:53Z</time>
      </trkpt>
      <trkpt lat="45.63763" lon="6.24562">
        <ele>1490</ele>
        <time>2011-06-12T15:24:58Z</time>
      </trkpt>
      <trkpt lat="45.63769" lon="6.24564">
        <ele>1489</ele>
        <time>2011-06-12T15:25:03Z</time>
      </trkpt>
      <trkpt lat="45.63776" lon="6.24568">
        <ele>1488</ele>
        <time>2011-06-12T15:25:08Z</time>
      </trkpt>
      <trkpt lat="45.63779" lon="6.2457">
        <ele>1487</ele>
        <time>2011-06-12T15:25:13Z</time>
      </trkpt>
      <trkpt lat="45.63786" lon="6.24574">
        <ele>1486</ele>
        <time>2011-06-12T15:25:18Z</time>
      </trkpt>
      <trkpt lat="45.63789" lon="6.24569">
        <ele>1484</ele>
        <time>2011-06-12T15:25:23Z</time>
      </trkpt>
      <trkpt lat="45.63791" lon="6.2456">
        <ele>1483</ele>
        <time>2011-06-12T15:25:28Z</time>
      </trkpt>
      <trkpt lat="45.63791" lon="6.24551">
        <ele>1482</ele>
        <time>2011-06-12T15:25:33Z</time>
      </trkpt>
      <trkpt lat="45.63791" lon="6.24544">
        <ele>1482</ele>
        <time>2011-06-12T15:25:38Z</time>
      </trkpt>
      <trkpt lat="45.63788" lon="6.24539">
        <ele>1482</ele>
        <time>2011-06-12T15:25:43Z</time>
      </trkpt>
      <trkpt lat="45.63786" lon="6.24532">
        <ele>1481</ele>
        <time>2011-06-12T15:25:48Z</time>
      </trkpt>
      <trkpt lat="45.63781" lon="6.24527">
        <ele>1482</ele>
        <time>2011-06-12T15:25:53Z</time>
      </trkpt>
      <trkpt lat="45.6378" lon="6.24518">
        <ele>1482</ele>
        <time>2011-06-12T15:25:58Z</time>
      </trkpt>
      <trkpt lat="45.63775" lon="6.24509">
        <ele>1483</ele>
        <time>2011-06-12T15:26:03Z</time>
      </trkpt>
      <trkpt lat="45.6377" lon="6.24503">
        <ele>1484</ele>
        <time>2011-06-12T15:26:08Z</time>
      </trkpt>
      <trkpt lat="45.63772" lon="6.24497">
        <ele>1473</ele>
        <time>2011-06-12T15:26:13Z</time>
      </trkpt>
      <trkpt lat="45.63775" lon="6.24495">
        <ele>1471</ele>
        <time>2011-06-12T15:26:18Z</time>
      </trkpt>
      <trkpt lat="45.63779" lon="6.24493">
        <ele>1468</ele>
        <time>2011-06-12T15:26:23Z</time>
      </trkpt>
      <trkpt lat="45.63786" lon="6.24491">
        <ele>1465</ele>
        <time>2011-06-12T15:26:28Z</time>
      </trkpt>
      <trkpt lat="45.63791" lon="6.24491">
        <ele>1464</ele>
        <time>2011-06-12T15:26:33Z</time>
      </trkpt>
      <trkpt lat="45.63796" lon="6.24496">
        <ele>1462</ele>
        <time>2011-06-12T15:26:38Z</time>
      </trkpt>
      <trkpt lat="45.63803" lon="6.24498">
        <ele>1460</ele>
        <time>2011-06-12T15:26:43Z</time>
      </trkpt>
      <trkpt lat="45.63809" lon="6.24497">
        <ele>1459</ele>
        <time>2011-06-12T15:26:48Z</time>
      </trkpt>
      <trkpt lat="45.63812" lon="6.24498">
        <ele>1458</ele>
        <time>2011-06-12T15:26:53Z</time>
      </trkpt>
      <trkpt lat="45.63818" lon="6.245">
        <ele>1465</ele>
        <time>2011-06-12T15:26:58Z</time>
      </trkpt>
      <trkpt lat="45.63823" lon="6.24501">
        <ele>1462</ele>
        <time>2011-06-12T15:27:03Z</time>
      </trkpt>
      <trkpt lat="45.63827" lon="6.24503">
        <ele>1459</ele>
        <time>2011-06-12T15:27:08Z</time>
      </trkpt>
      <trkpt lat="45.6383" lon="6.24501">
        <ele>1456</ele>
        <time>2011-06-12T15:27:13Z</time>
      </trkpt>
      <trkpt lat="45.6383" lon="6.24498">
        <ele>1453</ele>
        <time>2011-06-12T15:27:18Z</time>
      </trkpt>
      <trkpt lat="45.63833" lon="6.24489">
        <ele>1454</ele>
        <time>2011-06-12T15:27:23Z</time>
      </trkpt>
      <trkpt lat="45.63836" lon="6.2448">
        <ele>1438</ele>
        <time>2011-06-12T15:27:28Z</time>
      </trkpt>
      <trkpt lat="45.63833" lon="6.24473">
        <ele>1454</ele>
        <time>2011-06-12T15:27:33Z</time>
      </trkpt>
      <trkpt lat="45.63833" lon="6.24468">
        <ele>1454</ele>
        <time>2011-06-12T15:27:38Z</time>
      </trkpt>
      <trkpt lat="45.63834" lon="6.24467">
        <ele>1434</ele>
        <time>2011-06-12T15:27:43Z</time>
      </trkpt>
      <trkpt lat="45.63833" lon="6.24462">
        <ele>1453</ele>
        <time>2011-06-12T15:27:48Z</time>
      </trkpt>
      <trkpt lat="45.63836" lon="6.24462">
        <ele>1432</ele>
        <time>2011-06-12T15:27:53Z</time>
      </trkpt>
      <trkpt lat="45.63842" lon="6.24463">
        <ele>1432</ele>
        <time>2011-06-12T15:27:58Z</time>
      </trkpt>
      <trkpt lat="45.63846" lon="6.24469">
        <ele>1433</ele>
        <time>2011-06-12T15:28:03Z</time>
      </trkpt>
      <trkpt lat="45.63854" lon="6.24474">
        <ele>1433</ele>
        <time>2011-06-12T15:28:08Z</time>
      </trkpt>
      <trkpt lat="45.63857" lon="6.24462">
        <ele>1430</ele>
        <time>2011-06-12T15:28:13Z</time>
      </trkpt>
      <trkpt lat="45.63858" lon="6.24452">
        <ele>1428</ele>
        <time>2011-06-12T15:28:18Z</time>
      </trkpt>
      <trkpt lat="45.63858" lon="6.24445">
        <ele>1427</ele>
        <time>2011-06-12T15:28:23Z</time>
      </trkpt>
      <trkpt lat="45.63862" lon="6.24438">
        <ele>1426</ele>
        <time>2011-06-12T15:28:28Z</time>
      </trkpt>
      <trkpt lat="45.63864" lon="6.24432">
        <ele>1425</ele>
        <time>2011-06-12T15:28:33Z</time>
      </trkpt>
      <trkpt lat="45.63866" lon="6.24427">
        <ele>1424</ele>
        <time>2011-06-12T15:28:38Z</time>
      </trkpt>
      <trkpt lat="45.63867" lon="6.2442">
        <ele>1423</ele>
        <time>2011-06-12T15:28:43Z</time>
      </trkpt>
      <trkpt lat="45.63871" lon="6.24413">
        <ele>1400</ele>
        <time>2011-06-12T15:28:48Z</time>
      </trkpt>
      <trkpt lat="45.63873" lon="6.24401">
        <ele>1398</ele>
        <time>2011-06-12T15:28:53Z</time>
      </trkpt>
      <trkpt lat="45.6387" lon="6.24394">
        <ele>1398</ele>
        <time>2011-06-12T15:28:58Z</time>
      </trkpt>
      <trkpt lat="45.63871" lon="6.24389">
        <ele>1396</ele>
        <time>2011-06-12T15:29:03Z</time>
      </trkpt>
      <trkpt lat="45.63872" lon="6.24383">
        <ele>1395</ele>
        <time>2011-06-12T15:29:08Z</time>
      </trkpt>
      <trkpt lat="45.63878" lon="6.24383">
        <ele>1393</ele>
        <time>2011-06-12T15:29:13Z</time>
      </trkpt>
      <trkpt lat="45.63874" lon="6.24379">
        <ele>1393</ele>
        <time>2011-06-12T15:29:18Z</time>
      </trkpt>
      <trkpt lat="45.63871" lon="6.24373">
        <ele>1393</ele>
        <time>2011-06-12T15:29:23Z</time>
      </trkpt>
      <trkpt lat="45.63866" lon="6.24365">
        <ele>1392</ele>
        <time>2011-06-12T15:29:28Z</time>
      </trkpt>
      <trkpt lat="45.63856" lon="6.24358">
        <ele>1392</ele>
        <time>2011-06-12T15:29:33Z</time>
      </trkpt>
      <trkpt lat="45.63854" lon="6.24354">
        <ele>1392</ele>
        <time>2011-06-12T15:29:38Z</time>
      </trkpt>
      <trkpt lat="45.6385" lon="6.24347">
        <ele>1391</ele>
        <time>2011-06-12T15:29:43Z</time>
      </trkpt>
      <trkpt lat="45.63846" lon="6.24335">
        <ele>1391</ele>
        <time>2011-06-12T15:29:48Z</time>
      </trkpt>
      <trkpt lat="45.63843" lon="6.24325">
        <ele>1378</ele>
        <time>2011-06-12T15:29:53Z</time>
      </trkpt>
      <trkpt lat="45.63836" lon="6.24319">
        <ele>1377</ele>
        <time>2011-06-12T15:29:58Z</time>
      </trkpt>
      <trkpt lat="45.63834" lon="6.24319">
        <ele>1378</ele>
        <time>2011-06-12T15:30:03Z</time>
      </trkpt>
      <trkpt lat="45.63837" lon="6.24317">
        <ele>1376</ele>
        <time>2011-06-12T15:30:08Z</time>
      </trkpt>
      <trkpt lat="45.63841" lon="6.24315">
        <ele>1373</ele>
        <time>2011-06-12T15:30:13Z</time>
      </trkpt>
      <trkpt lat="45.6385" lon="6.2431">
        <ele>1369</ele>
        <time>2011-06-12T15:30:18Z</time>
      </trkpt>
      <trkpt lat="45.63856" lon="6.24309">
        <ele>1367</ele>
        <time>2011-06-12T15:30:23Z</time>
      </trkpt>
      <trkpt lat="45.63865" lon="6.24308">
        <ele>1364</ele>
        <time>2011-06-12T15:30:28Z</time>
      </trkpt>
      <trkpt lat="45.63875" lon="6.24308">
        <ele>1361</ele>
        <time>2011-06-12T15:30:33Z</time>
      </trkpt>
      <trkpt lat="45.63879" lon="6.2431">
        <ele>1361</ele>
        <time>2011-06-12T15:30:38Z</time>
      </trkpt>
      <trkpt lat="45.63886" lon="6.24316">
        <ele>1360</ele>
        <time>2011-06-12T15:30:43Z</time>
      </trkpt>
      <trkpt lat="45.63894" lon="6.24315">
        <ele>1358</ele>
        <time>2011-06-12T15:30:48Z</time>
      </trkpt>
      <trkpt lat="45.63899" lon="6.24317">
        <ele>1358</ele>
        <time>2011-06-12T15:30:53Z</time>
      </trkpt>
      <trkpt lat="45.63903" lon="6.24323">
        <ele>1358</ele>
        <time>2011-06-12T15:30:58Z</time>
      </trkpt>
      <trkpt lat="45.63906" lon="6.24322">
        <ele>1358</ele>
        <time>2011-06-12T15:31:03Z</time>
      </trkpt>
      <trkpt lat="45.63908" lon="6.24322">
        <ele>1357</ele>
        <time>2011-06-12T15:31:08Z</time>
      </trkpt>
      <trkpt lat="45.63911" lon="6.24317">
        <ele>1357</ele>
        <time>2011-06-12T15:31:13Z</time>
      </trkpt>
      <trkpt lat="45.63911" lon="6.24309">
        <ele>1356</ele>
        <time>2011-06-12T15:31:18Z</time>
      </trkpt>
      <trkpt lat="45.63912" lon="6.24299">
        <ele>1354</ele>
        <time>2011-06-12T15:31:23Z</time>
      </trkpt>
      <trkpt lat="45.6391" lon="6.24292">
        <ele>1352</ele>
        <time>2011-06-12T15:31:28Z</time>
      </trkpt>
      <trkpt lat="45.63905" lon="6.24287">
        <ele>1351</ele>
        <time>2011-06-12T15:31:33Z</time>
      </trkpt>
      <trkpt lat="45.63907" lon="6.24284">
        <ele>1350</ele>
        <time>2011-06-12T15:31:38Z</time>
      </trkpt>
      <trkpt lat="45.63907" lon="6.2428">
        <ele>1349</ele>
        <time>2011-06-12T15:31:43Z</time>
      </trkpt>
      <trkpt lat="45.63908" lon="6.24276">
        <ele>1346</ele>
        <time>2011-06-12T15:31:48Z</time>
      </trkpt>
      <trkpt lat="45.63909" lon="6.24271">
        <ele>1344</ele>
        <time>2011-06-12T15:31:53Z</time>
      </trkpt>
      <trkpt lat="45.6391" lon="6.24265">
        <ele>1340</ele>
        <time>2011-06-12T15:31:58Z</time>
      </trkpt>
      <trkpt lat="45.63908" lon="6.2426">
        <ele>1338</ele>
        <time>2011-06-12T15:32:03Z</time>
      </trkpt>
      <trkpt lat="45.63905" lon="6.24254">
        <ele>1336</ele>
        <time>2011-06-12T15:32:08Z</time>
      </trkpt>
      <trkpt lat="45.639" lon="6.24245">
        <ele>1332</ele>
        <time>2011-06-12T15:35:53Z</time>
      </trkpt>
      <trkpt lat="45.63897" lon="6.24241">
        <ele>1333</ele>
        <time>2011-06-12T15:35:58Z</time>
      </trkpt>
      <trkpt lat="45.63899" lon="6.24236">
        <ele>1333</ele>
        <time>2011-06-12T15:36:03Z</time>
      </trkpt>
      <trkpt lat="45.63902" lon="6.24228">
        <ele>1333</ele>
        <time>2011-06-12T15:36:08Z</time>
      </trkpt>
      <trkpt lat="45.63904" lon="6.24218">
        <ele>1333</ele>
        <time>2011-06-12T15:36:13Z</time>
      </trkpt>
      <trkpt lat="45.63908" lon="6.2421">
        <ele>1332</ele>
        <time>2011-06-12T15:36:18Z</time>
      </trkpt>
      <trkpt lat="45.63919" lon="6.24206">
        <ele>1308</ele>
        <time>2011-06-12T15:36:23Z</time>
      </trkpt>
      <trkpt lat="45.63925" lon="6.24202">
        <ele>1308</ele>
        <time>2011-06-12T15:36:28Z</time>
      </trkpt>
      <trkpt lat="45.63926" lon="6.24199">
        <ele>1307</ele>
        <time>2011-06-12T15:36:33Z</time>
      </trkpt>
      <trkpt lat="45.63931" lon="6.24198">
        <ele>1307</ele>
        <time>2011-06-12T15:36:38Z</time>
      </trkpt>
      <trkpt lat="45.63931" lon="6.24198">
        <ele>1306</ele>
        <time>2011-06-12T15:36:43Z</time>
      </trkpt>
      <trkpt lat="45.63933" lon="6.24198">
        <ele>1306</ele>
        <time>2011-06-12T15:36:48Z</time>
      </trkpt>
      <trkpt lat="45.63934" lon="6.24198">
        <ele>1306</ele>
        <time>2011-06-12T15:36:53Z</time>
      </trkpt>
      <trkpt lat="45.63933" lon="6.24199">
        <ele>1306</ele>
        <time>2011-06-12T15:36:58Z</time>
      </trkpt>
      <trkpt lat="45.63933" lon="6.242">
        <ele>1306</ele>
        <time>2011-06-12T15:37:03Z</time>
      </trkpt>
      <trkpt lat="45.63936" lon="6.24197">
        <ele>1306</ele>
        <time>2011-06-12T15:37:08Z</time>
      </trkpt>
      <trkpt lat="45.63938" lon="6.24188">
        <ele>1305</ele>
        <time>2011-06-12T15:37:13Z</time>
      </trkpt>
      <trkpt lat="45.63938" lon="6.24178">
        <ele>1305</ele>
        <time>2011-06-12T15:37:18Z</time>
      </trkpt>
      <trkpt lat="45.63938" lon="6.24171">
        <ele>1305</ele>
        <time>2011-06-12T15:37:23Z</time>
      </trkpt>
      <trkpt lat="45.63939" lon="6.24164">
        <ele>1298</ele>
        <time>2011-06-12T15:37:28Z</time>
      </trkpt>
      <trkpt lat="45.63937" lon="6.24158">
        <ele>1299</ele>
        <time>2011-06-12T15:37:33Z</time>
      </trkpt>
      <trkpt lat="45.63935" lon="6.24151">
        <ele>1298</ele>
        <time>2011-06-12T15:37:38Z</time>
      </trkpt>
      <trkpt lat="45.63939" lon="6.24147">
        <ele>1297</ele>
        <time>2011-06-12T15:37:43Z</time>
      </trkpt>
      <trkpt lat="45.63941" lon="6.24138">
        <ele>1296</ele>
        <time>2011-06-12T15:37:48Z</time>
      </trkpt>
      <trkpt lat="45.63941" lon="6.24133">
        <ele>1295</ele>
        <time>2011-06-12T15:37:53Z</time>
      </trkpt>
      <trkpt lat="45.63943" lon="6.24126">
        <ele>1295</ele>
        <time>2011-06-12T15:37:58Z</time>
      </trkpt>
      <trkpt lat="45.63944" lon="6.24123">
        <ele>1295</ele>
        <time>2011-06-12T15:38:03Z</time>
      </trkpt>
      <trkpt lat="45.63944" lon="6.24117">
        <ele>1295</ele>
        <time>2011-06-12T15:38:08Z</time>
      </trkpt>
      <trkpt lat="45.63943" lon="6.24111">
        <ele>1296</ele>
        <time>2011-06-12T15:38:13Z</time>
      </trkpt>
      <trkpt lat="45.63947" lon="6.24108">
        <ele>1295</ele>
        <time>2011-06-12T15:38:18Z</time>
      </trkpt>
      <trkpt lat="45.63952" lon="6.24094">
        <ele>1294</ele>
        <time>2011-06-12T15:38:23Z</time>
      </trkpt>
      <trkpt lat="45.63957" lon="6.24081">
        <ele>1292</ele>
        <time>2011-06-12T15:38:28Z</time>
      </trkpt>
      <trkpt lat="45.63957" lon="6.24076">
        <ele>1292</ele>
        <time>2011-06-12T15:38:33Z</time>
      </trkpt>
      <trkpt lat="45.63956" lon="6.24067">
        <ele>1292</ele>
        <time>2011-06-12T15:38:38Z</time>
      </trkpt>
      <trkpt lat="45.63954" lon="6.24057">
        <ele>1293</ele>
        <time>2011-06-12T15:38:43Z</time>
      </trkpt>
      <trkpt lat="45.63953" lon="6.24051">
        <ele>1293</ele>
        <time>2011-06-12T15:38:48Z</time>
      </trkpt>
      <trkpt lat="45.6395" lon="6.24044">
        <ele>1294</ele>
        <time>2011-06-12T15:38:53Z</time>
      </trkpt>
      <trkpt lat="45.63951" lon="6.24035">
        <ele>1294</ele>
        <time>2011-06-12T15:38:58Z</time>
      </trkpt>
      <trkpt lat="45.63954" lon="6.24026">
        <ele>1293</ele>
        <time>2011-06-12T15:39:03Z</time>
      </trkpt>
      <trkpt lat="45.63957" lon="6.24017">
        <ele>1292</ele>
        <time>2011-06-12T15:39:08Z</time>
      </trkpt>
      <trkpt lat="45.63959" lon="6.24005">
        <ele>1291</ele>
        <time>2011-06-12T15:39:13Z</time>
      </trkpt>
      <trkpt lat="45.63963" lon="6.23994">
        <ele>1284</ele>
        <time>2011-06-12T15:39:18Z</time>
      </trkpt>
      <trkpt lat="45.63965" lon="6.23982">
        <ele>1283</ele>
        <time>2011-06-12T15:39:23Z</time>
      </trkpt>
      <trkpt lat="45.63968" lon="6.23971">
        <ele>1281</ele>
        <time>2011-06-12T15:39:28Z</time>
      </trkpt>
      <trkpt lat="45.63973" lon="6.23966">
        <ele>1280</ele>
        <time>2011-06-12T15:39:33Z</time>
      </trkpt>
      <trkpt lat="45.63977" lon="6.23963">
        <ele>1278</ele>
        <time>2011-06-12T15:39:38Z</time>
      </trkpt>
      <trkpt lat="45.6398" lon="6.23964">
        <ele>1278</ele>
        <time>2011-06-12T15:39:43Z</time>
      </trkpt>
      <trkpt lat="45.63987" lon="6.23964">
        <ele>1276</ele>
        <time>2011-06-12T15:39:48Z</time>
      </trkpt>
      <trkpt lat="45.6399" lon="6.2397">
        <ele>1276</ele>
        <time>2011-06-12T15:39:53Z</time>
      </trkpt>
      <trkpt lat="45.63996" lon="6.23974">
        <ele>1274</ele>
        <time>2011-06-12T15:39:58Z</time>
      </trkpt>
      <trkpt lat="45.64002" lon="6.2398">
        <ele>1246</ele>
        <time>2011-06-12T15:40:03Z</time>
      </trkpt>
      <trkpt lat="45.64005" lon="6.23981">
        <ele>1246</ele>
        <time>2011-06-12T15:40:08Z</time>
      </trkpt>
      <trkpt lat="45.64009" lon="6.23987">
        <ele>1248</ele>
        <time>2011-06-12T15:40:13Z</time>
      </trkpt>
      <trkpt lat="45.64016" lon="6.23993">
        <ele>1246</ele>
        <time>2011-06-12T15:40:18Z</time>
      </trkpt>
      <trkpt lat="45.64021" lon="6.23999">
        <ele>1244</ele>
        <time>2011-06-12T15:40:23Z</time>
      </trkpt>
      <trkpt lat="45.64021" lon="6.24001">
        <ele>1248</ele>
        <time>2011-06-12T15:40:28Z</time>
      </trkpt>
      <trkpt lat="45.64026" lon="6.23996">
        <ele>1240</ele>
        <time>2011-06-12T15:40:33Z</time>
      </trkpt>
      <trkpt lat="45.64034" lon="6.23994">
        <ele>1235</ele>
        <time>2011-06-12T15:40:38Z</time>
      </trkpt>
      <trkpt lat="45.64039" lon="6.23996">
        <ele>1232</ele>
        <time>2011-06-12T15:40:43Z</time>
      </trkpt>
      <trkpt lat="45.6404" lon="6.23989">
        <ele>1232</ele>
        <time>2011-06-12T15:40:48Z</time>
      </trkpt>
      <trkpt lat="45.64042" lon="6.23989">
        <ele>1231</ele>
        <time>2011-06-12T15:40:53Z</time>
      </trkpt>
      <trkpt lat="45.64044" lon="6.23984">
        <ele>1230</ele>
        <time>2011-06-12T15:40:58Z</time>
      </trkpt>
      <trkpt lat="45.64048" lon="6.23976">
        <ele>1228</ele>
        <time>2011-06-12T15:41:03Z</time>
      </trkpt>
      <trkpt lat="45.64051" lon="6.23977">
        <ele>1227</ele>
        <time>2011-06-12T15:41:08Z</time>
      </trkpt>
      <trkpt lat="45.64056" lon="6.23981">
        <ele>1225</ele>
        <time>2011-06-12T15:41:13Z</time>
      </trkpt>
      <trkpt lat="45.64058" lon="6.23985">
        <ele>1224</ele>
        <time>2011-06-12T15:41:18Z</time>
      </trkpt>
      <trkpt lat="45.64058" lon="6.23986">
        <ele>1224</ele>
        <time>2011-06-12T15:41:23Z</time>
      </trkpt>
      <trkpt lat="45.64061" lon="6.23985">
        <ele>1222</ele>
        <time>2011-06-12T15:41:28Z</time>
      </trkpt>
      <trkpt lat="45.64064" lon="6.23982">
        <ele>1221</ele>
        <time>2011-06-12T15:41:33Z</time>
      </trkpt>
      <trkpt lat="45.64064" lon="6.23978">
        <ele>1222</ele>
        <time>2011-06-12T15:41:38Z</time>
      </trkpt>
      <trkpt lat="45.64063" lon="6.23971">
        <ele>1223</ele>
        <time>2011-06-12T15:41:43Z</time>
      </trkpt>
      <trkpt lat="45.64065" lon="6.23967">
        <ele>1222</ele>
        <time>2011-06-12T15:41:48Z</time>
      </trkpt>
      <trkpt lat="45.64071" lon="6.23965">
        <ele>1221</ele>
        <time>2011-06-12T15:41:53Z</time>
      </trkpt>
      <trkpt lat="45.64075" lon="6.23966">
        <ele>1220</ele>
        <time>2011-06-12T15:41:58Z</time>
      </trkpt>
      <trkpt lat="45.64081" lon="6.23969">
        <ele>1219</ele>
        <time>2011-06-12T15:42:03Z</time>
      </trkpt>
      <trkpt lat="45.64082" lon="6.23971">
        <ele>1218</ele>
        <time>2011-06-12T15:42:08Z</time>
      </trkpt>
      <trkpt lat="45.64089" lon="6.23969">
        <ele>1191</ele>
        <time>2011-06-12T15:42:13Z</time>
      </trkpt>
      <trkpt lat="45.64094" lon="6.23973">
        <ele>1191</ele>
        <time>2011-06-12T15:42:18Z</time>
      </trkpt>
      <trkpt lat="45.64103" lon="6.23978">
        <ele>1190</ele>
        <time>2011-06-12T15:42:23Z</time>
      </trkpt>
      <trkpt lat="45.64108" lon="6.23984">
        <ele>1189</ele>
        <time>2011-06-12T15:42:28Z</time>
      </trkpt>
      <trkpt lat="45.64113" lon="6.23989">
        <ele>1188</ele>
        <time>2011-06-12T15:42:33Z</time>
      </trkpt>
      <trkpt lat="45.64118" lon="6.23997">
        <ele>1186</ele>
        <time>2011-06-12T15:42:38Z</time>
      </trkpt>
      <trkpt lat="45.64122" lon="6.24008">
        <ele>1195</ele>
        <time>2011-06-12T15:42:43Z</time>
      </trkpt>
      <trkpt lat="45.64119" lon="6.24012">
        <ele>1196</ele>
        <time>2011-06-12T15:42:48Z</time>
      </trkpt>
      <trkpt lat="45.64124" lon="6.24011">
        <ele>1195</ele>
        <time>2011-06-12T15:42:53Z</time>
      </trkpt>
      <trkpt lat="45.64131" lon="6.24008">
        <ele>1192</ele>
        <time>2011-06-12T15:42:58Z</time>
      </trkpt>
      <trkpt lat="45.64138" lon="6.24006">
        <ele>1189</ele>
        <time>2011-06-12T15:43:03Z</time>
      </trkpt>
      <trkpt lat="45.64142" lon="6.24002">
        <ele>1187</ele>
        <time>2011-06-12T15:43:08Z</time>
      </trkpt>
      <trkpt lat="45.64149" lon="6.24003">
        <ele>1183</ele>
        <time>2011-06-12T15:43:13Z</time>
      </trkpt>
      <trkpt lat="45.64155" lon="6.24006">
        <ele>1179</ele>
        <time>2011-06-12T15:43:18Z</time>
      </trkpt>
      <trkpt lat="45.64159" lon="6.24009">
        <ele>1178</ele>
        <time>2011-06-12T15:43:23Z</time>
      </trkpt>
      <trkpt lat="45.64162" lon="6.2401">
        <ele>1178</ele>
        <time>2011-06-12T15:43:28Z</time>
      </trkpt>
      <trkpt lat="45.64165" lon="6.24009">
        <ele>1176</ele>
        <time>2011-06-12T15:43:33Z</time>
      </trkpt>
      <trkpt lat="45.6417" lon="6.24011">
        <ele>1170</ele>
        <time>2011-06-12T15:43:38Z</time>
      </trkpt>
      <trkpt lat="45.64169" lon="6.24016">
        <ele>1172</ele>
        <time>2011-06-12T15:43:43Z</time>
      </trkpt>
      <trkpt lat="45.64169" lon="6.24018">
        <ele>1172</ele>
        <time>2011-06-12T15:43:48Z</time>
      </trkpt>
      <trkpt lat="45.64169" lon="6.24015">
        <ele>1171</ele>
        <time>2011-06-12T15:43:53Z</time>
      </trkpt>
      <trkpt lat="45.64174" lon="6.24017">
        <ele>1173</ele>
        <time>2011-06-12T15:43:58Z</time>
      </trkpt>
      <trkpt lat="45.64181" lon="6.24023">
        <ele>1175</ele>
        <time>2011-06-12T15:44:03Z</time>
      </trkpt>
      <trkpt lat="45.64181" lon="6.24032">
        <ele>1177</ele>
        <time>2011-06-12T15:44:08Z</time>
      </trkpt>
      <trkpt lat="45.64182" lon="6.24035">
        <ele>1178</ele>
        <time>2011-06-12T15:44:13Z</time>
      </trkpt>
      <trkpt lat="45.64185" lon="6.24035">
        <ele>1178</ele>
        <time>2011-06-12T15:44:18Z</time>
      </trkpt>
      <trkpt lat="45.64185" lon="6.24037">
        <ele>1179</ele>
        <time>2011-06-12T15:44:23Z</time>
      </trkpt>
      <trkpt lat="45.64188" lon="6.24039">
        <ele>1179</ele>
        <time>2011-06-12T15:44:28Z</time>
      </trkpt>
      <trkpt lat="45.6419" lon="6.24039">
        <ele>1179</ele>
        <time>2011-06-12T15:44:33Z</time>
      </trkpt>
      <trkpt lat="45.64194" lon="6.24039">
        <ele>1179</ele>
        <time>2011-06-12T15:44:38Z</time>
      </trkpt>
      <trkpt lat="45.64197" lon="6.24031">
        <ele>1176</ele>
        <time>2011-06-12T15:44:43Z</time>
      </trkpt>
      <trkpt lat="45.64199" lon="6.24024">
        <ele>1174</ele>
        <time>2011-06-12T15:44:48Z</time>
      </trkpt>
      <trkpt lat="45.64203" lon="6.24017">
        <ele>1172</ele>
        <time>2011-06-12T15:44:53Z</time>
      </trkpt>
      <trkpt lat="45.64208" lon="6.24013">
        <ele>1171</ele>
        <time>2011-06-12T15:44:58Z</time>
      </trkpt>
      <trkpt lat="45.64211" lon="6.24013">
        <ele>1171</ele>
        <time>2011-06-12T15:45:03Z</time>
      </trkpt>
      <trkpt lat="45.64213" lon="6.24018">
        <ele>1171</ele>
        <time>2011-06-12T15:45:08Z</time>
      </trkpt>
      <trkpt lat="45.64216" lon="6.24014">
        <ele>1170</ele>
        <time>2011-06-12T15:45:13Z</time>
      </trkpt>
      <trkpt lat="45.64224" lon="6.24012">
        <ele>1167</ele>
        <time>2011-06-12T15:45:18Z</time>
      </trkpt>
      <trkpt lat="45.64225" lon="6.24013">
        <ele>1167</ele>
        <time>2011-06-12T15:45:23Z</time>
      </trkpt>
      <trkpt lat="45.64231" lon="6.24013">
        <ele>1164</ele>
        <time>2011-06-12T15:45:28Z</time>
      </trkpt>
      <trkpt lat="45.64237" lon="6.24014">
        <ele>1163</ele>
        <time>2011-06-12T15:45:33Z</time>
      </trkpt>
      <trkpt lat="45.64247" lon="6.24014">
        <ele>1159</ele>
        <time>2011-06-12T15:45:38Z</time>
      </trkpt>
      <trkpt lat="45.6426" lon="6.2402">
        <ele>1154</ele>
        <time>2011-06-12T15:45:43Z</time>
      </trkpt>
      <trkpt lat="45.64267" lon="6.24024">
        <ele>1155</ele>
        <time>2011-06-12T15:45:48Z</time>
      </trkpt>
      <trkpt lat="45.64272" lon="6.24025">
        <ele>1156</ele>
        <time>2011-06-12T15:45:53Z</time>
      </trkpt>
      <trkpt lat="45.64275" lon="6.24027">
        <ele>1156</ele>
        <time>2011-06-12T15:45:58Z</time>
      </trkpt>
      <trkpt lat="45.64275" lon="6.2403">
        <ele>1157</ele>
        <time>2011-06-12T15:46:03Z</time>
      </trkpt>
      <trkpt lat="45.64278" lon="6.24035">
        <ele>1158</ele>
        <time>2011-06-12T15:46:08Z</time>
      </trkpt>
      <trkpt lat="45.64287" lon="6.24048">
        <ele>1161</ele>
        <time>2011-06-12T15:47:38Z</time>
      </trkpt>
      <trkpt lat="45.6429" lon="6.24048">
        <ele>1161</ele>
        <time>2011-06-12T15:47:43Z</time>
      </trkpt>
      <trkpt lat="45.64293" lon="6.24051">
        <ele>1161</ele>
        <time>2011-06-12T15:47:48Z</time>
      </trkpt>
      <trkpt lat="45.64296" lon="6.24055">
        <ele>1162</ele>
        <time>2011-06-12T15:47:53Z</time>
      </trkpt>
      <trkpt lat="45.643" lon="6.24059">
        <ele>1163</ele>
        <time>2011-06-12T15:47:58Z</time>
      </trkpt>
      <trkpt lat="45.64304" lon="6.24063">
        <ele>1163</ele>
        <time>2011-06-12T15:48:03Z</time>
      </trkpt>
      <trkpt lat="45.64308" lon="6.24069">
        <ele>1164</ele>
        <time>2011-06-12T15:48:08Z</time>
      </trkpt>
      <trkpt lat="45.64311" lon="6.24073">
        <ele>1165</ele>
        <time>2011-06-12T15:48:13Z</time>
      </trkpt>
      <trkpt lat="45.64313" lon="6.24075">
        <ele>1166</ele>
        <time>2011-06-12T15:48:18Z</time>
      </trkpt>
      <trkpt lat="45.64316" lon="6.24076">
        <ele>1166</ele>
        <time>2011-06-12T15:48:23Z</time>
      </trkpt>
      <trkpt lat="45.64319" lon="6.24077">
        <ele>1166</ele>
        <time>2011-06-12T15:48:28Z</time>
      </trkpt>
      <trkpt lat="45.64324" lon="6.24079">
        <ele>1168</ele>
        <time>2011-06-12T15:48:33Z</time>
      </trkpt>
      <trkpt lat="45.64326" lon="6.2408">
        <ele>1168</ele>
        <time>2011-06-12T15:48:38Z</time>
      </trkpt>
      <trkpt lat="45.64333" lon="6.24082">
        <ele>1171</ele>
        <time>2011-06-12T15:48:43Z</time>
      </trkpt>
      <trkpt lat="45.6434" lon="6.24086">
        <ele>1178</ele>
        <time>2011-06-12T15:48:48Z</time>
      </trkpt>
      <trkpt lat="45.6435" lon="6.24089">
        <ele>1183</ele>
        <time>2011-06-12T15:48:53Z</time>
      </trkpt>
      <trkpt lat="45.64356" lon="6.24094">
        <ele>1186</ele>
        <time>2011-06-12T15:48:58Z</time>
      </trkpt>
      <trkpt lat="45.64359" lon="6.24098">
        <ele>1188</ele>
        <time>2011-06-12T15:49:03Z</time>
      </trkpt>
      <trkpt lat="45.64357" lon="6.24097">
        <ele>1187</ele>
        <time>2011-06-12T15:49:18Z</time>
      </trkpt>
      <trkpt lat="45.6436" lon="6.24093">
        <ele>1187</ele>
        <time>2011-06-12T15:49:23Z</time>
      </trkpt>
      <trkpt lat="45.64364" lon="6.24091">
        <ele>1187</ele>
        <time>2011-06-12T15:49:28Z</time>
      </trkpt>
      <trkpt lat="45.64369" lon="6.24088">
        <ele>1187</ele>
        <time>2011-06-12T15:49:33Z</time>
      </trkpt>
      <trkpt lat="45.64372" lon="6.24084">
        <ele>1186</ele>
        <time>2011-06-12T15:49:38Z</time>
      </trkpt>
      <trkpt lat="45.64378" lon="6.24085">
        <ele>1186</ele>
        <time>2011-06-12T15:49:43Z</time>
      </trkpt>
      <trkpt lat="45.64383" lon="6.24082">
        <ele>1154</ele>
        <time>2011-06-12T15:49:48Z</time>
      </trkpt>
      <trkpt lat="45.6439" lon="6.24084">
        <ele>1184</ele>
        <time>2011-06-12T15:49:53Z</time>
      </trkpt>
      <trkpt lat="45.64399" lon="6.24084">
        <ele>1181</ele>
        <time>2011-06-12T15:49:58Z</time>
      </trkpt>
      <trkpt lat="45.64406" lon="6.24082">
        <ele>1160</ele>
        <time>2011-06-12T15:50:03Z</time>
      </trkpt>
      <trkpt lat="45.64412" lon="6.24081">
        <ele>1163</ele>
        <time>2011-06-12T15:50:08Z</time>
      </trkpt>
      <trkpt lat="45.6442" lon="6.2408">
        <ele>1161</ele>
        <time>2011-06-12T15:50:13Z</time>
      </trkpt>
      <trkpt lat="45.6443" lon="6.24082">
        <ele>1155</ele>
        <time>2011-06-12T15:50:18Z</time>
      </trkpt>
      <trkpt lat="45.64438" lon="6.24077">
        <ele>1151</ele>
        <time>2011-06-12T15:50:23Z</time>
      </trkpt>
      <trkpt lat="45.64441" lon="6.24076">
        <ele>1149</ele>
        <time>2011-06-12T15:50:28Z</time>
      </trkpt>
      <trkpt lat="45.64446" lon="6.24077">
        <ele>1148</ele>
        <time>2011-06-12T15:50:33Z</time>
      </trkpt>
      <trkpt lat="45.64451" lon="6.24073">
        <ele>1146</ele>
        <time>2011-06-12T15:50:38Z</time>
      </trkpt>
      <trkpt lat="45.64452" lon="6.24071">
        <ele>1146</ele>
        <time>2011-06-12T15:50:43Z</time>
      </trkpt>
      <trkpt lat="45.64459" lon="6.24067">
        <ele>1144</ele>
        <time>2011-06-12T15:50:48Z</time>
      </trkpt>
      <trkpt lat="45.64461" lon="6.24069">
        <ele>1145</ele>
        <time>2011-06-12T15:50:53Z</time>
      </trkpt>
      <trkpt lat="45.64468" lon="6.24067">
        <ele>1144</ele>
        <time>2011-06-12T15:50:58Z</time>
      </trkpt>
      <trkpt lat="45.64475" lon="6.24065">
        <ele>1144</ele>
        <time>2011-06-12T15:51:03Z</time>
      </trkpt>
      <trkpt lat="45.64481" lon="6.24063">
        <ele>1144</ele>
        <time>2011-06-12T15:51:08Z</time>
      </trkpt>
      <trkpt lat="45.64485" lon="6.2406">
        <ele>1143</ele>
        <time>2011-06-12T15:51:13Z</time>
      </trkpt>
      <trkpt lat="45.64488" lon="6.24056">
        <ele>1142</ele>
        <time>2011-06-12T15:51:18Z</time>
      </trkpt>
      <trkpt lat="45.64494" lon="6.24054">
        <ele>1141</ele>
        <time>2011-06-12T15:51:23Z</time>
      </trkpt>
      <trkpt lat="45.64502" lon="6.24053">
        <ele>1133</ele>
        <time>2011-06-12T15:51:28Z</time>
      </trkpt>
      <trkpt lat="45.64513" lon="6.24052">
        <ele>1132</ele>
        <time>2011-06-12T15:51:33Z</time>
      </trkpt>
      <trkpt lat="45.64522" lon="6.24055">
        <ele>1132</ele>
        <time>2011-06-12T15:51:38Z</time>
      </trkpt>
      <trkpt lat="45.64526" lon="6.24049">
        <ele>1129</ele>
        <time>2011-06-12T15:51:43Z</time>
      </trkpt>
      <trkpt lat="45.64534" lon="6.24047">
        <ele>1127</ele>
        <time>2011-06-12T15:51:48Z</time>
      </trkpt>
      <trkpt lat="45.64546" lon="6.24045">
        <ele>1125</ele>
        <time>2011-06-12T15:51:53Z</time>
      </trkpt>
      <trkpt lat="45.64554" lon="6.24046">
        <ele>1125</ele>
        <time>2011-06-12T15:51:58Z</time>
      </trkpt>
      <trkpt lat="45.64561" lon="6.24044">
        <ele>1124</ele>
        <time>2011-06-12T15:52:03Z</time>
      </trkpt>
      <trkpt lat="45.64568" lon="6.24043">
        <ele>1123</ele>
        <time>2011-06-12T15:52:08Z</time>
      </trkpt>
      <trkpt lat="45.64573" lon="6.24043">
        <ele>1123</ele>
        <time>2011-06-12T15:52:13Z</time>
      </trkpt>
      <trkpt lat="45.64578" lon="6.24046">
        <ele>1124</ele>
        <time>2011-06-12T15:52:18Z</time>
      </trkpt>
      <trkpt lat="45.64586" lon="6.24047">
        <ele>1112</ele>
        <time>2011-06-12T15:52:23Z</time>
      </trkpt>
      <trkpt lat="45.64586" lon="6.24047">
        <ele>1113</ele>
        <time>2011-06-12T15:52:28Z</time>
      </trkpt>
      <trkpt lat="45.64591" lon="6.24046">
        <ele>1112</ele>
        <time>2011-06-12T15:52:33Z</time>
      </trkpt>
      <trkpt lat="45.64596" lon="6.24047">
        <ele>1112</ele>
        <time>2011-06-12T15:52:38Z</time>
      </trkpt>
      <trkpt lat="45.64601" lon="6.24046">
        <ele>1111</ele>
        <time>2011-06-12T15:52:43Z</time>
      </trkpt>
      <trkpt lat="45.64608" lon="6.24044">
        <ele>1109</ele>
        <time>2011-06-12T15:52:48Z</time>
      </trkpt>
      <trkpt lat="45.6461" lon="6.24046">
        <ele>1109</ele>
        <time>2011-06-12T15:52:53Z</time>
      </trkpt>
      <trkpt lat="45.64619" lon="6.24043">
        <ele>1107</ele>
        <time>2011-06-12T15:52:58Z</time>
      </trkpt>
      <trkpt lat="45.64627" lon="6.24041">
        <ele>1106</ele>
        <time>2011-06-12T15:53:03Z</time>
      </trkpt>
      <trkpt lat="45.6463" lon="6.24046">
        <ele>1106</ele>
        <time>2011-06-12T15:53:08Z</time>
      </trkpt>
      <trkpt lat="45.64632" lon="6.2405">
        <ele>1107</ele>
        <time>2011-06-12T15:53:13Z</time>
      </trkpt>
      <trkpt lat="45.64637" lon="6.24049">
        <ele>1106</ele>
        <time>2011-06-12T15:53:18Z</time>
      </trkpt>
      <trkpt lat="45.64638" lon="6.24048">
        <ele>1106</ele>
        <time>2011-06-12T15:53:23Z</time>
      </trkpt>
      <trkpt lat="45.64642" lon="6.24041">
        <ele>1103</ele>
        <time>2011-06-12T15:53:28Z</time>
      </trkpt>
      <trkpt lat="45.64641" lon="6.24035">
        <ele>1102</ele>
        <time>2011-06-12T15:53:33Z</time>
      </trkpt>
      <trkpt lat="45.64643" lon="6.24028">
        <ele>1100</ele>
        <time>2011-06-12T15:53:38Z</time>
      </trkpt>
      <trkpt lat="45.64642" lon="6.24022">
        <ele>1098</ele>
        <time>2011-06-12T15:53:43Z</time>
      </trkpt>
      <trkpt lat="45.64639" lon="6.24015">
        <ele>1098</ele>
        <time>2011-06-12T15:53:48Z</time>
      </trkpt>
      <trkpt lat="45.64639" lon="6.24011">
        <ele>1097</ele>
        <time>2011-06-12T15:53:53Z</time>
      </trkpt>
      <trkpt lat="45.64638" lon="6.24007">
        <ele>1096</ele>
        <time>2011-06-12T15:53:58Z</time>
      </trkpt>
      <trkpt lat="45.64636" lon="6.24004">
        <ele>1096</ele>
        <time>2011-06-12T15:54:03Z</time>
      </trkpt>
      <trkpt lat="45.64632" lon="6.24002">
        <ele>1097</ele>
        <time>2011-06-12T15:54:08Z</time>
      </trkpt>
      <trkpt lat="45.64627" lon="6.24001">
        <ele>1098</ele>
        <time>2011-06-12T15:54:13Z</time>
      </trkpt>
      <trkpt lat="45.64628" lon="6.23996">
        <ele>1074</ele>
        <time>2011-06-12T15:54:18Z</time>
      </trkpt>
      <trkpt lat="45.64625" lon="6.2399">
        <ele>1073</ele>
        <time>2011-06-12T15:54:23Z</time>
      </trkpt>
      <trkpt lat="45.64621" lon="6.23983">
        <ele>1073</ele>
        <time>2011-06-12T15:54:28Z</time>
      </trkpt>
      <trkpt lat="45.64619" lon="6.2398">
        <ele>1072</ele>
        <time>2011-06-12T15:54:33Z</time>
      </trkpt>
      <trkpt lat="45.64621" lon="6.23978">
        <ele>1072</ele>
        <time>2011-06-12T15:54:38Z</time>
      </trkpt>
      <trkpt lat="45.64624" lon="6.23973">
        <ele>1070</ele>
        <time>2011-06-12T15:54:43Z</time>
      </trkpt>
      <trkpt lat="45.64625" lon="6.23971">
        <ele>1070</ele>
        <time>2011-06-12T15:54:48Z</time>
      </trkpt>
      <trkpt lat="45.64624" lon="6.23972">
        <ele>1070</ele>
        <time>2011-06-12T15:54:53Z</time>
      </trkpt>
      <trkpt lat="45.64629" lon="6.23971">
        <ele>1069</ele>
        <time>2011-06-12T15:54:58Z</time>
      </trkpt>
      <trkpt lat="45.64627" lon="6.23969">
        <ele>1069</ele>
        <time>2011-06-12T15:55:03Z</time>
      </trkpt>
      <trkpt lat="45.64629" lon="6.23969">
        <ele>1069</ele>
        <time>2011-06-12T15:55:08Z</time>
      </trkpt>
      <trkpt lat="45.6463" lon="6.23969">
        <ele>1069</ele>
        <time>2011-06-12T15:55:13Z</time>
      </trkpt>
      <trkpt lat="45.64628" lon="6.23974">
        <ele>1070</ele>
        <time>2011-06-12T15:55:18Z</time>
      </trkpt>
      <trkpt lat="45.64626" lon="6.23975">
        <ele>1070</ele>
        <time>2011-06-12T15:55:23Z</time>
      </trkpt>
      <trkpt lat="45.64626" lon="6.23976">
        <ele>1071</ele>
        <time>2011-06-12T15:55:28Z</time>
      </trkpt>
      <trkpt lat="45.64631" lon="6.23975">
        <ele>1070</ele>
        <time>2011-06-12T15:55:33Z</time>
      </trkpt>
      <trkpt lat="45.64629" lon="6.23969">
        <ele>1069</ele>
        <time>2011-06-12T15:55:38Z</time>
      </trkpt>
      <trkpt lat="45.64626" lon="6.23964">
        <ele>1068</ele>
        <time>2011-06-12T15:55:43Z</time>
      </trkpt>
      <trkpt lat="45.64627" lon="6.23958">
        <ele>1067</ele>
        <time>2011-06-12T15:55:48Z</time>
      </trkpt>
      <trkpt lat="45.64627" lon="6.23953">
        <ele>1066</ele>
        <time>2011-06-12T15:55:53Z</time>
      </trkpt>
      <trkpt lat="45.64632" lon="6.23944">
        <ele>1063</ele>
        <time>2011-06-12T15:55:58Z</time>
      </trkpt>
      <trkpt lat="45.64633" lon="6.23937">
        <ele>1061</ele>
        <time>2011-06-12T15:56:03Z</time>
      </trkpt>
      <trkpt lat="45.64629" lon="6.23923">
        <ele>1060</ele>
        <time>2011-06-12T15:56:08Z</time>
      </trkpt>
      <trkpt lat="45.64631" lon="6.23919">
        <ele>1059</ele>
        <time>2011-06-12T15:56:13Z</time>
      </trkpt>
      <trkpt lat="45.64644" lon="6.2391">
        <ele>1041</ele>
        <time>2011-06-12T15:56:18Z</time>
      </trkpt>
      <trkpt lat="45.64657" lon="6.23903">
        <ele>1041</ele>
        <time>2011-06-12T15:56:23Z</time>
      </trkpt>
      <trkpt lat="45.6466" lon="6.239">
        <ele>1041</ele>
        <time>2011-06-12T15:56:28Z</time>
      </trkpt>
      <trkpt lat="45.6466" lon="6.23895">
        <ele>1040</ele>
        <time>2011-06-12T15:56:33Z</time>
      </trkpt>
      <trkpt lat="45.6466" lon="6.23893">
        <ele>1040</ele>
        <time>2011-06-12T15:56:38Z</time>
      </trkpt>
      <trkpt lat="45.64657" lon="6.23882">
        <ele>1039</ele>
        <time>2011-06-12T15:56:43Z</time>
      </trkpt>
      <trkpt lat="45.64652" lon="6.23878">
        <ele>1039</ele>
        <time>2011-06-12T15:56:48Z</time>
      </trkpt>
      <trkpt lat="45.64645" lon="6.23873">
        <ele>1038</ele>
        <time>2011-06-12T15:56:53Z</time>
      </trkpt>
      <trkpt lat="45.64647" lon="6.23861">
        <ele>1037</ele>
        <time>2011-06-12T15:56:58Z</time>
      </trkpt>
      <trkpt lat="45.64639" lon="6.23854">
        <ele>1037</ele>
        <time>2011-06-12T15:57:03Z</time>
      </trkpt>
      <trkpt lat="45.64637" lon="6.23848">
        <ele>1036</ele>
        <time>2011-06-12T15:57:08Z</time>
      </trkpt>
      <trkpt lat="45.64642" lon="6.23844">
        <ele>1036</ele>
        <time>2011-06-12T15:57:13Z</time>
      </trkpt>
      <trkpt lat="45.64647" lon="6.23845">
        <ele>1036</ele>
        <time>2011-06-12T15:57:18Z</time>
      </trkpt>
      <trkpt lat="45.64651" lon="6.23843">
        <ele>1036</ele>
        <time>2011-06-12T15:57:23Z</time>
      </trkpt>
      <trkpt lat="45.6465" lon="6.23838">
        <ele>1035</ele>
        <time>2011-06-12T15:57:28Z</time>
      </trkpt>
      <trkpt lat="45.64638" lon="6.23835">
        <ele>1036</ele>
        <time>2011-06-12T15:57:33Z</time>
      </trkpt>
      <trkpt lat="45.64646" lon="6.23829">
        <ele>1032</ele>
        <time>2011-06-12T15:57:38Z</time>
      </trkpt>
      <trkpt lat="45.64643" lon="6.23824">
        <ele>1032</ele>
        <time>2011-06-12T15:57:43Z</time>
      </trkpt>
      <trkpt lat="45.64641" lon="6.23825">
        <ele>1032</ele>
        <time>2011-06-12T15:57:48Z</time>
      </trkpt>
      <trkpt lat="45.64633" lon="6.23826">
        <ele>1032</ele>
        <time>2011-06-12T15:57:53Z</time>
      </trkpt>
      <trkpt lat="45.64633" lon="6.23826">
        <ele>1032</ele>
        <time>2011-06-12T15:57:58Z</time>
      </trkpt>
      <trkpt lat="45.64633" lon="6.23827">
        <ele>1032</ele>
        <time>2011-06-12T15:58:03Z</time>
      </trkpt>
      <trkpt lat="45.64632" lon="6.23824">
        <ele>1032</ele>
        <time>2011-06-12T15:58:08Z</time>
      </trkpt>
      <trkpt lat="45.64631" lon="6.23825">
        <ele>1032</ele>
        <time>2011-06-12T15:58:13Z</time>
      </trkpt>
      <trkpt lat="45.64632" lon="6.23825">
        <ele>1032</ele>
        <time>2011-06-12T15:58:18Z</time>
      </trkpt>
      <trkpt lat="45.64636" lon="6.23824">
        <ele>1032</ele>
        <time>2011-06-12T15:58:23Z</time>
      </trkpt>
      <trkpt lat="45.64649" lon="6.23826">
        <ele>1033</ele>
        <time>2011-06-12T15:58:28Z</time>
      </trkpt>
      <trkpt lat="45.64652" lon="6.23826">
        <ele>1033</ele>
        <time>2011-06-12T15:58:33Z</time>
      </trkpt>
      <trkpt lat="45.64653" lon="6.23827">
        <ele>1033</ele>
        <time>2011-06-12T15:58:38Z</time>
      </trkpt>
      <trkpt lat="45.64652" lon="6.23825">
        <ele>1033</ele>
        <time>2011-06-12T15:58:43Z</time>
      </trkpt>
      <trkpt lat="45.64652" lon="6.23821">
        <ele>1033</ele>
        <time>2011-06-12T15:58:48Z</time>
      </trkpt>
      <trkpt lat="45.64652" lon="6.23821">
        <ele>1033</ele>
        <time>2011-06-12T15:58:53Z</time>
      </trkpt>
      <trkpt lat="45.6465" lon="6.23818">
        <ele>1033</ele>
        <time>2011-06-12T15:58:58Z</time>
      </trkpt>
      <trkpt lat="45.64645" lon="6.23816">
        <ele>1033</ele>
        <time>2011-06-12T15:59:03Z</time>
      </trkpt>
      <trkpt lat="45.64642" lon="6.23814">
        <ele>1033</ele>
        <time>2011-06-12T15:59:08Z</time>
      </trkpt>
      <trkpt lat="45.64645" lon="6.23813">
        <ele>1033</ele>
        <time>2011-06-12T15:59:13Z</time>
      </trkpt>
      <trkpt lat="45.64641" lon="6.23806">
        <ele>1033</ele>
        <time>2011-06-12T15:59:18Z</time>
      </trkpt>
      <trkpt lat="45.64637" lon="6.23801">
        <ele>1033</ele>
        <time>2011-06-12T15:59:23Z</time>
      </trkpt>
      <trkpt lat="45.64634" lon="6.23795">
        <ele>1033</ele>
        <time>2011-06-12T15:59:28Z</time>
      </trkpt>
      <trkpt lat="45.64631" lon="6.23787">
        <ele>1033</ele>
        <time>2011-06-12T15:59:33Z</time>
      </trkpt>
      <trkpt lat="45.64631" lon="6.23785">
        <ele>1033</ele>
        <time>2011-06-12T15:59:38Z</time>
      </trkpt>
      <trkpt lat="45.64627" lon="6.2378">
        <ele>1032</ele>
        <time>2011-06-12T15:59:43Z</time>
      </trkpt>
      <trkpt lat="45.64624" lon="6.23776">
        <ele>1032</ele>
        <time>2011-06-12T15:59:48Z</time>
      </trkpt>
      <trkpt lat="45.64623" lon="6.23772">
        <ele>1032</ele>
        <time>2011-06-12T15:59:53Z</time>
      </trkpt>
      <trkpt lat="45.6462" lon="6.23766">
        <ele>1031</ele>
        <time>2011-06-12T15:59:58Z</time>
      </trkpt>
      <trkpt lat="45.64619" lon="6.23762">
        <ele>1031</ele>
        <time>2011-06-12T16:00:03Z</time>
      </trkpt>
      <trkpt lat="45.64616" lon="6.23757">
        <ele>1030</ele>
        <time>2011-06-12T16:00:08Z</time>
      </trkpt>
      <trkpt lat="45.6461" lon="6.23752">
        <ele>1028</ele>
        <time>2011-06-12T16:00:13Z</time>
      </trkpt>
      <trkpt lat="45.64606" lon="6.23748">
        <ele>1031</ele>
        <time>2011-06-12T16:00:18Z</time>
      </trkpt>
      <trkpt lat="45.64604" lon="6.23743">
        <ele>1030</ele>
        <time>2011-06-12T16:00:23Z</time>
      </trkpt>
      <trkpt lat="45.64601" lon="6.23738">
        <ele>1030</ele>
        <time>2011-06-12T16:00:28Z</time>
      </trkpt>
      <trkpt lat="45.64523" lon="6.23329">
        <ele>1012</ele>
        <time>2011-06-12T16:17:38Z</time>
      </trkpt>
      <trkpt lat="45.645" lon="6.23256">
        <ele>1008</ele>
        <time>2011-06-12T16:18:08Z</time>
      </trkpt>
      <trkpt lat="45.6452" lon="6.23188">
        <ele>1014</ele>
        <time>2011-06-12T16:18:53Z</time>
      </trkpt>
      <trkpt lat="45.64513" lon="6.23147">
        <ele>1013</ele>
        <time>2011-06-12T16:19:13Z</time>
      </trkpt>
      <trkpt lat="45.64521" lon="6.22969">
        <ele>1002</ele>
        <time>2011-06-12T16:21:03Z</time>
      </trkpt>
      <trkpt lat="45.64527" lon="6.22968">
        <ele>1003</ele>
        <time>2011-06-12T16:21:08Z</time>
      </trkpt>
      <trkpt lat="45.64521" lon="6.22959">
        <ele>1001</ele>
        <time>2011-06-12T16:21:13Z</time>
      </trkpt>
      <trkpt lat="45.6452" lon="6.22954">
        <ele>1001</ele>
        <time>2011-06-12T16:21:18Z</time>
      </trkpt>
      <trkpt lat="45.64517" lon="6.22951">
        <ele>1000</ele>
        <time>2011-06-12T16:21:23Z</time>
      </trkpt>
      <trkpt lat="45.64517" lon="6.22947">
        <ele>1000</ele>
        <time>2011-06-12T16:21:28Z</time>
      </trkpt>
      <trkpt lat="45.64517" lon="6.22945">
        <ele>1000</ele>
        <time>2011-06-12T16:21:33Z</time>
      </trkpt>
      <trkpt lat="45.64518" lon="6.22941">
        <ele>999</ele>
        <time>2011-06-12T16:21:38Z</time>
      </trkpt>
      <trkpt lat="45.64517" lon="6.22942">
        <ele>999</ele>
        <time>2011-06-12T16:21:43Z</time>
      </trkpt>
      <trkpt lat="45.64516" lon="6.22943">
        <ele>999</ele>
        <time>2011-06-12T16:21:48Z</time>
      </trkpt>
    </trkseg>
  </trk>
</gpx>